<?xml version='1.0' encoding='UTF-8'?><gpx version="1.1" creator="JPX - https://github.com/jenetics/jpx" xmlns="http://www.topografix.com/GPX/1/1"><trk><trkseg><trkpt lat="36.85099251138415" lon="15.106818219977997"><ele>20.400000000000002</ele><time>2026-03-28T14:08:13Z</time></trkpt><trkpt lat="36.8509069416624" lon="15.106744834654581"><ele>18.8</ele><time>2026-03-28T14:08:15Z</time></trkpt><trkpt lat="36.85081473144578" lon="15.106663107594555"><ele>17.2</ele><time>2026-03-28T14:08:16Z</time></trkpt><trkpt lat="36.85073581121537" lon="15.10659226271048"><ele>15.6</ele><time>2026-03-28T14:08:17Z</time></trkpt><trkpt lat="36.85066492883909" lon="15.106526402079135"><ele>14.0</ele><time>2026-03-28T14:08:18Z</time></trkpt><trkpt lat="36.85058741478257" lon="15.106457021438487"><ele>14.0</ele><time>2026-03-28T14:08:19Z</time></trkpt><trkpt lat="36.85049630481011" lon="15.106375627852152"><ele>13.999999999999998</ele><time>2026-03-28T14:08:20Z</time></trkpt><trkpt lat="36.85041577391361" lon="15.106303405499077"><ele>13.999999999999998</ele><time>2026-03-28T14:08:21Z</time></trkpt><trkpt lat="36.85035528016239" lon="15.106231819992797"><ele>14.0</ele><time>2026-03-28T14:08:22Z</time></trkpt><trkpt lat="36.85026691114461" lon="15.106156705732065"><ele>14.0</ele><time>2026-03-28T14:08:23Z</time></trkpt><trkpt lat="36.850174701899185" lon="15.106074941664676"><ele>13.799999999999999</ele><time>2026-03-28T14:08:24Z</time></trkpt><trkpt lat="36.85009505069366" lon="15.105995117451299"><ele>13.599999999999998</ele><time>2026-03-28T14:08:25Z</time></trkpt><trkpt lat="36.84999982835326" lon="15.105908479465809"><ele>13.4</ele><time>2026-03-28T14:08:26Z</time></trkpt><trkpt lat="36.84991918167361" lon="15.10583678187577"><ele>13.2</ele><time>2026-03-28T14:08:27Z</time></trkpt><trkpt lat="36.84984578421662" lon="15.105764106310735"><ele>13.0</ele><time>2026-03-28T14:08:28Z</time></trkpt><trkpt lat="36.84976422926155" lon="15.105694305740492"><ele>12.600000000000001</ele><time>2026-03-28T14:08:29Z</time></trkpt><trkpt lat="36.84967947525549" lon="15.105620366688974"><ele>12.200000000000001</ele><time>2026-03-28T14:08:30Z</time></trkpt><trkpt lat="36.84958494490055" lon="15.105534080017941"><ele>11.8</ele><time>2026-03-28T14:08:31Z</time></trkpt><trkpt lat="36.849485339054624" lon="15.105447357675287"><ele>11.4</ele><time>2026-03-28T14:08:32Z</time></trkpt><trkpt lat="36.849402874039235" lon="15.10537577945679"><ele>11.0</ele><time>2026-03-28T14:08:33Z</time></trkpt><trkpt lat="36.84932760346212" lon="15.105301623143228"><ele>11.5</ele><time>2026-03-28T14:08:34Z</time></trkpt><trkpt lat="36.84924017286867" lon="15.105223660429079"><ele>12.0</ele><time>2026-03-28T14:08:35Z</time></trkpt><trkpt lat="36.84915207765999" lon="15.105142791524413"><ele>12.5</ele><time>2026-03-28T14:08:36Z</time></trkpt><trkpt lat="36.84905004882599" lon="15.105048564992444"><ele>13.0</ele><time>2026-03-28T14:08:37Z</time></trkpt><trkpt lat="36.848945862749126" lon="15.104949414153458"><ele>14.0</ele><time>2026-03-28T14:08:38Z</time></trkpt><trkpt lat="36.84882637248388" lon="15.104838472680475"><ele>15.0</ele><time>2026-03-28T14:08:39Z</time></trkpt><trkpt lat="36.848707442198005" lon="15.104735586064095"><ele>16.0</ele><time>2026-03-28T14:08:40Z</time></trkpt><trkpt lat="36.84857438506284" lon="15.104623432084036"><ele>19.666666666666664</ele><time>2026-03-28T14:08:41Z</time></trkpt><trkpt lat="36.84843044960481" lon="15.104489201143995"><ele>23.333333333333332</ele><time>2026-03-28T14:08:42Z</time></trkpt><trkpt lat="36.84831457778018" lon="15.104385877821992"><ele>27.0</ele><time>2026-03-28T14:08:43Z</time></trkpt><trkpt lat="36.84821179824496" lon="15.10429137518028"><ele>27.0</ele><time>2026-03-28T14:08:44Z</time></trkpt><trkpt lat="36.84811073068358" lon="15.104200544740998"><ele>27.0</ele><time>2026-03-28T14:08:45Z</time></trkpt><trkpt lat="36.848003505532375" lon="15.104105454376375"><ele>27.0</ele><time>2026-03-28T14:08:46Z</time></trkpt><trkpt lat="36.847902392912935" lon="15.104009802345225"><ele>27.0</ele><time>2026-03-28T14:08:47Z</time></trkpt><trkpt lat="36.84779914325768" lon="15.103913439896116"><ele>27.5</ele><time>2026-03-28T14:08:48Z</time></trkpt><trkpt lat="36.84769209890269" lon="15.103812042757223"><ele>28.0</ele><time>2026-03-28T14:08:49Z</time></trkpt><trkpt lat="36.84758345104703" lon="15.103730952859866"><ele>28.5</ele><time>2026-03-28T14:08:50Z</time></trkpt><trkpt lat="36.84747745720365" lon="15.103632308439257"><ele>29.0</ele><time>2026-03-28T14:08:51Z</time></trkpt><trkpt lat="36.84737750778926" lon="15.103530222434115"><ele>29.0</ele><time>2026-03-28T14:08:52Z</time></trkpt><trkpt lat="36.8472746768732" lon="15.103443311860213"><ele>29.0</ele><time>2026-03-28T14:08:53Z</time></trkpt><trkpt lat="36.84718348344887" lon="15.103360044812838"><ele>29.0</ele><time>2026-03-28T14:08:54Z</time></trkpt><trkpt lat="36.84708631010607" lon="15.103265997590285"><ele>29.0</ele><time>2026-03-28T14:08:55Z</time></trkpt><trkpt lat="36.84698660050762" lon="15.103172436705577"><ele>29.0</ele><time>2026-03-28T14:08:56Z</time></trkpt><trkpt lat="36.8468920665192" lon="15.10307599395444"><ele>29.0</ele><time>2026-03-28T14:08:57Z</time></trkpt><trkpt lat="36.84680178585665" lon="15.10297193135208"><ele>29.0</ele><time>2026-03-28T14:08:58Z</time></trkpt><trkpt lat="36.84671072436669" lon="15.10286315185246"><ele>29.0</ele><time>2026-03-28T14:08:59Z</time></trkpt><trkpt lat="36.846631588490496" lon="15.102753008040882"><ele>27.75</ele><time>2026-03-28T14:09:00Z</time></trkpt><trkpt lat="36.84655417465096" lon="15.102635939250495"><ele>26.5</ele><time>2026-03-28T14:09:01Z</time></trkpt><trkpt lat="36.84647056953966" lon="15.102495309560231"><ele>25.25</ele><time>2026-03-28T14:09:02Z</time></trkpt><trkpt lat="36.84639523317805" lon="15.10235656834852"><ele>24.0</ele><time>2026-03-28T14:09:03Z</time></trkpt><trkpt lat="36.846324952042046" lon="15.102216915078483"><ele>23.75</ele><time>2026-03-28T14:09:04Z</time></trkpt><trkpt lat="36.846259152927175" lon="15.102069182623023"><ele>23.5</ele><time>2026-03-28T14:09:05Z</time></trkpt><trkpt lat="36.84619632781517" lon="15.101901125533777"><ele>23.25</ele><time>2026-03-28T14:09:06Z</time></trkpt><trkpt lat="36.846150335413014" lon="15.101768292159248"><ele>23.0</ele><time>2026-03-28T14:09:07Z</time></trkpt><trkpt lat="36.84612015107342" lon="15.10164298191303"><ele>22.0</ele><time>2026-03-28T14:09:08Z</time></trkpt><trkpt lat="36.846078652293535" lon="15.101524179902224"><ele>21.0</ele><time>2026-03-28T14:09:09Z</time></trkpt><trkpt lat="36.846042645046765" lon="15.101404346568309"><ele>20.0</ele><time>2026-03-28T14:09:10Z</time></trkpt><trkpt lat="36.84600908150589" lon="15.101278121292786"><ele>19.0</ele><time>2026-03-28T14:09:11Z</time></trkpt><trkpt lat="36.845968370457875" lon="15.101151822464464"><ele>18.0</ele><time>2026-03-28T14:09:12Z</time></trkpt><trkpt lat="36.84592412966721" lon="15.10102007802224"><ele>17.2</ele><time>2026-03-28T14:09:13Z</time></trkpt><trkpt lat="36.84588299358792" lon="15.100884943067989"><ele>16.4</ele><time>2026-03-28T14:09:14Z</time></trkpt><trkpt lat="36.84583935760017" lon="15.1007510461888"><ele>15.599999999999998</ele><time>2026-03-28T14:09:15Z</time></trkpt><trkpt lat="36.84579816693313" lon="15.100613509780535"><ele>14.799999999999999</ele><time>2026-03-28T14:09:16Z</time></trkpt><trkpt lat="36.845761525800356" lon="15.100498493942794"><ele>14.0</ele><time>2026-03-28T14:09:17Z</time></trkpt><trkpt lat="36.84571855576283" lon="15.100366895438256"><ele>13.799999999999999</ele><time>2026-03-28T14:09:18Z</time></trkpt><trkpt lat="36.84567577293738" lon="15.100238142429534"><ele>13.599999999999998</ele><time>2026-03-28T14:09:19Z</time></trkpt><trkpt lat="36.84563592398345" lon="15.100110955615813"><ele>13.4</ele><time>2026-03-28T14:09:20Z</time></trkpt><trkpt lat="36.84560015772511" lon="15.099987001695123"><ele>13.2</ele><time>2026-03-28T14:09:21Z</time></trkpt><trkpt lat="36.84555574308978" lon="15.099854752022512"><ele>13.0</ele><time>2026-03-28T14:09:22Z</time></trkpt><trkpt lat="36.84552166885229" lon="15.099724601860427"><ele>13.0</ele><time>2026-03-28T14:09:23Z</time></trkpt><trkpt lat="36.84547038386739" lon="15.09958087045666"><ele>13.0</ele><time>2026-03-28T14:09:24Z</time></trkpt><trkpt lat="36.84542054654355" lon="15.099413232699979"><ele>13.0</ele><time>2026-03-28T14:09:25Z</time></trkpt><trkpt lat="36.84536801054633" lon="15.099251627435473"><ele>13.0</ele><time>2026-03-28T14:09:26Z</time></trkpt><trkpt lat="36.845314635570524" lon="15.099096971118497"><ele>14.0</ele><time>2026-03-28T14:09:27Z</time></trkpt><trkpt lat="36.84526277139629" lon="15.098956036276382"><ele>15.0</ele><time>2026-03-28T14:09:28Z</time></trkpt><trkpt lat="36.845217736448554" lon="15.098829123736502"><ele>16.0</ele><time>2026-03-28T14:09:29Z</time></trkpt><trkpt lat="36.8451643772666" lon="15.098703652596306"><ele>17.0</ele><time>2026-03-28T14:09:30Z</time></trkpt><trkpt lat="36.845157089481766" lon="15.09855234090913"><ele>16.6</ele><time>2026-03-28T14:09:31Z</time></trkpt><trkpt lat="36.845127771617776" lon="15.098420494293636"><ele>16.2</ele><time>2026-03-28T14:09:32Z</time></trkpt><trkpt lat="36.845101683049734" lon="15.098296000384407"><ele>15.8</ele><time>2026-03-28T14:09:33Z</time></trkpt><trkpt lat="36.84508494276781" lon="15.098178055222167"><ele>15.4</ele><time>2026-03-28T14:09:34Z</time></trkpt><trkpt lat="36.84507038566251" lon="15.098050339415"><ele>15.0</ele><time>2026-03-28T14:09:35Z</time></trkpt><trkpt lat="36.845058082932375" lon="15.097914980349431"><ele>15.0</ele><time>2026-03-28T14:09:36Z</time></trkpt><trkpt lat="36.845044209273" lon="15.097747444571272"><ele>15.0</ele><time>2026-03-28T14:09:37Z</time></trkpt><trkpt lat="36.845050507222425" lon="15.097605380321601"><ele>15.0</ele><time>2026-03-28T14:09:38Z</time></trkpt><trkpt lat="36.8450572703975" lon="15.097465037799447"><ele>15.0</ele><time>2026-03-28T14:09:39Z</time></trkpt><trkpt lat="36.84506805872555" lon="15.097316548317997"><ele>14.25</ele><time>2026-03-28T14:09:40Z</time></trkpt><trkpt lat="36.84508721042603" lon="15.097172188530521"><ele>13.5</ele><time>2026-03-28T14:09:41Z</time></trkpt><trkpt lat="36.8451080885576" lon="15.09700747446195"><ele>12.75</ele><time>2026-03-28T14:09:42Z</time></trkpt><trkpt lat="36.845136687714565" lon="15.096828897129528"><ele>12.0</ele><time>2026-03-28T14:09:43Z</time></trkpt><trkpt lat="36.84516945114524" lon="15.096639236639344"><ele>16.666666666666664</ele><time>2026-03-28T14:09:44Z</time></trkpt><trkpt lat="36.84521340050898" lon="15.096454031628452"><ele>21.333333333333332</ele><time>2026-03-28T14:09:45Z</time></trkpt><trkpt lat="36.84525549539003" lon="15.096256697152517"><ele>26.0</ele><time>2026-03-28T14:09:46Z</time></trkpt><trkpt lat="36.84529396529124" lon="15.096056821874193"><ele>26.0</ele><time>2026-03-28T14:09:47Z</time></trkpt><trkpt lat="36.84548717115834" lon="15.095873057136822"><ele>26.0</ele><time>2026-03-28T14:09:48Z</time></trkpt><trkpt lat="36.845495279898074" lon="15.095675499040002"><ele>26.0</ele><time>2026-03-28T14:09:49Z</time></trkpt><trkpt lat="36.84540067136765" lon="15.095464823714769"><ele>24.75</ele><time>2026-03-28T14:09:50Z</time></trkpt><trkpt lat="36.845428517707546" lon="15.095288087239163"><ele>23.5</ele><time>2026-03-28T14:09:51Z</time></trkpt><trkpt lat="36.845458777210055" lon="15.095118670200186"><ele>22.25</ele><time>2026-03-28T14:09:52Z</time></trkpt><trkpt lat="36.84548150590308" lon="15.094945495493583"><ele>21.0</ele><time>2026-03-28T14:09:53Z</time></trkpt><trkpt lat="36.845506828099445" lon="15.09478539813185"><ele>20.25</ele><time>2026-03-28T14:09:54Z</time></trkpt><trkpt lat="36.845530249704325" lon="15.094638381195054"><ele>19.5</ele><time>2026-03-28T14:09:55Z</time></trkpt><trkpt lat="36.845558045866426" lon="15.094480715171521"><ele>18.75</ele><time>2026-03-28T14:09:56Z</time></trkpt><trkpt lat="36.84558400471761" lon="15.094331134468542"><ele>18.0</ele><time>2026-03-28T14:09:57Z</time></trkpt><trkpt lat="36.84560626909957" lon="15.094155537652071"><ele>18.75</ele><time>2026-03-28T14:09:58Z</time></trkpt><trkpt lat="36.84561759966445" lon="15.093994686431383"><ele>19.5</ele><time>2026-03-28T14:09:59Z</time></trkpt><trkpt lat="36.8456174723474" lon="15.09383061467015"><ele>20.25</ele><time>2026-03-28T14:10:00Z</time></trkpt><trkpt lat="36.845612853980356" lon="15.093667456220759"><ele>21.0</ele><time>2026-03-28T14:10:01Z</time></trkpt><trkpt lat="36.84560132151296" lon="15.09349398017147"><ele>21.0</ele><time>2026-03-28T14:10:02Z</time></trkpt><trkpt lat="36.84558765858914" lon="15.093342042405068"><ele>21.0</ele><time>2026-03-28T14:10:03Z</time></trkpt><trkpt lat="36.84555921154547" lon="15.093188307384349"><ele>21.0</ele><time>2026-03-28T14:10:04Z</time></trkpt><trkpt lat="36.84552675311138" lon="15.09304052278168"><ele>21.0</ele><time>2026-03-28T14:10:05Z</time></trkpt><trkpt lat="36.845496516508135" lon="15.092884032511417"><ele>20.0</ele><time>2026-03-28T14:10:06Z</time></trkpt><trkpt lat="36.845454983955534" lon="15.09273365286873"><ele>19.0</ele><time>2026-03-28T14:10:07Z</time></trkpt><trkpt lat="36.845404790061586" lon="15.092590154673605"><ele>18.0</ele><time>2026-03-28T14:10:08Z</time></trkpt><trkpt lat="36.845359307687175" lon="15.09244231091185"><ele>17.0</ele><time>2026-03-28T14:10:09Z</time></trkpt><trkpt lat="36.845299340659174" lon="15.092307702560799"><ele>15.25</ele><time>2026-03-28T14:10:10Z</time></trkpt><trkpt lat="36.845240331391395" lon="15.092162074365467"><ele>13.5</ele><time>2026-03-28T14:10:11Z</time></trkpt><trkpt lat="36.84517225841188" lon="15.092016283248983"><ele>11.75</ele><time>2026-03-28T14:10:12Z</time></trkpt><trkpt lat="36.845104574437336" lon="15.09189360103296"><ele>10.0</ele><time>2026-03-28T14:10:13Z</time></trkpt><trkpt lat="36.84505017586357" lon="15.091802669251255"><ele>9.5</ele><time>2026-03-28T14:10:14Z</time></trkpt><trkpt lat="36.844992668525215" lon="15.09171505088289"><ele>9.0</ele><time>2026-03-28T14:10:15Z</time></trkpt><trkpt lat="36.84492532526899" lon="15.091620612824254"><ele>8.5</ele><time>2026-03-28T14:10:16Z</time></trkpt><trkpt lat="36.84485729249878" lon="15.091528361077321"><ele>8.0</ele><time>2026-03-28T14:10:17Z</time></trkpt><trkpt lat="36.84479448174993" lon="15.0914596087343"><ele>7.500000000000001</ele><time>2026-03-28T14:10:18Z</time></trkpt><trkpt lat="36.84475292930506" lon="15.091400353861241"><ele>7.0</ele><time>2026-03-28T14:10:19Z</time></trkpt><trkpt lat="36.84468755103831" lon="15.091326887297187"><ele>7.0</ele><time>2026-03-28T14:10:21Z</time></trkpt><trkpt lat="36.844630835815" lon="15.091279434368385"><ele>7.0</ele><time>2026-03-28T14:10:25Z</time></trkpt><trkpt lat="36.844571489768086" lon="15.091241563527735"><ele>7.0</ele><time>2026-03-28T14:10:30Z</time></trkpt><trkpt lat="36.84451170515681" lon="15.091199431924569"><ele>7.0</ele><time>2026-03-28T14:10:34Z</time></trkpt><trkpt lat="36.84444254440131" lon="15.091144713864797"><ele>7.0</ele><time>2026-03-28T14:10:39Z</time></trkpt><trkpt lat="36.84445606155586" lon="15.091056492335126"><ele>7.0</ele><time>2026-03-28T14:10:44Z</time></trkpt><trkpt lat="36.84449505150226" lon="15.09097840640808"><ele>7.0</ele><time>2026-03-28T14:11:04Z</time></trkpt><trkpt lat="36.84447846551946" lon="15.090897656748954"><ele>7.0</ele><time>2026-03-28T14:11:07Z</time></trkpt><trkpt lat="36.8444188042577" lon="15.090861228288206"><ele>6.999999999999999</ele><time>2026-03-28T14:12:54Z</time></trkpt><trkpt lat="36.84433502914513" lon="15.090811989344745"><ele>6.999999999999999</ele><time>2026-03-28T14:12:59Z</time></trkpt><trkpt lat="36.844250596345454" lon="15.090743508914136"><ele>7.0</ele><time>2026-03-28T14:13:01Z</time></trkpt><trkpt lat="36.844174787697916" lon="15.09068250076302"><ele>7.0</ele><time>2026-03-28T14:13:03Z</time></trkpt><trkpt lat="36.844081735498" lon="15.090581269578141"><ele>7.333333333333334</ele><time>2026-03-28T14:13:05Z</time></trkpt><trkpt lat="36.8440234671066" lon="15.090499677539952"><ele>7.666666666666667</ele><time>2026-03-28T14:13:07Z</time></trkpt><trkpt lat="36.84397211139725" lon="15.090450227100469"><ele>8.0</ele><time>2026-03-28T14:13:09Z</time></trkpt><trkpt lat="36.84395127437599" lon="15.090372577710006"><ele>8.333333333333334</ele><time>2026-03-28T14:13:11Z</time></trkpt><trkpt lat="36.84396948956454" lon="15.090243712559896"><ele>8.666666666666666</ele><time>2026-03-28T14:13:13Z</time></trkpt><trkpt lat="36.84398889362527" lon="15.09016764948876"><ele>9.0</ele><time>2026-03-28T14:13:14Z</time></trkpt><trkpt lat="36.84401014956356" lon="15.09000190039258"><ele>8.8</ele><time>2026-03-28T14:13:16Z</time></trkpt><trkpt lat="36.844019890298654" lon="15.089894062025994"><ele>8.600000000000001</ele><time>2026-03-28T14:13:17Z</time></trkpt><trkpt lat="36.84403170657586" lon="15.0897860318421"><ele>8.4</ele><time>2026-03-28T14:13:18Z</time></trkpt><trkpt lat="36.844050240285064" lon="15.089668854363563"><ele>8.200000000000001</ele><time>2026-03-28T14:13:19Z</time></trkpt><trkpt lat="36.844065316431504" lon="15.089570292256978"><ele>8.0</ele><time>2026-03-28T14:13:20Z</time></trkpt><trkpt lat="36.844078252866204" lon="15.089427488193778"><ele>7.999999999999999</ele><time>2026-03-28T14:13:22Z</time></trkpt><trkpt lat="36.8440858331899" lon="15.089344154460118"><ele>8.0</ele><time>2026-03-28T14:13:23Z</time></trkpt><trkpt lat="36.84409927956338" lon="15.089241422722012"><ele>8.0</ele><time>2026-03-28T14:13:24Z</time></trkpt><trkpt lat="36.84411752852596" lon="15.08913688604546"><ele>8.0</ele><time>2026-03-28T14:13:25Z</time></trkpt><trkpt lat="36.844131328641716" lon="15.089029405584473"><ele>7.999999999999999</ele><time>2026-03-28T14:13:26Z</time></trkpt><trkpt lat="36.84414262828151" lon="15.088931458642355"><ele>8.0</ele><time>2026-03-28T14:13:27Z</time></trkpt><trkpt lat="36.844155985991925" lon="15.08883440810849"><ele>8.0</ele><time>2026-03-28T14:13:28Z</time></trkpt><trkpt lat="36.844170281491735" lon="15.088726975041919"><ele>8.0</ele><time>2026-03-28T14:13:29Z</time></trkpt><trkpt lat="36.844180158816094" lon="15.08861364107483"><ele>8.0</ele><time>2026-03-28T14:13:30Z</time></trkpt><trkpt lat="36.84419394497095" lon="15.088501406238832"><ele>8.0</ele><time>2026-03-28T14:13:31Z</time></trkpt><trkpt lat="36.84420849584318" lon="15.088387607311617"><ele>8.0</ele><time>2026-03-28T14:13:32Z</time></trkpt><trkpt lat="36.84422762965883" lon="15.088247206742153"><ele>8.0</ele><time>2026-03-28T14:13:33Z</time></trkpt><trkpt lat="36.844248085250385" lon="15.08810095516913"><ele>8.0</ele><time>2026-03-28T14:13:34Z</time></trkpt><trkpt lat="36.844271703939846" lon="15.087938115203006"><ele>8.0</ele><time>2026-03-28T14:13:35Z</time></trkpt><trkpt lat="36.844287863115525" lon="15.087784881792839"><ele>8.0</ele><time>2026-03-28T14:13:36Z</time></trkpt><trkpt lat="36.84430646610393" lon="15.087631063328663"><ele>8.0</ele><time>2026-03-28T14:13:37Z</time></trkpt><trkpt lat="36.84432589613006" lon="15.087478345874484"><ele>8.0</ele><time>2026-03-28T14:13:38Z</time></trkpt><trkpt lat="36.84434535694619" lon="15.087320474343175"><ele>8.0</ele><time>2026-03-28T14:13:39Z</time></trkpt><trkpt lat="36.84436529919888" lon="15.08718319117157"><ele>8.0</ele><time>2026-03-28T14:13:40Z</time></trkpt><trkpt lat="36.84437948030983" lon="15.087057230080823"><ele>7.800000000000001</ele><time>2026-03-28T14:13:41Z</time></trkpt><trkpt lat="36.844390812326736" lon="15.086933464295553"><ele>7.6000000000000005</ele><time>2026-03-28T14:13:42Z</time></trkpt><trkpt lat="36.84440061635914" lon="15.086808881677625"><ele>7.3999999999999995</ele><time>2026-03-28T14:13:43Z</time></trkpt><trkpt lat="36.84441547688256" lon="15.08667295393116"><ele>7.199999999999999</ele><time>2026-03-28T14:13:44Z</time></trkpt><trkpt lat="36.84442627876993" lon="15.086561663666867"><ele>7.0</ele><time>2026-03-28T14:13:45Z</time></trkpt><trkpt lat="36.8444355589179" lon="15.086476180685327"><ele>7.0</ele><time>2026-03-28T14:13:46Z</time></trkpt><trkpt lat="36.84445020084466" lon="15.086337491221725"><ele>6.999999999999999</ele><time>2026-03-28T14:13:48Z</time></trkpt><trkpt lat="36.844468565582375" lon="15.086252648234112"><ele>6.999999999999999</ele><time>2026-03-28T14:13:50Z</time></trkpt><trkpt lat="36.84457510734268" lon="15.086215628418588"><ele>7.0</ele><time>2026-03-28T14:13:53Z</time></trkpt><trkpt lat="36.84467290801095" lon="15.086230282450119"><ele>7.0</ele><time>2026-03-28T14:13:54Z</time></trkpt><trkpt lat="36.84479622496497" lon="15.086246815692999"><ele>7.0</ele><time>2026-03-28T14:13:55Z</time></trkpt><trkpt lat="36.84487944128646" lon="15.086254635016806"><ele>6.999999999999999</ele><time>2026-03-28T14:13:56Z</time></trkpt><trkpt lat="36.844946753696014" lon="15.086260380165246"><ele>6.999999999999999</ele><time>2026-03-28T14:13:57Z</time></trkpt><trkpt lat="36.84510183638211" lon="15.08627436264486"><ele>7.0</ele><time>2026-03-28T14:13:59Z</time></trkpt><trkpt lat="36.84517873480911" lon="15.0862782172369"><ele>7.0</ele><time>2026-03-28T14:14:00Z</time></trkpt><trkpt lat="36.84525044458707" lon="15.086285756306742"><ele>7.199999999999999</ele><time>2026-03-28T14:14:01Z</time></trkpt><trkpt lat="36.845404451477854" lon="15.086306215129158"><ele>7.3999999999999995</ele><time>2026-03-28T14:14:03Z</time></trkpt><trkpt lat="36.84548654219941" lon="15.086316755958887"><ele>7.6000000000000005</ele><time>2026-03-28T14:14:04Z</time></trkpt><trkpt lat="36.84557597388757" lon="15.086323839361166"><ele>7.800000000000001</ele><time>2026-03-28T14:14:05Z</time></trkpt><trkpt lat="36.845650263014655" lon="15.08632802394975"><ele>8.0</ele><time>2026-03-28T14:14:06Z</time></trkpt><trkpt lat="36.845738667960426" lon="15.086345196885997"><ele>7.999999999999999</ele><time>2026-03-28T14:14:07Z</time></trkpt><trkpt lat="36.845824186788185" lon="15.086365752449202"><ele>8.0</ele><time>2026-03-28T14:14:08Z</time></trkpt><trkpt lat="36.84590585748073" lon="15.086375725405007"><ele>8.0</ele><time>2026-03-28T14:14:09Z</time></trkpt><trkpt lat="36.84599007152953" lon="15.086381859743796"><ele>8.0</ele><time>2026-03-28T14:14:10Z</time></trkpt><trkpt lat="36.84606188933564" lon="15.08638236196314"><ele>7.999999999999999</ele><time>2026-03-28T14:14:11Z</time></trkpt><trkpt lat="36.84613637891148" lon="15.086385857391893"><ele>8.0</ele><time>2026-03-28T14:14:12Z</time></trkpt><trkpt lat="36.84621242165062" lon="15.086389307138681"><ele>7.999999999999999</ele><time>2026-03-28T14:14:13Z</time></trkpt><trkpt lat="36.846294513921904" lon="15.086394419440362"><ele>8.0</ele><time>2026-03-28T14:14:14Z</time></trkpt><trkpt lat="36.84636949390286" lon="15.086405849676462"><ele>8.0</ele><time>2026-03-28T14:14:15Z</time></trkpt><trkpt lat="36.846439883633586" lon="15.086415477819616"><ele>8.0</ele><time>2026-03-28T14:14:16Z</time></trkpt><trkpt lat="36.846507515124635" lon="15.086429902652373"><ele>7.999999999999999</ele><time>2026-03-28T14:14:17Z</time></trkpt><trkpt lat="36.846571717101966" lon="15.086445443998718"><ele>8.0</ele><time>2026-03-28T14:14:18Z</time></trkpt><trkpt lat="36.84665766158918" lon="15.08646418780405"><ele>7.999999999999999</ele><time>2026-03-28T14:14:19Z</time></trkpt><trkpt lat="36.84673573683211" lon="15.086480252373473"><ele>8.0</ele><time>2026-03-28T14:14:20Z</time></trkpt><trkpt lat="36.846810859185" lon="15.08649463506778"><ele>8.0</ele><time>2026-03-28T14:14:21Z</time></trkpt><trkpt lat="36.8468946923894" lon="15.086511367082515"><ele>8.0</ele><time>2026-03-28T14:14:22Z</time></trkpt><trkpt lat="36.84697779766161" lon="15.08652969124234"><ele>7.999999999999999</ele><time>2026-03-28T14:14:23Z</time></trkpt><trkpt lat="36.84705549612308" lon="15.086546789495829"><ele>8.0</ele><time>2026-03-28T14:14:24Z</time></trkpt><trkpt lat="36.84712552082601" lon="15.086554554516512"><ele>9.166666666666666</ele><time>2026-03-28T14:14:25Z</time></trkpt><trkpt lat="36.84720951737869" lon="15.086553694321637"><ele>10.333333333333332</ele><time>2026-03-28T14:14:26Z</time></trkpt><trkpt lat="36.847281402456304" lon="15.08654246888862"><ele>11.5</ele><time>2026-03-28T14:14:27Z</time></trkpt><trkpt lat="36.847355125606406" lon="15.086534245564609"><ele>12.666666666666666</ele><time>2026-03-28T14:14:28Z</time></trkpt><trkpt lat="36.847418874437146" lon="15.086524440122465"><ele>13.833333333333334</ele><time>2026-03-28T14:14:29Z</time></trkpt><trkpt lat="36.847491103191345" lon="15.086503267884876"><ele>15.0</ele><time>2026-03-28T14:14:32Z</time></trkpt><trkpt lat="36.8475822151153" lon="15.08649696313851"><ele>17.0</ele><time>2026-03-28T14:14:35Z</time></trkpt><trkpt lat="36.84766006893326" lon="15.086540201118986"><ele>19.0</ele><time>2026-03-28T14:14:37Z</time></trkpt><trkpt lat="36.84778451156631" lon="15.086633013179567"><ele>21.0</ele><time>2026-03-28T14:14:39Z</time></trkpt><trkpt lat="36.84790576117435" lon="15.086685936671664"><ele>23.0</ele><time>2026-03-28T14:14:40Z</time></trkpt><trkpt lat="36.8480490014615" lon="15.086736789753191"><ele>23.0</ele><time>2026-03-28T14:14:41Z</time></trkpt><trkpt lat="36.84816294725864" lon="15.086786685436108"><ele>23.0</ele><time>2026-03-28T14:14:42Z</time></trkpt><trkpt lat="36.848251078126744" lon="15.086829958670641"><ele>23.0</ele><time>2026-03-28T14:14:43Z</time></trkpt><trkpt lat="36.8483247380163" lon="15.086854882382948"><ele>23.0</ele><time>2026-03-28T14:14:44Z</time></trkpt><trkpt lat="36.84839636719" lon="15.08687096124231"><ele>23.0</ele><time>2026-03-28T14:14:45Z</time></trkpt><trkpt lat="36.84848442534733" lon="15.086870665295235"><ele>25.4</ele><time>2026-03-28T14:14:46Z</time></trkpt><trkpt lat="36.848550932081004" lon="15.086840802614207"><ele>27.799999999999997</ele><time>2026-03-28T14:14:47Z</time></trkpt><trkpt lat="36.848619253195736" lon="15.086784044489423"><ele>30.2</ele><time>2026-03-28T14:14:48Z</time></trkpt><trkpt lat="36.84870977181611" lon="15.086690763239565"><ele>32.6</ele><time>2026-03-28T14:14:49Z</time></trkpt><trkpt lat="36.8488125295844" lon="15.086536658679238"><ele>35.0</ele><time>2026-03-28T14:14:50Z</time></trkpt><trkpt lat="36.84885613095982" lon="15.08633891034853"><ele>35.0</ele><time>2026-03-28T14:14:51Z</time></trkpt><trkpt lat="36.848889940241406" lon="15.086140929287902"><ele>35.0</ele><time>2026-03-28T14:14:52Z</time></trkpt><trkpt lat="36.84893494690849" lon="15.085993085412001"><ele>35.0</ele><time>2026-03-28T14:14:53Z</time></trkpt><trkpt lat="36.848986325926624" lon="15.085897458650349"><ele>35.0</ele><time>2026-03-28T14:14:54Z</time></trkpt><trkpt lat="36.84906240206575" lon="15.085829263782227"><ele>35.0</ele><time>2026-03-28T14:14:55Z</time></trkpt><trkpt lat="36.84915334938982" lon="15.085788792498656"><ele>35.0</ele><time>2026-03-28T14:14:56Z</time></trkpt><trkpt lat="36.84924862561854" lon="15.08579193682807"><ele>35.0</ele><time>2026-03-28T14:14:57Z</time></trkpt><trkpt lat="36.849334631408496" lon="15.085818411968603"><ele>35.0</ele><time>2026-03-28T14:14:58Z</time></trkpt><trkpt lat="36.84940944157166" lon="15.085854324761037"><ele>35.0</ele><time>2026-03-28T14:14:59Z</time></trkpt><trkpt lat="36.84948764615368" lon="15.085881137816454"><ele>35.0</ele><time>2026-03-28T14:15:00Z</time></trkpt><trkpt lat="36.84956636390318" lon="15.08590770169401"><ele>34.666666666666664</ele><time>2026-03-28T14:15:01Z</time></trkpt><trkpt lat="36.84965446358253" lon="15.085934233269052"><ele>34.33333333333333</ele><time>2026-03-28T14:15:02Z</time></trkpt><trkpt lat="36.84974089677295" lon="15.08595856092905"><ele>34.0</ele><time>2026-03-28T14:15:03Z</time></trkpt><trkpt lat="36.84982769876143" lon="15.085981886771677"><ele>33.666666666666664</ele><time>2026-03-28T14:15:04Z</time></trkpt><trkpt lat="36.849907046809776" lon="15.086009221398687"><ele>33.333333333333336</ele><time>2026-03-28T14:15:05Z</time></trkpt><trkpt lat="36.84998761408703" lon="15.086039680525333"><ele>33.0</ele><time>2026-03-28T14:15:06Z</time></trkpt><trkpt lat="36.850079985288076" lon="15.086076808914873"><ele>33.6</ele><time>2026-03-28T14:15:07Z</time></trkpt><trkpt lat="36.850163317895024" lon="15.086101768706826"><ele>34.199999999999996</ele><time>2026-03-28T14:15:08Z</time></trkpt><trkpt lat="36.850259824753735" lon="15.086127010660501"><ele>34.8</ele><time>2026-03-28T14:15:09Z</time></trkpt><trkpt lat="36.85034802432731" lon="15.086143604767289"><ele>35.4</ele><time>2026-03-28T14:15:10Z</time></trkpt><trkpt lat="36.85043695592764" lon="15.086165947925062"><ele>36.0</ele><time>2026-03-28T14:15:11Z</time></trkpt><trkpt lat="36.85052581016002" lon="15.086187810375396"><ele>36.0</ele><time>2026-03-28T14:15:12Z</time></trkpt><trkpt lat="36.85061904974659" lon="15.086210886337343"><ele>36.0</ele><time>2026-03-28T14:15:13Z</time></trkpt><trkpt lat="36.850699744174236" lon="15.086232581124786"><ele>36.0</ele><time>2026-03-28T14:15:14Z</time></trkpt><trkpt lat="36.85077859571491" lon="15.086254614692146"><ele>36.0</ele><time>2026-03-28T14:15:15Z</time></trkpt><trkpt lat="36.85085328650967" lon="15.086281674006532"><ele>36.0</ele><time>2026-03-28T14:15:16Z</time></trkpt><trkpt lat="36.850921295306" lon="15.086311246285142"><ele>36.0</ele><time>2026-03-28T14:15:17Z</time></trkpt><trkpt lat="36.85099017220278" lon="15.086353206932394"><ele>36.833333333333336</ele><time>2026-03-28T14:15:18Z</time></trkpt><trkpt lat="36.85104807600063" lon="15.086402348006862"><ele>37.666666666666664</ele><time>2026-03-28T14:15:19Z</time></trkpt><trkpt lat="36.85110119925731" lon="15.086465573333381"><ele>38.5</ele><time>2026-03-28T14:15:20Z</time></trkpt><trkpt lat="36.85115622564863" lon="15.086545298290597"><ele>39.33333333333333</ele><time>2026-03-28T14:15:21Z</time></trkpt><trkpt lat="36.85120465511209" lon="15.086610649546271"><ele>40.166666666666664</ele><time>2026-03-28T14:15:22Z</time></trkpt><trkpt lat="36.85129529501514" lon="15.086610389847818"><ele>41.0</ele><time>2026-03-28T14:15:24Z</time></trkpt><trkpt lat="36.85133463436905" lon="15.08653489751884"><ele>41.0</ele><time>2026-03-28T14:15:25Z</time></trkpt><trkpt lat="36.85137881482869" lon="15.086402383161921"><ele>41.0</ele><time>2026-03-28T14:15:26Z</time></trkpt><trkpt lat="36.85141907346646" lon="15.08621718526824"><ele>41.0</ele><time>2026-03-28T14:15:27Z</time></trkpt><trkpt lat="36.85144659778349" lon="15.086030791838967"><ele>41.0</ele><time>2026-03-28T14:15:28Z</time></trkpt><trkpt lat="36.85147059802596" lon="15.085894568375988"><ele>41.0</ele><time>2026-03-28T14:15:29Z</time></trkpt><trkpt lat="36.85149184612106" lon="15.0857855355157"><ele>41.0</ele><time>2026-03-28T14:15:30Z</time></trkpt><trkpt lat="36.851507541928804" lon="15.085692896366941"><ele>41.0</ele><time>2026-03-28T14:15:31Z</time></trkpt><trkpt lat="36.85150426802725" lon="15.085570521749613"><ele>41.0</ele><time>2026-03-28T14:15:33Z</time></trkpt><trkpt lat="36.85143094541917" lon="15.085490946847166"><ele>41.0</ele><time>2026-03-28T14:15:35Z</time></trkpt><trkpt lat="36.85131008257084" lon="15.085459670060132"><ele>40.25</ele><time>2026-03-28T14:15:37Z</time></trkpt><trkpt lat="36.85119861867448" lon="15.085442780314807"><ele>39.5</ele><time>2026-03-28T14:15:38Z</time></trkpt><trkpt lat="36.85106397196105" lon="15.085409016859966"><ele>38.75</ele><time>2026-03-28T14:15:39Z</time></trkpt><trkpt lat="36.85094796382336" lon="15.085382659928875"><ele>38.0</ele><time>2026-03-28T14:15:40Z</time></trkpt><trkpt lat="36.850834625426955" lon="15.085350818814138"><ele>37.0</ele><time>2026-03-28T14:15:41Z</time></trkpt><trkpt lat="36.850723036965036" lon="15.085325613399412"><ele>36.0</ele><time>2026-03-28T14:15:42Z</time></trkpt><trkpt lat="36.85062029768587" lon="15.08530650346324"><ele>35.0</ele><time>2026-03-28T14:15:43Z</time></trkpt><trkpt lat="36.85052221791698" lon="15.085272764214482"><ele>34.0</ele><time>2026-03-28T14:15:44Z</time></trkpt><trkpt lat="36.85042430730251" lon="15.08525722797321"><ele>33.0</ele><time>2026-03-28T14:15:45Z</time></trkpt><trkpt lat="36.85034344452252" lon="15.0852237873235"><ele>33.0</ele><time>2026-03-28T14:15:46Z</time></trkpt><trkpt lat="36.85027268247849" lon="15.085225480428955"><ele>33.0</ele><time>2026-03-28T14:15:47Z</time></trkpt><trkpt lat="36.85017321239174" lon="15.085184340619515"><ele>33.0</ele><time>2026-03-28T14:15:49Z</time></trkpt><trkpt lat="36.85010174199858" lon="15.08516077728304"><ele>33.0</ele><time>2026-03-28T14:15:51Z</time></trkpt><trkpt lat="36.850084510262" lon="15.085044790932411"><ele>33.0</ele><time>2026-03-28T14:15:53Z</time></trkpt><trkpt lat="36.85009972778958" lon="15.084926462916025"><ele>33.0</ele><time>2026-03-28T14:15:54Z</time></trkpt><trkpt lat="36.85008364885136" lon="15.084760893965463"><ele>31.5</ele><time>2026-03-28T14:15:55Z</time></trkpt><trkpt lat="36.850095835498394" lon="15.08461832185547"><ele>30.0</ele><time>2026-03-28T14:15:56Z</time></trkpt><trkpt lat="36.85007591362892" lon="15.084504735594852"><ele>28.5</ele><time>2026-03-28T14:15:57Z</time></trkpt><trkpt lat="36.85007792210571" lon="15.08439804506842"><ele>27.0</ele><time>2026-03-28T14:15:58Z</time></trkpt><trkpt lat="36.85007024369857" lon="15.084302701265278"><ele>25.5</ele><time>2026-03-28T14:15:59Z</time></trkpt><trkpt lat="36.85006822443079" lon="15.084214018266211"><ele>24.0</ele><time>2026-03-28T14:16:00Z</time></trkpt><trkpt lat="36.85005360391642" lon="15.084135069665567"><ele>22.75</ele><time>2026-03-28T14:16:01Z</time></trkpt><trkpt lat="36.84996687136468" lon="15.084039553950193"><ele>21.5</ele><time>2026-03-28T14:16:03Z</time></trkpt><trkpt lat="36.84989815682844" lon="15.08396960073502"><ele>20.25</ele><time>2026-03-28T14:16:04Z</time></trkpt><trkpt lat="36.84982586458722" lon="15.08385083890374"><ele>19.0</ele><time>2026-03-28T14:16:05Z</time></trkpt><trkpt lat="36.849721652718664" lon="15.083688852182425"><ele>19.0</ele><time>2026-03-28T14:16:06Z</time></trkpt><trkpt lat="36.8496215623333" lon="15.083559721605495"><ele>19.0</ele><time>2026-03-28T14:16:07Z</time></trkpt><trkpt lat="36.84955960635992" lon="15.083458148761158"><ele>19.0</ele><time>2026-03-28T14:16:08Z</time></trkpt><trkpt lat="36.849509622771826" lon="15.083371797739664"><ele>19.0</ele><time>2026-03-28T14:16:09Z</time></trkpt><trkpt lat="36.84945183574443" lon="15.083300722061077"><ele>19.0</ele><time>2026-03-28T14:16:10Z</time></trkpt><trkpt lat="36.84941190606305" lon="15.08322536895892"><ele>18.0</ele><time>2026-03-28T14:16:11Z</time></trkpt><trkpt lat="36.84936240417559" lon="15.083163728822147"><ele>17.0</ele><time>2026-03-28T14:16:12Z</time></trkpt><trkpt lat="36.84933464036606" lon="15.083090875480991"><ele>15.999999999999998</ele><time>2026-03-28T14:16:13Z</time></trkpt><trkpt lat="36.849363795628" lon="15.082919588735907"><ele>15.0</ele><time>2026-03-28T14:16:15Z</time></trkpt><trkpt lat="36.849439998558324" lon="15.08278703554523"><ele>14.0</ele><time>2026-03-28T14:16:16Z</time></trkpt><trkpt lat="36.84948395769524" lon="15.082610767195828"><ele>14.0</ele><time>2026-03-28T14:16:17Z</time></trkpt><trkpt lat="36.84952331557821" lon="15.08248256743984"><ele>13.999999999999998</ele><time>2026-03-28T14:16:18Z</time></trkpt><trkpt lat="36.8495479178215" lon="15.082400713436392"><ele>13.999999999999998</ele><time>2026-03-28T14:16:19Z</time></trkpt><trkpt lat="36.84959820192262" lon="15.082273872928763"><ele>14.0</ele><time>2026-03-28T14:16:21Z</time></trkpt><trkpt lat="36.84968752297867" lon="15.082262143199738"><ele>14.0</ele><time>2026-03-28T14:16:23Z</time></trkpt><trkpt lat="36.84972691574185" lon="15.08234616575428"><ele>14.0</ele><time>2026-03-28T14:16:24Z</time></trkpt><trkpt lat="36.84976749325898" lon="15.082456010109503"><ele>13.999999999999998</ele><time>2026-03-28T14:16:25Z</time></trkpt><trkpt lat="36.8498282496044" lon="15.08258258489212"><ele>13.999999999999998</ele><time>2026-03-28T14:16:26Z</time></trkpt><trkpt lat="36.84986263144368" lon="15.082690614347703"><ele>14.0</ele><time>2026-03-28T14:16:27Z</time></trkpt><trkpt lat="36.84988934639742" lon="15.0827846584349"><ele>14.0</ele><time>2026-03-28T14:16:28Z</time></trkpt><trkpt lat="36.849922177856264" lon="15.08285900609894"><ele>14.000000000000002</ele><time>2026-03-28T14:16:29Z</time></trkpt><trkpt lat="36.84998119612415" lon="15.082887963686417"><ele>14.0</ele><time>2026-03-28T14:16:30Z</time></trkpt><trkpt lat="36.85005160634256" lon="15.082870760007875"><ele>14.0</ele><time>2026-03-28T14:16:31Z</time></trkpt><trkpt lat="36.85011794309883" lon="15.082777986646652"><ele>14.0</ele><time>2026-03-28T14:16:32Z</time></trkpt><trkpt lat="36.85021491947434" lon="15.08270672682402"><ele>14.000000000000002</ele><time>2026-03-28T14:16:33Z</time></trkpt><trkpt lat="36.85028612433417" lon="15.082618973843214"><ele>14.0</ele><time>2026-03-28T14:16:34Z</time></trkpt><trkpt lat="36.850315667433705" lon="15.082471418791481"><ele>13.75</ele><time>2026-03-28T14:16:36Z</time></trkpt><trkpt lat="36.8502606708802" lon="15.082363012190614"><ele>13.5</ele><time>2026-03-28T14:16:37Z</time></trkpt><trkpt lat="36.85016926513861" lon="15.0822346461386"><ele>13.25</ele><time>2026-03-28T14:16:38Z</time></trkpt><trkpt lat="36.85005265127214" lon="15.082083142600283"><ele>13.0</ele><time>2026-03-28T14:16:39Z</time></trkpt><trkpt lat="36.84998296138481" lon="15.08193340585698"><ele>13.0</ele><time>2026-03-28T14:16:40Z</time></trkpt><trkpt lat="36.84991480021536" lon="15.081836129979934"><ele>13.0</ele><time>2026-03-28T14:16:41Z</time></trkpt><trkpt lat="36.84986260198616" lon="15.081746420899517"><ele>13.0</ele><time>2026-03-28T14:16:42Z</time></trkpt><trkpt lat="36.84981488780775" lon="15.081666388451303"><ele>13.0</ele><time>2026-03-28T14:16:43Z</time></trkpt><trkpt lat="36.849772544562505" lon="15.081557650616533"><ele>13.0</ele><time>2026-03-28T14:16:45Z</time></trkpt><trkpt lat="36.84976406761494" lon="15.08145661993524"><ele>12.75</ele><time>2026-03-28T14:16:48Z</time></trkpt><trkpt lat="36.84976575948098" lon="15.081374833169088"><ele>12.5</ele><time>2026-03-28T14:16:53Z</time></trkpt><trkpt lat="36.84977653158677" lon="15.081291236705367"><ele>12.25</ele><time>2026-03-28T14:16:58Z</time></trkpt><trkpt lat="36.84978920887975" lon="15.081195923854416"><ele>12.0</ele><time>2026-03-28T14:17:02Z</time></trkpt><trkpt lat="36.849558473876925" lon="15.08110098176152"><ele>12.0</ele><time>2026-03-28T14:17:03Z</time></trkpt><trkpt lat="36.84950206620468" lon="15.081061747320577"><ele>12.0</ele><time>2026-03-28T14:17:04Z</time></trkpt><trkpt lat="36.84944463200172" lon="15.08102362713739"><ele>12.0</ele><time>2026-03-28T14:17:05Z</time></trkpt><trkpt lat="36.84938496823996" lon="15.08098537615909"><ele>12.0</ele><time>2026-03-28T14:17:06Z</time></trkpt><trkpt lat="36.849324969956136" lon="15.08094806478984"><ele>12.0</ele><time>2026-03-28T14:17:07Z</time></trkpt><trkpt lat="36.849227111953894" lon="15.080886257113905"><ele>12.0</ele><time>2026-03-28T14:17:09Z</time></trkpt><trkpt lat="36.84912876153963" lon="15.080823552677812"><ele>11.4</ele><time>2026-03-28T14:17:11Z</time></trkpt><trkpt lat="36.849013334645576" lon="15.080761607709782"><ele>10.799999999999999</ele><time>2026-03-28T14:17:13Z</time></trkpt><trkpt lat="36.84891338569921" lon="15.080715778870683"><ele>10.2</ele><time>2026-03-28T14:17:15Z</time></trkpt><trkpt lat="36.84882025844723" lon="15.080668102816944"><ele>9.6</ele><time>2026-03-28T14:17:17Z</time></trkpt><trkpt lat="36.848724627844135" lon="15.08061885850623"><ele>9.0</ele><time>2026-03-28T14:17:19Z</time></trkpt><trkpt lat="36.848642290538045" lon="15.080595316343896"><ele>9.0</ele><time>2026-03-28T14:17:21Z</time></trkpt><trkpt lat="36.84855932862921" lon="15.080576760492619"><ele>9.0</ele><time>2026-03-28T14:17:23Z</time></trkpt><trkpt lat="36.84845231008218" lon="15.080548434325337"><ele>9.0</ele><time>2026-03-28T14:17:25Z</time></trkpt><trkpt lat="36.84838991869174" lon="15.080530775039877"><ele>9.0</ele><time>2026-03-28T14:17:26Z</time></trkpt><trkpt lat="36.84835821954018" lon="15.08021589166723"><ele>8.833333333333334</ele><time>2026-03-28T14:17:27Z</time></trkpt><trkpt lat="36.848251477787564" lon="15.080203796467208"><ele>8.666666666666666</ele><time>2026-03-28T14:17:29Z</time></trkpt><trkpt lat="36.8481882938489" lon="15.080196023533228"><ele>8.5</ele><time>2026-03-28T14:17:30Z</time></trkpt><trkpt lat="36.84810206603351" lon="15.08018451624448"><ele>8.333333333333332</ele><time>2026-03-28T14:17:32Z</time></trkpt><trkpt lat="36.84803972352126" lon="15.080221767216102"><ele>8.166666666666666</ele><time>2026-03-28T14:17:35Z</time></trkpt><trkpt lat="36.848113709131205" lon="15.08018627305997"><ele>8.0</ele><time>2026-03-28T14:17:40Z</time></trkpt><trkpt lat="36.84821695455149" lon="15.080224307959782"><ele>8.0</ele><time>2026-03-28T14:17:41Z</time></trkpt><trkpt lat="36.8483408164172" lon="15.080251916343036"><ele>8.0</ele><time>2026-03-28T14:17:42Z</time></trkpt><trkpt lat="36.84849865320611" lon="15.080269719889264"><ele>8.0</ele><time>2026-03-28T14:17:43Z</time></trkpt><trkpt lat="36.8487126055737" lon="15.080293339021393"><ele>8.5</ele><time>2026-03-28T14:17:44Z</time></trkpt><trkpt lat="36.848949629301764" lon="15.08031330698016"><ele>9.0</ele><time>2026-03-28T14:17:45Z</time></trkpt><trkpt lat="36.84920526139239" lon="15.080332678423073"><ele>9.333333333333334</ele><time>2026-03-28T14:17:46Z</time></trkpt><trkpt lat="36.84943742888935" lon="15.080376943929494"><ele>9.666666666666668</ele><time>2026-03-28T14:17:47Z</time></trkpt><trkpt lat="36.849604173420474" lon="15.080376988672464"><ele>10.0</ele><time>2026-03-28T14:17:48Z</time></trkpt><trkpt lat="36.849733759404565" lon="15.080400159557005"><ele>10.0</ele><time>2026-03-28T14:17:49Z</time></trkpt><trkpt lat="36.84985569949163" lon="15.08041005769534"><ele>10.0</ele><time>2026-03-28T14:17:50Z</time></trkpt><trkpt lat="36.849970469635544" lon="15.080431244705208"><ele>10.0</ele><time>2026-03-28T14:17:51Z</time></trkpt><trkpt lat="36.85006850692858" lon="15.080450203228919"><ele>10.0</ele><time>2026-03-28T14:17:52Z</time></trkpt><trkpt lat="36.85015052189075" lon="15.080464193473546"><ele>10.0</ele><time>2026-03-28T14:17:53Z</time></trkpt><trkpt lat="36.850216876021506" lon="15.080480454441847"><ele>10.8</ele><time>2026-03-28T14:17:54Z</time></trkpt><trkpt lat="36.85030345471203" lon="15.080497867552706"><ele>11.6</ele><time>2026-03-28T14:17:56Z</time></trkpt><trkpt lat="36.85037897348267" lon="15.080567119762872"><ele>12.399999999999999</ele><time>2026-03-28T14:18:07Z</time></trkpt><trkpt lat="36.85046066224476" lon="15.080442055711508"><ele>13.2</ele><time>2026-03-28T14:18:08Z</time></trkpt><trkpt lat="36.850594449683335" lon="15.080410310091361"><ele>14.0</ele><time>2026-03-28T14:18:10Z</time></trkpt><trkpt lat="36.8506726761198" lon="15.08039411202574"><ele>14.0</ele><time>2026-03-28T14:18:11Z</time></trkpt><trkpt lat="36.850758187768534" lon="15.080376003932603"><ele>13.999999999999998</ele><time>2026-03-28T14:18:12Z</time></trkpt><trkpt lat="36.85083566862723" lon="15.08034448958148"><ele>13.999999999999998</ele><time>2026-03-28T14:18:13Z</time></trkpt><trkpt lat="36.85092322701175" lon="15.080330616902588"><ele>14.0</ele><time>2026-03-28T14:18:14Z</time></trkpt><trkpt lat="36.85102831502366" lon="15.080315587658044"><ele>14.0</ele><time>2026-03-28T14:18:15Z</time></trkpt><trkpt lat="36.85111569385423" lon="15.080328545849904"><ele>14.666666666666668</ele><time>2026-03-28T14:18:16Z</time></trkpt><trkpt lat="36.85119222433561" lon="15.08030017473374"><ele>15.333333333333334</ele><time>2026-03-28T14:18:17Z</time></trkpt><trkpt lat="36.85126566432155" lon="15.080294372789005"><ele>16.0</ele><time>2026-03-28T14:18:18Z</time></trkpt><trkpt lat="36.85134458149249" lon="15.080301058980005"><ele>16.666666666666668</ele><time>2026-03-28T14:18:19Z</time></trkpt><trkpt lat="36.85142910736346" lon="15.08027621733373"><ele>17.333333333333332</ele><time>2026-03-28T14:18:20Z</time></trkpt><trkpt lat="36.851513884184634" lon="15.080228397028094"><ele>18.0</ele><time>2026-03-28T14:18:21Z</time></trkpt><trkpt lat="36.851582911212404" lon="15.080145680228364"><ele>18.0</ele><time>2026-03-28T14:18:22Z</time></trkpt><trkpt lat="36.85165292885133" lon="15.080078023738455"><ele>18.0</ele><time>2026-03-28T14:18:23Z</time></trkpt><trkpt lat="36.85172508360781" lon="15.080008551660844"><ele>18.0</ele><time>2026-03-28T14:18:23.999Z</time></trkpt><trkpt lat="36.85181380155918" lon="15.07994735308889"><ele>18.0</ele><time>2026-03-28T14:18:24.999Z</time></trkpt><trkpt lat="36.85188704778992" lon="15.079846507992865"><ele>18.0</ele><time>2026-03-28T14:18:25.999Z</time></trkpt><trkpt lat="36.85196751335948" lon="15.079755578151405"><ele>19.6</ele><time>2026-03-28T14:18:26.999Z</time></trkpt><trkpt lat="36.852025394948434" lon="15.079634501808583"><ele>21.200000000000003</ele><time>2026-03-28T14:18:27.999Z</time></trkpt><trkpt lat="36.85207063902192" lon="15.07950353374459"><ele>22.8</ele><time>2026-03-28T14:18:28.999Z</time></trkpt><trkpt lat="36.85210136725805" lon="15.079378720296525"><ele>24.400000000000002</ele><time>2026-03-28T14:18:29.999Z</time></trkpt><trkpt lat="36.85212712394662" lon="15.079280447422727"><ele>26.0</ele><time>2026-03-28T14:18:30.999Z</time></trkpt><trkpt lat="36.85216029612921" lon="15.079172660183213"><ele>27.200000000000003</ele><time>2026-03-28T14:18:31.999Z</time></trkpt><trkpt lat="36.85218653006372" lon="15.079046184963294"><ele>28.400000000000002</ele><time>2026-03-28T14:18:32.999Z</time></trkpt><trkpt lat="36.85221217379297" lon="15.078924688099027"><ele>29.6</ele><time>2026-03-28T14:18:33.999Z</time></trkpt><trkpt lat="36.85222011775721" lon="15.078812210063965"><ele>30.8</ele><time>2026-03-28T14:18:34.999Z</time></trkpt><trkpt lat="36.852244418475216" lon="15.078704950665097"><ele>32.0</ele><time>2026-03-28T14:18:35.999Z</time></trkpt><trkpt lat="36.852263721970516" lon="15.078583127161915"><ele>31.999999999999996</ele><time>2026-03-28T14:18:36.999Z</time></trkpt><trkpt lat="36.85227136603145" lon="15.078455904853413"><ele>32.0</ele><time>2026-03-28T14:18:37.999Z</time></trkpt><trkpt lat="36.852282438166256" lon="15.078333405971087"><ele>32.0</ele><time>2026-03-28T14:18:38.999Z</time></trkpt><trkpt lat="36.852289208023564" lon="15.078224156223541"><ele>32.0</ele><time>2026-03-28T14:18:39.999Z</time></trkpt><trkpt lat="36.85229811847068" lon="15.078133536278383"><ele>31.999999999999996</ele><time>2026-03-28T14:18:40.999Z</time></trkpt><trkpt lat="36.852305796833654" lon="15.078051668723779"><ele>32.0</ele><time>2026-03-28T14:18:42Z</time></trkpt><trkpt lat="36.85231314557495" lon="15.077966543895913"><ele>31.999999999999996</ele><time>2026-03-28T14:18:43Z</time></trkpt><trkpt lat="36.85231935869873" lon="15.077872814565147"><ele>32.0</ele><time>2026-03-28T14:18:44Z</time></trkpt><trkpt lat="36.85232743414342" lon="15.07777721362652"><ele>32.0</ele><time>2026-03-28T14:18:45Z</time></trkpt><trkpt lat="36.85233547808973" lon="15.07766936318757"><ele>32.0</ele><time>2026-03-28T14:18:46Z</time></trkpt><trkpt lat="36.852344756211465" lon="15.077562300278732"><ele>31.999999999999996</ele><time>2026-03-28T14:18:47Z</time></trkpt><trkpt lat="36.85235007192118" lon="15.077453992246882"><ele>32.0</ele><time>2026-03-28T14:18:48Z</time></trkpt><trkpt lat="36.85235875545479" lon="15.077325238578368"><ele>31.400000000000002</ele><time>2026-03-28T14:18:49Z</time></trkpt><trkpt lat="36.852367789373766" lon="15.077186020920127"><ele>30.800000000000004</ele><time>2026-03-28T14:18:50Z</time></trkpt><trkpt lat="36.85238545294576" lon="15.077043612432705"><ele>30.2</ele><time>2026-03-28T14:18:51Z</time></trkpt><trkpt lat="36.85239905085512" lon="15.076907357170175"><ele>29.6</ele><time>2026-03-28T14:18:52Z</time></trkpt><trkpt lat="36.852413099373" lon="15.07676934650852"><ele>29.0</ele><time>2026-03-28T14:18:53Z</time></trkpt><trkpt lat="36.852444033808645" lon="15.076621143312575"><ele>28.75</ele><time>2026-03-28T14:18:54Z</time></trkpt><trkpt lat="36.85245217037494" lon="15.07646684326985"><ele>28.5</ele><time>2026-03-28T14:18:55Z</time></trkpt><trkpt lat="36.852447878418545" lon="15.076297194589445"><ele>28.25</ele><time>2026-03-28T14:18:56Z</time></trkpt><trkpt lat="36.85241338345154" lon="15.076143810478813"><ele>28.0</ele><time>2026-03-28T14:18:57Z</time></trkpt><trkpt lat="36.852468835410136" lon="15.075983775735049"><ele>28.0</ele><time>2026-03-28T14:18:58Z</time></trkpt><trkpt lat="36.85247658239592" lon="15.07585418722614"><ele>27.999999999999996</ele><time>2026-03-28T14:18:59Z</time></trkpt><trkpt lat="36.85248437976305" lon="15.075748758300723"><ele>27.999999999999996</ele><time>2026-03-28T14:19:00Z</time></trkpt><trkpt lat="36.8524831255082" lon="15.075621602600524"><ele>28.0</ele><time>2026-03-28T14:19:02Z</time></trkpt><trkpt lat="36.85248588652332" lon="15.075476005567586"><ele>28.0</ele><time>2026-03-28T14:19:04Z</time></trkpt><trkpt lat="36.85250619977843" lon="15.075341236402297"><ele>27.500000000000004</ele><time>2026-03-28T14:19:06Z</time></trkpt><trkpt lat="36.852516413179494" lon="15.075204559654463"><ele>27.0</ele><time>2026-03-28T14:19:08Z</time></trkpt><trkpt lat="36.85250345785158" lon="15.075126467613494"><ele>26.5</ele><time>2026-03-28T14:19:09Z</time></trkpt><trkpt lat="36.8524882724246" lon="15.075024884228819"><ele>26.0</ele><time>2026-03-28T14:19:10Z</time></trkpt><trkpt lat="36.85247609128419" lon="15.074923452081086"><ele>25.500000000000004</ele><time>2026-03-28T14:19:11Z</time></trkpt><trkpt lat="36.85247133400855" lon="15.074809398601774"><ele>25.0</ele><time>2026-03-28T14:19:12Z</time></trkpt><trkpt lat="36.85247200805971" lon="15.074684280848835"><ele>24.000000000000004</ele><time>2026-03-28T14:19:13Z</time></trkpt><trkpt lat="36.85247174470026" lon="15.074582395997844"><ele>23.0</ele><time>2026-03-28T14:19:14Z</time></trkpt><trkpt lat="36.85245670367694" lon="15.074495264029702"><ele>22.0</ele><time>2026-03-28T14:19:15Z</time></trkpt><trkpt lat="36.85247876132466" lon="15.074372601956945"><ele>21.0</ele><time>2026-03-28T14:19:17Z</time></trkpt><trkpt lat="36.85257628709761" lon="15.074302817372791"><ele>20.0</ele><time>2026-03-28T14:19:19Z</time></trkpt><trkpt lat="36.852640114442714" lon="15.074309842437472"><ele>19.0</ele><time>2026-03-28T14:19:20Z</time></trkpt><trkpt lat="36.85271777786878" lon="15.074329696009407"><ele>20.666666666666664</ele><time>2026-03-28T14:19:21Z</time></trkpt><trkpt lat="36.852801563815305" lon="15.074328173896"><ele>22.333333333333332</ele><time>2026-03-28T14:19:22Z</time></trkpt><trkpt lat="36.852886195441364" lon="15.074306617447768"><ele>24.0</ele><time>2026-03-28T14:19:23Z</time></trkpt><trkpt lat="36.85295110614926" lon="15.074311305771236"><ele>25.666666666666664</ele><time>2026-03-28T14:19:24Z</time></trkpt><trkpt lat="36.85304240670768" lon="15.074282871600959"><ele>27.333333333333332</ele><time>2026-03-28T14:19:25Z</time></trkpt><trkpt lat="36.85309927987121" lon="15.074189060894184"><ele>29.0</ele><time>2026-03-28T14:19:26Z</time></trkpt><trkpt lat="36.853127381997055" lon="15.074091091625036"><ele>29.0</ele><time>2026-03-28T14:19:27Z</time></trkpt><trkpt lat="36.85315680428399" lon="15.074005232072267"><ele>29.0</ele><time>2026-03-28T14:19:28Z</time></trkpt><trkpt lat="36.85320677216027" lon="15.07386892156827"><ele>29.0</ele><time>2026-03-28T14:19:30Z</time></trkpt><trkpt lat="36.853237707567345" lon="15.07369868054693"><ele>29.0</ele><time>2026-03-28T14:19:32Z</time></trkpt><trkpt lat="36.85325455860584" lon="15.073591846592636"><ele>29.0</ele><time>2026-03-28T14:19:33Z</time></trkpt><trkpt lat="36.85327762741647" lon="15.073487315433646"><ele>29.0</ele><time>2026-03-28T14:19:34Z</time></trkpt><trkpt lat="36.853291764224714" lon="15.073400106831569"><ele>29.0</ele><time>2026-03-28T14:19:35Z</time></trkpt><trkpt lat="36.85329554111573" lon="15.073302764191327"><ele>29.0</ele><time>2026-03-28T14:19:36Z</time></trkpt><trkpt lat="36.8532960762891" lon="15.073164388116474"><ele>29.0</ele><time>2026-03-28T14:19:38Z</time></trkpt><trkpt lat="36.85333595621602" lon="15.073037030631495"><ele>29.0</ele><time>2026-03-28T14:19:40Z</time></trkpt><trkpt lat="36.85336058207548" lon="15.072937264343789"><ele>28.2</ele><time>2026-03-28T14:19:42Z</time></trkpt><trkpt lat="36.853428781886045" lon="15.072874961621142"><ele>27.4</ele><time>2026-03-28T14:19:44Z</time></trkpt><trkpt lat="36.853492741035176" lon="15.072833447332062"><ele>26.6</ele><time>2026-03-28T14:19:45Z</time></trkpt><trkpt lat="36.85356141603028" lon="15.07275954404405"><ele>25.8</ele><time>2026-03-28T14:19:46Z</time></trkpt><trkpt lat="36.853609448632454" lon="15.072643755323902"><ele>25.0</ele><time>2026-03-28T14:19:47Z</time></trkpt><trkpt lat="36.853667014885886" lon="15.072519564629776"><ele>25.000000000000004</ele><time>2026-03-28T14:19:48Z</time></trkpt><trkpt lat="36.85369665751945" lon="15.072442742871726"><ele>25.0</ele><time>2026-03-28T14:19:49Z</time></trkpt><trkpt lat="36.8537017225574" lon="15.072337864097245"><ele>25.0</ele><time>2026-03-28T14:19:51Z</time></trkpt><trkpt lat="36.853610230583044" lon="15.07227355357664"><ele>25.0</ele><time>2026-03-28T14:19:53Z</time></trkpt><trkpt lat="36.85353305278661" lon="15.072219463194546"><ele>25.000000000000004</ele><time>2026-03-28T14:19:54Z</time></trkpt><trkpt lat="36.85348890371993" lon="15.072156382484552"><ele>25.0</ele><time>2026-03-28T14:19:55Z</time></trkpt><trkpt lat="36.853435334149175" lon="15.072069448253513"><ele>25.000000000000004</ele><time>2026-03-28T14:19:56Z</time></trkpt><trkpt lat="36.85339792346483" lon="15.072002030124589"><ele>25.0</ele><time>2026-03-28T14:19:57Z</time></trkpt><trkpt lat="36.85335810402782" lon="15.071911123911793"><ele>25.0</ele><time>2026-03-28T14:19:59Z</time></trkpt><trkpt lat="36.85341126965976" lon="15.071831675393826"><ele>25.0</ele><time>2026-03-28T14:20:02Z</time></trkpt><trkpt lat="36.85349235608126" lon="15.071789045608671"><ele>25.000000000000004</ele><time>2026-03-28T14:20:04Z</time></trkpt><trkpt lat="36.85353597181484" lon="15.071715350372239"><ele>25.0</ele><time>2026-03-28T14:20:06Z</time></trkpt><trkpt lat="36.85354602908583" lon="15.071608045436868"><ele>26.0</ele><time>2026-03-28T14:20:09Z</time></trkpt><trkpt lat="36.85349730820002" lon="15.071545999405675"><ele>27.0</ele><time>2026-03-28T14:20:11Z</time></trkpt><trkpt lat="36.8533661899157" lon="15.071541133993156"><ele>28.0</ele><time>2026-03-28T14:20:13Z</time></trkpt><trkpt lat="36.85329789875771" lon="15.071536541215613"><ele>29.0</ele><time>2026-03-28T14:20:14Z</time></trkpt><trkpt lat="36.85318237095251" lon="15.071508672815348"><ele>30.0</ele><time>2026-03-28T14:20:16Z</time></trkpt><trkpt lat="36.85307928157617" lon="15.071491260740167"><ele>30.0</ele><time>2026-03-28T14:20:18Z</time></trkpt><trkpt lat="36.852957007137974" lon="15.071479156371621"><ele>30.0</ele><time>2026-03-28T14:20:20Z</time></trkpt><trkpt lat="36.85287240964237" lon="15.071475996618537"><ele>30.0</ele><time>2026-03-28T14:20:21Z</time></trkpt><trkpt lat="36.85278226402751" lon="15.071499882525373"><ele>30.0</ele><time>2026-03-28T14:20:22Z</time></trkpt><trkpt lat="36.85270456019235" lon="15.07153322957431"><ele>30.0</ele><time>2026-03-28T14:20:23Z</time></trkpt><trkpt lat="36.852627416431396" lon="15.07157440599407"><ele>28.6</ele><time>2026-03-28T14:20:24Z</time></trkpt><trkpt lat="36.85254875538084" lon="15.071613854977732"><ele>27.2</ele><time>2026-03-28T14:20:25Z</time></trkpt><trkpt lat="36.85247659194458" lon="15.071584981390659"><ele>25.799999999999997</ele><time>2026-03-28T14:20:26Z</time></trkpt><trkpt lat="36.85239073260816" lon="15.071492950045679"><ele>24.4</ele><time>2026-03-28T14:20:28Z</time></trkpt><trkpt lat="36.85230351840334" lon="15.071425859029484"><ele>23.0</ele><time>2026-03-28T14:20:29Z</time></trkpt><trkpt lat="36.85221978393352" lon="15.07135919409541"><ele>23.0</ele><time>2026-03-28T14:20:29.999Z</time></trkpt><trkpt lat="36.85213802241524" lon="15.071308547001811"><ele>23.0</ele><time>2026-03-28T14:20:30.999Z</time></trkpt><trkpt lat="36.852061808801196" lon="15.071258496776554"><ele>23.0</ele><time>2026-03-28T14:20:31.999Z</time></trkpt><trkpt lat="36.85198678381881" lon="15.071219631099803"><ele>23.0</ele><time>2026-03-28T14:20:32.999Z</time></trkpt><trkpt lat="36.85191858008558" lon="15.071196608812789"><ele>23.0</ele><time>2026-03-28T14:20:33.999Z</time></trkpt><trkpt lat="36.85182843698214" lon="15.07118296153087"><ele>23.0</ele><time>2026-03-28T14:20:35.999Z</time></trkpt><trkpt lat="36.85177837753006" lon="15.071124124092295"><ele>23.0</ele><time>2026-03-28T14:20:39.999Z</time></trkpt><trkpt lat="36.85183255790895" lon="15.071028565853572"><ele>23.0</ele><time>2026-03-28T14:20:41.999Z</time></trkpt><trkpt lat="36.851928098490625" lon="15.070963784743938"><ele>23.0</ele><time>2026-03-28T14:20:42.999Z</time></trkpt><trkpt lat="36.85198585689223" lon="15.070908181114305"><ele>23.0</ele><time>2026-03-28T14:20:43.999Z</time></trkpt><trkpt lat="36.852036112710806" lon="15.070837464980269"><ele>23.0</ele><time>2026-03-28T14:20:44.999Z</time></trkpt><trkpt lat="36.852074367447784" lon="15.070752609530157"><ele>23.0</ele><time>2026-03-28T14:20:45.999Z</time></trkpt><trkpt lat="36.852107197453165" lon="15.070639178402613"><ele>24.0</ele><time>2026-03-28T14:20:46.999Z</time></trkpt><trkpt lat="36.85212739104356" lon="15.070510911970779"><ele>25.0</ele><time>2026-03-28T14:20:47.999Z</time></trkpt><trkpt lat="36.85211150410905" lon="15.070407268194495"><ele>25.999999999999996</ele><time>2026-03-28T14:20:48.999Z</time></trkpt><trkpt lat="36.852075450816336" lon="15.070286787148968"><ele>27.0</ele><time>2026-03-28T14:20:49.999Z</time></trkpt><trkpt lat="36.852028707077274" lon="15.070149692496425"><ele>28.0</ele><time>2026-03-28T14:20:51Z</time></trkpt><trkpt lat="36.85199341600507" lon="15.070008325007452"><ele>29.0</ele><time>2026-03-28T14:20:52Z</time></trkpt><trkpt lat="36.851969607223765" lon="15.06983243955519"><ele>30.0</ele><time>2026-03-28T14:20:53Z</time></trkpt><trkpt lat="36.85194005225923" lon="15.069666122560513"><ele>31.0</ele><time>2026-03-28T14:20:54Z</time></trkpt><trkpt lat="36.85190799206652" lon="15.069522832477405"><ele>32.0</ele><time>2026-03-28T14:20:55Z</time></trkpt><trkpt lat="36.85188028313563" lon="15.069407908113382"><ele>31.999999999999996</ele><time>2026-03-28T14:20:56Z</time></trkpt><trkpt lat="36.8518479362293" lon="15.06933062240379"><ele>32.0</ele><time>2026-03-28T14:20:57Z</time></trkpt><trkpt lat="36.85181628480237" lon="15.069256044843456"><ele>32.0</ele><time>2026-03-28T14:20:58Z</time></trkpt><trkpt lat="36.85179057135364" lon="15.069167078658987"><ele>32.0</ele><time>2026-03-28T14:20:59Z</time></trkpt><trkpt lat="36.851788946418516" lon="15.069072810638339"><ele>31.999999999999996</ele><time>2026-03-28T14:21:00Z</time></trkpt><trkpt lat="36.851800436406585" lon="15.068961004538522"><ele>32.0</ele><time>2026-03-28T14:21:01Z</time></trkpt><trkpt lat="36.85181658446858" lon="15.068831821255454"><ele>32.2</ele><time>2026-03-28T14:21:02Z</time></trkpt><trkpt lat="36.85182459301603" lon="15.068728381855683"><ele>32.400000000000006</ele><time>2026-03-28T14:21:03Z</time></trkpt><trkpt lat="36.85183449177581" lon="15.06864310380462"><ele>32.599999999999994</ele><time>2026-03-28T14:21:04Z</time></trkpt><trkpt lat="36.851859260272995" lon="15.06855498574406"><ele>32.8</ele><time>2026-03-28T14:21:05Z</time></trkpt><trkpt lat="36.85189908795175" lon="15.068426299903694"><ele>33.0</ele><time>2026-03-28T14:21:06Z</time></trkpt><trkpt lat="36.851949037164005" lon="15.068277080402492"><ele>31.799999999999997</ele><time>2026-03-28T14:21:07Z</time></trkpt><trkpt lat="36.8519960693833" lon="15.068141251600798"><ele>30.599999999999998</ele><time>2026-03-28T14:21:08Z</time></trkpt><trkpt lat="36.852030325592345" lon="15.068031070320256"><ele>29.400000000000002</ele><time>2026-03-28T14:21:09Z</time></trkpt><trkpt lat="36.8520766092082" lon="15.06793923967024"><ele>28.200000000000003</ele><time>2026-03-28T14:21:10Z</time></trkpt><trkpt lat="36.85212760268541" lon="15.067854900750179"><ele>27.0</ele><time>2026-03-28T14:21:11Z</time></trkpt><trkpt lat="36.85215121787541" lon="15.067776506946394"><ele>27.0</ele><time>2026-03-28T14:21:12Z</time></trkpt><trkpt lat="36.85208009670439" lon="15.067598975191881"><ele>27.0</ele><time>2026-03-28T14:21:14Z</time></trkpt><trkpt lat="36.852008443073906" lon="15.067448120127603"><ele>27.0</ele><time>2026-03-28T14:21:15Z</time></trkpt><trkpt lat="36.85196370962377" lon="15.067305837635514"><ele>27.0</ele><time>2026-03-28T14:21:16Z</time></trkpt><trkpt lat="36.85193254320306" lon="15.067201405054808"><ele>27.0</ele><time>2026-03-28T14:21:17Z</time></trkpt><trkpt lat="36.85189892282602" lon="15.067104142635648"><ele>27.000000000000004</ele><time>2026-03-28T14:21:18Z</time></trkpt><trkpt lat="36.85186908111596" lon="15.066989058913856"><ele>27.000000000000004</ele><time>2026-03-28T14:21:19Z</time></trkpt><trkpt lat="36.851847144778" lon="15.06687313177801"><ele>27.0</ele><time>2026-03-28T14:21:20Z</time></trkpt><trkpt lat="36.85183822376906" lon="15.066753858669552"><ele>27.0</ele><time>2026-03-28T14:21:21Z</time></trkpt><trkpt lat="36.85183706559297" lon="15.066601927660876"><ele>27.0</ele><time>2026-03-28T14:21:22Z</time></trkpt><trkpt lat="36.85183835534284" lon="15.066424030786445"><ele>27.0</ele><time>2026-03-28T14:21:23Z</time></trkpt><trkpt lat="36.85182981127034" lon="15.066229665893527"><ele>27.0</ele><time>2026-03-28T14:21:24Z</time></trkpt><trkpt lat="36.85181407948591" lon="15.066061371073888"><ele>27.0</ele><time>2026-03-28T14:21:25Z</time></trkpt><trkpt lat="36.85180492313125" lon="15.06588628916164"><ele>27.25</ele><time>2026-03-28T14:21:26Z</time></trkpt><trkpt lat="36.851798203510825" lon="15.06570194887815"><ele>27.5</ele><time>2026-03-28T14:21:27Z</time></trkpt><trkpt lat="36.85178773057285" lon="15.065513187272948"><ele>27.75</ele><time>2026-03-28T14:21:28Z</time></trkpt><trkpt lat="36.851776583595374" lon="15.065339183054395"><ele>28.0</ele><time>2026-03-28T14:21:29Z</time></trkpt><trkpt lat="36.85176514516706" lon="15.065165565066923"><ele>27.0</ele><time>2026-03-28T14:21:30Z</time></trkpt><trkpt lat="36.851753467579144" lon="15.065001505257676"><ele>26.0</ele><time>2026-03-28T14:21:31Z</time></trkpt><trkpt lat="36.85174579773149" lon="15.06482846461017"><ele>25.0</ele><time>2026-03-28T14:21:32Z</time></trkpt><trkpt lat="36.85173773203666" lon="15.064671640037949"><ele>24.0</ele><time>2026-03-28T14:21:33Z</time></trkpt><trkpt lat="36.851739582984415" lon="15.064526403429914"><ele>24.0</ele><time>2026-03-28T14:21:34Z</time></trkpt><trkpt lat="36.851740241239156" lon="15.06441059387991"><ele>24.0</ele><time>2026-03-28T14:21:35Z</time></trkpt><trkpt lat="36.85173640037351" lon="15.064318847848265"><ele>24.0</ele><time>2026-03-28T14:21:36Z</time></trkpt><trkpt lat="36.85173759069757" lon="15.064184003228512"><ele>24.0</ele><time>2026-03-28T14:21:38Z</time></trkpt><trkpt lat="36.85180669216019" lon="15.06406381882737"><ele>24.0</ele><time>2026-03-28T14:21:40Z</time></trkpt><trkpt lat="36.85188405591283" lon="15.063993644765514"><ele>24.799999999999997</ele><time>2026-03-28T14:21:41Z</time></trkpt><trkpt lat="36.85198849116355" lon="15.063883809180172"><ele>25.599999999999998</ele><time>2026-03-28T14:21:42Z</time></trkpt><trkpt lat="36.852038957783954" lon="15.06378630945703"><ele>26.4</ele><time>2026-03-28T14:21:43Z</time></trkpt><trkpt lat="36.852074316066975" lon="15.063672061096987"><ele>27.2</ele><time>2026-03-28T14:21:44Z</time></trkpt><trkpt lat="36.85210489265719" lon="15.063541796832906"><ele>28.0</ele><time>2026-03-28T14:21:45Z</time></trkpt><trkpt lat="36.85213646058945" lon="15.063414647124846"><ele>28.0</ele><time>2026-03-28T14:21:46Z</time></trkpt><trkpt lat="36.852157197794014" lon="15.063276048702953"><ele>27.999999999999996</ele><time>2026-03-28T14:21:47Z</time></trkpt><trkpt lat="36.85217918069994" lon="15.06314199940815"><ele>27.999999999999996</ele><time>2026-03-28T14:21:48Z</time></trkpt><trkpt lat="36.85220244619503" lon="15.063026951677664"><ele>28.0</ele><time>2026-03-28T14:21:49Z</time></trkpt><trkpt lat="36.85222701205308" lon="15.062908367911515"><ele>28.0</ele><time>2026-03-28T14:21:50Z</time></trkpt><trkpt lat="36.85226074459527" lon="15.062773614975383"><ele>28.0</ele><time>2026-03-28T14:21:51Z</time></trkpt><trkpt lat="36.852294286254356" lon="15.062628086988472"><ele>28.0</ele><time>2026-03-28T14:21:52Z</time></trkpt><trkpt lat="36.852322755229544" lon="15.062484000314997"><ele>28.0</ele><time>2026-03-28T14:21:53Z</time></trkpt><trkpt lat="36.85232951851515" lon="15.06233841511405"><ele>28.0</ele><time>2026-03-28T14:21:54Z</time></trkpt><trkpt lat="36.852339548356966" lon="15.062185372352504"><ele>28.4</ele><time>2026-03-28T14:21:55Z</time></trkpt><trkpt lat="36.85235462051886" lon="15.06204551446385"><ele>28.799999999999997</ele><time>2026-03-28T14:21:56Z</time></trkpt><trkpt lat="36.85238443214805" lon="15.061922480587029"><ele>29.2</ele><time>2026-03-28T14:21:57Z</time></trkpt><trkpt lat="36.85240744696875" lon="15.061804443595342"><ele>29.6</ele><time>2026-03-28T14:21:58Z</time></trkpt><trkpt lat="36.85241289584862" lon="15.061718677641716"><ele>30.0</ele><time>2026-03-28T14:21:59Z</time></trkpt><trkpt lat="36.852424370793514" lon="15.061616544036701"><ele>30.0</ele><time>2026-03-28T14:22:00Z</time></trkpt><trkpt lat="36.85244555185255" lon="15.061535752057935"><ele>30.0</ele><time>2026-03-28T14:22:01Z</time></trkpt><trkpt lat="36.85252755727221" lon="15.061406769792395"><ele>30.0</ele><time>2026-03-28T14:22:03Z</time></trkpt><trkpt lat="36.85258089121717" lon="15.061328970276207"><ele>30.0</ele><time>2026-03-28T14:22:04Z</time></trkpt><trkpt lat="36.85263175260449" lon="15.061278106007357"><ele>30.0</ele><time>2026-03-28T14:22:05Z</time></trkpt><trkpt lat="36.85270211369364" lon="15.061218975391702"><ele>30.0</ele><time>2026-03-28T14:22:06Z</time></trkpt><trkpt lat="36.85276306095773" lon="15.061171034739466"><ele>30.6</ele><time>2026-03-28T14:22:07Z</time></trkpt><trkpt lat="36.85282058307095" lon="15.061113020904607"><ele>31.2</ele><time>2026-03-28T14:22:08Z</time></trkpt><trkpt lat="36.85284302360013" lon="15.061020955308598"><ele>31.799999999999997</ele><time>2026-03-28T14:22:09Z</time></trkpt><trkpt lat="36.85285196601171" lon="15.060907684955975"><ele>32.4</ele><time>2026-03-28T14:22:10Z</time></trkpt><trkpt lat="36.85285959107703" lon="15.060772703691404"><ele>33.0</ele><time>2026-03-28T14:22:11Z</time></trkpt><trkpt lat="36.852887510250184" lon="15.060596885775864"><ele>33.6</ele><time>2026-03-28T14:22:12Z</time></trkpt><trkpt lat="36.85291597164409" lon="15.06043107836239"><ele>34.199999999999996</ele><time>2026-03-28T14:22:13Z</time></trkpt><trkpt lat="36.85293447012683" lon="15.060289356455977"><ele>34.8</ele><time>2026-03-28T14:22:14Z</time></trkpt><trkpt lat="36.85294819407043" lon="15.060167683903513"><ele>35.4</ele><time>2026-03-28T14:22:15Z</time></trkpt><trkpt lat="36.85295740688418" lon="15.060065300559057"><ele>36.0</ele><time>2026-03-28T14:22:16Z</time></trkpt><trkpt lat="36.85296272041843" lon="15.059959018044605"><ele>35.8</ele><time>2026-03-28T14:22:17Z</time></trkpt><trkpt lat="36.85296865703115" lon="15.059844127460359"><ele>35.6</ele><time>2026-03-28T14:22:18Z</time></trkpt><trkpt lat="36.85297344276016" lon="15.05972000403387"><ele>35.4</ele><time>2026-03-28T14:22:19Z</time></trkpt><trkpt lat="36.85297365892739" lon="15.059592860506715"><ele>35.2</ele><time>2026-03-28T14:22:20Z</time></trkpt><trkpt lat="36.852972387441554" lon="15.059463949649281"><ele>35.0</ele><time>2026-03-28T14:22:21Z</time></trkpt><trkpt lat="36.85297081750447" lon="15.059341821474792"><ele>35.0</ele><time>2026-03-28T14:22:22Z</time></trkpt><trkpt lat="36.85296694709832" lon="15.05923081074759"><ele>35.0</ele><time>2026-03-28T14:22:23Z</time></trkpt><trkpt lat="36.85296565371631" lon="15.05911062627564"><ele>35.0</ele><time>2026-03-28T14:22:24Z</time></trkpt><trkpt lat="36.85296628440405" lon="15.058992029825605"><ele>35.0</ele><time>2026-03-28T14:22:25Z</time></trkpt><trkpt lat="36.852968561427794" lon="15.058856587777612"><ele>35.0</ele><time>2026-03-28T14:22:27Z</time></trkpt><trkpt lat="36.852961054707684" lon="15.058724769644407"><ele>35.8</ele><time>2026-03-28T14:22:30Z</time></trkpt><trkpt lat="36.852959813543855" lon="15.058640134794667"><ele>36.6</ele><time>2026-03-28T14:22:31Z</time></trkpt><trkpt lat="36.85294780900682" lon="15.058526253441746"><ele>37.4</ele><time>2026-03-28T14:22:32Z</time></trkpt><trkpt lat="36.85294153275497" lon="15.058411790674539"><ele>38.2</ele><time>2026-03-28T14:22:33Z</time></trkpt><trkpt lat="36.85293562205864" lon="15.05829574278002"><ele>39.0</ele><time>2026-03-28T14:22:34Z</time></trkpt><trkpt lat="36.85292750607351" lon="15.058163788115245"><ele>39.25</ele><time>2026-03-28T14:22:35Z</time></trkpt><trkpt lat="36.852919848720354" lon="15.05802489565439"><ele>39.5</ele><time>2026-03-28T14:22:35.999Z</time></trkpt><trkpt lat="36.852910840517254" lon="15.057867919176276"><ele>39.75</ele><time>2026-03-28T14:22:36.999Z</time></trkpt><trkpt lat="36.85289934405879" lon="15.05771773111443"><ele>40.0</ele><time>2026-03-28T14:22:37.999Z</time></trkpt><trkpt lat="36.85288505221158" lon="15.057583821941728"><ele>39.2</ele><time>2026-03-28T14:22:38.999Z</time></trkpt><trkpt lat="36.852870776625" lon="15.057451527287833"><ele>38.4</ele><time>2026-03-28T14:22:39.999Z</time></trkpt><trkpt lat="36.852849313080085" lon="15.05733702979438"><ele>37.6</ele><time>2026-03-28T14:22:40.999Z</time></trkpt><trkpt lat="36.85282568257576" lon="15.057228496699052"><ele>36.8</ele><time>2026-03-28T14:22:41.999Z</time></trkpt><trkpt lat="36.85280621867888" lon="15.057134591120354"><ele>36.0</ele><time>2026-03-28T14:22:42.999Z</time></trkpt><trkpt lat="36.852786257014834" lon="15.057035735787222"><ele>36.0</ele><time>2026-03-28T14:22:43.999Z</time></trkpt><trkpt lat="36.85276749207706" lon="15.05693067998669"><ele>36.0</ele><time>2026-03-28T14:22:44.999Z</time></trkpt><trkpt lat="36.85275464251315" lon="15.056835701731268"><ele>36.0</ele><time>2026-03-28T14:22:45.999Z</time></trkpt><trkpt lat="36.85275324538015" lon="15.05675498748818"><ele>36.0</ele><time>2026-03-28T14:22:47Z</time></trkpt><trkpt lat="36.852764161465224" lon="15.056625515789785"><ele>36.0</ele><time>2026-03-28T14:22:49Z</time></trkpt><trkpt lat="36.852845182230475" lon="15.056563205428482"><ele>36.0</ele><time>2026-03-28T14:22:53Z</time></trkpt><trkpt lat="36.8529130643897" lon="15.056549802314468"><ele>36.0</ele><time>2026-03-28T14:22:54Z</time></trkpt><trkpt lat="36.8529884424984" lon="15.05653179507972"><ele>36.0</ele><time>2026-03-28T14:22:55Z</time></trkpt><trkpt lat="36.853118723444304" lon="15.056477850314923"><ele>36.0</ele><time>2026-03-28T14:22:57Z</time></trkpt><trkpt lat="36.853215212938416" lon="15.056436423485772"><ele>36.0</ele><time>2026-03-28T14:22:58Z</time></trkpt><trkpt lat="36.85332548440455" lon="15.05645575605142"><ele>36.0</ele><time>2026-03-28T14:22:59Z</time></trkpt><trkpt lat="36.85339330104921" lon="15.056509863741814"><ele>37.4</ele><time>2026-03-28T14:23:00Z</time></trkpt><trkpt lat="36.85347360251632" lon="15.056570435703703"><ele>38.8</ele><time>2026-03-28T14:23:02Z</time></trkpt><trkpt lat="36.853559921898885" lon="15.056574739037663"><ele>40.199999999999996</ele><time>2026-03-28T14:23:05Z</time></trkpt><trkpt lat="36.853603215500435" lon="15.056494284559387"><ele>41.6</ele><time>2026-03-28T14:23:08Z</time></trkpt><trkpt lat="36.8536321532209" lon="15.056351270303068"><ele>43.0</ele><time>2026-03-28T14:23:10Z</time></trkpt><trkpt lat="36.853661534671836" lon="15.056250320970241"><ele>43.0</ele><time>2026-03-28T14:23:11Z</time></trkpt><trkpt lat="36.85368691097489" lon="15.056164636862302"><ele>43.0</ele><time>2026-03-28T14:23:12Z</time></trkpt><trkpt lat="36.85371985350571" lon="15.056047010729948"><ele>43.0</ele><time>2026-03-28T14:23:14Z</time></trkpt><trkpt lat="36.853749061082524" lon="15.055936671534603"><ele>43.0</ele><time>2026-03-28T14:23:16Z</time></trkpt><trkpt lat="36.8537875128575" lon="15.05582865019386"><ele>43.0</ele><time>2026-03-28T14:23:18Z</time></trkpt><trkpt lat="36.85382272435004" lon="15.055692449009104"><ele>43.66666666666667</ele><time>2026-03-28T14:23:20Z</time></trkpt><trkpt lat="36.853824721099045" lon="15.055603460299324"><ele>44.333333333333336</ele><time>2026-03-28T14:23:23Z</time></trkpt><trkpt lat="36.85381903491146" lon="15.055524983021067"><ele>45.0</ele><time>2026-03-28T14:23:30Z</time></trkpt><trkpt lat="36.853841103222" lon="15.0553714938571"><ele>45.666666666666664</ele><time>2026-03-28T14:23:32Z</time></trkpt><trkpt lat="36.853863505715566" lon="15.055278296011814"><ele>46.33333333333333</ele><time>2026-03-28T14:23:33Z</time></trkpt><trkpt lat="36.85388585180887" lon="15.055184589316912"><ele>47.0</ele><time>2026-03-28T14:23:34Z</time></trkpt><trkpt lat="36.853952818016246" lon="15.055067237785252"><ele>47.0</ele><time>2026-03-28T14:23:36Z</time></trkpt><trkpt lat="36.85410357938395" lon="15.055000878254972"><ele>47.0</ele><time>2026-03-28T14:23:38Z</time></trkpt><trkpt lat="36.85421576769095" lon="15.054952459862776"><ele>47.0</ele><time>2026-03-28T14:23:39Z</time></trkpt><trkpt lat="36.85430457811777" lon="15.054909046322022"><ele>47.0</ele><time>2026-03-28T14:23:40Z</time></trkpt><trkpt lat="36.85437219491115" lon="15.05485217518782"><ele>48.0</ele><time>2026-03-28T14:23:41Z</time></trkpt><trkpt lat="36.854423213980894" lon="15.054790195905673"><ele>49.0</ele><time>2026-03-28T14:23:42Z</time></trkpt><trkpt lat="36.8544759050593" lon="15.054736280609724"><ele>50.0</ele><time>2026-03-28T14:23:43Z</time></trkpt><trkpt lat="36.85437749358793" lon="15.05459114881381"><ele>51.0</ele><time>2026-03-28T14:23:47Z</time></trkpt><trkpt lat="36.85431389148381" lon="15.054541646433115"><ele>52.0</ele><time>2026-03-28T14:23:48Z</time></trkpt><trkpt lat="36.85425102750571" lon="15.054452152920174"><ele>52.0</ele><time>2026-03-28T14:23:50Z</time></trkpt><trkpt lat="36.85418372250171" lon="15.054326861924723"><ele>52.0</ele><time>2026-03-28T14:23:52Z</time></trkpt><trkpt lat="36.85412877915331" lon="15.054216168806223"><ele>52.0</ele><time>2026-03-28T14:23:54Z</time></trkpt><trkpt lat="36.85407989862096" lon="15.054096970127464"><ele>52.0</ele><time>2026-03-28T14:23:56Z</time></trkpt><trkpt lat="36.854041278597926" lon="15.053971270201549"><ele>52.0</ele><time>2026-03-28T14:23:58Z</time></trkpt><trkpt lat="36.85402068114919" lon="15.05387559922984"><ele>53.0</ele><time>2026-03-28T14:23:59Z</time></trkpt><trkpt lat="36.85400382845154" lon="15.053763682907983"><ele>54.0</ele><time>2026-03-28T14:24:00Z</time></trkpt><trkpt lat="36.8539901150448" lon="15.053662732925071"><ele>55.0</ele><time>2026-03-28T14:24:01Z</time></trkpt><trkpt lat="36.853982974991844" lon="15.053576635335515"><ele>56.0</ele><time>2026-03-28T14:24:02Z</time></trkpt><trkpt lat="36.853986652912816" lon="15.053449235639553"><ele>57.0</ele><time>2026-03-28T14:24:04Z</time></trkpt><trkpt lat="36.8540295204725" lon="15.053326737097604"><ele>56.8</ele><time>2026-03-28T14:24:06Z</time></trkpt><trkpt lat="36.85410339437465" lon="15.053245471221826"><ele>56.6</ele><time>2026-03-28T14:24:08Z</time></trkpt><trkpt lat="36.85420637814485" lon="15.053220764742852"><ele>56.39999999999999</ele><time>2026-03-28T14:24:10Z</time></trkpt><trkpt lat="36.85427104945795" lon="15.053154062006566"><ele>56.199999999999996</ele><time>2026-03-28T14:24:12Z</time></trkpt><trkpt lat="36.854288367121114" lon="15.053064393231363"><ele>56.0</ele><time>2026-03-28T14:24:13Z</time></trkpt><trkpt lat="36.854309577747806" lon="15.052923280496557"><ele>56.00000000000001</ele><time>2026-03-28T14:24:14Z</time></trkpt><trkpt lat="36.85433725756264" lon="15.052793348651214"><ele>56.0</ele><time>2026-03-28T14:24:15Z</time></trkpt><trkpt lat="36.85435491895396" lon="15.052682769512366"><ele>56.0</ele><time>2026-03-28T14:24:16Z</time></trkpt><trkpt lat="36.854372754261604" lon="15.052594349268187"><ele>56.0</ele><time>2026-03-28T14:24:17Z</time></trkpt><trkpt lat="36.85439164398277" lon="15.05250315100489"><ele>56.00000000000001</ele><time>2026-03-28T14:24:18Z</time></trkpt><trkpt lat="36.85440795898078" lon="15.052418251590293"><ele>56.0</ele><time>2026-03-28T14:24:19Z</time></trkpt><trkpt lat="36.854427374008104" lon="15.05228645325294"><ele>54.25</ele><time>2026-03-28T14:24:21Z</time></trkpt><trkpt lat="36.85457819085337" lon="15.052270825164948"><ele>52.5</ele><time>2026-03-28T14:24:22Z</time></trkpt><trkpt lat="36.85458684684685" lon="15.05219219541156"><ele>50.75</ele><time>2026-03-28T14:24:26Z</time></trkpt><trkpt lat="36.85438565487096" lon="15.052068531809004"><ele>49.0</ele><time>2026-03-28T14:24:34.001Z</time></trkpt><trkpt lat="36.854307590379676" lon="15.052022310922846"><ele>48.6</ele><time>2026-03-28T14:24:35.001Z</time></trkpt><trkpt lat="36.854236635359676" lon="15.051974490864414"><ele>48.2</ele><time>2026-03-28T14:24:36.001Z</time></trkpt><trkpt lat="36.854148678394246" lon="15.051929975551865"><ele>47.800000000000004</ele><time>2026-03-28T14:24:37.001Z</time></trkpt><trkpt lat="36.8540498101672" lon="15.051885360892333"><ele>47.400000000000006</ele><time>2026-03-28T14:24:38.001Z</time></trkpt><trkpt lat="36.85394849431346" lon="15.05183642284293"><ele>47.0</ele><time>2026-03-28T14:24:39.001Z</time></trkpt><trkpt lat="36.85385500657101" lon="15.05179022879237"><ele>47.0</ele><time>2026-03-28T14:24:40.001Z</time></trkpt><trkpt lat="36.853771864907344" lon="15.05175139681302"><ele>47.0</ele><time>2026-03-28T14:24:41.001Z</time></trkpt><trkpt lat="36.85368871181831" lon="15.051705727414417"><ele>47.0</ele><time>2026-03-28T14:24:42Z</time></trkpt><trkpt lat="36.853609415874374" lon="15.051656306737762"><ele>47.0</ele><time>2026-03-28T14:24:43Z</time></trkpt><trkpt lat="36.853543562424825" lon="15.051618153638971"><ele>47.0</ele><time>2026-03-28T14:24:44Z</time></trkpt><trkpt lat="36.85348640531016" lon="15.051581107959288"><ele>47.0</ele><time>2026-03-28T14:24:45Z</time></trkpt><trkpt lat="36.85340555079737" lon="15.051495668535715"><ele>46.0</ele><time>2026-03-28T14:24:47Z</time></trkpt><trkpt lat="36.85337617470016" lon="15.051416527445877"><ele>45.0</ele><time>2026-03-28T14:24:50Z</time></trkpt><trkpt lat="36.85331657280353" lon="15.051384155611418"><ele>44.0</ele><time>2026-03-28T14:24:57Z</time></trkpt><trkpt lat="36.85326535442472" lon="15.051431985733718"><ele>43.0</ele><time>2026-03-28T14:24:59Z</time></trkpt><trkpt lat="36.85320277630232" lon="15.051444725482213"><ele>42.0</ele><time>2026-03-28T14:25:05Z</time></trkpt><trkpt lat="36.85316155379067" lon="15.051525238160878"><ele>41.0</ele><time>2026-03-28T14:25:09Z</time></trkpt><trkpt lat="36.853112283992544" lon="15.051591354670565"><ele>40.0</ele><time>2026-03-28T14:25:13Z</time></trkpt><trkpt lat="36.85303391311913" lon="15.051523002431216"><ele>40.0</ele><time>2026-03-28T14:25:16Z</time></trkpt><trkpt lat="36.85300100513847" lon="15.051431817577276"><ele>40.0</ele><time>2026-03-28T14:25:17Z</time></trkpt><trkpt lat="36.85294033247583" lon="15.051332284021742"><ele>40.0</ele><time>2026-03-28T14:25:18Z</time></trkpt><trkpt lat="36.85287439755144" lon="15.051222291042091"><ele>40.0</ele><time>2026-03-28T14:25:19Z</time></trkpt><trkpt lat="36.85280696191623" lon="15.051125729716471"><ele>40.0</ele><time>2026-03-28T14:25:20Z</time></trkpt><trkpt lat="36.852739543044514" lon="15.051024051530204"><ele>40.0</ele><time>2026-03-28T14:25:21Z</time></trkpt><trkpt lat="36.85267681976568" lon="15.050932873784838"><ele>40.0</ele><time>2026-03-28T14:25:22Z</time></trkpt><trkpt lat="36.85260218008115" lon="15.050834051677276"><ele>40.0</ele><time>2026-03-28T14:25:23Z</time></trkpt><trkpt lat="36.85251218189061" lon="15.050741245396672"><ele>40.0</ele><time>2026-03-28T14:25:24Z</time></trkpt><trkpt lat="36.852422550317215" lon="15.05066265748564"><ele>40.0</ele><time>2026-03-28T14:25:25Z</time></trkpt><trkpt lat="36.85233214550937" lon="15.050593059122479"><ele>42.25</ele><time>2026-03-28T14:25:26Z</time></trkpt><trkpt lat="36.85224566850569" lon="15.050525369589838"><ele>44.5</ele><time>2026-03-28T14:25:27Z</time></trkpt><trkpt lat="36.852143300686265" lon="15.050414881362192"><ele>46.75</ele><time>2026-03-28T14:25:28Z</time></trkpt><trkpt lat="36.85203554212439" lon="15.050292523110738"><ele>49.0</ele><time>2026-03-28T14:25:29Z</time></trkpt><trkpt lat="36.85192621348161" lon="15.050183926372947"><ele>49.0</ele><time>2026-03-28T14:25:30Z</time></trkpt><trkpt lat="36.85183303755722" lon="15.05009804029867"><ele>49.0</ele><time>2026-03-28T14:25:31Z</time></trkpt><trkpt lat="36.851755308404606" lon="15.050018336492508"><ele>49.0</ele><time>2026-03-28T14:25:32Z</time></trkpt><trkpt lat="36.85168990142288" lon="15.049958513902554"><ele>49.0</ele><time>2026-03-28T14:25:33Z</time></trkpt><trkpt lat="36.85160992035866" lon="15.049887431188075"><ele>49.0</ele><time>2026-03-28T14:25:34Z</time></trkpt><trkpt lat="36.85152492266401" lon="15.049819830885111"><ele>51.83333333333333</ele><time>2026-03-28T14:25:35Z</time></trkpt><trkpt lat="36.85145373918874" lon="15.049766594899184"><ele>54.666666666666664</ele><time>2026-03-28T14:25:36Z</time></trkpt><trkpt lat="36.85138481374748" lon="15.049708264879614"><ele>57.5</ele><time>2026-03-28T14:25:37Z</time></trkpt><trkpt lat="36.851337075305764" lon="15.04964894036656"><ele>60.33333333333333</ele><time>2026-03-28T14:25:38Z</time></trkpt><trkpt lat="36.8513094638678" lon="15.049561185730576"><ele>63.166666666666664</ele><time>2026-03-28T14:25:39Z</time></trkpt><trkpt lat="36.85128713256775" lon="15.049472852983994"><ele>66.0</ele><time>2026-03-28T14:25:40Z</time></trkpt><trkpt lat="36.851300721865485" lon="15.049362004244731"><ele>66.0</ele><time>2026-03-28T14:25:41Z</time></trkpt><trkpt lat="36.851251951068676" lon="15.04927396696211"><ele>66.0</ele><time>2026-03-28T14:25:43Z</time></trkpt><trkpt lat="36.851208352088776" lon="15.049165298301144"><ele>66.0</ele><time>2026-03-28T14:25:45Z</time></trkpt><trkpt lat="36.85124060645132" lon="15.049094528443408"><ele>66.0</ele><time>2026-03-28T14:25:47Z</time></trkpt><trkpt lat="36.85129142226101" lon="15.049000155573665"><ele>66.0</ele><time>2026-03-28T14:25:49Z</time></trkpt><trkpt lat="36.851332469620324" lon="15.048880564892952"><ele>66.0</ele><time>2026-03-28T14:25:51Z</time></trkpt><trkpt lat="36.85138100835672" lon="15.04877032220537"><ele>67.39999999999999</ele><time>2026-03-28T14:25:53Z</time></trkpt><trkpt lat="36.85141004844699" lon="15.048678227744185"><ele>68.8</ele><time>2026-03-28T14:25:55Z</time></trkpt><trkpt lat="36.851479415591314" lon="15.048557539172952"><ele>70.19999999999999</ele><time>2026-03-28T14:25:57Z</time></trkpt><trkpt lat="36.85152982000617" lon="15.048446401947412"><ele>71.6</ele><time>2026-03-28T14:25:59Z</time></trkpt><trkpt lat="36.85157937565719" lon="15.048317478388917"><ele>73.0</ele><time>2026-03-28T14:26:01Z</time></trkpt><trkpt lat="36.85165014283895" lon="15.04820967053269"><ele>73.2</ele><time>2026-03-28T14:26:03Z</time></trkpt><trkpt lat="36.851694643111315" lon="15.048122150365453"><ele>73.4</ele><time>2026-03-28T14:26:05Z</time></trkpt><trkpt lat="36.85174095897816" lon="15.04800052853852"><ele>73.60000000000001</ele><time>2026-03-28T14:26:07Z</time></trkpt><trkpt lat="36.851776039344216" lon="15.047886529733384"><ele>73.8</ele><time>2026-03-28T14:26:09Z</time></trkpt><trkpt lat="36.85178852390651" lon="15.047762798929009"><ele>74.0</ele><time>2026-03-28T14:26:11Z</time></trkpt><trkpt lat="36.85181820619921" lon="15.047611811859632"><ele>74.16666666666667</ele><time>2026-03-28T14:26:13Z</time></trkpt><trkpt lat="36.851836275984596" lon="15.047517161224187"><ele>74.33333333333334</ele><time>2026-03-28T14:26:14Z</time></trkpt><trkpt lat="36.851853437159974" lon="15.047439113596585"><ele>74.5</ele><time>2026-03-28T14:26:15Z</time></trkpt><trkpt lat="36.85187891669645" lon="15.047355950159782"><ele>74.66666666666667</ele><time>2026-03-28T14:26:17Z</time></trkpt><trkpt lat="36.85190460189046" lon="15.047269776148553"><ele>74.83333333333333</ele><time>2026-03-28T14:26:19Z</time></trkpt><trkpt lat="36.851954638698246" lon="15.047162957850627"><ele>75.0</ele><time>2026-03-28T14:26:21Z</time></trkpt><trkpt lat="36.85201024356778" lon="15.04708447440234"><ele>76.0</ele><time>2026-03-28T14:26:23Z</time></trkpt><trkpt lat="36.85206696433854" lon="15.047011577221658"><ele>77.0</ele><time>2026-03-28T14:26:25Z</time></trkpt><trkpt lat="36.85210977965102" lon="15.04694660278529"><ele>78.0</ele><time>2026-03-28T14:26:27Z</time></trkpt><trkpt lat="36.852154287639856" lon="15.046854191841977"><ele>79.0</ele><time>2026-03-28T14:26:29Z</time></trkpt><trkpt lat="36.85221469077943" lon="15.046750518858785"><ele>80.0</ele><time>2026-03-28T14:26:31Z</time></trkpt><trkpt lat="36.85226262499782" lon="15.046645262689214"><ele>81.0</ele><time>2026-03-28T14:26:33Z</time></trkpt><trkpt lat="36.85231404454146" lon="15.046542658409525"><ele>82.6</ele><time>2026-03-28T14:26:35.001Z</time></trkpt><trkpt lat="36.85239936735307" lon="15.046439662503875"><ele>84.19999999999999</ele><time>2026-03-28T14:26:37.001Z</time></trkpt><trkpt lat="36.85246364339713" lon="15.0463369357612"><ele>85.80000000000001</ele><time>2026-03-28T14:26:39.001Z</time></trkpt><trkpt lat="36.85250666715751" lon="15.046184310227765"><ele>87.4</ele><time>2026-03-28T14:26:41.001Z</time></trkpt><trkpt lat="36.85252597982136" lon="15.046097271545548"><ele>89.0</ele><time>2026-03-28T14:26:42.001Z</time></trkpt><trkpt lat="36.852546115133975" lon="15.04596659734565"><ele>89.0</ele><time>2026-03-28T14:26:44.001Z</time></trkpt><trkpt lat="36.85255591800399" lon="15.045840170176396"><ele>89.0</ele><time>2026-03-28T14:26:46.001Z</time></trkpt><trkpt lat="36.85255894446339" lon="15.045712200435482"><ele>89.0</ele><time>2026-03-28T14:26:48Z</time></trkpt><trkpt lat="36.85259087886079" lon="15.045608174525226"><ele>89.0</ele><time>2026-03-28T14:26:51Z</time></trkpt><trkpt lat="36.85260830151354" lon="15.045495994136992"><ele>89.0</ele><time>2026-03-28T14:26:53Z</time></trkpt><trkpt lat="36.852646628268886" lon="15.045356766657367"><ele>90.0</ele><time>2026-03-28T14:26:55Z</time></trkpt><trkpt lat="36.852687111353575" lon="15.045231196759866"><ele>91.0</ele><time>2026-03-28T14:26:57Z</time></trkpt><trkpt lat="36.8527354468148" lon="15.04508614385809"><ele>92.0</ele><time>2026-03-28T14:26:59Z</time></trkpt><trkpt lat="36.85278676759066" lon="15.044995975289787"><ele>93.0</ele><time>2026-03-28T14:27:00Z</time></trkpt><trkpt lat="36.85282676466223" lon="15.044894400541239"><ele>94.0</ele><time>2026-03-28T14:27:01Z</time></trkpt><trkpt lat="36.85288565660032" lon="15.044789479812813"><ele>94.0</ele><time>2026-03-28T14:27:02Z</time></trkpt><trkpt lat="36.85293973554943" lon="15.044705388760105"><ele>94.0</ele><time>2026-03-28T14:27:03Z</time></trkpt><trkpt lat="36.85299014840023" lon="15.044636213727083"><ele>94.0</ele><time>2026-03-28T14:27:04Z</time></trkpt><trkpt lat="36.85304227847528" lon="15.044566880052821"><ele>94.0</ele><time>2026-03-28T14:27:05Z</time></trkpt><trkpt lat="36.853115712821996" lon="15.044479048787705"><ele>94.0</ele><time>2026-03-28T14:27:07Z</time></trkpt><trkpt lat="36.85317369302014" lon="15.0444372708577"><ele>94.0</ele><time>2026-03-28T14:27:10Z</time></trkpt><trkpt lat="36.853233043046934" lon="15.044398066647554"><ele>94.0</ele><time>2026-03-28T14:27:46Z</time></trkpt><trkpt lat="36.853318790845734" lon="15.044294584156106"><ele>94.0</ele><time>2026-03-28T14:27:50Z</time></trkpt><trkpt lat="36.85337098700171" lon="15.044234016061466"><ele>94.0</ele><time>2026-03-28T14:27:51Z</time></trkpt><trkpt lat="36.85342290804675" lon="15.044176770898884"><ele>94.0</ele><time>2026-03-28T14:27:52Z</time></trkpt><trkpt lat="36.853476823048865" lon="15.044108719971756"><ele>94.0</ele><time>2026-03-28T14:27:53Z</time></trkpt><trkpt lat="36.853531892913416" lon="15.04402698664562"><ele>94.0</ele><time>2026-03-28T14:27:54Z</time></trkpt><trkpt lat="36.85357141122098" lon="15.043948259851422"><ele>94.80000000000001</ele><time>2026-03-28T14:27:55Z</time></trkpt><trkpt lat="36.85360864912339" lon="15.043797138367813"><ele>95.60000000000001</ele><time>2026-03-28T14:27:57Z</time></trkpt><trkpt lat="36.85362728003464" lon="15.04367127975448"><ele>96.4</ele><time>2026-03-28T14:27:59Z</time></trkpt><trkpt lat="36.85363559185193" lon="15.043560107590537"><ele>97.2</ele><time>2026-03-28T14:28:01Z</time></trkpt><trkpt lat="36.85363937939646" lon="15.043446075772403"><ele>98.0</ele><time>2026-03-28T14:28:03Z</time></trkpt><trkpt lat="36.8536445501363" lon="15.043290271102336"><ele>98.80000000000001</ele><time>2026-03-28T14:28:05Z</time></trkpt><trkpt lat="36.85366327967996" lon="15.04315414964533"><ele>99.6</ele><time>2026-03-28T14:28:07Z</time></trkpt><trkpt lat="36.853687703751376" lon="15.043060542477338"><ele>100.4</ele><time>2026-03-28T14:28:09Z</time></trkpt><trkpt lat="36.85371858548701" lon="15.042906968410431"><ele>101.19999999999999</ele><time>2026-03-28T14:28:11Z</time></trkpt><trkpt lat="36.85376347197072" lon="15.042818408578336"><ele>102.0</ele><time>2026-03-28T14:28:12Z</time></trkpt><trkpt lat="36.853809760878384" lon="15.04272695319941"><ele>102.0</ele><time>2026-03-28T14:28:13Z</time></trkpt><trkpt lat="36.85384882371684" lon="15.042632960045713"><ele>102.0</ele><time>2026-03-28T14:28:14Z</time></trkpt><trkpt lat="36.85390424468661" lon="15.042542226130053"><ele>102.0</ele><time>2026-03-28T14:28:15Z</time></trkpt><trkpt lat="36.85395408723676" lon="15.042440135731676"><ele>102.0</ele><time>2026-03-28T14:28:16Z</time></trkpt><trkpt lat="36.85399869406132" lon="15.042328928464308"><ele>102.0</ele><time>2026-03-28T14:28:17Z</time></trkpt><trkpt lat="36.85405244108016" lon="15.042249713373252"><ele>102.75</ele><time>2026-03-28T14:28:18Z</time></trkpt><trkpt lat="36.854106922383245" lon="15.042107535777903"><ele>103.5</ele><time>2026-03-28T14:28:20Z</time></trkpt><trkpt lat="36.85416954358884" lon="15.041971440131809"><ele>104.25</ele><time>2026-03-28T14:28:22Z</time></trkpt><trkpt lat="36.85421712460642" lon="15.041852552409141"><ele>105.0</ele><time>2026-03-28T14:28:24Z</time></trkpt><trkpt lat="36.85427168118827" lon="15.041759563583442"><ele>105.16666666666667</ele><time>2026-03-28T14:28:25Z</time></trkpt><trkpt lat="36.85433362091057" lon="15.041675507524307"><ele>105.33333333333334</ele><time>2026-03-28T14:28:26Z</time></trkpt><trkpt lat="36.85439112077009" lon="15.041622260681153"><ele>105.5</ele><time>2026-03-28T14:28:27Z</time></trkpt><trkpt lat="36.854430540694786" lon="15.041534658425329"><ele>105.66666666666667</ele><time>2026-03-28T14:28:28Z</time></trkpt><trkpt lat="36.8544927429204" lon="15.041467788978707"><ele>105.83333333333334</ele><time>2026-03-28T14:28:29Z</time></trkpt><trkpt lat="36.85454851184919" lon="15.041384015932216"><ele>106.0</ele><time>2026-03-28T14:28:30Z</time></trkpt><trkpt lat="36.85459829874745" lon="15.041302561179334"><ele>106.00000000000001</ele><time>2026-03-28T14:28:31Z</time></trkpt><trkpt lat="36.85463801651605" lon="15.04123537416583"><ele>106.0</ele><time>2026-03-28T14:28:32Z</time></trkpt><trkpt lat="36.85468597246918" lon="15.04117147607902"><ele>106.0</ele><time>2026-03-28T14:28:33.001Z</time></trkpt><trkpt lat="36.85473792895069" lon="15.041103615244682"><ele>106.0</ele><time>2026-03-28T14:28:34.001Z</time></trkpt><trkpt lat="36.85479007041293" lon="15.041026349733984"><ele>106.00000000000001</ele><time>2026-03-28T14:28:35.001Z</time></trkpt><trkpt lat="36.85484962412072" lon="15.040972504919626"><ele>106.0</ele><time>2026-03-28T14:28:36.001Z</time></trkpt><trkpt lat="36.85491197798798" lon="15.040872771727418"><ele>106.0</ele><time>2026-03-28T14:28:38.001Z</time></trkpt><trkpt lat="36.854952091166226" lon="15.040804537649235"><ele>106.0</ele><time>2026-03-28T14:28:40.001Z</time></trkpt><trkpt lat="36.85488906599619" lon="15.04064801490642"><ele>106.0</ele><time>2026-03-28T14:28:43.001Z</time></trkpt><trkpt lat="36.85479869970711" lon="15.040591967762213"><ele>106.0</ele><time>2026-03-28T14:28:45.001Z</time></trkpt><trkpt lat="36.85471540808257" lon="15.040542768981693"><ele>106.0</ele><time>2026-03-28T14:28:47.001Z</time></trkpt><trkpt lat="36.854627815704895" lon="15.040506675654223"><ele>105.16666666666667</ele><time>2026-03-28T14:28:49.001Z</time></trkpt><trkpt lat="36.85454458024126" lon="15.04046542228541"><ele>104.33333333333334</ele><time>2026-03-28T14:28:51.001Z</time></trkpt><trkpt lat="36.854476267420004" lon="15.040415147149385"><ele>103.5</ele><time>2026-03-28T14:28:53.001Z</time></trkpt><trkpt lat="36.85440486445951" lon="15.040351382473123"><ele>102.66666666666666</ele><time>2026-03-28T14:28:56Z</time></trkpt><trkpt lat="36.85432238430921" lon="15.040306923082358"><ele>101.83333333333333</ele><time>2026-03-28T14:28:59Z</time></trkpt><trkpt lat="36.854264230294696" lon="15.040272239709493"><ele>101.0</ele><time>2026-03-28T14:29:01Z</time></trkpt><trkpt lat="36.85416417517589" lon="15.040275609469015"><ele>98.71428571428571</ele><time>2026-03-28T14:29:03Z</time></trkpt><trkpt lat="36.85407514673043" lon="15.040305530221854"><ele>96.42857142857142</ele><time>2026-03-28T14:29:05Z</time></trkpt><trkpt lat="36.85401432024724" lon="15.040328634334506"><ele>94.14285714285714</ele><time>2026-03-28T14:29:06Z</time></trkpt><trkpt lat="36.853951380191795" lon="15.040374525648685"><ele>91.85714285714286</ele><time>2026-03-28T14:29:07Z</time></trkpt><trkpt lat="36.85388663616511" lon="15.040402886538763"><ele>89.57142857142857</ele><time>2026-03-28T14:29:08Z</time></trkpt><trkpt lat="36.853819007989976" lon="15.040413961363697"><ele>87.28571428571429</ele><time>2026-03-28T14:29:09Z</time></trkpt><trkpt lat="36.85374943898897" lon="15.04045498265135"><ele>85.0</ele><time>2026-03-28T14:29:10Z</time></trkpt><trkpt lat="36.85366255786804" lon="15.040518507313836"><ele>85.0</ele><time>2026-03-28T14:29:11Z</time></trkpt><trkpt lat="36.85359511670791" lon="15.040593627960577"><ele>85.0</ele><time>2026-03-28T14:29:12Z</time></trkpt><trkpt lat="36.85354603912869" lon="15.040666160854434"><ele>85.0</ele><time>2026-03-28T14:29:13Z</time></trkpt><trkpt lat="36.85349694806565" lon="15.040715921291532"><ele>85.0</ele><time>2026-03-28T14:29:14Z</time></trkpt><trkpt lat="36.85342610118861" lon="15.040779412054743"><ele>85.0</ele><time>2026-03-28T14:29:16Z</time></trkpt><trkpt lat="36.85336233517208" lon="15.040932671466228"><ele>84.83333333333333</ele><time>2026-03-28T14:29:18Z</time></trkpt><trkpt lat="36.853329789892626" lon="15.041002739454592"><ele>84.66666666666666</ele><time>2026-03-28T14:29:19Z</time></trkpt><trkpt lat="36.85327197612811" lon="15.04105997318992"><ele>84.5</ele><time>2026-03-28T14:29:21Z</time></trkpt><trkpt lat="36.853165671511164" lon="15.041063217499145"><ele>84.33333333333333</ele><time>2026-03-28T14:29:23Z</time></trkpt><trkpt lat="36.85308698010627" lon="15.041163467448376"><ele>84.16666666666667</ele><time>2026-03-28T14:29:25Z</time></trkpt><trkpt lat="36.853049153124694" lon="15.041236010414439"><ele>84.0</ele><time>2026-03-28T14:29:26Z</time></trkpt><trkpt lat="36.852991647321275" lon="15.041298907922771"><ele>84.0</ele><time>2026-03-28T14:29:27Z</time></trkpt><trkpt lat="36.85294363989925" lon="15.041373266614048"><ele>84.0</ele><time>2026-03-28T14:29:28Z</time></trkpt><trkpt lat="36.85287835085889" lon="15.041468135786577"><ele>84.0</ele><time>2026-03-28T14:29:29Z</time></trkpt><trkpt lat="36.85281343382766" lon="15.041560824465048"><ele>84.0</ele><time>2026-03-28T14:29:30Z</time></trkpt><trkpt lat="36.85276034639218" lon="15.041635905272525"><ele>84.0</ele><time>2026-03-28T14:29:31Z</time></trkpt><trkpt lat="36.85271344632565" lon="15.041702235327328"><ele>84.0</ele><time>2026-03-28T14:29:32Z</time></trkpt><trkpt lat="36.85264346827071" lon="15.04179550023465"><ele>80.8</ele><time>2026-03-28T14:29:34Z</time></trkpt><trkpt lat="36.85254633547657" lon="15.041851176343469"><ele>77.60000000000001</ele><time>2026-03-28T14:29:36Z</time></trkpt><trkpt lat="36.85243813352389" lon="15.041781770549353"><ele>74.4</ele><time>2026-03-28T14:29:38Z</time></trkpt><trkpt lat="36.85237940167701" lon="15.041732145806495"><ele>71.2</ele><time>2026-03-28T14:29:39Z</time></trkpt><trkpt lat="36.852304127235264" lon="15.04169049554773"><ele>68.0</ele><time>2026-03-28T14:29:40Z</time></trkpt><trkpt lat="36.85223812830093" lon="15.041648542428137"><ele>67.57142857142857</ele><time>2026-03-28T14:29:41Z</time></trkpt><trkpt lat="36.852175986699585" lon="15.041607483134547"><ele>67.14285714285714</ele><time>2026-03-28T14:29:42Z</time></trkpt><trkpt lat="36.85212739511293" lon="15.041555387522843"><ele>66.71428571428572</ele><time>2026-03-28T14:29:43Z</time></trkpt><trkpt lat="36.852067196264535" lon="15.041515421512539"><ele>66.28571428571428</ele><time>2026-03-28T14:29:44Z</time></trkpt><trkpt lat="36.852006155161064" lon="15.041474896418329"><ele>65.85714285714286</ele><time>2026-03-28T14:29:45Z</time></trkpt><trkpt lat="36.85194686548765" lon="15.04143359528554"><ele>65.42857142857143</ele><time>2026-03-28T14:29:46Z</time></trkpt><trkpt lat="36.85188691116944" lon="15.041389631704654"><ele>65.0</ele><time>2026-03-28T14:29:47Z</time></trkpt><trkpt lat="36.85183311644723" lon="15.041337265637349"><ele>62.66666666666667</ele><time>2026-03-28T14:29:48Z</time></trkpt><trkpt lat="36.851785202324216" lon="15.041282582591535"><ele>60.333333333333336</ele><time>2026-03-28T14:29:49Z</time></trkpt><trkpt lat="36.85173513223441" lon="15.041223639795804"><ele>58.0</ele><time>2026-03-28T14:29:50Z</time></trkpt><trkpt lat="36.85167789693527" lon="15.04118135109598"><ele>55.66666666666667</ele><time>2026-03-28T14:29:51Z</time></trkpt><trkpt lat="36.85163674573373" lon="15.041107818696402"><ele>53.333333333333336</ele><time>2026-03-28T14:29:52Z</time></trkpt><trkpt lat="36.851550943384424" lon="15.041004701136188"><ele>51.0</ele><time>2026-03-28T14:29:54Z</time></trkpt><trkpt lat="36.85146413574256" lon="15.040894195548614"><ele>50.166666666666664</ele><time>2026-03-28T14:29:56Z</time></trkpt><trkpt lat="36.85137210175512" lon="15.040779771511682"><ele>49.333333333333336</ele><time>2026-03-28T14:29:58Z</time></trkpt><trkpt lat="36.85133388291929" lon="15.040693689248526"><ele>48.5</ele><time>2026-03-28T14:29:59Z</time></trkpt><trkpt lat="36.8512987163989" lon="15.040606304980972"><ele>47.66666666666667</ele><time>2026-03-28T14:30:00Z</time></trkpt><trkpt lat="36.85126649852143" lon="15.040524118328127"><ele>46.833333333333336</ele><time>2026-03-28T14:30:01Z</time></trkpt><trkpt lat="36.85124538662796" lon="15.04044235736687"><ele>46.0</ele><time>2026-03-28T14:30:02Z</time></trkpt><trkpt lat="36.851188466933614" lon="15.040296108899367"><ele>46.0</ele><time>2026-03-28T14:30:04Z</time></trkpt><trkpt lat="36.851148860223645" lon="15.040233020846015"><ele>46.0</ele><time>2026-03-28T14:30:05Z</time></trkpt><trkpt lat="36.85107969565512" lon="15.040134824040544"><ele>46.0</ele><time>2026-03-28T14:30:06Z</time></trkpt><trkpt lat="36.85098111554571" lon="15.040004594722566"><ele>46.0</ele><time>2026-03-28T14:30:07Z</time></trkpt><trkpt lat="36.85090823288665" lon="15.039886144988062"><ele>46.0</ele><time>2026-03-28T14:30:08Z</time></trkpt><trkpt lat="36.85082820168744" lon="15.039807687680183"><ele>44.75</ele><time>2026-03-28T14:30:09Z</time></trkpt><trkpt lat="36.85076268062882" lon="15.039691173460774"><ele>43.5</ele><time>2026-03-28T14:30:10Z</time></trkpt><trkpt lat="36.85068787589412" lon="15.039591199584422"><ele>42.25</ele><time>2026-03-28T14:30:11Z</time></trkpt><trkpt lat="36.85060773425976" lon="15.039479203465183"><ele>41.0</ele><time>2026-03-28T14:30:12Z</time></trkpt><trkpt lat="36.850523379585844" lon="15.039373433933305"><ele>41.0</ele><time>2026-03-28T14:30:13Z</time></trkpt><trkpt lat="36.85046159657727" lon="15.039280745985836"><ele>41.0</ele><time>2026-03-28T14:30:14Z</time></trkpt><trkpt lat="36.85040670415592" lon="15.039205220196552"><ele>41.0</ele><time>2026-03-28T14:30:15Z</time></trkpt><trkpt lat="36.85032999571789" lon="15.039123111420547"><ele>41.0</ele><time>2026-03-28T14:30:16Z</time></trkpt><trkpt lat="36.850269107034386" lon="15.039023758967573"><ele>41.0</ele><time>2026-03-28T14:30:17Z</time></trkpt><trkpt lat="36.85021532595938" lon="15.038954098129372"><ele>40.8</ele><time>2026-03-28T14:30:18Z</time></trkpt><trkpt lat="36.85013475412093" lon="15.038878022325125"><ele>40.599999999999994</ele><time>2026-03-28T14:30:20Z</time></trkpt><trkpt lat="36.85006195357392" lon="15.038781973250723"><ele>40.4</ele><time>2026-03-28T14:30:22Z</time></trkpt><trkpt lat="36.85002097657255" lon="15.038699356218375"><ele>40.2</ele><time>2026-03-28T14:30:23Z</time></trkpt><trkpt lat="36.84995709747848" lon="15.038608507001896"><ele>40.0</ele><time>2026-03-28T14:30:24Z</time></trkpt><trkpt lat="36.84990351247554" lon="15.03851502451555"><ele>40.0</ele><time>2026-03-28T14:30:25Z</time></trkpt><trkpt lat="36.84989534447426" lon="15.038411338584421"><ele>40.0</ele><time>2026-03-28T14:30:26.001Z</time></trkpt><trkpt lat="36.84989613961497" lon="15.03831153989469"><ele>40.0</ele><time>2026-03-28T14:30:27.001Z</time></trkpt><trkpt lat="36.849887344814036" lon="15.038193932545582"><ele>40.0</ele><time>2026-03-28T14:30:28.001Z</time></trkpt><trkpt lat="36.849876443258005" lon="15.038048152984993"><ele>40.0</ele><time>2026-03-28T14:30:29.001Z</time></trkpt><trkpt lat="36.84986508788723" lon="15.037896304697197"><ele>41.75</ele><time>2026-03-28T14:30:30.001Z</time></trkpt><trkpt lat="36.849840545628815" lon="15.037732897401602"><ele>43.5</ele><time>2026-03-28T14:30:31.001Z</time></trkpt><trkpt lat="36.849833400163014" lon="15.037558033454872"><ele>45.25</ele><time>2026-03-28T14:30:32.001Z</time></trkpt><trkpt lat="36.84983919491435" lon="15.03741462737002"><ele>47.0</ele><time>2026-03-28T14:30:33.001Z</time></trkpt><trkpt lat="36.84983076265613" lon="15.037325260157717"><ele>47.0</ele><time>2026-03-28T14:30:34.001Z</time></trkpt><trkpt lat="36.84980195932769" lon="15.03721467616857"><ele>47.0</ele><time>2026-03-28T14:30:36.001Z</time></trkpt><trkpt lat="36.84967964758195" lon="15.037209399547022"><ele>47.0</ele><time>2026-03-28T14:30:38.001Z</time></trkpt><trkpt lat="36.84962966160484" lon="15.037288567236232"><ele>47.0</ele><time>2026-03-28T14:30:39.001Z</time></trkpt><trkpt lat="36.84961965617677" lon="15.037392947356501"><ele>47.0</ele><time>2026-03-28T14:30:40.001Z</time></trkpt><trkpt lat="36.84960364365711" lon="15.03752730086661"><ele>47.0</ele><time>2026-03-28T14:30:41.001Z</time></trkpt><trkpt lat="36.849539158475146" lon="15.037665608434864"><ele>47.0</ele><time>2026-03-28T14:30:42.001Z</time></trkpt><trkpt lat="36.84946808225754" lon="15.037833891916039"><ele>47.0</ele><time>2026-03-28T14:30:43.001Z</time></trkpt><trkpt lat="36.84941475691826" lon="15.037949316983399"><ele>47.0</ele><time>2026-03-28T14:30:44.001Z</time></trkpt><trkpt lat="36.84933918117148" lon="15.03801732068432"><ele>47.0</ele><time>2026-03-28T14:30:46.001Z</time></trkpt><trkpt lat="36.849284055501066" lon="15.03790330778482"><ele>47.0</ele><time>2026-03-28T14:30:48.001Z</time></trkpt><trkpt lat="36.849296670285014" lon="15.037774395807189"><ele>47.0</ele><time>2026-03-28T14:30:49.001Z</time></trkpt><trkpt lat="36.84929580308282" lon="15.037614387908539"><ele>47.0</ele><time>2026-03-28T14:30:50.001Z</time></trkpt><trkpt lat="36.84927667715887" lon="15.037483758843063"><ele>47.0</ele><time>2026-03-28T14:30:51.001Z</time></trkpt><trkpt lat="36.8492762345413" lon="15.037391232607982"><ele>53.0</ele><time>2026-03-28T14:30:52.001Z</time></trkpt><trkpt lat="36.84926540992189" lon="15.037301105098953"><ele>59.0</ele><time>2026-03-28T14:30:53.001Z</time></trkpt><trkpt lat="36.84925317980607" lon="15.037175692262007"><ele>65.0</ele><time>2026-03-28T14:30:54.001Z</time></trkpt><trkpt lat="36.849248603607165" lon="15.037037391719867"><ele>71.0</ele><time>2026-03-28T14:30:55.001Z</time></trkpt><trkpt lat="36.84925110510538" lon="15.036861277155104"><ele>77.0</ele><time>2026-03-28T14:30:56.001Z</time></trkpt><trkpt lat="36.84924452711451" lon="15.036682843959275"><ele>76.5</ele><time>2026-03-28T14:30:57.001Z</time></trkpt><trkpt lat="36.849223832319076" lon="15.03653539985884"><ele>76.0</ele><time>2026-03-28T14:30:58.001Z</time></trkpt><trkpt lat="36.84921001216448" lon="15.036400208438133"><ele>75.5</ele><time>2026-03-28T14:30:59.001Z</time></trkpt><trkpt lat="36.84916425237782" lon="15.036256619356873"><ele>75.0</ele><time>2026-03-28T14:31:00Z</time></trkpt><trkpt lat="36.84911144255203" lon="15.036135549507812"><ele>75.0</ele><time>2026-03-28T14:31:01Z</time></trkpt><trkpt lat="36.84908233805268" lon="15.03604400209799"><ele>75.0</ele><time>2026-03-28T14:31:02Z</time></trkpt><trkpt lat="36.849076881436055" lon="15.03591993147861"><ele>75.0</ele><time>2026-03-28T14:31:03Z</time></trkpt><trkpt lat="36.849135100593735" lon="15.035808041712972"><ele>75.0</ele><time>2026-03-28T14:31:04Z</time></trkpt><trkpt lat="36.849188207141864" lon="15.035699801898371"><ele>75.0</ele><time>2026-03-28T14:31:05Z</time></trkpt><trkpt lat="36.849222730422554" lon="15.035617395364632"><ele>74.5</ele><time>2026-03-28T14:31:06Z</time></trkpt><trkpt lat="36.8492338470255" lon="15.035498347795516"><ele>74.0</ele><time>2026-03-28T14:31:08Z</time></trkpt><trkpt lat="36.84916098271223" lon="15.035384190087568"><ele>73.5</ele><time>2026-03-28T14:31:10Z</time></trkpt><trkpt lat="36.84905818054132" lon="15.035417205173106"><ele>73.0</ele><time>2026-03-28T14:31:11Z</time></trkpt><trkpt lat="36.84900279061675" lon="15.035586189514754"><ele>73.0</ele><time>2026-03-28T14:31:12Z</time></trkpt><trkpt lat="36.84890401253919" lon="15.03568115295293"><ele>73.0</ele><time>2026-03-28T14:31:13Z</time></trkpt><trkpt lat="36.84880233048243" lon="15.035776570488991"><ele>73.0</ele><time>2026-03-28T14:31:14Z</time></trkpt><trkpt lat="36.84867626960864" lon="15.035878882367642"><ele>73.0</ele><time>2026-03-28T14:31:15Z</time></trkpt><trkpt lat="36.84854770114995" lon="15.036005688500458"><ele>69.33333333333333</ele><time>2026-03-28T14:31:16Z</time></trkpt><trkpt lat="36.84843231249421" lon="15.036149858123803"><ele>65.66666666666667</ele><time>2026-03-28T14:31:17Z</time></trkpt><trkpt lat="36.84832680623338" lon="15.036284291136512"><ele>62.0</ele><time>2026-03-28T14:31:18Z</time></trkpt><trkpt lat="36.848230639150124" lon="15.036411102457556"><ele>62.0</ele><time>2026-03-28T14:31:19Z</time></trkpt><trkpt lat="36.848143191177066" lon="15.036532063504094"><ele>62.0</ele><time>2026-03-28T14:31:20Z</time></trkpt><trkpt lat="36.848060157525104" lon="15.03665079070955"><ele>62.0</ele><time>2026-03-28T14:31:21Z</time></trkpt><trkpt lat="36.84798728371892" lon="15.03676013711366"><ele>62.0</ele><time>2026-03-28T14:31:22Z</time></trkpt><trkpt lat="36.847913864889215" lon="15.036840831719912"><ele>60.400000000000006</ele><time>2026-03-28T14:31:23Z</time></trkpt><trkpt lat="36.8478336592094" lon="15.036881203722535"><ele>58.800000000000004</ele><time>2026-03-28T14:31:24Z</time></trkpt><trkpt lat="36.84774709702527" lon="15.036908755345404"><ele>57.2</ele><time>2026-03-28T14:31:25Z</time></trkpt><trkpt lat="36.847648753813765" lon="15.036910657043496"><ele>55.6</ele><time>2026-03-28T14:31:26Z</time></trkpt><trkpt lat="36.84753975492341" lon="15.036854377244632"><ele>54.0</ele><time>2026-03-28T14:31:27Z</time></trkpt><trkpt lat="36.8474192191239" lon="15.036801540710544"><ele>54.0</ele><time>2026-03-28T14:31:28Z</time></trkpt><trkpt lat="36.847306357810155" lon="15.036756801862925"><ele>54.00000000000001</ele><time>2026-03-28T14:31:29Z</time></trkpt><trkpt lat="36.84719586574868" lon="15.03671978180558"><ele>54.00000000000001</ele><time>2026-03-28T14:31:30Z</time></trkpt><trkpt lat="36.847105234960395" lon="15.036691238007238"><ele>54.0</ele><time>2026-03-28T14:31:31Z</time></trkpt><trkpt lat="36.847029076276755" lon="15.036667252131036"><ele>54.0</ele><time>2026-03-28T14:31:32Z</time></trkpt><trkpt lat="36.84696297858893" lon="15.036642324574766"><ele>52.800000000000004</ele><time>2026-03-28T14:31:33Z</time></trkpt><trkpt lat="36.84688220829654" lon="15.036567129437877"><ele>51.60000000000001</ele><time>2026-03-28T14:31:35Z</time></trkpt><trkpt lat="36.84691844678813" lon="15.036428265329878"><ele>50.4</ele><time>2026-03-28T14:31:37Z</time></trkpt><trkpt lat="36.84691809926749" lon="15.036288670565838"><ele>49.2</ele><time>2026-03-28T14:31:39Z</time></trkpt><trkpt lat="36.84686202077841" lon="15.036244328542475"><ele>48.0</ele><time>2026-03-28T14:31:40Z</time></trkpt><trkpt lat="36.84681121265411" lon="15.036173107033626"><ele>48.0</ele><time>2026-03-28T14:31:42Z</time></trkpt><trkpt lat="36.84681547685978" lon="15.036055362630472"><ele>48.0</ele><time>2026-03-28T14:32:14Z</time></trkpt><trkpt lat="36.84682579026362" lon="15.035902420207204"><ele>48.0</ele><time>2026-03-28T14:32:16Z</time></trkpt><trkpt lat="36.8468324249624" lon="15.035805386690583"><ele>48.0</ele><time>2026-03-28T14:32:17Z</time></trkpt><trkpt lat="36.84683766749176" lon="15.035697450681056"><ele>48.0</ele><time>2026-03-28T14:32:18Z</time></trkpt><trkpt lat="36.8468452285791" lon="15.035577380946899"><ele>48.0</ele><time>2026-03-28T14:32:19Z</time></trkpt><trkpt lat="36.84685098268223" lon="15.035462134816141"><ele>48.0</ele><time>2026-03-28T14:32:20Z</time></trkpt><trkpt lat="36.846855937788945" lon="15.035362614226354"><ele>48.0</ele><time>2026-03-28T14:32:21.001Z</time></trkpt><trkpt lat="36.84686215182802" lon="15.035264944636348"><ele>48.0</ele><time>2026-03-28T14:32:22.001Z</time></trkpt><trkpt lat="36.8468721114828" lon="15.035161234338231"><ele>48.0</ele><time>2026-03-28T14:32:23.001Z</time></trkpt><trkpt lat="36.84689154507976" lon="15.035063227059657"><ele>48.0</ele><time>2026-03-28T14:32:24.001Z</time></trkpt><trkpt lat="36.84692544573395" lon="15.03494336995179"><ele>48.0</ele><time>2026-03-28T14:32:25.001Z</time></trkpt><trkpt lat="36.846972995456795" lon="15.034784940909526"><ele>48.0</ele><time>2026-03-28T14:32:26.001Z</time></trkpt><trkpt lat="36.84703688208363" lon="15.034580125638952"><ele>48.0</ele><time>2026-03-28T14:32:27.001Z</time></trkpt><trkpt lat="36.84709055754765" lon="15.034383956471725"><ele>48.0</ele><time>2026-03-28T14:32:28.001Z</time></trkpt><trkpt lat="36.84713641446517" lon="15.034229150619739"><ele>48.0</ele><time>2026-03-28T14:32:29.001Z</time></trkpt><trkpt lat="36.84716502932762" lon="15.034080964013292"><ele>48.0</ele><time>2026-03-28T14:32:30.001Z</time></trkpt><trkpt lat="36.84721661371691" lon="15.033929073991557"><ele>48.0</ele><time>2026-03-28T14:32:31.001Z</time></trkpt><trkpt lat="36.84725414088503" lon="15.033757046247489"><ele>49.0</ele><time>2026-03-28T14:32:32.001Z</time></trkpt><trkpt lat="36.84729302827628" lon="15.033578783214363"><ele>50.0</ele><time>2026-03-28T14:32:33.001Z</time></trkpt><trkpt lat="36.84733003090997" lon="15.03341743554936"><ele>51.0</ele><time>2026-03-28T14:32:34.001Z</time></trkpt><trkpt lat="36.84736582329568" lon="15.033272699444653"><ele>52.0</ele><time>2026-03-28T14:32:35.001Z</time></trkpt><trkpt lat="36.84740340852314" lon="15.033120713943143"><ele>53.25</ele><time>2026-03-28T14:32:36.001Z</time></trkpt><trkpt lat="36.84744288145036" lon="15.032958483435419"><ele>54.5</ele><time>2026-03-28T14:32:37.001Z</time></trkpt><trkpt lat="36.84747915152059" lon="15.032789959745697"><ele>55.75</ele><time>2026-03-28T14:32:38.001Z</time></trkpt><trkpt lat="36.84751438335498" lon="15.032612375824582"><ele>57.0</ele><time>2026-03-28T14:32:39.001Z</time></trkpt><trkpt lat="36.84754487922427" lon="15.032444141902221"><ele>57.5</ele><time>2026-03-28T14:32:40.001Z</time></trkpt><trkpt lat="36.84757137216943" lon="15.032280963945349"><ele>58.0</ele><time>2026-03-28T14:32:41.001Z</time></trkpt><trkpt lat="36.847595875622574" lon="15.032114386701464"><ele>58.5</ele><time>2026-03-28T14:32:42.001Z</time></trkpt><trkpt lat="36.84761645826544" lon="15.031963169095034"><ele>59.0</ele><time>2026-03-28T14:32:43.001Z</time></trkpt><trkpt lat="36.847631434956234" lon="15.03182225969127"><ele>59.0</ele><time>2026-03-28T14:32:44.001Z</time></trkpt><trkpt lat="36.84762559415118" lon="15.031687150399167"><ele>59.00000000000001</ele><time>2026-03-28T14:32:45.001Z</time></trkpt><trkpt lat="36.84763045396209" lon="15.031567415812233"><ele>59.00000000000001</ele><time>2026-03-28T14:32:46.001Z</time></trkpt><trkpt lat="36.84763274696846" lon="15.031451667557796"><ele>59.0</ele><time>2026-03-28T14:32:47.001Z</time></trkpt><trkpt lat="36.847633443744854" lon="15.031341199536055"><ele>59.0</ele><time>2026-03-28T14:32:48.001Z</time></trkpt><trkpt lat="36.84763491475846" lon="15.0312268775999"><ele>59.2</ele><time>2026-03-28T14:32:49.001Z</time></trkpt><trkpt lat="36.84762856942131" lon="15.031106836194647"><ele>59.400000000000006</ele><time>2026-03-28T14:32:50.001Z</time></trkpt><trkpt lat="36.847630232849276" lon="15.030987088687942"><ele>59.6</ele><time>2026-03-28T14:32:51.001Z</time></trkpt><trkpt lat="36.84763173515114" lon="15.03086787846123"><ele>59.8</ele><time>2026-03-28T14:32:52.001Z</time></trkpt><trkpt lat="36.84763257152927" lon="15.030743638189387"><ele>60.0</ele><time>2026-03-28T14:32:53.001Z</time></trkpt><trkpt lat="36.84763477397626" lon="15.030610932407226"><ele>60.0</ele><time>2026-03-28T14:32:54.001Z</time></trkpt><trkpt lat="36.84764884868168" lon="15.030454951839003"><ele>60.0</ele><time>2026-03-28T14:32:55.001Z</time></trkpt><trkpt lat="36.8476788432657" lon="15.03028346057742"><ele>60.0</ele><time>2026-03-28T14:32:56.001Z</time></trkpt><trkpt lat="36.847717349917694" lon="15.03011044674482"><ele>60.0</ele><time>2026-03-28T14:32:57.001Z</time></trkpt><trkpt lat="36.84775950608761" lon="15.029930004276634"><ele>59.25</ele><time>2026-03-28T14:32:58.001Z</time></trkpt><trkpt lat="36.847804421975965" lon="15.029751601660847"><ele>58.5</ele><time>2026-03-28T14:32:59.001Z</time></trkpt><trkpt lat="36.84784912906118" lon="15.029576835235192"><ele>57.75</ele><time>2026-03-28T14:33:00.001Z</time></trkpt><trkpt lat="36.84788633372808" lon="15.029410863053323"><ele>57.0</ele><time>2026-03-28T14:33:01.001Z</time></trkpt><trkpt lat="36.84791710803471" lon="15.029243757676323"><ele>57.0</ele><time>2026-03-28T14:33:02.001Z</time></trkpt><trkpt lat="36.84793819372498" lon="15.029067554792906"><ele>57.0</ele><time>2026-03-28T14:33:03.001Z</time></trkpt><trkpt lat="36.84795472012673" lon="15.028876852407556"><ele>57.0</ele><time>2026-03-28T14:33:04.001Z</time></trkpt><trkpt lat="36.847966239627915" lon="15.028674398009"><ele>57.0</ele><time>2026-03-28T14:33:05.001Z</time></trkpt><trkpt lat="36.84797032151125" lon="15.02847555109647"><ele>57.0</ele><time>2026-03-28T14:33:06Z</time></trkpt><trkpt lat="36.847969514322614" lon="15.028271430698132"><ele>57.0</ele><time>2026-03-28T14:33:07Z</time></trkpt><trkpt lat="36.847959487202814" lon="15.02806367003019"><ele>57.0</ele><time>2026-03-28T14:33:08Z</time></trkpt><trkpt lat="36.84794849040228" lon="15.027852147133244"><ele>57.0</ele><time>2026-03-28T14:33:09Z</time></trkpt><trkpt lat="36.8479359843272" lon="15.027643666104142"><ele>57.0</ele><time>2026-03-28T14:33:10Z</time></trkpt><trkpt lat="36.847927567161484" lon="15.02745899168582"><ele>57.25</ele><time>2026-03-28T14:33:11Z</time></trkpt><trkpt lat="36.84792521551169" lon="15.0272912065345"><ele>57.5</ele><time>2026-03-28T14:33:12Z</time></trkpt><trkpt lat="36.847930990915806" lon="15.027138993390084"><ele>57.75</ele><time>2026-03-28T14:33:13Z</time></trkpt><trkpt lat="36.84794109433284" lon="15.026980618507498"><ele>58.0</ele><time>2026-03-28T14:33:14Z</time></trkpt><trkpt lat="36.84796114630193" lon="15.026798567145727"><ele>59.0</ele><time>2026-03-28T14:33:15Z</time></trkpt><trkpt lat="36.847990753506664" lon="15.02660834294988"><ele>60.0</ele><time>2026-03-28T14:33:16Z</time></trkpt><trkpt lat="36.848030542368875" lon="15.026400732055652"><ele>61.0</ele><time>2026-03-28T14:33:17Z</time></trkpt><trkpt lat="36.84807200247006" lon="15.026186161486683"><ele>61.0</ele><time>2026-03-28T14:33:18Z</time></trkpt><trkpt lat="36.84810857809799" lon="15.02597212852988"><ele>61.0</ele><time>2026-03-28T14:33:19Z</time></trkpt><trkpt lat="36.84814114885082" lon="15.025753588676936"><ele>61.0</ele><time>2026-03-28T14:33:20Z</time></trkpt><trkpt lat="36.848172651793014" lon="15.025533944758559"><ele>62.0</ele><time>2026-03-28T14:33:21Z</time></trkpt><trkpt lat="36.84819563384449" lon="15.025309013858402"><ele>63.0</ele><time>2026-03-28T14:33:22Z</time></trkpt><trkpt lat="36.848203391156495" lon="15.025082824895383"><ele>64.0</ele><time>2026-03-28T14:33:23Z</time></trkpt><trkpt lat="36.84819633476957" lon="15.024880643616644"><ele>64.4</ele><time>2026-03-28T14:33:24Z</time></trkpt><trkpt lat="36.84818839195251" lon="15.024706217868701"><ele>64.80000000000001</ele><time>2026-03-28T14:33:25Z</time></trkpt><trkpt lat="36.84818680575262" lon="15.024571019855111"><ele>65.19999999999999</ele><time>2026-03-28T14:33:26Z</time></trkpt><trkpt lat="36.84819051904573" lon="15.02445992732409"><ele>65.6</ele><time>2026-03-28T14:33:27Z</time></trkpt><trkpt lat="36.848205215988024" lon="15.024377598992157"><ele>66.0</ele><time>2026-03-28T14:33:28Z</time></trkpt><trkpt lat="36.84825270731304" lon="15.024294529582098"><ele>66.0</ele><time>2026-03-28T14:33:30Z</time></trkpt><trkpt lat="36.84836592618299" lon="15.02433517740476"><ele>66.0</ele><time>2026-03-28T14:33:31Z</time></trkpt><trkpt lat="36.84848439343811" lon="15.024336263935364"><ele>66.0</ele><time>2026-03-28T14:33:32Z</time></trkpt><trkpt lat="36.848609738151104" lon="15.024368977936348"><ele>66.0</ele><time>2026-03-28T14:33:33Z</time></trkpt><trkpt lat="36.84874148629874" lon="15.024396043098793"><ele>67.75</ele><time>2026-03-28T14:33:34Z</time></trkpt><trkpt lat="36.84888458709555" lon="15.024423967144543"><ele>69.5</ele><time>2026-03-28T14:33:35Z</time></trkpt><trkpt lat="36.849021459974345" lon="15.024446198067396"><ele>71.25</ele><time>2026-03-28T14:33:36Z</time></trkpt><trkpt lat="36.8491368869848" lon="15.024459786142994"><ele>73.0</ele><time>2026-03-28T14:33:37Z</time></trkpt><trkpt lat="36.84925183462912" lon="15.024483908636771"><ele>75.0</ele><time>2026-03-28T14:33:38Z</time></trkpt><trkpt lat="36.84936170685691" lon="15.024518967362958"><ele>77.0</ele><time>2026-03-28T14:33:39Z</time></trkpt><trkpt lat="36.84945950909202" lon="15.024565799457626"><ele>79.0</ele><time>2026-03-28T14:33:40Z</time></trkpt><trkpt lat="36.849556427891144" lon="15.024629480047336"><ele>81.0</ele><time>2026-03-28T14:33:41Z</time></trkpt><trkpt lat="36.849650243248526" lon="15.02471322613732"><ele>83.0</ele><time>2026-03-28T14:33:42Z</time></trkpt><trkpt lat="36.84973288765142" lon="15.024810189145937"><ele>83.0</ele><time>2026-03-28T14:33:43Z</time></trkpt><trkpt lat="36.84981674711037" lon="15.024909227377492"><ele>83.0</ele><time>2026-03-28T14:33:44Z</time></trkpt><trkpt lat="36.849920534321654" lon="15.025024477213655"><ele>83.0</ele><time>2026-03-28T14:33:45Z</time></trkpt><trkpt lat="36.8500335625781" lon="15.025154263556784"><ele>83.0</ele><time>2026-03-28T14:33:46Z</time></trkpt><trkpt lat="36.85013224219921" lon="15.025270667993134"><ele>85.4</ele><time>2026-03-28T14:33:47Z</time></trkpt><trkpt lat="36.850224679996174" lon="15.025363031435777"><ele>87.80000000000001</ele><time>2026-03-28T14:33:48Z</time></trkpt><trkpt lat="36.85031238305741" lon="15.025451154041988"><ele>90.2</ele><time>2026-03-28T14:33:49Z</time></trkpt><trkpt lat="36.850397667417624" lon="15.025537935378113"><ele>92.6</ele><time>2026-03-28T14:33:50Z</time></trkpt><trkpt lat="36.85046919083961" lon="15.025611165793425"><ele>95.0</ele><time>2026-03-28T14:33:51Z</time></trkpt><trkpt lat="36.850528573237796" lon="15.025680909028369"><ele>95.0</ele><time>2026-03-28T14:33:52Z</time></trkpt><trkpt lat="36.850581568557324" lon="15.025736454538853"><ele>95.0</ele><time>2026-03-28T14:33:53Z</time></trkpt><trkpt lat="36.850644971016465" lon="15.025738676385428"><ele>95.0</ele><time>2026-03-28T14:33:54Z</time></trkpt><trkpt lat="36.85072311049321" lon="15.025589756814844"><ele>95.0</ele><time>2026-03-28T14:33:56Z</time></trkpt><trkpt lat="36.85067762241166" lon="15.025449002330642"><ele>95.0</ele><time>2026-03-28T14:33:57Z</time></trkpt><trkpt lat="36.85062524723359" lon="15.025292231690528"><ele>95.0</ele><time>2026-03-28T14:33:58Z</time></trkpt><trkpt lat="36.85060117288998" lon="15.025156989824254"><ele>95.0</ele><time>2026-03-28T14:33:59Z</time></trkpt><trkpt lat="36.85058945759932" lon="15.025068438110587"><ele>95.0</ele><time>2026-03-28T14:34:00Z</time></trkpt><trkpt lat="36.85058493726535" lon="15.024957632713845"><ele>95.0</ele><time>2026-03-28T14:34:02Z</time></trkpt><trkpt lat="36.850678125973246" lon="15.024958596998374"><ele>95.0</ele><time>2026-03-28T14:34:04Z</time></trkpt><trkpt lat="36.850714628180725" lon="15.025028805412997"><ele>95.0</ele><time>2026-03-28T14:34:05Z</time></trkpt><trkpt lat="36.85072227597667" lon="15.025148341338713"><ele>95.0</ele><time>2026-03-28T14:34:06Z</time></trkpt><trkpt lat="36.85075182006487" lon="15.025258692685023"><ele>95.0</ele><time>2026-03-28T14:34:07Z</time></trkpt><trkpt lat="36.8507608865891" lon="15.025342405597419"><ele>95.0</ele><time>2026-03-28T14:34:08Z</time></trkpt><trkpt lat="36.85084353135112" lon="15.025412337698285"><ele>95.0</ele><time>2026-03-28T14:34:10Z</time></trkpt><trkpt lat="36.850934341778895" lon="15.025315098827225"><ele>95.0</ele><time>2026-03-28T14:34:12Z</time></trkpt><trkpt lat="36.85094482560598" lon="15.025182217660102"><ele>97.66666666666667</ele><time>2026-03-28T14:34:13Z</time></trkpt><trkpt lat="36.85097075495305" lon="15.025053348547306"><ele>100.33333333333334</ele><time>2026-03-28T14:34:14Z</time></trkpt><trkpt lat="36.850989625950085" lon="15.024934118483337"><ele>103.0</ele><time>2026-03-28T14:34:15Z</time></trkpt><trkpt lat="36.85100834153693" lon="15.024848660182991"><ele>105.66666666666667</ele><time>2026-03-28T14:34:16Z</time></trkpt><trkpt lat="36.85102875381755" lon="15.02477074635547"><ele>108.33333333333333</ele><time>2026-03-28T14:34:17Z</time></trkpt><trkpt lat="36.85108985077108" lon="15.024739826914557"><ele>111.0</ele><time>2026-03-28T14:34:18Z</time></trkpt><trkpt lat="36.851163458341446" lon="15.024740860132532"><ele>111.0</ele><time>2026-03-28T14:34:19Z</time></trkpt><trkpt lat="36.85123398385923" lon="15.024786567356342"><ele>111.0</ele><time>2026-03-28T14:34:20Z</time></trkpt><trkpt lat="36.851286904340625" lon="15.024869277447413"><ele>111.0</ele><time>2026-03-28T14:34:21Z</time></trkpt><trkpt lat="36.85129741351149" lon="15.024993559362224"><ele>111.0</ele><time>2026-03-28T14:34:22.001Z</time></trkpt><trkpt lat="36.85133436111152" lon="15.02515425231302"><ele>111.0</ele><time>2026-03-28T14:34:23.001Z</time></trkpt><trkpt lat="36.85135912377273" lon="15.025321726309356"><ele>111.0</ele><time>2026-03-28T14:34:24.001Z</time></trkpt><trkpt lat="36.8513916287001" lon="15.025479993078603"><ele>111.0</ele><time>2026-03-28T14:34:25.001Z</time></trkpt><trkpt lat="36.85142025906286" lon="15.025625276377127"><ele>111.0</ele><time>2026-03-28T14:34:26.001Z</time></trkpt><trkpt lat="36.8514453327965" lon="15.025754337371822"><ele>111.0</ele><time>2026-03-28T14:34:27.001Z</time></trkpt><trkpt lat="36.85146544343967" lon="15.025866368184097"><ele>111.0</ele><time>2026-03-28T14:34:28.001Z</time></trkpt><trkpt lat="36.85147655024487" lon="15.025950266687593"><ele>111.0</ele><time>2026-03-28T14:34:29.001Z</time></trkpt><trkpt lat="36.85153867574724" lon="15.026024179992026"><ele>111.0</ele><time>2026-03-28T14:34:31.001Z</time></trkpt><trkpt lat="36.8516416890238" lon="15.0259104448672"><ele>111.0</ele><time>2026-03-28T14:34:33.001Z</time></trkpt><trkpt lat="36.85165701161704" lon="15.025774234907704"><ele>111.0</ele><time>2026-03-28T14:34:34.001Z</time></trkpt><trkpt lat="36.85167337225959" lon="15.025589800511531"><ele>111.0</ele><time>2026-03-28T14:34:35.001Z</time></trkpt><trkpt lat="36.85173935901198" lon="15.02537057148379"><ele>111.0</ele><time>2026-03-28T14:34:36.001Z</time></trkpt><trkpt lat="36.851797292187946" lon="15.025118218524991"><ele>111.0</ele><time>2026-03-28T14:34:37.001Z</time></trkpt><trkpt lat="36.85182857367685" lon="15.0249113235899"><ele>114.25</ele><time>2026-03-28T14:34:38.001Z</time></trkpt><trkpt lat="36.85186610622133" lon="15.024751904083303"><ele>117.5</ele><time>2026-03-28T14:34:39.001Z</time></trkpt><trkpt lat="36.851911362405545" lon="15.024616395528092"><ele>120.75</ele><time>2026-03-28T14:34:40.001Z</time></trkpt><trkpt lat="36.85197985499043" lon="15.024497363412538"><ele>124.0</ele><time>2026-03-28T14:34:41.001Z</time></trkpt><trkpt lat="36.852081493149335" lon="15.02438455120603"><ele>124.0</ele><time>2026-03-28T14:34:42.001Z</time></trkpt><trkpt lat="36.852202587817565" lon="15.024290267293013"><ele>124.0</ele><time>2026-03-28T14:34:43.001Z</time></trkpt><trkpt lat="36.85231273364975" lon="15.024222849498544"><ele>124.0</ele><time>2026-03-28T14:34:44.001Z</time></trkpt><trkpt lat="36.852437212045444" lon="15.024190911057984"><ele>124.0</ele><time>2026-03-28T14:34:45.001Z</time></trkpt><trkpt lat="36.85256315905705" lon="15.024177618029926"><ele>124.75</ele><time>2026-03-28T14:34:46.001Z</time></trkpt><trkpt lat="36.85268895160461" lon="15.024163590506072"><ele>125.5</ele><time>2026-03-28T14:34:47.001Z</time></trkpt><trkpt lat="36.85281038237051" lon="15.024143809368894"><ele>126.25</ele><time>2026-03-28T14:34:48.001Z</time></trkpt><trkpt lat="36.85292758797369" lon="15.024127332184436"><ele>127.0</ele><time>2026-03-28T14:34:49.001Z</time></trkpt><trkpt lat="36.85303450961203" lon="15.024108261338784"><ele>127.0</ele><time>2026-03-28T14:34:50.001Z</time></trkpt><trkpt lat="36.85313630380655" lon="15.024069785913273"><ele>127.0</ele><time>2026-03-28T14:34:51.001Z</time></trkpt><trkpt lat="36.85323766811645" lon="15.023995663875727"><ele>127.0</ele><time>2026-03-28T14:34:52.001Z</time></trkpt><trkpt lat="36.85333393548764" lon="15.023886269692245"><ele>127.0</ele><time>2026-03-28T14:34:53.001Z</time></trkpt><trkpt lat="36.85345239443457" lon="15.023773602889"><ele>123.75</ele><time>2026-03-28T14:34:54.001Z</time></trkpt><trkpt lat="36.85358857427696" lon="15.023699990345035"><ele>120.5</ele><time>2026-03-28T14:34:55.001Z</time></trkpt><trkpt lat="36.85371163450006" lon="15.02362599800917"><ele>117.25</ele><time>2026-03-28T14:34:56.001Z</time></trkpt><trkpt lat="36.853829461247685" lon="15.023553935158068"><ele>114.0</ele><time>2026-03-28T14:34:57.001Z</time></trkpt><trkpt lat="36.8539431088489" lon="15.023484954645118"><ele>114.0</ele><time>2026-03-28T14:34:58.001Z</time></trkpt><trkpt lat="36.854053273199504" lon="15.023422624795058"><ele>114.0</ele><time>2026-03-28T14:34:59.001Z</time></trkpt><trkpt lat="36.85417430112167" lon="15.023383729082127"><ele>114.0</ele><time>2026-03-28T14:35:00.001Z</time></trkpt><trkpt lat="36.85432790717275" lon="15.023379734149037"><ele>114.0</ele><time>2026-03-28T14:35:01.001Z</time></trkpt><trkpt lat="36.85451925876866" lon="15.023412704533401"><ele>113.0</ele><time>2026-03-28T14:35:02.001Z</time></trkpt><trkpt lat="36.85470090800758" lon="15.023435096708338"><ele>112.0</ele><time>2026-03-28T14:35:03.001Z</time></trkpt><trkpt lat="36.85485720950445" lon="15.023466133345668"><ele>111.0</ele><time>2026-03-28T14:35:04.001Z</time></trkpt><trkpt lat="36.85499965318514" lon="15.023508291239729"><ele>112.75</ele><time>2026-03-28T14:35:05.001Z</time></trkpt><trkpt lat="36.85514055386019" lon="15.023534751850477"><ele>114.5</ele><time>2026-03-28T14:35:06.001Z</time></trkpt><trkpt lat="36.85529052123465" lon="15.023541629427383"><ele>116.25</ele><time>2026-03-28T14:35:07.001Z</time></trkpt><trkpt lat="36.855442684171344" lon="15.023529926728916"><ele>118.0</ele><time>2026-03-28T14:35:08.001Z</time></trkpt><trkpt lat="36.855598130666294" lon="15.023514287341996"><ele>118.0</ele><time>2026-03-28T14:35:09.001Z</time></trkpt><trkpt lat="36.85577846708501" lon="15.023503236735378"><ele>118.0</ele><time>2026-03-28T14:35:10.001Z</time></trkpt><trkpt lat="36.85598763477583" lon="15.023529325628463"><ele>118.0</ele><time>2026-03-28T14:35:11.001Z</time></trkpt><trkpt lat="36.85620701009075" lon="15.023595007882463"><ele>121.0</ele><time>2026-03-28T14:35:12Z</time></trkpt><trkpt lat="36.856402739516746" lon="15.023666472505168"><ele>124.0</ele><time>2026-03-28T14:35:13Z</time></trkpt><trkpt lat="36.856568074889466" lon="15.023717677036839"><ele>127.0</ele><time>2026-03-28T14:35:14Z</time></trkpt><trkpt lat="36.85672745355192" lon="15.023762137481903"><ele>130.0</ele><time>2026-03-28T14:35:15Z</time></trkpt><trkpt lat="36.85689895907013" lon="15.023812683150936"><ele>133.0</ele><time>2026-03-28T14:35:16Z</time></trkpt><trkpt lat="36.857073220632515" lon="15.023865968409956"><ele>136.0</ele><time>2026-03-28T14:35:17Z</time></trkpt><trkpt lat="36.857231279216556" lon="15.023913392035857"><ele>136.0</ele><time>2026-03-28T14:35:18Z</time></trkpt><trkpt lat="36.85736947065565" lon="15.023958238218011"><ele>136.0</ele><time>2026-03-28T14:35:19Z</time></trkpt><trkpt lat="36.85748970981325" lon="15.024000868664606"><ele>136.0</ele><time>2026-03-28T14:35:20Z</time></trkpt><trkpt lat="36.85759785439989" lon="15.02403957606327"><ele>136.0</ele><time>2026-03-28T14:35:21Z</time></trkpt><trkpt lat="36.8577038302284" lon="15.02407055721571"><ele>138.0</ele><time>2026-03-28T14:35:22Z</time></trkpt><trkpt lat="36.857835479010284" lon="15.024091571110466"><ele>140.0</ele><time>2026-03-28T14:35:23Z</time></trkpt><trkpt lat="36.85800303973654" lon="15.02407726313691"><ele>142.0</ele><time>2026-03-28T14:35:24Z</time></trkpt><trkpt lat="36.85819427879334" lon="15.024040310835819"><ele>142.0</ele><time>2026-03-28T14:35:25Z</time></trkpt><trkpt lat="36.858346440196776" lon="15.024018234862549"><ele>142.0</ele><time>2026-03-28T14:35:26Z</time></trkpt><trkpt lat="36.858468938341744" lon="15.023997129066375"><ele>142.0</ele><time>2026-03-28T14:35:27Z</time></trkpt><trkpt lat="36.85860205565523" lon="15.023949386397708"><ele>142.0</ele><time>2026-03-28T14:35:28Z</time></trkpt><trkpt lat="36.85874472415635" lon="15.023873771481654"><ele>141.0</ele><time>2026-03-28T14:35:29Z</time></trkpt><trkpt lat="36.85886969531172" lon="15.023794815859656"><ele>140.0</ele><time>2026-03-28T14:35:30Z</time></trkpt><trkpt lat="36.8589804012197" lon="15.023730062871378"><ele>139.0</ele><time>2026-03-28T14:35:31Z</time></trkpt><trkpt lat="36.85908470382418" lon="15.023679494336497"><ele>138.0</ele><time>2026-03-28T14:35:32Z</time></trkpt><trkpt lat="36.859189141609015" lon="15.023647429323065"><ele>140.0</ele><time>2026-03-28T14:35:33Z</time></trkpt><trkpt lat="36.859321617212636" lon="15.023642131905923"><ele>142.0</ele><time>2026-03-28T14:35:34Z</time></trkpt><trkpt lat="36.859473200146645" lon="15.023683167377854"><ele>144.0</ele><time>2026-03-28T14:35:35Z</time></trkpt><trkpt lat="36.859631705156815" lon="15.023757637768682"><ele>144.0</ele><time>2026-03-28T14:35:36Z</time></trkpt><trkpt lat="36.859770899205806" lon="15.023827356928866"><ele>144.0</ele><time>2026-03-28T14:35:37Z</time></trkpt><trkpt lat="36.85990949205361" lon="15.023887975390686"><ele>144.0</ele><time>2026-03-28T14:35:38Z</time></trkpt><trkpt lat="36.860057714401506" lon="15.023938933692836"><ele>142.66666666666666</ele><time>2026-03-28T14:35:39Z</time></trkpt><trkpt lat="36.86021141836078" lon="15.023981971706519"><ele>141.33333333333331</ele><time>2026-03-28T14:35:40Z</time></trkpt><trkpt lat="36.86036957514718" lon="15.023998124464686"><ele>140.0</ele><time>2026-03-28T14:35:41Z</time></trkpt><trkpt lat="36.86051794622699" lon="15.023994378758623"><ele>140.0</ele><time>2026-03-28T14:35:42Z</time></trkpt><trkpt lat="36.86065015532074" lon="15.023978270091144"><ele>140.0</ele><time>2026-03-28T14:35:43Z</time></trkpt><trkpt lat="36.86077036472559" lon="15.023967603834118"><ele>140.0</ele><time>2026-03-28T14:35:44Z</time></trkpt><trkpt lat="36.86089271648752" lon="15.0239745303664"><ele>140.0</ele><time>2026-03-28T14:35:45Z</time></trkpt><trkpt lat="36.86103382083209" lon="15.024009382259841"><ele>136.0</ele><time>2026-03-28T14:35:46Z</time></trkpt><trkpt lat="36.86118352445483" lon="15.024065396843787"><ele>132.0</ele><time>2026-03-28T14:35:47Z</time></trkpt><trkpt lat="36.861327837696635" lon="15.024133241373562"><ele>128.0</ele><time>2026-03-28T14:35:48Z</time></trkpt><trkpt lat="36.86146278616078" lon="15.024203101224108"><ele>128.0</ele><time>2026-03-28T14:35:49Z</time></trkpt><trkpt lat="36.861589404285084" lon="15.024265030410586"><ele>128.0</ele><time>2026-03-28T14:35:50Z</time></trkpt><trkpt lat="36.86170990978027" lon="15.024319068776746"><ele>128.0</ele><time>2026-03-28T14:35:51Z</time></trkpt><trkpt lat="36.86182203114161" lon="15.02437391398194"><ele>128.0</ele><time>2026-03-28T14:35:52Z</time></trkpt><trkpt lat="36.861932441726815" lon="15.024413604391482"><ele>127.4</ele><time>2026-03-28T14:35:53Z</time></trkpt><trkpt lat="36.86203926754805" lon="15.024431836172905"><ele>126.80000000000001</ele><time>2026-03-28T14:35:54Z</time></trkpt><trkpt lat="36.86213792577148" lon="15.024431001524512"><ele>126.2</ele><time>2026-03-28T14:35:55Z</time></trkpt><trkpt lat="36.862230247157235" lon="15.024422449607085"><ele>125.6</ele><time>2026-03-28T14:35:56Z</time></trkpt><trkpt lat="36.862317608096966" lon="15.024411403502784"><ele>125.0</ele><time>2026-03-28T14:35:57Z</time></trkpt><trkpt lat="36.86239914816233" lon="15.024401324896967"><ele>124.99999999999999</ele><time>2026-03-28T14:35:58Z</time></trkpt><trkpt lat="36.86247321448783" lon="15.024391016146273"><ele>125.0</ele><time>2026-03-28T14:35:59Z</time></trkpt><trkpt lat="36.862572627116855" lon="15.024374927593541"><ele>125.0</ele><time>2026-03-28T14:36:01Z</time></trkpt><trkpt lat="36.862646672313254" lon="15.02435444373489"><ele>125.0</ele><time>2026-03-28T14:36:04Z</time></trkpt><trkpt lat="36.86272927545094" lon="15.0243158551538"><ele>124.99999999999999</ele><time>2026-03-28T14:36:09Z</time></trkpt><trkpt lat="36.862804855672174" lon="15.024283679062389"><ele>125.0</ele><time>2026-03-28T14:36:10Z</time></trkpt><trkpt lat="36.862922652917085" lon="15.024383510160147"><ele>125.5</ele><time>2026-03-28T14:36:11Z</time></trkpt><trkpt lat="36.86303987868235" lon="15.024419431120574"><ele>126.0</ele><time>2026-03-28T14:36:12Z</time></trkpt><trkpt lat="36.86317883000486" lon="15.024453619315137"><ele>126.5</ele><time>2026-03-28T14:36:13Z</time></trkpt><trkpt lat="36.86332363705786" lon="15.024477401590568"><ele>127.0</ele><time>2026-03-28T14:36:14Z</time></trkpt><trkpt lat="36.863497931664895" lon="15.024475593499574"><ele>129.0</ele><time>2026-03-28T14:36:15Z</time></trkpt><trkpt lat="36.86368836709421" lon="15.024448060282806"><ele>131.0</ele><time>2026-03-28T14:36:16Z</time></trkpt><trkpt lat="36.86389073702964" lon="15.02439595141336"><ele>133.0</ele><time>2026-03-28T14:36:17Z</time></trkpt><trkpt lat="36.864096062302366" lon="15.024343781145227"><ele>133.0</ele><time>2026-03-28T14:36:18Z</time></trkpt><trkpt lat="36.86427793595389" lon="15.024297351512551"><ele>133.0</ele><time>2026-03-28T14:36:19Z</time></trkpt><trkpt lat="36.86446276902412" lon="15.02424470269355"><ele>133.0</ele><time>2026-03-28T14:36:20Z</time></trkpt><trkpt lat="36.864619407564426" lon="15.024213103412073"><ele>133.0</ele><time>2026-03-28T14:36:21Z</time></trkpt><trkpt lat="36.86479859755622" lon="15.024169418481664"><ele>133.0</ele><time>2026-03-28T14:36:22Z</time></trkpt><trkpt lat="36.86499304613483" lon="15.024119877941322"><ele>133.0</ele><time>2026-03-28T14:36:23Z</time></trkpt><trkpt lat="36.86521054457621" lon="15.024073772060483"><ele>137.0</ele><time>2026-03-28T14:36:24Z</time></trkpt><trkpt lat="36.86539782065966" lon="15.024037228499527"><ele>141.0</ele><time>2026-03-28T14:36:25Z</time></trkpt><trkpt lat="36.865554615408385" lon="15.02404221725482"><ele>145.0</ele><time>2026-03-28T14:36:26Z</time></trkpt><trkpt lat="36.86568460619763" lon="15.024063908118732"><ele>145.0</ele><time>2026-03-28T14:36:27Z</time></trkpt><trkpt lat="36.865799027602755" lon="15.024105496609694"><ele>145.0</ele><time>2026-03-28T14:36:28Z</time></trkpt><trkpt lat="36.86589220478693" lon="15.024153979829709"><ele>145.0</ele><time>2026-03-28T14:36:29Z</time></trkpt><trkpt lat="36.86599970729595" lon="15.024215502771955"><ele>145.0</ele><time>2026-03-28T14:36:30Z</time></trkpt><trkpt lat="36.866108663462576" lon="15.024275713695628"><ele>144.2</ele><time>2026-03-28T14:36:31.001Z</time></trkpt><trkpt lat="36.86619818653726" lon="15.024322933986717"><ele>143.4</ele><time>2026-03-28T14:36:32.001Z</time></trkpt><trkpt lat="36.866279934007196" lon="15.024357663799583"><ele>142.6</ele><time>2026-03-28T14:36:33.001Z</time></trkpt><trkpt lat="36.86633987533887" lon="15.024412176353247"><ele>141.8</ele><time>2026-03-28T14:36:34.001Z</time></trkpt><trkpt lat="36.86644080495668" lon="15.024366946857786"><ele>141.0</ele><time>2026-03-28T14:36:35.001Z</time></trkpt><trkpt lat="36.86653016774475" lon="15.024366146628907"><ele>141.0</ele><time>2026-03-28T14:36:36.001Z</time></trkpt><trkpt lat="36.86659543576355" lon="15.02437687703004"><ele>141.0</ele><time>2026-03-28T14:36:37.001Z</time></trkpt><trkpt lat="36.86666966651716" lon="15.024350666699975"><ele>141.0</ele><time>2026-03-28T14:36:38.001Z</time></trkpt><trkpt lat="36.866751353254216" lon="15.02435173634617"><ele>141.0</ele><time>2026-03-28T14:36:39.001Z</time></trkpt><trkpt lat="36.86684288026804" lon="15.02435436226875"><ele>141.0</ele><time>2026-03-28T14:36:40.001Z</time></trkpt><trkpt lat="36.866929409628604" lon="15.024357516186694"><ele>141.0</ele><time>2026-03-28T14:36:41.001Z</time></trkpt><trkpt lat="36.86703258597415" lon="15.024340417084387"><ele>139.75</ele><time>2026-03-28T14:36:42.001Z</time></trkpt><trkpt lat="36.86713970822408" lon="15.024316040627072"><ele>138.5</ele><time>2026-03-28T14:36:43.001Z</time></trkpt><trkpt lat="36.86725190075827" lon="15.024290796949323"><ele>137.25</ele><time>2026-03-28T14:36:44.001Z</time></trkpt><trkpt lat="36.867378542670245" lon="15.024261535391272"><ele>136.0</ele><time>2026-03-28T14:36:45.001Z</time></trkpt><trkpt lat="36.867504595195506" lon="15.024233863593189"><ele>136.25</ele><time>2026-03-28T14:36:46.001Z</time></trkpt><trkpt lat="36.86763697839765" lon="15.024205177236784"><ele>136.5</ele><time>2026-03-28T14:36:47.001Z</time></trkpt><trkpt lat="36.86776541622575" lon="15.024178592534227"><ele>136.75</ele><time>2026-03-28T14:36:48.001Z</time></trkpt><trkpt lat="36.8678879368599" lon="15.024152712026531"><ele>137.0</ele><time>2026-03-28T14:36:49.001Z</time></trkpt><trkpt lat="36.86802509390339" lon="15.024125128318504"><ele>137.0</ele><time>2026-03-28T14:36:50.001Z</time></trkpt><trkpt lat="36.868169157085596" lon="15.024084522800283"><ele>137.0</ele><time>2026-03-28T14:36:51.001Z</time></trkpt><trkpt lat="36.86830488963202" lon="15.024050537536006"><ele>137.0</ele><time>2026-03-28T14:36:52.001Z</time></trkpt><trkpt lat="36.86842843737604" lon="15.024020335208997"><ele>137.0</ele><time>2026-03-28T14:36:53.001Z</time></trkpt><trkpt lat="36.86854837816434" lon="15.023992271364486"><ele>135.0</ele><time>2026-03-28T14:36:54.001Z</time></trkpt><trkpt lat="36.868672913518814" lon="15.023963507260266"><ele>133.0</ele><time>2026-03-28T14:36:55.001Z</time></trkpt><trkpt lat="36.86878737208347" lon="15.023941170564555"><ele>131.0</ele><time>2026-03-28T14:36:56.001Z</time></trkpt><trkpt lat="36.86890273392566" lon="15.023947632536489"><ele>129.0</ele><time>2026-03-28T14:36:57.001Z</time></trkpt><trkpt lat="36.869019006428815" lon="15.023971648536532"><ele>129.0</ele><time>2026-03-28T14:36:58.001Z</time></trkpt><trkpt lat="36.869123082394005" lon="15.024021889801341"><ele>129.0</ele><time>2026-03-28T14:36:59.001Z</time></trkpt><trkpt lat="36.869201262873915" lon="15.024077812327208"><ele>129.0</ele><time>2026-03-28T14:37:00.001Z</time></trkpt><trkpt lat="36.86925300118764" lon="15.024127164019951"><ele>129.0</ele><time>2026-03-28T14:37:01.001Z</time></trkpt><trkpt lat="36.86931637649698" lon="15.02420766869889"><ele>129.0</ele><time>2026-03-28T14:37:03.001Z</time></trkpt><trkpt lat="36.869418876815054" lon="15.02412347759552"><ele>129.83333333333334</ele><time>2026-03-28T14:37:05.001Z</time></trkpt><trkpt lat="36.8694690255502" lon="15.024029506983203"><ele>130.66666666666666</ele><time>2026-03-28T14:37:06.001Z</time></trkpt><trkpt lat="36.86952126130156" lon="15.023956606369834"><ele>131.5</ele><time>2026-03-28T14:37:07.001Z</time></trkpt><trkpt lat="36.86958602190351" lon="15.023932595088496"><ele>132.33333333333331</ele><time>2026-03-28T14:37:08.001Z</time></trkpt><trkpt lat="36.869670076251175" lon="15.023968648063912"><ele>133.16666666666666</ele><time>2026-03-28T14:37:09.001Z</time></trkpt><trkpt lat="36.86976864043801" lon="15.023959735800435"><ele>134.0</ele><time>2026-03-28T14:37:10.001Z</time></trkpt><trkpt lat="36.86985093915019" lon="15.023961945412493"><ele>134.0</ele><time>2026-03-28T14:37:11.001Z</time></trkpt><trkpt lat="36.86992093993963" lon="15.02390546162659"><ele>134.0</ele><time>2026-03-28T14:37:12.001Z</time></trkpt><trkpt lat="36.86997071705427" lon="15.023799252486569"><ele>134.0</ele><time>2026-03-28T14:37:13.001Z</time></trkpt><trkpt lat="36.87004943927393" lon="15.023679352840299"><ele>134.0</ele><time>2026-03-28T14:37:14.001Z</time></trkpt><trkpt lat="36.87010810042939" lon="15.02353126049098"><ele>134.0</ele><time>2026-03-28T14:37:15.001Z</time></trkpt><trkpt lat="36.87018791330394" lon="15.023390929851558"><ele>136.25</ele><time>2026-03-28T14:37:16.001Z</time></trkpt><trkpt lat="36.870264204882616" lon="15.023242070162688"><ele>138.5</ele><time>2026-03-28T14:37:17.001Z</time></trkpt><trkpt lat="36.87034318706131" lon="15.023090994960539"><ele>140.75</ele><time>2026-03-28T14:37:18Z</time></trkpt><trkpt lat="36.87042824211601" lon="15.022940459450824"><ele>143.0</ele><time>2026-03-28T14:37:19Z</time></trkpt><trkpt lat="36.87050645629315" lon="15.022784297440646"><ele>143.0</ele><time>2026-03-28T14:37:20Z</time></trkpt><trkpt lat="36.87057980636386" lon="15.02263930248905"><ele>143.0</ele><time>2026-03-28T14:37:21Z</time></trkpt><trkpt lat="36.87065234498934" lon="15.022507838138512"><ele>143.0</ele><time>2026-03-28T14:37:22Z</time></trkpt><trkpt lat="36.87072713653354" lon="15.022374033430955"><ele>143.0</ele><time>2026-03-28T14:37:23Z</time></trkpt><trkpt lat="36.87080487476708" lon="15.022231763670828"><ele>142.75</ele><time>2026-03-28T14:37:24Z</time></trkpt><trkpt lat="36.87088648878583" lon="15.022084681716882"><ele>142.5</ele><time>2026-03-28T14:37:25Z</time></trkpt><trkpt lat="36.87097536221186" lon="15.021926625400996"><ele>142.25</ele><time>2026-03-28T14:37:26Z</time></trkpt><trkpt lat="36.8710538584008" lon="15.021789359927968"><ele>142.0</ele><time>2026-03-28T14:37:27Z</time></trkpt><trkpt lat="36.87111436371892" lon="15.021665674724858"><ele>145.0</ele><time>2026-03-28T14:37:28Z</time></trkpt><trkpt lat="36.87115563046105" lon="15.021544562160857"><ele>148.0</ele><time>2026-03-28T14:37:29Z</time></trkpt><trkpt lat="36.87117506598047" lon="15.021403078774759"><ele>151.0</ele><time>2026-03-28T14:37:30Z</time></trkpt><trkpt lat="36.871181088298364" lon="15.021265689092438"><ele>154.0</ele><time>2026-03-28T14:37:31Z</time></trkpt><trkpt lat="36.871186339636964" lon="15.021162511993113"><ele>157.0</ele><time>2026-03-28T14:37:32Z</time></trkpt><trkpt lat="36.87126199497048" lon="15.021068050949165"><ele>157.0</ele><time>2026-03-28T14:37:34Z</time></trkpt><trkpt lat="36.87136240864233" lon="15.021071727599159"><ele>157.0</ele><time>2026-03-28T14:37:35Z</time></trkpt><trkpt lat="36.87151249784541" lon="15.021035968936642"><ele>157.0</ele><time>2026-03-28T14:37:36Z</time></trkpt><trkpt lat="36.87170251611947" lon="15.021017866481262"><ele>157.0</ele><time>2026-03-28T14:37:37Z</time></trkpt><trkpt lat="36.87185128138319" lon="15.020997839871415"><ele>156.5</ele><time>2026-03-28T14:37:38Z</time></trkpt><trkpt lat="36.87195703466404" lon="15.0209862769649"><ele>156.0</ele><time>2026-03-28T14:37:39Z</time></trkpt><trkpt lat="36.87205021559436" lon="15.020954278582954"><ele>155.5</ele><time>2026-03-28T14:37:40Z</time></trkpt><trkpt lat="36.87215070373858" lon="15.020889659679662"><ele>155.0</ele><time>2026-03-28T14:37:41Z</time></trkpt><trkpt lat="36.872294980301675" lon="15.020817271241011"><ele>155.5</ele><time>2026-03-28T14:37:42Z</time></trkpt><trkpt lat="36.87244062903151" lon="15.020761856559009"><ele>156.0</ele><time>2026-03-28T14:37:43Z</time></trkpt><trkpt lat="36.87257877453322" lon="15.020745494936408"><ele>156.5</ele><time>2026-03-28T14:37:44Z</time></trkpt><trkpt lat="36.87273034459719" lon="15.020731247079867"><ele>157.0</ele><time>2026-03-28T14:37:45Z</time></trkpt><trkpt lat="36.8728575876392" lon="15.020725439146457"><ele>157.0</ele><time>2026-03-28T14:37:46Z</time></trkpt><trkpt lat="36.872994138851254" lon="15.02071793273878"><ele>157.0</ele><time>2026-03-28T14:37:47Z</time></trkpt><trkpt lat="36.87311838266137" lon="15.020694487032824"><ele>157.0</ele><time>2026-03-28T14:37:48Z</time></trkpt><trkpt lat="36.873239337598434" lon="15.020673497378684"><ele>157.0</ele><time>2026-03-28T14:37:49Z</time></trkpt><trkpt lat="36.87335013237374" lon="15.020642974367721"><ele>155.25</ele><time>2026-03-28T14:37:50Z</time></trkpt><trkpt lat="36.87346602149164" lon="15.020594373110395"><ele>153.5</ele><time>2026-03-28T14:37:51Z</time></trkpt><trkpt lat="36.873596361124626" lon="15.020527711524805"><ele>151.75</ele><time>2026-03-28T14:37:52Z</time></trkpt><trkpt lat="36.87373738054879" lon="15.020445906704976"><ele>150.0</ele><time>2026-03-28T14:37:53Z</time></trkpt><trkpt lat="36.87388091914531" lon="15.020352652633981"><ele>150.0</ele><time>2026-03-28T14:37:54Z</time></trkpt><trkpt lat="36.874001668680044" lon="15.020264817753452"><ele>150.0</ele><time>2026-03-28T14:37:55Z</time></trkpt><trkpt lat="36.87410312153489" lon="15.020188887766512"><ele>150.0</ele><time>2026-03-28T14:37:56Z</time></trkpt><trkpt lat="36.87419748352399" lon="15.02011957530896"><ele>150.0</ele><time>2026-03-28T14:37:57Z</time></trkpt><trkpt lat="36.87429868622524" lon="15.020052188117813"><ele>150.4</ele><time>2026-03-28T14:37:58Z</time></trkpt><trkpt lat="36.87439940815955" lon="15.020002090898053"><ele>150.8</ele><time>2026-03-28T14:37:59Z</time></trkpt><trkpt lat="36.874486311674076" lon="15.019963737509158"><ele>151.2</ele><time>2026-03-28T14:38:00Z</time></trkpt><trkpt lat="36.87457649222511" lon="15.019956904826703"><ele>151.6</ele><time>2026-03-28T14:38:01Z</time></trkpt><trkpt lat="36.874660708647546" lon="15.019945361089624"><ele>152.0</ele><time>2026-03-28T14:38:02Z</time></trkpt><trkpt lat="36.874767748684356" lon="15.01994118123964"><ele>152.0</ele><time>2026-03-28T14:38:03Z</time></trkpt><trkpt lat="36.874883684429506" lon="15.019941451612347"><ele>152.0</ele><time>2026-03-28T14:38:04Z</time></trkpt><trkpt lat="36.875005372835595" lon="15.019923500126275"><ele>152.0</ele><time>2026-03-28T14:38:05Z</time></trkpt><trkpt lat="36.875122012412994" lon="15.019941841364652"><ele>152.0</ele><time>2026-03-28T14:38:06Z</time></trkpt><trkpt lat="36.875223832401836" lon="15.019944554338899"><ele>152.25</ele><time>2026-03-28T14:38:07Z</time></trkpt><trkpt lat="36.87531866080508" lon="15.019945729566366"><ele>152.5</ele><time>2026-03-28T14:38:08Z</time></trkpt><trkpt lat="36.87544312056781" lon="15.0199555072181"><ele>152.75</ele><time>2026-03-28T14:38:09Z</time></trkpt><trkpt lat="36.87557547192048" lon="15.019960322105314"><ele>153.0</ele><time>2026-03-28T14:38:10Z</time></trkpt><trkpt lat="36.875694472436344" lon="15.019956518686612"><ele>153.0</ele><time>2026-03-28T14:38:11Z</time></trkpt><trkpt lat="36.8758037532244" lon="15.019945325778933"><ele>153.0</ele><time>2026-03-28T14:38:12Z</time></trkpt><trkpt lat="36.87590282882285" lon="15.019939266598119"><ele>153.0</ele><time>2026-03-28T14:38:13Z</time></trkpt><trkpt lat="36.875994127144104" lon="15.019971812007897"><ele>153.0</ele><time>2026-03-28T14:38:14Z</time></trkpt><trkpt lat="36.87607494661165" lon="15.019995417818759"><ele>153.0</ele><time>2026-03-28T14:38:15Z</time></trkpt><trkpt lat="36.87618519910981" lon="15.020038632672735"><ele>151.5</ele><time>2026-03-28T14:38:16Z</time></trkpt><trkpt lat="36.876269089592725" lon="15.020094125264368"><ele>150.0</ele><time>2026-03-28T14:38:17Z</time></trkpt><trkpt lat="36.87634108981019" lon="15.020141423402087"><ele>148.5</ele><time>2026-03-28T14:38:18Z</time></trkpt><trkpt lat="36.8764140818573" lon="15.020166318031485"><ele>147.0</ele><time>2026-03-28T14:38:19Z</time></trkpt><trkpt lat="36.87648378166311" lon="15.02018051100174"><ele>145.5</ele><time>2026-03-28T14:38:20Z</time></trkpt><trkpt lat="36.87657548447405" lon="15.020214890653623"><ele>144.0</ele><time>2026-03-28T14:38:21Z</time></trkpt><trkpt lat="36.87671091988365" lon="15.02024191924319"><ele>142.6</ele><time>2026-03-28T14:38:22Z</time></trkpt><trkpt lat="36.876823100483705" lon="15.020261340293189"><ele>141.2</ele><time>2026-03-28T14:38:23Z</time></trkpt><trkpt lat="36.87690463028294" lon="15.020275455001611"><ele>139.79999999999998</ele><time>2026-03-28T14:38:24Z</time></trkpt><trkpt lat="36.877010686254536" lon="15.020272374365133"><ele>138.4</ele><time>2026-03-28T14:38:25Z</time></trkpt><trkpt lat="36.877114393706364" lon="15.020308140107241"><ele>137.0</ele><time>2026-03-28T14:38:26Z</time></trkpt><trkpt lat="36.8772184245138" lon="15.020317065499887"><ele>137.0</ele><time>2026-03-28T14:38:27Z</time></trkpt><trkpt lat="36.877329004339664" lon="15.020333566025268"><ele>137.0</ele><time>2026-03-28T14:38:28Z</time></trkpt><trkpt lat="36.877431280123766" lon="15.020354794326115"><ele>137.0</ele><time>2026-03-28T14:38:29Z</time></trkpt><trkpt lat="36.87754392819269" lon="15.020377648564999"><ele>137.0</ele><time>2026-03-28T14:38:30Z</time></trkpt><trkpt lat="36.87763738463043" lon="15.020399072364137"><ele>137.0</ele><time>2026-03-28T14:38:31Z</time></trkpt><trkpt lat="36.877724555135025" lon="15.020416372162426"><ele>136.6</ele><time>2026-03-28T14:38:32Z</time></trkpt><trkpt lat="36.87780257540995" lon="15.02043077660561"><ele>136.2</ele><time>2026-03-28T14:38:33Z</time></trkpt><trkpt lat="36.87787054246471" lon="15.020448764563547"><ele>135.8</ele><time>2026-03-28T14:38:34Z</time></trkpt><trkpt lat="36.87797535603953" lon="15.020493395798184"><ele>135.4</ele><time>2026-03-28T14:38:36Z</time></trkpt><trkpt lat="36.87810450169401" lon="15.020532493159498"><ele>135.0</ele><time>2026-03-28T14:38:38Z</time></trkpt><trkpt lat="36.87818081785648" lon="15.020557065040418"><ele>135.0</ele><time>2026-03-28T14:38:39.001Z</time></trkpt><trkpt lat="36.87825211363277" lon="15.020579902939115"><ele>135.0</ele><time>2026-03-28T14:38:40.001Z</time></trkpt><trkpt lat="36.878315438662284" lon="15.020601809567777"><ele>135.0</ele><time>2026-03-28T14:38:41.001Z</time></trkpt><trkpt lat="36.878400086654885" lon="15.020631864301754"><ele>135.0</ele><time>2026-03-28T14:38:43.001Z</time></trkpt><trkpt lat="36.878496712826944" lon="15.020666171910399"><ele>135.0</ele><time>2026-03-28T14:38:45.001Z</time></trkpt><trkpt lat="36.87858623893389" lon="15.020685838192973"><ele>135.0</ele><time>2026-03-28T14:38:47.001Z</time></trkpt><trkpt lat="36.87866056601087" lon="15.02071463880931"><ele>135.0</ele><time>2026-03-28T14:38:49.001Z</time></trkpt><trkpt lat="36.878718656615995" lon="15.020776823708516"><ele>135.0</ele><time>2026-03-28T14:38:52.001Z</time></trkpt><trkpt lat="36.878795387373934" lon="15.020809032057615"><ele>135.0</ele><time>2026-03-28T14:38:54.001Z</time></trkpt><trkpt lat="36.87888644294238" lon="15.020878080175736"><ele>135.0</ele><time>2026-03-28T14:38:58.001Z</time></trkpt><trkpt lat="36.878972264014706" lon="15.020948661256535"><ele>135.0</ele><time>2026-03-28T14:39:00.001Z</time></trkpt><trkpt lat="36.87906269580793" lon="15.021042519474108"><ele>135.0</ele><time>2026-03-28T14:39:02.001Z</time></trkpt><trkpt lat="36.879143343543106" lon="15.02113060807658"><ele>135.0</ele><time>2026-03-28T14:39:04.001Z</time></trkpt><trkpt lat="36.879218666406125" lon="15.021187464141223"><ele>135.0</ele><time>2026-03-28T14:39:06.001Z</time></trkpt><trkpt lat="36.87928280715894" lon="15.021243413612124"><ele>135.0</ele><time>2026-03-28T14:39:09.001Z</time></trkpt><trkpt lat="36.87937522183908" lon="15.021324480461223"><ele>135.0</ele><time>2026-03-28T14:39:25Z</time></trkpt><trkpt lat="36.87943533349105" lon="15.021360847928083"><ele>135.4</ele><time>2026-03-28T14:39:28Z</time></trkpt><trkpt lat="36.87950829861013" lon="15.021452373001397"><ele>135.8</ele><time>2026-03-28T14:39:31Z</time></trkpt><trkpt lat="36.87960626210853" lon="15.021531628085508"><ele>136.2</ele><time>2026-03-28T14:39:33Z</time></trkpt><trkpt lat="36.87967234460599" lon="15.021574601442035"><ele>136.6</ele><time>2026-03-28T14:39:34Z</time></trkpt><trkpt lat="36.87973581381652" lon="15.021624905512375"><ele>137.0</ele><time>2026-03-28T14:39:35Z</time></trkpt><trkpt lat="36.879852153424494" lon="15.021711914177883"><ele>137.2</ele><time>2026-03-28T14:39:37Z</time></trkpt><trkpt lat="36.87991529690013" lon="15.021755708788223"><ele>137.39999999999998</ele><time>2026-03-28T14:39:38Z</time></trkpt><trkpt lat="36.87999574361016" lon="15.021814961275943"><ele>137.60000000000002</ele><time>2026-03-28T14:39:40Z</time></trkpt><trkpt lat="36.880087452047015" lon="15.021884863727266"><ele>137.8</ele><time>2026-03-28T14:39:42Z</time></trkpt><trkpt lat="36.880165923765155" lon="15.02195120922553"><ele>138.0</ele><time>2026-03-28T14:39:44Z</time></trkpt><trkpt lat="36.88025567867491" lon="15.022014932188512"><ele>138.4</ele><time>2026-03-28T14:39:46Z</time></trkpt><trkpt lat="36.88035967917785" lon="15.022086292067101"><ele>138.8</ele><time>2026-03-28T14:39:48Z</time></trkpt><trkpt lat="36.880415055647966" lon="15.02213402963735"><ele>139.2</ele><time>2026-03-28T14:39:49Z</time></trkpt><trkpt lat="36.88051151110929" lon="15.022214337793553"><ele>139.6</ele><time>2026-03-28T14:39:51Z</time></trkpt><trkpt lat="36.88058009509084" lon="15.022261059185123"><ele>140.0</ele><time>2026-03-28T14:39:53Z</time></trkpt><trkpt lat="36.88065272834416" lon="15.022341895415755"><ele>140.0</ele><time>2026-03-28T14:39:55Z</time></trkpt><trkpt lat="36.880729383784384" lon="15.02237229314025"><ele>140.0</ele><time>2026-03-28T14:39:56Z</time></trkpt><trkpt lat="36.88080919716023" lon="15.022424248927338"><ele>140.0</ele><time>2026-03-28T14:39:57Z</time></trkpt><trkpt lat="36.880874466457584" lon="15.02246241598137"><ele>140.0</ele><time>2026-03-28T14:39:58Z</time></trkpt><trkpt lat="36.880983122945054" lon="15.022581706676128"><ele>140.0</ele><time>2026-03-28T14:40:00Z</time></trkpt><trkpt lat="36.88104139964372" lon="15.022635823110758"><ele>140.33333333333331</ele><time>2026-03-28T14:40:01Z</time></trkpt><trkpt lat="36.8811039670639" lon="15.022700440435518"><ele>140.66666666666666</ele><time>2026-03-28T14:40:02Z</time></trkpt><trkpt lat="36.88117257885148" lon="15.022770434110916"><ele>141.0</ele><time>2026-03-28T14:40:03Z</time></trkpt><trkpt lat="36.88122903206605" lon="15.022849515130737"><ele>141.33333333333334</ele><time>2026-03-28T14:40:04Z</time></trkpt><trkpt lat="36.881284685649554" lon="15.022900973401415"><ele>141.66666666666669</ele><time>2026-03-28T14:40:05Z</time></trkpt><trkpt lat="36.881340429807906" lon="15.022953482519162"><ele>142.0</ele><time>2026-03-28T14:40:06Z</time></trkpt><trkpt lat="36.8814123749089" lon="15.0230254831036"><ele>142.0</ele><time>2026-03-28T14:40:07Z</time></trkpt><trkpt lat="36.881478688244165" lon="15.023094752179492"><ele>142.0</ele><time>2026-03-28T14:40:08Z</time></trkpt><trkpt lat="36.881545482006686" lon="15.023165825730985"><ele>142.0</ele><time>2026-03-28T14:40:09Z</time></trkpt><trkpt lat="36.881642190824024" lon="15.023280637303806"><ele>142.0</ele><time>2026-03-28T14:40:10Z</time></trkpt><trkpt lat="36.881773430555285" lon="15.02342268916768"><ele>143.75</ele><time>2026-03-28T14:40:11Z</time></trkpt><trkpt lat="36.88189835972767" lon="15.023552803387512"><ele>145.5</ele><time>2026-03-28T14:40:12Z</time></trkpt><trkpt lat="36.881985697758445" lon="15.02362833231002"><ele>147.25</ele><time>2026-03-28T14:40:13Z</time></trkpt><trkpt lat="36.88208330459399" lon="15.023680889228633"><ele>149.0</ele><time>2026-03-28T14:40:14Z</time></trkpt><trkpt lat="36.882228068672006" lon="15.023726717854666"><ele>149.0</ele><time>2026-03-28T14:40:15Z</time></trkpt><trkpt lat="36.88239616655042" lon="15.023777911035776"><ele>149.0</ele><time>2026-03-28T14:40:16Z</time></trkpt><trkpt lat="36.882521926520866" lon="15.02380411797421"><ele>149.0</ele><time>2026-03-28T14:40:17Z</time></trkpt><trkpt lat="36.88261618320394" lon="15.023809898697898"><ele>149.0</ele><time>2026-03-28T14:40:18Z</time></trkpt><trkpt lat="36.882724129826904" lon="15.023788122155505"><ele>151.25</ele><time>2026-03-28T14:40:19Z</time></trkpt><trkpt lat="36.88285848429044" lon="15.023756176453407"><ele>153.5</ele><time>2026-03-28T14:40:20Z</time></trkpt><trkpt lat="36.883004562844164" lon="15.023736962085415"><ele>155.75</ele><time>2026-03-28T14:40:21Z</time></trkpt><trkpt lat="36.88312869415782" lon="15.023711952455997"><ele>158.0</ele><time>2026-03-28T14:40:22Z</time></trkpt><trkpt lat="36.883228526280504" lon="15.023664372895308"><ele>158.0</ele><time>2026-03-28T14:40:23Z</time></trkpt><trkpt lat="36.88332327514009" lon="15.02361688782342"><ele>158.0</ele><time>2026-03-28T14:40:24Z</time></trkpt><trkpt lat="36.883409213379345" lon="15.0235863137562"><ele>158.0</ele><time>2026-03-28T14:40:25Z</time></trkpt><trkpt lat="36.88351010082323" lon="15.023572326489539"><ele>158.0</ele><time>2026-03-28T14:40:26Z</time></trkpt><trkpt lat="36.88362031227117" lon="15.023583990638027"><ele>158.0</ele><time>2026-03-28T14:40:27Z</time></trkpt><trkpt lat="36.88371507374292" lon="15.02362790161111"><ele>160.25</ele><time>2026-03-28T14:40:28Z</time></trkpt><trkpt lat="36.88379951906656" lon="15.023694067065197"><ele>162.5</ele><time>2026-03-28T14:40:29Z</time></trkpt><trkpt lat="36.883897090912136" lon="15.02378391496718"><ele>164.75</ele><time>2026-03-28T14:40:30Z</time></trkpt><trkpt lat="36.88399614243329" lon="15.023863269180461"><ele>167.0</ele><time>2026-03-28T14:40:31Z</time></trkpt><trkpt lat="36.8840906637366" lon="15.023936399052056"><ele>167.0</ele><time>2026-03-28T14:40:32Z</time></trkpt><trkpt lat="36.88418640966375" lon="15.024010426398087"><ele>167.0</ele><time>2026-03-28T14:40:33Z</time></trkpt><trkpt lat="36.88427370657218" lon="15.024070987044244"><ele>167.0</ele><time>2026-03-28T14:40:34Z</time></trkpt><trkpt lat="36.88435968245034" lon="15.02411199242257"><ele>167.0</ele><time>2026-03-28T14:40:35Z</time></trkpt><trkpt lat="36.88444705140414" lon="15.024137182478823"><ele>167.0</ele><time>2026-03-28T14:40:36Z</time></trkpt><trkpt lat="36.88453852663012" lon="15.02414437095308"><ele>169.6</ele><time>2026-03-28T14:40:37Z</time></trkpt><trkpt lat="36.88463992228428" lon="15.024149451601286"><ele>172.2</ele><time>2026-03-28T14:40:38Z</time></trkpt><trkpt lat="36.88472531368142" lon="15.024150933065721"><ele>174.8</ele><time>2026-03-28T14:40:39Z</time></trkpt><trkpt lat="36.88480363817606" lon="15.024139899852575"><ele>177.4</ele><time>2026-03-28T14:40:41Z</time></trkpt><trkpt lat="36.88487670084246" lon="15.024137745006069"><ele>180.0</ele><time>2026-03-28T14:42:17Z</time></trkpt><trkpt lat="36.88491229924891" lon="15.023929622851858"><ele>180.0</ele><time>2026-03-28T14:42:19Z</time></trkpt><trkpt lat="36.88494817190928" lon="15.023855936686282"><ele>180.0</ele><time>2026-03-28T14:42:20Z</time></trkpt><trkpt lat="36.88501424357663" lon="15.023805777292184"><ele>180.0</ele><time>2026-03-28T14:42:21Z</time></trkpt><trkpt lat="36.88505735544225" lon="15.023702623223983"><ele>180.0</ele><time>2026-03-28T14:42:22Z</time></trkpt><trkpt lat="36.885090451974115" lon="15.023621751396613"><ele>180.0</ele><time>2026-03-28T14:42:23Z</time></trkpt><trkpt lat="36.88508828320952" lon="15.023525060832762"><ele>180.0</ele><time>2026-03-28T14:42:24Z</time></trkpt><trkpt lat="36.88506940867754" lon="15.023369662406314"><ele>179.0</ele><time>2026-03-28T14:42:25Z</time></trkpt><trkpt lat="36.88504345147545" lon="15.023194256826224"><ele>178.0</ele><time>2026-03-28T14:42:26Z</time></trkpt><trkpt lat="36.88505422738192" lon="15.02305917966032"><ele>177.0</ele><time>2026-03-28T14:42:27Z</time></trkpt><trkpt lat="36.88507236831533" lon="15.022965552248994"><ele>176.0</ele><time>2026-03-28T14:42:28Z</time></trkpt><trkpt lat="36.885112886929946" lon="15.022842112065717"><ele>175.0</ele><time>2026-03-28T14:42:29Z</time></trkpt><trkpt lat="36.885160212218466" lon="15.022679437857326"><ele>177.0</ele><time>2026-03-28T14:42:30Z</time></trkpt><trkpt lat="36.88525165971536" lon="15.022494624110417"><ele>179.0</ele><time>2026-03-28T14:42:31Z</time></trkpt><trkpt lat="36.885347743680036" lon="15.022314491752653"><ele>181.0</ele><time>2026-03-28T14:42:32Z</time></trkpt><trkpt lat="36.88541495663517" lon="15.022183161998198"><ele>181.0</ele><time>2026-03-28T14:42:33Z</time></trkpt><trkpt lat="36.88546659500228" lon="15.02206659550563"><ele>181.0</ele><time>2026-03-28T14:42:34Z</time></trkpt><trkpt lat="36.885517810742215" lon="15.021946828000853"><ele>181.0</ele><time>2026-03-28T14:42:35Z</time></trkpt><trkpt lat="36.88556840090186" lon="15.021833129214738"><ele>181.0</ele><time>2026-03-28T14:42:36Z</time></trkpt><trkpt lat="36.88562013508459" lon="15.02169618622383"><ele>181.0</ele><time>2026-03-28T14:42:37Z</time></trkpt><trkpt lat="36.88568404584185" lon="15.021533602789512"><ele>178.5</ele><time>2026-03-28T14:42:38Z</time></trkpt><trkpt lat="36.88575077604512" lon="15.021371286086051"><ele>176.0</ele><time>2026-03-28T14:42:39Z</time></trkpt><trkpt lat="36.88581635123872" lon="15.021223112359944"><ele>173.5</ele><time>2026-03-28T14:42:40Z</time></trkpt><trkpt lat="36.88587803933397" lon="15.021098036899918"><ele>171.0</ele><time>2026-03-28T14:42:41Z</time></trkpt><trkpt lat="36.88592686195494" lon="15.020973622154823"><ele>171.0</ele><time>2026-03-28T14:42:42Z</time></trkpt><trkpt lat="36.88597646362692" lon="15.02085178420863"><ele>171.0</ele><time>2026-03-28T14:42:43Z</time></trkpt><trkpt lat="36.886013212878275" lon="15.020741644465664"><ele>171.0</ele><time>2026-03-28T14:42:44Z</time></trkpt><trkpt lat="36.88603647876016" lon="15.02064998293915"><ele>171.0</ele><time>2026-03-28T14:42:45Z</time></trkpt><trkpt lat="36.886081558938315" lon="15.020529915024571"><ele>171.0</ele><time>2026-03-28T14:42:47Z</time></trkpt><trkpt lat="36.88617424893732" lon="15.020450291767194"><ele>171.0</ele><time>2026-03-28T14:42:49Z</time></trkpt><trkpt lat="36.88625103654257" lon="15.020398647779627"><ele>171.0</ele><time>2026-03-28T14:42:50Z</time></trkpt><trkpt lat="36.886318840303154" lon="15.020355676266004"><ele>171.0</ele><time>2026-03-28T14:42:51Z</time></trkpt><trkpt lat="36.88641036607744" lon="15.0203452392711"><ele>171.0</ele><time>2026-03-28T14:42:52Z</time></trkpt><trkpt lat="36.88647704072987" lon="15.020290219717214"><ele>171.0</ele><time>2026-03-28T14:42:53Z</time></trkpt><trkpt lat="36.88653896510802" lon="15.020194601880224"><ele>171.0</ele><time>2026-03-28T14:42:55Z</time></trkpt><trkpt lat="36.8865428595006" lon="15.02010030289011"><ele>171.0</ele><time>2026-03-28T14:42:56Z</time></trkpt><trkpt lat="36.88652394322667" lon="15.020001264185098"><ele>171.0</ele><time>2026-03-28T14:42:57Z</time></trkpt><trkpt lat="36.88648316994144" lon="15.019906662659476"><ele>171.0</ele><time>2026-03-28T14:42:58Z</time></trkpt><trkpt lat="36.886411561295695" lon="15.019808535666161"><ele>171.0</ele><time>2026-03-28T14:42:59Z</time></trkpt><trkpt lat="36.886349028082" lon="15.019688617775566"><ele>171.0</ele><time>2026-03-28T14:43:00Z</time></trkpt><trkpt lat="36.88628352725951" lon="15.019589487994136"><ele>170.20000000000002</ele><time>2026-03-28T14:43:01Z</time></trkpt><trkpt lat="36.88622464824028" lon="15.01952845072733"><ele>169.4</ele><time>2026-03-28T14:43:02Z</time></trkpt><trkpt lat="36.88620802195899" lon="15.01941004279489"><ele>168.6</ele><time>2026-03-28T14:43:04Z</time></trkpt><trkpt lat="36.88624995914862" lon="15.019339532377597"><ele>167.8</ele><time>2026-03-28T14:43:05Z</time></trkpt><trkpt lat="36.886297659526946" lon="15.01922534659946"><ele>167.0</ele><time>2026-03-28T14:43:06Z</time></trkpt><trkpt lat="36.88635534257444" lon="15.01905982727394"><ele>165.0</ele><time>2026-03-28T14:43:07Z</time></trkpt><trkpt lat="36.88642600965124" lon="15.018881024657091"><ele>163.0</ele><time>2026-03-28T14:43:08Z</time></trkpt><trkpt lat="36.88648484952046" lon="15.01872054060052"><ele>161.0</ele><time>2026-03-28T14:43:09Z</time></trkpt><trkpt lat="36.88654283215198" lon="15.018566184462733"><ele>159.0</ele><time>2026-03-28T14:43:10Z</time></trkpt><trkpt lat="36.88661211591332" lon="15.018413648115915"><ele>159.0</ele><time>2026-03-28T14:43:11Z</time></trkpt><trkpt lat="36.88669688518496" lon="15.01826597077975"><ele>159.0</ele><time>2026-03-28T14:43:12Z</time></trkpt><trkpt lat="36.886820104867724" lon="15.018080298253128"><ele>159.0</ele><time>2026-03-28T14:43:13Z</time></trkpt><trkpt lat="36.88693043631906" lon="15.01790946589501"><ele>159.0</ele><time>2026-03-28T14:43:14Z</time></trkpt><trkpt lat="36.88702305000389" lon="15.017771635298589"><ele>159.0</ele><time>2026-03-28T14:43:15Z</time></trkpt><trkpt lat="36.887105271946844" lon="15.017665298834977"><ele>159.0</ele><time>2026-03-28T14:43:16Z</time></trkpt><trkpt lat="36.88719277722169" lon="15.0175743286021"><ele>159.0</ele><time>2026-03-28T14:43:17Z</time></trkpt><trkpt lat="36.88729258878102" lon="15.017469435388595"><ele>159.0</ele><time>2026-03-28T14:43:18Z</time></trkpt><trkpt lat="36.88739668238664" lon="15.017346428316849"><ele>159.0</ele><time>2026-03-28T14:43:19Z</time></trkpt><trkpt lat="36.8874984725976" lon="15.017231102038723"><ele>159.0</ele><time>2026-03-28T14:43:20Z</time></trkpt><trkpt lat="36.88756957521622" lon="15.017152361955247"><ele>159.0</ele><time>2026-03-28T14:43:21Z</time></trkpt><trkpt lat="36.88762043001945" lon="15.017081850210266"><ele>159.2</ele><time>2026-03-28T14:43:22Z</time></trkpt><trkpt lat="36.8876410588197" lon="15.016963084637085"><ele>159.4</ele><time>2026-03-28T14:43:24Z</time></trkpt><trkpt lat="36.88761730164532" lon="15.016781541746795"><ele>159.6</ele><time>2026-03-28T14:43:26Z</time></trkpt><trkpt lat="36.88761516690749" lon="15.01667457928095"><ele>159.8</ele><time>2026-03-28T14:43:27Z</time></trkpt><trkpt lat="36.88761500949051" lon="15.016550243875923"><ele>160.0</ele><time>2026-03-28T14:43:29Z</time></trkpt><trkpt lat="36.88762358934591" lon="15.016469369850485"><ele>168.0</ele><time>2026-03-28T14:44:10Z</time></trkpt><trkpt lat="36.887646000723926" lon="15.016391282637448"><ele>168.0</ele><time>2026-03-28T14:44:27Z</time></trkpt></trkseg><trkseg><trkpt lat="36.887574974008395" lon="15.016446917936957"><ele>165.0</ele><time>2026-03-28T14:59:48Z</time></trkpt><trkpt lat="36.887504006705655" lon="15.016489139659384"><ele>165.0</ele><time>2026-03-28T14:59:49Z</time></trkpt><trkpt lat="36.88742636608417" lon="15.016516754933035"><ele>165.0</ele><time>2026-03-28T14:59:50Z</time></trkpt><trkpt lat="36.887342655083096" lon="15.01654584959908"><ele>165.0</ele><time>2026-03-28T14:59:51Z</time></trkpt><trkpt lat="36.887255972427766" lon="15.016572121295468"><ele>165.0</ele><time>2026-03-28T14:59:52Z</time></trkpt><trkpt lat="36.88716427664177" lon="15.016607930808968"><ele>165.0</ele><time>2026-03-28T14:59:53Z</time></trkpt><trkpt lat="36.88707677331338" lon="15.016633450290866"><ele>165.0</ele><time>2026-03-28T14:59:54Z</time></trkpt><trkpt lat="36.8870028909629" lon="15.016615848154055"><ele>165.0</ele><time>2026-03-28T14:59:55Z</time></trkpt><trkpt lat="36.88692040636959" lon="15.016596365222387"><ele>165.0</ele><time>2026-03-28T14:59:56Z</time></trkpt><trkpt lat="36.88683822923872" lon="15.016556152208677"><ele>165.0</ele><time>2026-03-28T14:59:57Z</time></trkpt><trkpt lat="36.88675368658125" lon="15.016495380797155"><ele>165.0</ele><time>2026-03-28T14:59:58Z</time></trkpt><trkpt lat="36.88666259033145" lon="15.016422146376394"><ele>166.2</ele><time>2026-03-28T14:59:59Z</time></trkpt><trkpt lat="36.88657727137721" lon="15.016338505257934"><ele>167.4</ele><time>2026-03-28T15:00:00Z</time></trkpt><trkpt lat="36.88650889085211" lon="15.01628304394476"><ele>168.60000000000002</ele><time>2026-03-28T15:00:01Z</time></trkpt><trkpt lat="36.8864123914348" lon="15.016260361975865"><ele>169.8</ele><time>2026-03-28T15:00:02Z</time></trkpt><trkpt lat="36.88631440270217" lon="15.016231532671062"><ele>171.0</ele><time>2026-03-28T15:00:03Z</time></trkpt><trkpt lat="36.886203805035954" lon="15.016237132927149"><ele>171.0</ele><time>2026-03-28T15:00:04Z</time></trkpt><trkpt lat="36.88609734364772" lon="15.016246958344176"><ele>171.0</ele><time>2026-03-28T15:00:05Z</time></trkpt><trkpt lat="36.88599089982546" lon="15.016242448056364"><ele>171.0</ele><time>2026-03-28T15:00:06Z</time></trkpt><trkpt lat="36.88587095157488" lon="15.016233446431666"><ele>171.0</ele><time>2026-03-28T15:00:07Z</time></trkpt><trkpt lat="36.88575856728414" lon="15.016210378654238"><ele>171.0</ele><time>2026-03-28T15:00:08Z</time></trkpt><trkpt lat="36.885648448094415" lon="15.016187818896428"><ele>169.75</ele><time>2026-03-28T15:00:09Z</time></trkpt><trkpt lat="36.885533819270535" lon="15.016143693754005"><ele>168.5</ele><time>2026-03-28T15:00:10Z</time></trkpt><trkpt lat="36.88540713831518" lon="15.016127678619057"><ele>167.25</ele><time>2026-03-28T15:00:11Z</time></trkpt><trkpt lat="36.88527517327036" lon="15.01608156854995"><ele>166.0</ele><time>2026-03-28T15:00:12Z</time></trkpt><trkpt lat="36.88512726364131" lon="15.016036923623437"><ele>163.66666666666669</ele><time>2026-03-28T15:00:13Z</time></trkpt><trkpt lat="36.88497939492999" lon="15.015993045185555"><ele>161.33333333333334</ele><time>2026-03-28T15:00:14Z</time></trkpt><trkpt lat="36.88483306217362" lon="15.0159227757028"><ele>159.0</ele><time>2026-03-28T15:00:15Z</time></trkpt><trkpt lat="36.88468738842192" lon="15.015892277800921"><ele>159.0</ele><time>2026-03-28T15:00:16Z</time></trkpt><trkpt lat="36.88453708092152" lon="15.015834764953295"><ele>159.0</ele><time>2026-03-28T15:00:17Z</time></trkpt><trkpt lat="36.88439299935391" lon="15.01578175072218"><ele>159.0</ele><time>2026-03-28T15:00:18Z</time></trkpt><trkpt lat="36.88424458490581" lon="15.015723691201009"><ele>158.33333333333334</ele><time>2026-03-28T15:00:19Z</time></trkpt><trkpt lat="36.88409721688542" lon="15.015648797092116"><ele>157.66666666666669</ele><time>2026-03-28T15:00:20Z</time></trkpt><trkpt lat="36.88395849590424" lon="15.015589516855073"><ele>157.0</ele><time>2026-03-28T15:00:21Z</time></trkpt><trkpt lat="36.88381801581062" lon="15.01554964568328"><ele>157.0</ele><time>2026-03-28T15:00:22Z</time></trkpt><trkpt lat="36.883696447252184" lon="15.015472426939318"><ele>157.0</ele><time>2026-03-28T15:00:23Z</time></trkpt><trkpt lat="36.883563620750024" lon="15.01542805478727"><ele>157.0</ele><time>2026-03-28T15:00:24Z</time></trkpt><trkpt lat="36.883450920076406" lon="15.01535517317257"><ele>157.0</ele><time>2026-03-28T15:00:25Z</time></trkpt><trkpt lat="36.883320439783766" lon="15.015318548983272"><ele>156.0</ele><time>2026-03-28T15:00:26Z</time></trkpt><trkpt lat="36.8831983277645" lon="15.01526072737524"><ele>155.0</ele><time>2026-03-28T15:00:27Z</time></trkpt><trkpt lat="36.883089540306166" lon="15.015205218597327"><ele>154.0</ele><time>2026-03-28T15:00:28Z</time></trkpt><trkpt lat="36.88299932979495" lon="15.01511611927323"><ele>153.0</ele><time>2026-03-28T15:00:29Z</time></trkpt><trkpt lat="36.88289798032269" lon="15.015021225534486"><ele>154.0</ele><time>2026-03-28T15:00:30Z</time></trkpt><trkpt lat="36.88277087835549" lon="15.014948167586981"><ele>155.0</ele><time>2026-03-28T15:00:31Z</time></trkpt><trkpt lat="36.88262710821266" lon="15.014892523378501"><ele>156.0</ele><time>2026-03-28T15:00:32Z</time></trkpt><trkpt lat="36.882473767305996" lon="15.014851490545952"><ele>157.0</ele><time>2026-03-28T15:00:33Z</time></trkpt><trkpt lat="36.882317602229044" lon="15.01481079160594"><ele>157.66666666666669</ele><time>2026-03-28T15:00:34Z</time></trkpt><trkpt lat="36.88216619906792" lon="15.014737386141617"><ele>158.33333333333334</ele><time>2026-03-28T15:00:35Z</time></trkpt><trkpt lat="36.88200632436639" lon="15.014692058370267"><ele>159.0</ele><time>2026-03-28T15:00:36Z</time></trkpt><trkpt lat="36.88185629277121" lon="15.014631123393952"><ele>158.33333333333334</ele><time>2026-03-28T15:00:37Z</time></trkpt><trkpt lat="36.881720459879084" lon="15.01456832560395"><ele>157.66666666666669</ele><time>2026-03-28T15:00:38Z</time></trkpt><trkpt lat="36.88158698666766" lon="15.014494586206126"><ele>157.0</ele><time>2026-03-28T15:00:39Z</time></trkpt><trkpt lat="36.88142400880401" lon="15.014454844072183"><ele>157.0</ele><time>2026-03-28T15:00:40Z</time></trkpt><trkpt lat="36.88126278683759" lon="15.014398898417197"><ele>157.0</ele><time>2026-03-28T15:00:41Z</time></trkpt><trkpt lat="36.88109140141812" lon="15.014348291948403"><ele>157.0</ele><time>2026-03-28T15:00:42Z</time></trkpt><trkpt lat="36.88091085981848" lon="15.014307805979632"><ele>157.0</ele><time>2026-03-28T15:00:43Z</time></trkpt><trkpt lat="36.880726598450295" lon="15.014276649944156"><ele>157.0</ele><time>2026-03-28T15:00:44Z</time></trkpt><trkpt lat="36.88054416094368" lon="15.014223239822478"><ele>157.0</ele><time>2026-03-28T15:00:45Z</time></trkpt><trkpt lat="36.88035744530767" lon="15.014185686829647"><ele>159.0</ele><time>2026-03-28T15:00:46Z</time></trkpt><trkpt lat="36.8801699364865" lon="15.014154740373005"><ele>161.0</ele><time>2026-03-28T15:00:47Z</time></trkpt><trkpt lat="36.87999143029831" lon="15.01412653581678"><ele>163.0</ele><time>2026-03-28T15:00:48Z</time></trkpt><trkpt lat="36.879817231585925" lon="15.01409901313037"><ele>163.66666666666669</ele><time>2026-03-28T15:00:49Z</time></trkpt><trkpt lat="36.87964713601718" lon="15.014072137466293"><ele>164.33333333333334</ele><time>2026-03-28T15:00:50Z</time></trkpt><trkpt lat="36.87947457646843" lon="15.014044984900575"><ele>165.0</ele><time>2026-03-28T15:00:51Z</time></trkpt><trkpt lat="36.879308729897396" lon="15.014006729094291"><ele>166.0</ele><time>2026-03-28T15:00:52Z</time></trkpt><trkpt lat="36.879139123848326" lon="15.013950726318066"><ele>167.0</ele><time>2026-03-28T15:00:53Z</time></trkpt><trkpt lat="36.87896453221055" lon="15.013897659605847"><ele>168.0</ele><time>2026-03-28T15:00:54Z</time></trkpt><trkpt lat="36.87877051633066" lon="15.01386407887454"><ele>168.0</ele><time>2026-03-28T15:00:55Z</time></trkpt><trkpt lat="36.87858084219868" lon="15.013813229399467"><ele>168.0</ele><time>2026-03-28T15:00:56Z</time></trkpt><trkpt lat="36.87840964628664" lon="15.01376334417927"><ele>168.0</ele><time>2026-03-28T15:00:57Z</time></trkpt><trkpt lat="36.878237941414454" lon="15.013717377257102"><ele>169.66666666666666</ele><time>2026-03-28T15:00:58Z</time></trkpt><trkpt lat="36.87806788346857" lon="15.013672253554192"><ele>171.33333333333331</ele><time>2026-03-28T15:00:59Z</time></trkpt><trkpt lat="36.87790520867749" lon="15.013624186907913"><ele>173.0</ele><time>2026-03-28T15:01:00Z</time></trkpt><trkpt lat="36.87775116771179" lon="15.013574078633305"><ele>173.0</ele><time>2026-03-28T15:01:01Z</time></trkpt><trkpt lat="36.87760919109013" lon="15.013527726732649"><ele>173.0</ele><time>2026-03-28T15:01:02Z</time></trkpt><trkpt lat="36.877489936463405" lon="15.013483100295879"><ele>173.0</ele><time>2026-03-28T15:01:03Z</time></trkpt><trkpt lat="36.877385151735616" lon="15.013441441565007"><ele>173.0</ele><time>2026-03-28T15:01:04Z</time></trkpt><trkpt lat="36.87729985802738" lon="15.013406895455208"><ele>173.5</ele><time>2026-03-28T15:01:05Z</time></trkpt><trkpt lat="36.877229095731735" lon="15.013379870901128"><ele>174.0</ele><time>2026-03-28T15:01:06Z</time></trkpt><trkpt lat="36.87716984518586" lon="15.013351569061479"><ele>174.5</ele><time>2026-03-28T15:01:07Z</time></trkpt><trkpt lat="36.8770998716837" lon="15.013306483971848"><ele>175.0</ele><time>2026-03-28T15:01:09Z</time></trkpt><trkpt lat="36.877038646754364" lon="15.013280716672174"><ele>175.5</ele><time>2026-03-28T15:01:14Z</time></trkpt><trkpt lat="36.876948138768576" lon="15.013242625178117"><ele>176.0</ele><time>2026-03-28T15:01:43Z</time></trkpt><trkpt lat="36.876871960941976" lon="15.01321155552036"><ele>177.8</ele><time>2026-03-28T15:01:45Z</time></trkpt><trkpt lat="36.87692736446309" lon="15.013089165592662"><ele>179.60000000000002</ele><time>2026-03-28T15:01:48Z</time></trkpt><trkpt lat="36.8769579337614" lon="15.012989961478564"><ele>181.4</ele><time>2026-03-28T15:01:49Z</time></trkpt><trkpt lat="36.87698701041962" lon="15.012878104154955"><ele>183.2</ele><time>2026-03-28T15:01:50Z</time></trkpt><trkpt lat="36.87697996142215" lon="15.012771205721025"><ele>185.0</ele><time>2026-03-28T15:01:51Z</time></trkpt><trkpt lat="36.87697285592084" lon="15.012676716824496"><ele>185.0</ele><time>2026-03-28T15:01:52Z</time></trkpt><trkpt lat="36.87696333252747" lon="15.012572028484657"><ele>185.0</ele><time>2026-03-28T15:01:54Z</time></trkpt><trkpt lat="36.876971730429894" lon="15.012489277729326"><ele>185.0</ele><time>2026-03-28T15:02:13Z</time></trkpt><trkpt lat="36.87697685942358" lon="15.012399482239243"><ele>185.0</ele><time>2026-03-28T15:02:16Z</time></trkpt><trkpt lat="36.877001650138645" lon="15.012281916114764"><ele>185.0</ele><time>2026-03-28T15:02:18Z</time></trkpt><trkpt lat="36.87703914937846" lon="15.012142044019216"><ele>185.0</ele><time>2026-03-28T15:02:20Z</time></trkpt><trkpt lat="36.877065593978784" lon="15.012058329809093"><ele>184.33333333333331</ele><time>2026-03-28T15:02:21Z</time></trkpt><trkpt lat="36.877098417976214" lon="15.011971916200281"><ele>183.66666666666666</ele><time>2026-03-28T15:02:22Z</time></trkpt><trkpt lat="36.877143533164976" lon="15.01188461935583"><ele>183.0</ele><time>2026-03-28T15:02:23Z</time></trkpt><trkpt lat="36.87719458556378" lon="15.01181412205323"><ele>182.33333333333334</ele><time>2026-03-28T15:02:24Z</time></trkpt><trkpt lat="36.87723946760899" lon="15.011748433505064"><ele>181.66666666666669</ele><time>2026-03-28T15:02:25Z</time></trkpt><trkpt lat="36.8773051400868" lon="15.011647573369034"><ele>181.0</ele><time>2026-03-28T15:02:27Z</time></trkpt><trkpt lat="36.87738597819376" lon="15.011589561130677"><ele>181.16666666666669</ele><time>2026-03-28T15:02:29Z</time></trkpt><trkpt lat="36.877449556060455" lon="15.011561100870008"><ele>181.33333333333334</ele><time>2026-03-28T15:02:30Z</time></trkpt><trkpt lat="36.87752591881611" lon="15.011536601189347"><ele>181.5</ele><time>2026-03-28T15:02:31Z</time></trkpt><trkpt lat="36.8775993136214" lon="15.011517798924011"><ele>181.66666666666666</ele><time>2026-03-28T15:02:32Z</time></trkpt><trkpt lat="36.87768747081416" lon="15.011491634784264"><ele>181.83333333333331</ele><time>2026-03-28T15:02:33Z</time></trkpt><trkpt lat="36.87777501140103" lon="15.011473526708444"><ele>182.0</ele><time>2026-03-28T15:02:34Z</time></trkpt><trkpt lat="36.87786459516563" lon="15.011461286062348"><ele>182.0</ele><time>2026-03-28T15:02:35Z</time></trkpt><trkpt lat="36.87795087971917" lon="15.011446300240186"><ele>182.0</ele><time>2026-03-28T15:02:36Z</time></trkpt><trkpt lat="36.87803038618661" lon="15.011408849068015"><ele>182.0</ele><time>2026-03-28T15:02:37Z</time></trkpt><trkpt lat="36.87810455844142" lon="15.011355606799542"><ele>182.0</ele><time>2026-03-28T15:02:38Z</time></trkpt><trkpt lat="36.87817411183519" lon="15.011304181332855"><ele>182.0</ele><time>2026-03-28T15:02:39Z</time></trkpt><trkpt lat="36.87823761330458" lon="15.011255662624974"><ele>182.0</ele><time>2026-03-28T15:02:40Z</time></trkpt><trkpt lat="36.878288919491865" lon="15.011198228710267"><ele>182.0</ele><time>2026-03-28T15:02:41Z</time></trkpt><trkpt lat="36.87834674053662" lon="15.011118377701694"><ele>182.0</ele><time>2026-03-28T15:02:42Z</time></trkpt><trkpt lat="36.878396790203404" lon="15.011043605463996"><ele>182.0</ele><time>2026-03-28T15:02:43Z</time></trkpt><trkpt lat="36.878420514977826" lon="15.010953994425293"><ele>182.0</ele><time>2026-03-28T15:02:44Z</time></trkpt><trkpt lat="36.87843615278033" lon="15.01086074809275"><ele>182.0</ele><time>2026-03-28T15:02:45Z</time></trkpt><trkpt lat="36.87844022998617" lon="15.010776067566722"><ele>182.0</ele><time>2026-03-28T15:02:46Z</time></trkpt><trkpt lat="36.87843432331504" lon="15.010685178715415"><ele>182.16666666666666</ele><time>2026-03-28T15:02:47Z</time></trkpt><trkpt lat="36.87841621652821" lon="15.010591882875659"><ele>182.33333333333331</ele><time>2026-03-28T15:02:48Z</time></trkpt><trkpt lat="36.878396380483345" lon="15.010499532457406"><ele>182.5</ele><time>2026-03-28T15:02:49Z</time></trkpt><trkpt lat="36.87837604947433" lon="15.010404902668592"><ele>182.66666666666666</ele><time>2026-03-28T15:02:50Z</time></trkpt><trkpt lat="36.878350991655246" lon="15.01030909744497"><ele>182.83333333333334</ele><time>2026-03-28T15:02:51Z</time></trkpt><trkpt lat="36.878317690809396" lon="15.010221296163436"><ele>183.0</ele><time>2026-03-28T15:02:52Z</time></trkpt><trkpt lat="36.87826537448532" lon="15.01013158026013"><ele>183.0</ele><time>2026-03-28T15:02:53Z</time></trkpt><trkpt lat="36.878221620253406" lon="15.010053896804894"><ele>183.0</ele><time>2026-03-28T15:02:54Z</time></trkpt><trkpt lat="36.87818242657659" lon="15.009970163724205"><ele>183.0</ele><time>2026-03-28T15:02:55Z</time></trkpt><trkpt lat="36.87813867156906" lon="15.00988778588291"><ele>183.0</ele><time>2026-03-28T15:02:56Z</time></trkpt><trkpt lat="36.87808516923328" lon="15.009831599204894"><ele>183.0</ele><time>2026-03-28T15:02:57Z</time></trkpt><trkpt lat="36.87800560117893" lon="15.009751447554057"><ele>183.0</ele><time>2026-03-28T15:02:59Z</time></trkpt><trkpt lat="36.87799836282332" lon="15.009612762506572"><ele>182.4</ele><time>2026-03-28T15:03:01Z</time></trkpt><trkpt lat="36.87796053575431" lon="15.00950248366238"><ele>181.8</ele><time>2026-03-28T15:03:02Z</time></trkpt><trkpt lat="36.87792278135582" lon="15.0093970235316"><ele>181.2</ele><time>2026-03-28T15:03:03Z</time></trkpt><trkpt lat="36.87788133658526" lon="15.009309796929976"><ele>180.6</ele><time>2026-03-28T15:03:04Z</time></trkpt><trkpt lat="36.87783629197471" lon="15.009191859745233"><ele>180.0</ele><time>2026-03-28T15:03:06Z</time></trkpt><trkpt lat="36.87786564547344" lon="15.009099900589968"><ele>176.5</ele><time>2026-03-28T15:03:08Z</time></trkpt><trkpt lat="36.87795266894701" lon="15.009048572512151"><ele>173.0</ele><time>2026-03-28T15:03:10Z</time></trkpt><trkpt lat="36.878024617527075" lon="15.00901995483521"><ele>169.5</ele><time>2026-03-28T15:03:11Z</time></trkpt><trkpt lat="36.87810011246593" lon="15.008994701882118"><ele>166.0</ele><time>2026-03-28T15:03:12Z</time></trkpt><trkpt lat="36.87816755308769" lon="15.008948287395835"><ele>162.5</ele><time>2026-03-28T15:03:13Z</time></trkpt><trkpt lat="36.8782475618162" lon="15.008904622991428"><ele>159.0</ele><time>2026-03-28T15:03:14Z</time></trkpt><trkpt lat="36.878321519426294" lon="15.008865540048546"><ele>160.4</ele><time>2026-03-28T15:03:15Z</time></trkpt><trkpt lat="36.878438868673754" lon="15.008821499954891"><ele>161.8</ele><time>2026-03-28T15:03:17Z</time></trkpt><trkpt lat="36.8785011745949" lon="15.008795716384821"><ele>163.20000000000002</ele><time>2026-03-28T15:03:18Z</time></trkpt><trkpt lat="36.87856249540694" lon="15.008770415470439"><ele>164.60000000000002</ele><time>2026-03-28T15:03:19Z</time></trkpt><trkpt lat="36.87864642341515" lon="15.008683794651517"><ele>166.0</ele><time>2026-03-28T15:03:21Z</time></trkpt><trkpt lat="36.87872127117338" lon="15.008561767446102"><ele>166.0</ele><time>2026-03-28T15:03:23Z</time></trkpt><trkpt lat="36.878805549950194" lon="15.008443246050595"><ele>166.0</ele><time>2026-03-28T15:03:25Z</time></trkpt><trkpt lat="36.87889787473899" lon="15.00839144949254"><ele>166.0</ele><time>2026-03-28T15:03:27Z</time></trkpt><trkpt lat="36.879010905516274" lon="15.008378117538296"><ele>166.0</ele><time>2026-03-28T15:03:29Z</time></trkpt><trkpt lat="36.87907538841398" lon="15.008367439743985"><ele>166.0</ele><time>2026-03-28T15:03:30Z</time></trkpt><trkpt lat="36.879136976186736" lon="15.008349026910006"><ele>163.83333333333334</ele><time>2026-03-28T15:03:31Z</time></trkpt><trkpt lat="36.87921170439896" lon="15.008264090842259"><ele>161.66666666666669</ele><time>2026-03-28T15:03:33Z</time></trkpt><trkpt lat="36.87924902489885" lon="15.008200186228699"><ele>159.5</ele><time>2026-03-28T15:03:34Z</time></trkpt><trkpt lat="36.87930255956602" lon="15.008129373192478"><ele>157.33333333333334</ele><time>2026-03-28T15:03:35Z</time></trkpt><trkpt lat="36.879359167551115" lon="15.00806582370574"><ele>155.16666666666666</ele><time>2026-03-28T15:03:36Z</time></trkpt><trkpt lat="36.879407606803774" lon="15.008007497214424"><ele>153.0</ele><time>2026-03-28T15:03:37Z</time></trkpt><trkpt lat="36.87947616145356" lon="15.007938478229818"><ele>153.0</ele><time>2026-03-28T15:03:38Z</time></trkpt><trkpt lat="36.87953103296173" lon="15.007863804321154"><ele>153.0</ele><time>2026-03-28T15:03:39Z</time></trkpt><trkpt lat="36.879583699734184" lon="15.00779043034636"><ele>153.0</ele><time>2026-03-28T15:03:40Z</time></trkpt><trkpt lat="36.87965569007682" lon="15.007693724473821"><ele>153.0</ele><time>2026-03-28T15:03:42Z</time></trkpt><trkpt lat="36.87970881175029" lon="15.007633511842027"><ele>153.0</ele><time>2026-03-28T15:03:44Z</time></trkpt><trkpt lat="36.87976952956314" lon="15.00758383817061"><ele>153.0</ele><time>2026-03-28T15:03:46Z</time></trkpt><trkpt lat="36.87978500326925" lon="15.007477310464008"><ele>151.33333333333334</ele><time>2026-03-28T15:03:49Z</time></trkpt><trkpt lat="36.879679199998805" lon="15.007436648899418"><ele>149.66666666666666</ele><time>2026-03-28T15:03:51Z</time></trkpt><trkpt lat="36.87958679739132" lon="15.007416592197282"><ele>148.0</ele><time>2026-03-28T15:03:52Z</time></trkpt><trkpt lat="36.87952981704218" lon="15.007360922611307"><ele>146.33333333333331</ele><time>2026-03-28T15:03:53Z</time></trkpt><trkpt lat="36.87948269382478" lon="15.007288042697013"><ele>144.66666666666666</ele><time>2026-03-28T15:03:54Z</time></trkpt><trkpt lat="36.879417452687235" lon="15.007236442893657"><ele>143.0</ele><time>2026-03-28T15:03:55Z</time></trkpt><trkpt lat="36.87933678592217" lon="15.007196993754636"><ele>143.0</ele><time>2026-03-28T15:03:56Z</time></trkpt><trkpt lat="36.879274198249604" lon="15.007162276403736"><ele>143.0</ele><time>2026-03-28T15:03:57Z</time></trkpt><trkpt lat="36.879192955709165" lon="15.00711964097868"><ele>143.0</ele><time>2026-03-28T15:03:58Z</time></trkpt><trkpt lat="36.87910810086663" lon="15.007082182578282"><ele>143.0</ele><time>2026-03-28T15:03:59Z</time></trkpt><trkpt lat="36.87903291980818" lon="15.007039713384549"><ele>143.0</ele><time>2026-03-28T15:04:00Z</time></trkpt><trkpt lat="36.8789504864019" lon="15.00699559106256"><ele>143.0</ele><time>2026-03-28T15:04:01Z</time></trkpt><trkpt lat="36.87888246713416" lon="15.006947551926634"><ele>141.20000000000002</ele><time>2026-03-28T15:04:02Z</time></trkpt><trkpt lat="36.87881527494994" lon="15.006889270479208"><ele>139.4</ele><time>2026-03-28T15:04:03Z</time></trkpt><trkpt lat="36.8787245915605" lon="15.00682117793762"><ele>137.60000000000002</ele><time>2026-03-28T15:04:04Z</time></trkpt><trkpt lat="36.878637219141964" lon="15.006740226957426"><ele>135.8</ele><time>2026-03-28T15:04:05Z</time></trkpt><trkpt lat="36.878534473683146" lon="15.006705907685404"><ele>134.0</ele><time>2026-03-28T15:04:06Z</time></trkpt><trkpt lat="36.87844273937224" lon="15.006657280471723"><ele>132.16666666666666</ele><time>2026-03-28T15:04:07Z</time></trkpt><trkpt lat="36.8783577022919" lon="15.00660603058808"><ele>130.33333333333331</ele><time>2026-03-28T15:04:08Z</time></trkpt><trkpt lat="36.878272983030236" lon="15.00657001183799"><ele>128.5</ele><time>2026-03-28T15:04:09Z</time></trkpt><trkpt lat="36.87818840843051" lon="15.006548086007408"><ele>126.66666666666666</ele><time>2026-03-28T15:04:10Z</time></trkpt><trkpt lat="36.87811981984581" lon="15.00652328530001"><ele>124.83333333333333</ele><time>2026-03-28T15:04:11Z</time></trkpt><trkpt lat="36.87803995769151" lon="15.00648999675156"><ele>123.0</ele><time>2026-03-28T15:04:12Z</time></trkpt><trkpt lat="36.87797031233175" lon="15.006456799341143"><ele>123.0</ele><time>2026-03-28T15:04:13Z</time></trkpt><trkpt lat="36.8779122432361" lon="15.006425813975804"><ele>123.00000000000001</ele><time>2026-03-28T15:04:14Z</time></trkpt><trkpt lat="36.877793536533744" lon="15.006370324358736"><ele>123.00000000000001</ele><time>2026-03-28T15:04:16Z</time></trkpt><trkpt lat="36.877695436805936" lon="15.006266722101829"><ele>123.0</ele><time>2026-03-28T15:04:18Z</time></trkpt><trkpt lat="36.877630046214655" lon="15.006207312714782"><ele>123.0</ele><time>2026-03-28T15:04:19Z</time></trkpt><trkpt lat="36.87755938049472" lon="15.006143110702869"><ele>122.0</ele><time>2026-03-28T15:04:20Z</time></trkpt><trkpt lat="36.877488610606115" lon="15.006086947799979"><ele>121.0</ele><time>2026-03-28T15:04:21Z</time></trkpt><trkpt lat="36.87741585110835" lon="15.00603988119498"><ele>120.0</ele><time>2026-03-28T15:04:22Z</time></trkpt><trkpt lat="36.87732869987312" lon="15.005989925087015"><ele>119.0</ele><time>2026-03-28T15:04:23Z</time></trkpt><trkpt lat="36.877240367070854" lon="15.00594094462862"><ele>118.0</ele><time>2026-03-28T15:04:24Z</time></trkpt><trkpt lat="36.877160942402455" lon="15.0058957727865"><ele>117.0</ele><time>2026-03-28T15:04:25Z</time></trkpt><trkpt lat="36.87709843031025" lon="15.00584760698403"><ele>117.0</ele><time>2026-03-28T15:04:26Z</time></trkpt><trkpt lat="36.87702660895229" lon="15.005784027445968"><ele>117.0</ele><time>2026-03-28T15:04:27Z</time></trkpt><trkpt lat="36.87697464541249" lon="15.005724955752447"><ele>117.0</ele><time>2026-03-28T15:04:28Z</time></trkpt><trkpt lat="36.87689157533274" lon="15.005624649003453"><ele>117.0</ele><time>2026-03-28T15:04:30Z</time></trkpt><trkpt lat="36.87683710598425" lon="15.005570649900479"><ele>117.0</ele><time>2026-03-28T15:04:32Z</time></trkpt><trkpt lat="36.876804050187594" lon="15.005490125849498"><ele>117.0</ele><time>2026-03-28T15:04:36Z</time></trkpt><trkpt lat="36.87689788531458" lon="15.005345699375335"><ele>117.0</ele><time>2026-03-28T15:04:53Z</time></trkpt><trkpt lat="36.87693633211258" lon="15.005265335267826"><ele>117.0</ele><time>2026-03-28T15:04:54Z</time></trkpt><trkpt lat="36.87698919170314" lon="15.005214235427252"><ele>117.0</ele><time>2026-03-28T15:04:55Z</time></trkpt><trkpt lat="36.87708887387677" lon="15.005155742397367"><ele>117.0</ele><time>2026-03-28T15:04:57Z</time></trkpt><trkpt lat="36.87714846029833" lon="15.005124152565838"><ele>117.0</ele><time>2026-03-28T15:04:58Z</time></trkpt><trkpt lat="36.87726813127435" lon="15.005093418869134"><ele>117.0</ele><time>2026-03-28T15:05:00Z</time></trkpt><trkpt lat="36.877326011446016" lon="15.005051534299339"><ele>117.0</ele><time>2026-03-28T15:05:01Z</time></trkpt><trkpt lat="36.87743090658719" lon="15.005002752276212"><ele>117.0</ele><time>2026-03-28T15:05:03Z</time></trkpt><trkpt lat="36.877493084006915" lon="15.004957118333419"><ele>117.0</ele><time>2026-03-28T15:05:04Z</time></trkpt><trkpt lat="36.877542984992736" lon="15.004904572750394"><ele>117.0</ele><time>2026-03-28T15:05:05Z</time></trkpt><trkpt lat="36.87760198641725" lon="15.004853682277492"><ele>117.0</ele><time>2026-03-28T15:05:06Z</time></trkpt><trkpt lat="36.877652944155535" lon="15.004798695619046"><ele>117.0</ele><time>2026-03-28T15:05:07Z</time></trkpt><trkpt lat="36.87773887350647" lon="15.004728842676164"><ele>117.33333333333333</ele><time>2026-03-28T15:05:08.999Z</time></trkpt><trkpt lat="36.877788774117974" lon="15.004675651801934"><ele>117.66666666666666</ele><time>2026-03-28T15:05:09.999Z</time></trkpt><trkpt lat="36.87785059716537" lon="15.004653653413918"><ele>118.0</ele><time>2026-03-28T15:05:10.999Z</time></trkpt><trkpt lat="36.87793264398328" lon="15.004609619315746"><ele>118.33333333333333</ele><time>2026-03-28T15:05:12.999Z</time></trkpt><trkpt lat="36.87801239518309" lon="15.004569620162432"><ele>118.66666666666666</ele><time>2026-03-28T15:05:13.999Z</time></trkpt><trkpt lat="36.87809766264547" lon="15.00452851747708"><ele>119.0</ele><time>2026-03-28T15:05:14.999Z</time></trkpt><trkpt lat="36.87816711078039" lon="15.00447229994783"><ele>119.0</ele><time>2026-03-28T15:05:15.999Z</time></trkpt><trkpt lat="36.878255654942244" lon="15.004426372815278"><ele>119.0</ele><time>2026-03-28T15:05:16.999Z</time></trkpt><trkpt lat="36.878350191085104" lon="15.004381645968484"><ele>119.0</ele><time>2026-03-28T15:05:17.999Z</time></trkpt><trkpt lat="36.87845272557894" lon="15.004333845088924"><ele>119.0</ele><time>2026-03-28T15:05:18.999Z</time></trkpt><trkpt lat="36.87856110380988" lon="15.004307813319413"><ele>119.0</ele><time>2026-03-28T15:05:19.999Z</time></trkpt><trkpt lat="36.87865539664728" lon="15.004288001449657"><ele>119.66666666666666</ele><time>2026-03-28T15:05:20.999Z</time></trkpt><trkpt lat="36.87875589159535" lon="15.004262212123958"><ele>120.33333333333333</ele><time>2026-03-28T15:05:21.999Z</time></trkpt><trkpt lat="36.87886506278975" lon="15.004262457818582"><ele>121.0</ele><time>2026-03-28T15:05:22.999Z</time></trkpt><trkpt lat="36.87895428188899" lon="15.004239475591756"><ele>121.66666666666666</ele><time>2026-03-28T15:05:23.999Z</time></trkpt><trkpt lat="36.87901455333947" lon="15.004195279787218"><ele>122.33333333333333</ele><time>2026-03-28T15:05:24.999Z</time></trkpt><trkpt lat="36.87906518861695" lon="15.004133372190664"><ele>123.0</ele><time>2026-03-28T15:05:25.999Z</time></trkpt><trkpt lat="36.87912692413506" lon="15.00403402758028"><ele>123.0</ele><time>2026-03-28T15:05:26.999Z</time></trkpt><trkpt lat="36.87918470343436" lon="15.0039469750493"><ele>123.00000000000001</ele><time>2026-03-28T15:05:27.999Z</time></trkpt><trkpt lat="36.87922100028122" lon="15.003870175371476"><ele>123.00000000000001</ele><time>2026-03-28T15:05:28.999Z</time></trkpt><trkpt lat="36.87926183185117" lon="15.003805805687827"><ele>123.0</ele><time>2026-03-28T15:05:29.999Z</time></trkpt><trkpt lat="36.87938073939912" lon="15.003715671349749"><ele>123.0</ele><time>2026-03-28T15:05:31.999Z</time></trkpt><trkpt lat="36.879468879711595" lon="15.00367419370748"><ele>124.0</ele><time>2026-03-28T15:05:32.999Z</time></trkpt><trkpt lat="36.87954792984111" lon="15.00364973822023"><ele>125.0</ele><time>2026-03-28T15:05:33.999Z</time></trkpt><trkpt lat="36.87961316600092" lon="15.003623929364894"><ele>126.0</ele><time>2026-03-28T15:05:34.999Z</time></trkpt><trkpt lat="36.87969547488366" lon="15.003591223103243"><ele>127.0</ele><time>2026-03-28T15:05:36Z</time></trkpt><trkpt lat="36.87979287412994" lon="15.003547077662159"><ele>128.0</ele><time>2026-03-28T15:05:37Z</time></trkpt><trkpt lat="36.87987582386127" lon="15.003519868852925"><ele>129.0</ele><time>2026-03-28T15:05:38Z</time></trkpt><trkpt lat="36.8799418631838" lon="15.003501971920995"><ele>129.0</ele><time>2026-03-28T15:05:39Z</time></trkpt><trkpt lat="36.88000783679352" lon="15.003480110456147"><ele>129.0</ele><time>2026-03-28T15:05:40Z</time></trkpt><trkpt lat="36.880079324541974" lon="15.003467097940703"><ele>129.0</ele><time>2026-03-28T15:05:41Z</time></trkpt><trkpt lat="36.88016008314531" lon="15.00350881886422"><ele>129.0</ele><time>2026-03-28T15:05:42Z</time></trkpt><trkpt lat="36.88025364576949" lon="15.003544133005839"><ele>129.0</ele><time>2026-03-28T15:05:43Z</time></trkpt><trkpt lat="36.88034912280768" lon="15.003563629424534"><ele>129.0</ele><time>2026-03-28T15:05:44Z</time></trkpt><trkpt lat="36.88044822423301" lon="15.003596588912421"><ele>129.66666666666666</ele><time>2026-03-28T15:05:45Z</time></trkpt><trkpt lat="36.880527348600566" lon="15.003611035349294"><ele>130.33333333333334</ele><time>2026-03-28T15:05:46Z</time></trkpt><trkpt lat="36.88060778135311" lon="15.003620852649787"><ele>131.0</ele><time>2026-03-28T15:05:47Z</time></trkpt><trkpt lat="36.880692816679804" lon="15.003629379504119"><ele>131.66666666666669</ele><time>2026-03-28T15:05:48Z</time></trkpt><trkpt lat="36.88077963225706" lon="15.003637106875276"><ele>132.33333333333334</ele><time>2026-03-28T15:05:49Z</time></trkpt><trkpt lat="36.88084331947101" lon="15.003635946867183"><ele>133.0</ele><time>2026-03-28T15:05:50Z</time></trkpt><trkpt lat="36.88096765667918" lon="15.003581895215422"><ele>133.0</ele><time>2026-03-28T15:05:52Z</time></trkpt><trkpt lat="36.8810368213045" lon="15.003574461795804"><ele>133.0</ele><time>2026-03-28T15:05:53Z</time></trkpt><trkpt lat="36.881099211148715" lon="15.003531586622172"><ele>133.0</ele><time>2026-03-28T15:05:54Z</time></trkpt><trkpt lat="36.881177639024365" lon="15.003502800538843"><ele>133.0</ele><time>2026-03-28T15:05:56Z</time></trkpt><trkpt lat="36.88124759008454" lon="15.003464950807382"><ele>133.0</ele><time>2026-03-28T15:05:59Z</time></trkpt><trkpt lat="36.88130696412076" lon="15.003422603685076"><ele>133.0</ele><time>2026-03-28T15:06:02Z</time></trkpt><trkpt lat="36.8813729061946" lon="15.003388779847407"><ele>133.0</ele><time>2026-03-28T15:06:29Z</time></trkpt><trkpt lat="36.88142394242567" lon="15.003335059629217"><ele>134.8</ele><time>2026-03-28T15:06:40Z</time></trkpt><trkpt lat="36.881501059023755" lon="15.003305199456666"><ele>136.60000000000002</ele><time>2026-03-28T15:06:42Z</time></trkpt><trkpt lat="36.881623450870556" lon="15.003267234807305"><ele>138.39999999999998</ele><time>2026-03-28T15:06:44Z</time></trkpt><trkpt lat="36.88169278955951" lon="15.003232985277062"><ele>140.2</ele><time>2026-03-28T15:06:45Z</time></trkpt><trkpt lat="36.88174793855211" lon="15.00319306132577"><ele>142.0</ele><time>2026-03-28T15:06:46Z</time></trkpt><trkpt lat="36.88182727810185" lon="15.003105773050262"><ele>142.0</ele><time>2026-03-28T15:06:48Z</time></trkpt><trkpt lat="36.88191524974996" lon="15.003070621903854"><ele>142.0</ele><time>2026-03-28T15:06:50Z</time></trkpt><trkpt lat="36.88199543763732" lon="15.003067778311369"><ele>142.0</ele><time>2026-03-28T15:06:52Z</time></trkpt><trkpt lat="36.882062246258286" lon="15.00308055574091"><ele>142.0</ele><time>2026-03-28T15:06:54Z</time></trkpt><trkpt lat="36.882148508909935" lon="15.003069177427484"><ele>142.0</ele><time>2026-03-28T15:06:56Z</time></trkpt><trkpt lat="36.88222607020004" lon="15.003056066893118"><ele>142.0</ele><time>2026-03-28T15:06:59Z</time></trkpt><trkpt lat="36.88230824297439" lon="15.003048360073045"><ele>142.0</ele><time>2026-03-28T15:07:02Z</time></trkpt><trkpt lat="36.8823666235656" lon="15.00310809640656"><ele>142.0</ele><time>2026-03-28T15:07:49Z</time></trkpt><trkpt lat="36.882422938835184" lon="15.003146495074756"><ele>142.0</ele><time>2026-03-28T15:07:51Z</time></trkpt><trkpt lat="36.882515614008284" lon="15.003197916455656"><ele>142.0</ele><time>2026-03-28T15:07:53Z</time></trkpt><trkpt lat="36.882574596795074" lon="15.00325684603024"><ele>142.0</ele><time>2026-03-28T15:07:55Z</time></trkpt><trkpt lat="36.8826496317636" lon="15.003318139436237"><ele>142.0</ele><time>2026-03-28T15:07:57Z</time></trkpt><trkpt lat="36.88271274296817" lon="15.003338924874706"><ele>143.4</ele><time>2026-03-28T15:07:58Z</time></trkpt><trkpt lat="36.882820038680244" lon="15.003311888670405"><ele>144.79999999999998</ele><time>2026-03-28T15:08:00Z</time></trkpt><trkpt lat="36.88294797051404" lon="15.003299712906571"><ele>146.2</ele><time>2026-03-28T15:08:02Z</time></trkpt><trkpt lat="36.88303167548313" lon="15.003313573122139"><ele>147.6</ele><time>2026-03-28T15:08:03Z</time></trkpt><trkpt lat="36.88310951510911" lon="15.003336897490936"><ele>149.0</ele><time>2026-03-28T15:08:04Z</time></trkpt><trkpt lat="36.88318806429722" lon="15.003358786335689"><ele>149.83333333333331</ele><time>2026-03-28T15:08:05Z</time></trkpt><trkpt lat="36.88325080667069" lon="15.003391287070817"><ele>150.66666666666666</ele><time>2026-03-28T15:08:06Z</time></trkpt><trkpt lat="36.883332132566416" lon="15.003463176883196"><ele>151.5</ele><time>2026-03-28T15:08:08Z</time></trkpt><trkpt lat="36.8833806889424" lon="15.003517343492403"><ele>152.33333333333334</ele><time>2026-03-28T15:08:11Z</time></trkpt><trkpt lat="36.88343802717681" lon="15.003569895275547"><ele>153.16666666666669</ele><time>2026-03-28T15:08:13Z</time></trkpt><trkpt lat="36.88349810633379" lon="15.003620900008494"><ele>154.0</ele><time>2026-03-28T15:08:15Z</time></trkpt><trkpt lat="36.883542588109094" lon="15.003710778884242"><ele>156.5</ele><time>2026-03-28T15:08:19Z</time></trkpt><trkpt lat="36.883597150882835" lon="15.00379022034864"><ele>159.0</ele><time>2026-03-28T15:08:23Z</time></trkpt><trkpt lat="36.883614584972506" lon="15.00386859710617"><ele>161.5</ele><time>2026-03-28T15:08:25Z</time></trkpt><trkpt lat="36.88366087582773" lon="15.003940559801347"><ele>164.0</ele><time>2026-03-28T15:08:27Z</time></trkpt><trkpt lat="36.883711685983485" lon="15.003993331587065"><ele>166.5</ele><time>2026-03-28T15:08:31Z</time></trkpt><trkpt lat="36.88379468658488" lon="15.003902706721707"><ele>169.0</ele><time>2026-03-28T15:08:35Z</time></trkpt><trkpt lat="36.88382157930857" lon="15.003823415182541"><ele>169.0</ele><time>2026-03-28T15:09:09Z</time></trkpt><trkpt lat="36.883860085679856" lon="15.003719783120665"><ele>169.0</ele><time>2026-03-28T15:09:13Z</time></trkpt><trkpt lat="36.88390196208098" lon="15.00363708352963"><ele>169.0</ele><time>2026-03-28T15:09:16Z</time></trkpt><trkpt lat="36.883944030554424" lon="15.003571457001351"><ele>169.0</ele><time>2026-03-28T15:09:18Z</time></trkpt><trkpt lat="36.88399806488912" lon="15.003519252135723"><ele>169.0</ele><time>2026-03-28T15:09:19.999Z</time></trkpt><trkpt lat="36.88405808623086" lon="15.003456940151727"><ele>169.0</ele><time>2026-03-28T15:09:21.999Z</time></trkpt><trkpt lat="36.88411285273308" lon="15.00338246172225"><ele>167.66666666666669</ele><time>2026-03-28T15:09:23.999Z</time></trkpt><trkpt lat="36.8841781076027" lon="15.003322830482599"><ele>166.33333333333334</ele><time>2026-03-28T15:09:25.999Z</time></trkpt><trkpt lat="36.884261111568044" lon="15.003267689629217"><ele>165.0</ele><time>2026-03-28T15:09:27.999Z</time></trkpt><trkpt lat="36.88434652191296" lon="15.003246257719054"><ele>163.66666666666666</ele><time>2026-03-28T15:09:29.999Z</time></trkpt><trkpt lat="36.88442508797646" lon="15.003220909529096"><ele>162.33333333333331</ele><time>2026-03-28T15:09:31.999Z</time></trkpt><trkpt lat="36.88450992639333" lon="15.003204008702319"><ele>161.0</ele><time>2026-03-28T15:09:33.999Z</time></trkpt><trkpt lat="36.88460777327051" lon="15.003229695314118"><ele>164.5</ele><time>2026-03-28T15:09:35.999Z</time></trkpt><trkpt lat="36.88467833361465" lon="15.00324040211434"><ele>168.0</ele><time>2026-03-28T15:09:37.999Z</time></trkpt><trkpt lat="36.884770246046244" lon="15.00326738601806"><ele>171.5</ele><time>2026-03-28T15:09:39.999Z</time></trkpt><trkpt lat="36.884838708047795" lon="15.003271423552658"><ele>175.0</ele><time>2026-03-28T15:09:41.999Z</time></trkpt><trkpt lat="36.88491105874989" lon="15.003298174355882"><ele>178.5</ele><time>2026-03-28T15:09:43.999Z</time></trkpt><trkpt lat="36.88498122738496" lon="15.003346549826684"><ele>182.0</ele><time>2026-03-28T15:09:45.999Z</time></trkpt><trkpt lat="36.88506152203476" lon="15.003337685958517"><ele>185.5</ele><time>2026-03-28T15:09:48.999Z</time></trkpt><trkpt lat="36.88511358206295" lon="15.003281838537703"><ele>189.0</ele><time>2026-03-28T15:10:38Z</time></trkpt><trkpt lat="36.88516774476656" lon="15.003203498886586"><ele>192.5</ele><time>2026-03-28T15:10:41Z</time></trkpt><trkpt lat="36.885208863171854" lon="15.003126359895678"><ele>196.0</ele><time>2026-03-28T15:10:44Z</time></trkpt><trkpt lat="36.88525861358088" lon="15.00305421402261"><ele>199.50000000000003</ele><time>2026-03-28T15:10:49Z</time></trkpt><trkpt lat="36.88532100700833" lon="15.002994482869772"><ele>203.0</ele><time>2026-03-28T15:12:09Z</time></trkpt><trkpt lat="36.88539729713929" lon="15.002957728078044"><ele>203.0</ele><time>2026-03-28T15:12:13Z</time></trkpt><trkpt lat="36.88545771010728" lon="15.002903862173538"><ele>203.0</ele><time>2026-03-28T15:12:15Z</time></trkpt><trkpt lat="36.88554267291829" lon="15.002865623402444"><ele>203.0</ele><time>2026-03-28T15:12:17Z</time></trkpt><trkpt lat="36.88554529259368" lon="15.002716684498976"><ele>203.0</ele><time>2026-03-28T15:12:20Z</time></trkpt><trkpt lat="36.88542777446356" lon="15.002646727532866"><ele>203.0</ele><time>2026-03-28T15:12:22Z</time></trkpt><trkpt lat="36.88538096185701" lon="15.002589784202119"><ele>203.0</ele><time>2026-03-28T15:12:23Z</time></trkpt><trkpt lat="36.88533194828476" lon="15.00253610594767"><ele>203.0</ele><time>2026-03-28T15:12:24Z</time></trkpt><trkpt lat="36.88528249681273" lon="15.002482584721148"><ele>203.0</ele><time>2026-03-28T15:12:25Z</time></trkpt><trkpt lat="36.88519225041401" lon="15.002378614516832"><ele>203.0</ele><time>2026-03-28T15:12:27Z</time></trkpt><trkpt lat="36.88507990857398" lon="15.002293883032687"><ele>203.0</ele><time>2026-03-28T15:12:29Z</time></trkpt><trkpt lat="36.88502858634192" lon="15.002232505894035"><ele>201.00000000000003</ele><time>2026-03-28T15:12:30Z</time></trkpt><trkpt lat="36.88494253064896" lon="15.002157014392202"><ele>199.0</ele><time>2026-03-28T15:12:32Z</time></trkpt><trkpt lat="36.88485900917333" lon="15.00208563712521"><ele>197.0</ele><time>2026-03-28T15:12:34Z</time></trkpt><trkpt lat="36.88483813993197" lon="15.001981793458397"><ele>195.0</ele><time>2026-03-28T15:13:02Z</time></trkpt><trkpt lat="36.88486000195303" lon="15.001903092650336"><ele>193.0</ele><time>2026-03-28T15:13:04Z</time></trkpt><trkpt lat="36.88490157645285" lon="15.001819849988738"><ele>191.0</ele><time>2026-03-28T15:14:04Z</time></trkpt><trkpt lat="36.88496000822071" lon="15.001726788926746"><ele>192.8</ele><time>2026-03-28T15:14:14Z</time></trkpt><trkpt lat="36.8850312895459" lon="15.001643125197926"><ele>194.60000000000002</ele><time>2026-03-28T15:14:16Z</time></trkpt><trkpt lat="36.885098412126794" lon="15.001532272912408"><ele>196.4</ele><time>2026-03-28T15:14:18Z</time></trkpt><trkpt lat="36.88517286696748" lon="15.001430333507972"><ele>198.2</ele><time>2026-03-28T15:14:20Z</time></trkpt><trkpt lat="36.8852468769596" lon="15.00134306902159"><ele>200.0</ele><time>2026-03-28T15:14:22Z</time></trkpt><trkpt lat="36.88532104607678" lon="15.001250936661005"><ele>202.8</ele><time>2026-03-28T15:14:24Z</time></trkpt><trkpt lat="36.88541058349438" lon="15.001144684104155"><ele>205.6</ele><time>2026-03-28T15:14:26Z</time></trkpt><trkpt lat="36.885463129322986" lon="15.001029184684858"><ele>208.39999999999998</ele><time>2026-03-28T15:14:28Z</time></trkpt><trkpt lat="36.88554136605982" lon="15.000942094966057"><ele>211.2</ele><time>2026-03-28T15:14:30Z</time></trkpt><trkpt lat="36.88559106856087" lon="15.000849494654519"><ele>214.0</ele><time>2026-03-28T15:14:32Z</time></trkpt><trkpt lat="36.88556128775942" lon="15.000715449012509"><ele>213.99999999999997</ele><time>2026-03-28T15:14:34Z</time></trkpt><trkpt lat="36.885538177821836" lon="15.000588475453336"><ele>214.0</ele><time>2026-03-28T15:14:36Z</time></trkpt><trkpt lat="36.88551350920409" lon="15.000473162939103"><ele>214.0</ele><time>2026-03-28T15:14:38Z</time></trkpt><trkpt lat="36.88556595418405" lon="15.000387506864834"><ele>214.0</ele><time>2026-03-28T15:14:41Z</time></trkpt><trkpt lat="36.88563090828842" lon="15.000356334206648"><ele>213.99999999999997</ele><time>2026-03-28T15:14:43Z</time></trkpt><trkpt lat="36.8857084128409" lon="15.000315176545067"><ele>214.0</ele><time>2026-03-28T15:14:45Z</time></trkpt><trkpt lat="36.885797752253914" lon="15.000307350859657"><ele>213.99999999999997</ele><time>2026-03-28T15:14:47Z</time></trkpt><trkpt lat="36.885870996616624" lon="15.000376576185927"><ele>214.0</ele><time>2026-03-28T15:14:49Z</time></trkpt><trkpt lat="36.88595092937511" lon="15.000444593769258"><ele>214.0</ele><time>2026-03-28T15:14:51Z</time></trkpt><trkpt lat="36.88600259142828" lon="15.00050731687472"><ele>214.0</ele><time>2026-03-28T15:14:53Z</time></trkpt><trkpt lat="36.88604522116315" lon="15.000598694476015"><ele>213.99999999999997</ele><time>2026-03-28T15:14:55Z</time></trkpt><trkpt lat="36.886068692721835" lon="15.000711429876835"><ele>214.0</ele><time>2026-03-28T15:14:57Z</time></trkpt><trkpt lat="36.88609257860381" lon="15.000830059227102"><ele>214.0</ele><time>2026-03-28T15:14:59Z</time></trkpt><trkpt lat="36.88610056210003" lon="15.00093933077678"><ele>213.99999999999997</ele><time>2026-03-28T15:15:01Z</time></trkpt><trkpt lat="36.8860685430622" lon="15.001056938226242"><ele>213.99999999999997</ele><time>2026-03-28T15:15:03Z</time></trkpt><trkpt lat="36.885988041160026" lon="15.001147259196067"><ele>214.0</ele><time>2026-03-28T15:15:05Z</time></trkpt><trkpt lat="36.88594584917909" lon="15.001228008013658"><ele>214.0</ele><time>2026-03-28T15:15:07Z</time></trkpt><trkpt lat="36.885892799106294" lon="15.001374795051392"><ele>214.0</ele><time>2026-03-28T15:15:09Z</time></trkpt><trkpt lat="36.8858448758558" lon="15.00151269115225"><ele>213.99999999999997</ele><time>2026-03-28T15:15:11Z</time></trkpt><trkpt lat="36.885806029258454" lon="15.00162448497937"><ele>213.99999999999997</ele><time>2026-03-28T15:15:13Z</time></trkpt><trkpt lat="36.88580346144321" lon="15.001742092904252"><ele>214.0</ele><time>2026-03-28T15:15:15Z</time></trkpt><trkpt lat="36.885855632001125" lon="15.00181944723272"><ele>214.0</ele><time>2026-03-28T15:15:17Z</time></trkpt><trkpt lat="36.88594491547692" lon="15.001846306269616"><ele>218.79999999999998</ele><time>2026-03-28T15:15:19Z</time></trkpt><trkpt lat="36.886025390849206" lon="15.001874565081568"><ele>223.59999999999997</ele><time>2026-03-28T15:15:21Z</time></trkpt><trkpt lat="36.886138703002004" lon="15.001927558730042"><ele>228.4</ele><time>2026-03-28T15:15:23Z</time></trkpt><trkpt lat="36.886252207133566" lon="15.001974194900123"><ele>233.2</ele><time>2026-03-28T15:15:25Z</time></trkpt><trkpt lat="36.886367981791075" lon="15.002009387619799"><ele>238.0</ele><time>2026-03-28T15:15:27Z</time></trkpt><trkpt lat="36.88643572884948" lon="15.002029981082732"><ele>238.0</ele><time>2026-03-28T15:15:28Z</time></trkpt><trkpt lat="36.886517974434234" lon="15.002057923140017"><ele>238.0</ele><time>2026-03-28T15:15:29Z</time></trkpt><trkpt lat="36.88660192168147" lon="15.002070836200945"><ele>238.0</ele><time>2026-03-28T15:15:30Z</time></trkpt><trkpt lat="36.886667640281956" lon="15.002112885561854"><ele>238.0</ele><time>2026-03-28T15:15:31Z</time></trkpt><trkpt lat="36.88674626995566" lon="15.002134756488523"><ele>238.0</ele><time>2026-03-28T15:15:32Z</time></trkpt><trkpt lat="36.8868590213494" lon="15.00220723906694"><ele>239.49999999999997</ele><time>2026-03-28T15:15:34Z</time></trkpt><trkpt lat="36.88692086091362" lon="15.002248624248018"><ele>241.0</ele><time>2026-03-28T15:15:36Z</time></trkpt><trkpt lat="36.88699019594766" lon="15.002315746326273"><ele>242.5</ele><time>2026-03-28T15:15:37.999Z</time></trkpt><trkpt lat="36.88703681573265" lon="15.002389700332834"><ele>244.0</ele><time>2026-03-28T15:15:39.999Z</time></trkpt><trkpt lat="36.88708723828737" lon="15.002476221180892"><ele>245.49999999999997</ele><time>2026-03-28T15:15:41.999Z</time></trkpt><trkpt lat="36.88716847268899" lon="15.002475454605545"><ele>247.0</ele><time>2026-03-28T15:15:45.999Z</time></trkpt><trkpt lat="36.88719822761669" lon="15.002383536021"><ele>247.0</ele><time>2026-03-28T15:15:47.999Z</time></trkpt><trkpt lat="36.88721905932907" lon="15.002272179592632"><ele>247.0</ele><time>2026-03-28T15:15:49.999Z</time></trkpt><trkpt lat="36.88725797364869" lon="15.002179258540078"><ele>247.0</ele><time>2026-03-28T15:15:51.999Z</time></trkpt><trkpt lat="36.88733209900461" lon="15.002092318306593"><ele>247.0</ele><time>2026-03-28T15:15:53.999Z</time></trkpt><trkpt lat="36.88737446539395" lon="15.001959183211488"><ele>247.0</ele><time>2026-03-28T15:15:55.999Z</time></trkpt><trkpt lat="36.88740832938125" lon="15.001826076044612"><ele>246.99999999999997</ele><time>2026-03-28T15:15:57.999Z</time></trkpt><trkpt lat="36.88739624351016" lon="15.001728068025255"><ele>247.0</ele><time>2026-03-28T15:15:59.999Z</time></trkpt><trkpt lat="36.887416011212096" lon="15.001638194654682"><ele>247.0</ele><time>2026-03-28T15:21:55.999Z</time></trkpt><trkpt lat="36.88748853507983" lon="15.001551729628261"><ele>247.0</ele><time>2026-03-28T15:21:58.999Z</time></trkpt><trkpt lat="36.88753476457477" lon="15.001473095102336"><ele>246.99999999999997</ele><time>2026-03-28T15:22:00.999Z</time></trkpt><trkpt lat="36.88759678738528" lon="15.001370105947887"><ele>247.0</ele><time>2026-03-28T15:22:03.999Z</time></trkpt><trkpt lat="36.887662011763645" lon="15.001324511554541"><ele>246.66666666666666</ele><time>2026-03-28T15:22:05.999Z</time></trkpt><trkpt lat="36.887734969379636" lon="15.001251141238432"><ele>246.33333333333331</ele><time>2026-03-28T15:22:07.999Z</time></trkpt><trkpt lat="36.88779280371467" lon="15.001194115690286"><ele>246.0</ele><time>2026-03-28T15:22:11Z</time></trkpt><trkpt lat="36.88784626967435" lon="15.001144501091309"><ele>245.66666666666669</ele><time>2026-03-28T15:22:14Z</time></trkpt><trkpt lat="36.88792389707728" lon="15.001086505899734"><ele>245.33333333333334</ele><time>2026-03-28T15:22:21Z</time></trkpt><trkpt lat="36.887999639132246" lon="15.001048153974295"><ele>245.0</ele><time>2026-03-28T15:22:23Z</time></trkpt><trkpt lat="36.88806647918954" lon="15.001025575364011"><ele>245.0</ele><time>2026-03-28T15:22:24Z</time></trkpt><trkpt lat="36.88812971708057" lon="15.000982841278434"><ele>245.0</ele><time>2026-03-28T15:22:25Z</time></trkpt><trkpt lat="36.88820616394122" lon="15.000945231655997"><ele>245.0</ele><time>2026-03-28T15:22:26Z</time></trkpt><trkpt lat="36.888273033026856" lon="15.00089672428286"><ele>245.0</ele><time>2026-03-28T15:22:27Z</time></trkpt><trkpt lat="36.88837454534068" lon="15.000823086447232"><ele>245.0</ele><time>2026-03-28T15:22:29Z</time></trkpt><trkpt lat="36.88846365430685" lon="15.000761712034405"><ele>245.57142857142856</ele><time>2026-03-28T15:22:31Z</time></trkpt><trkpt lat="36.888529246453935" lon="15.000723694054866"><ele>246.14285714285714</ele><time>2026-03-28T15:22:33Z</time></trkpt><trkpt lat="36.8886039305655" lon="15.000680406272243"><ele>246.71428571428572</ele><time>2026-03-28T15:22:35Z</time></trkpt><trkpt lat="36.888670614707316" lon="15.000641790005897"><ele>247.28571428571428</ele><time>2026-03-28T15:22:37Z</time></trkpt><trkpt lat="36.88873403532593" lon="15.000605115212613"><ele>247.85714285714283</ele><time>2026-03-28T15:22:38Z</time></trkpt><trkpt lat="36.888795995323626" lon="15.000569285050842"><ele>248.42857142857142</ele><time>2026-03-28T15:22:39Z</time></trkpt><trkpt lat="36.88885939289196" lon="15.000532623586155"><ele>249.0</ele><time>2026-03-28T15:22:40Z</time></trkpt><trkpt lat="36.888970335882" lon="15.000468467611"><ele>249.0</ele><time>2026-03-28T15:22:42Z</time></trkpt><trkpt lat="36.88902793168798" lon="15.00043516116238"><ele>248.99999999999997</ele><time>2026-03-28T15:22:43Z</time></trkpt><trkpt lat="36.889134926846225" lon="15.000373288132415"><ele>248.99999999999997</ele><time>2026-03-28T15:22:45Z</time></trkpt><trkpt lat="36.88924742022574" lon="15.000292129212479"><ele>249.0</ele><time>2026-03-28T15:22:47Z</time></trkpt><trkpt lat="36.889307480967304" lon="15.000249907489433"><ele>249.0</ele><time>2026-03-28T15:22:48Z</time></trkpt><trkpt lat="36.88939530769103" lon="15.000193750810306"><ele>250.66666666666666</ele><time>2026-03-28T15:22:50Z</time></trkpt><trkpt lat="36.88945599952559" lon="15.000155369479797"><ele>252.33333333333331</ele><time>2026-03-28T15:22:54Z</time></trkpt><trkpt lat="36.88951146308039" lon="15.000113342984358"><ele>254.0</ele><time>2026-03-28T15:22:57Z</time></trkpt><trkpt lat="36.8896015468279" lon="15.000071528961204"><ele>255.66666666666666</ele><time>2026-03-28T15:23:00Z</time></trkpt><trkpt lat="36.889677975096305" lon="15.000000197423173"><ele>257.3333333333333</ele><time>2026-03-28T15:23:02Z</time></trkpt><trkpt lat="36.88975999679806" lon="14.999962920331793"><ele>259.0</ele><time>2026-03-28T15:23:04Z</time></trkpt><trkpt lat="36.889858708165484" lon="14.999873382716611"><ele>259.0</ele><time>2026-03-28T15:23:06Z</time></trkpt><trkpt lat="36.88994777486269" lon="14.999836306848826"><ele>259.0</ele><time>2026-03-28T15:23:08Z</time></trkpt><trkpt lat="36.890052368970984" lon="14.999764820972654"><ele>259.0</ele><time>2026-03-28T15:23:10Z</time></trkpt><trkpt lat="36.89012484805306" lon="14.99966526144185"><ele>259.0</ele><time>2026-03-28T15:23:12Z</time></trkpt><trkpt lat="36.89016640674965" lon="14.999579517742756"><ele>259.0</ele><time>2026-03-28T15:23:13Z</time></trkpt><trkpt lat="36.8902206547869" lon="14.999500878586057"><ele>257.5</ele><time>2026-03-28T15:23:14Z</time></trkpt><trkpt lat="36.89026207201188" lon="14.999421459812305"><ele>256.0</ele><time>2026-03-28T15:23:15Z</time></trkpt><trkpt lat="36.89029924391631" lon="14.999347601357822"><ele>254.5</ele><time>2026-03-28T15:23:16Z</time></trkpt><trkpt lat="36.89034128553783" lon="14.999260719313948"><ele>253.0</ele><time>2026-03-28T15:23:17Z</time></trkpt><trkpt lat="36.89036938422783" lon="14.999162545212922"><ele>251.49999999999997</ele><time>2026-03-28T15:23:18Z</time></trkpt><trkpt lat="36.89041175243463" lon="14.999089182616277"><ele>250.0</ele><time>2026-03-28T15:23:19Z</time></trkpt><trkpt lat="36.89044920520879" lon="14.999000337030855"><ele>249.6</ele><time>2026-03-28T15:23:20Z</time></trkpt><trkpt lat="36.890496177560536" lon="14.998915729818094"><ele>249.2</ele><time>2026-03-28T15:23:21Z</time></trkpt><trkpt lat="36.89054148397116" lon="14.99882821173366"><ele>248.8</ele><time>2026-03-28T15:23:22Z</time></trkpt><trkpt lat="36.890612300081905" lon="14.998700252442971"><ele>248.4</ele><time>2026-03-28T15:23:23Z</time></trkpt><trkpt lat="36.89067384124871" lon="14.998588621573655"><ele>248.0</ele><time>2026-03-28T15:23:24Z</time></trkpt><trkpt lat="36.89073090916557" lon="14.998480593862709"><ele>248.00000000000003</ele><time>2026-03-28T15:23:25Z</time></trkpt><trkpt lat="36.890789690494174" lon="14.998380283581435"><ele>248.0</ele><time>2026-03-28T15:23:26Z</time></trkpt><trkpt lat="36.8908389086968" lon="14.998300536333947"><ele>248.0</ele><time>2026-03-28T15:23:27Z</time></trkpt><trkpt lat="36.89087645254614" lon="14.998227947165061"><ele>248.0</ele><time>2026-03-28T15:23:28Z</time></trkpt><trkpt lat="36.890918885579026" lon="14.998161187294528"><ele>248.00000000000003</ele><time>2026-03-28T15:23:29Z</time></trkpt><trkpt lat="36.891010862622565" lon="14.998066843886734"><ele>248.0</ele><time>2026-03-28T15:23:31Z</time></trkpt><trkpt lat="36.8910625763953" lon="14.998012777954495"><ele>247.66666666666669</ele><time>2026-03-28T15:23:32Z</time></trkpt><trkpt lat="36.89109575966512" lon="14.997939744934449"><ele>247.33333333333334</ele><time>2026-03-28T15:23:33Z</time></trkpt><trkpt lat="36.89112801035756" lon="14.997801210186193"><ele>247.0</ele><time>2026-03-28T15:23:35Z</time></trkpt><trkpt lat="36.89113749540783" lon="14.997697752966644"><ele>246.66666666666669</ele><time>2026-03-28T15:23:36Z</time></trkpt><trkpt lat="36.891159568505486" lon="14.997594898906895"><ele>246.33333333333334</ele><time>2026-03-28T15:23:37Z</time></trkpt><trkpt lat="36.891162369684984" lon="14.997502804150502"><ele>246.0</ele><time>2026-03-28T15:23:39Z</time></trkpt><trkpt lat="36.891023809318796" lon="14.997489419927259"><ele>245.66666666666666</ele><time>2026-03-28T15:23:45Z</time></trkpt><trkpt lat="36.890958860972404" lon="14.997552753079887"><ele>245.33333333333331</ele><time>2026-03-28T15:23:47.001Z</time></trkpt><trkpt lat="36.89089817365693" lon="14.99763484024457"><ele>245.0</ele><time>2026-03-28T15:23:50.001Z</time></trkpt><trkpt lat="36.890847190753874" lon="14.997704697653425"><ele>244.66666666666666</ele><time>2026-03-28T15:23:53.001Z</time></trkpt><trkpt lat="36.8907868360091" lon="14.997758800940492"><ele>244.33333333333331</ele><time>2026-03-28T15:23:56.001Z</time></trkpt><trkpt lat="36.89073137549624" lon="14.997801858964873"><ele>244.0</ele><time>2026-03-28T15:23:59.001Z</time></trkpt><trkpt lat="36.89065136096856" lon="14.997880564785024"><ele>243.99999999999997</ele><time>2026-03-28T15:24:23.999Z</time></trkpt><trkpt lat="36.890595615141194" lon="14.997935397859703"><ele>244.0</ele><time>2026-03-28T15:24:25.999Z</time></trkpt><trkpt lat="36.89053804785861" lon="14.997985260854895"><ele>243.99999999999997</ele><time>2026-03-28T15:24:27.999Z</time></trkpt><trkpt lat="36.89048428377678" lon="14.998034500393626"><ele>243.99999999999997</ele><time>2026-03-28T15:24:30Z</time></trkpt><trkpt lat="36.89041793812954" lon="14.998052505829087"><ele>244.0</ele><time>2026-03-28T15:24:32Z</time></trkpt><trkpt lat="36.89035537421267" lon="14.998082660754696"><ele>243.99999999999997</ele><time>2026-03-28T15:24:34Z</time></trkpt><trkpt lat="36.89029290510305" lon="14.998103885041754"><ele>243.99999999999997</ele><time>2026-03-28T15:24:36Z</time></trkpt><trkpt lat="36.890218439837106" lon="14.998115251971155"><ele>243.99999999999997</ele><time>2026-03-28T15:24:38Z</time></trkpt><trkpt lat="36.89015194952502" lon="14.998144648753156"><ele>244.0</ele><time>2026-03-28T15:24:40Z</time></trkpt><trkpt lat="36.89006710890862" lon="14.998198186278833"><ele>244.0</ele><time>2026-03-28T15:24:43Z</time></trkpt><trkpt lat="36.889990015902626" lon="14.998219477442364"><ele>244.0</ele><time>2026-03-28T15:24:45Z</time></trkpt><trkpt lat="36.88992086712607" lon="14.99825603249451"><ele>243.99999999999997</ele><time>2026-03-28T15:24:47Z</time></trkpt><trkpt lat="36.889851512017984" lon="14.99829598088461"><ele>244.0</ele><time>2026-03-28T15:24:49Z</time></trkpt><trkpt lat="36.889777086322326" lon="14.998341789457397"><ele>244.33333333333331</ele><time>2026-03-28T15:24:51Z</time></trkpt><trkpt lat="36.889711126670974" lon="14.998393038426027"><ele>244.66666666666666</ele><time>2026-03-28T15:24:53Z</time></trkpt><trkpt lat="36.88964506265454" lon="14.99842794701563"><ele>245.0</ele><time>2026-03-28T15:24:55Z</time></trkpt><trkpt lat="36.8895796464589" lon="14.998440349672128"><ele>245.33333333333331</ele><time>2026-03-28T15:24:58Z</time></trkpt><trkpt lat="36.889497143794934" lon="14.998468997016491"><ele>245.66666666666666</ele><time>2026-03-28T15:25:01Z</time></trkpt><trkpt lat="36.889421261176516" lon="14.998484731368864"><ele>246.0</ele><time>2026-03-28T15:25:04Z</time></trkpt><trkpt lat="36.88935070210733" lon="14.99850926121342"><ele>246.0</ele><time>2026-03-28T15:25:06Z</time></trkpt><trkpt lat="36.889274977921325" lon="14.998554917968969"><ele>246.0</ele><time>2026-03-28T15:25:08Z</time></trkpt><trkpt lat="36.88918744208826" lon="14.998563289214761"><ele>246.0</ele><time>2026-03-28T15:25:10Z</time></trkpt><trkpt lat="36.88911061717509" lon="14.998586537565592"><ele>246.0</ele><time>2026-03-28T15:25:12Z</time></trkpt><trkpt lat="36.88910713788354" lon="14.998492696070114"><ele>246.0</ele><time>2026-03-28T15:25:19Z</time></trkpt><trkpt lat="36.889158261665806" lon="14.998415184872977"><ele>246.0</ele><time>2026-03-28T15:25:21Z</time></trkpt><trkpt lat="36.88920564538571" lon="14.998326042113312"><ele>239.16666666666666</ele><time>2026-03-28T15:25:24Z</time></trkpt><trkpt lat="36.889175870748865" lon="14.998250153679832"><ele>232.33333333333331</ele><time>2026-03-28T15:25:29Z</time></trkpt><trkpt lat="36.889114168895524" lon="14.99828838618904"><ele>225.5</ele><time>2026-03-28T15:25:33Z</time></trkpt><trkpt lat="36.8890315991928" lon="14.99828462354096"><ele>218.66666666666666</ele><time>2026-03-28T15:25:36Z</time></trkpt><trkpt lat="36.888957069226215" lon="14.998264913039586"><ele>211.83333333333331</ele><time>2026-03-28T15:25:39Z</time></trkpt><trkpt lat="36.88886175669358" lon="14.998257489181574"><ele>205.0</ele><time>2026-03-28T15:25:42Z</time></trkpt><trkpt lat="36.88878975886608" lon="14.998230879607922"><ele>204.99999999999997</ele><time>2026-03-28T15:25:44Z</time></trkpt><trkpt lat="36.88871550075005" lon="14.998197579549428"><ele>205.0</ele><time>2026-03-28T15:25:46Z</time></trkpt><trkpt lat="36.88863850823205" lon="14.998171376494382"><ele>205.0</ele><time>2026-03-28T15:25:48Z</time></trkpt><trkpt lat="36.88855984900156" lon="14.99812909826883"><ele>205.0</ele><time>2026-03-28T15:25:51Z</time></trkpt><trkpt lat="36.888500118617046" lon="14.99808143182319"><ele>204.99999999999997</ele><time>2026-03-28T15:25:56Z</time></trkpt><trkpt lat="36.88846054768911" lon="14.998000992537762"><ele>205.0</ele><time>2026-03-28T15:26:00Z</time></trkpt><trkpt lat="36.88838817825206" lon="14.998013800966005"><ele>204.99999999999997</ele><time>2026-03-28T15:26:05.001Z</time></trkpt><trkpt lat="36.88845786056147" lon="14.997991661830037"><ele>205.0</ele><time>2026-03-28T15:26:38Z</time></trkpt><trkpt lat="36.88853316656423" lon="14.997984887931192"><ele>205.0</ele><time>2026-03-28T15:26:41Z</time></trkpt><trkpt lat="36.888620087081605" lon="14.997966259078156"><ele>205.0</ele><time>2026-03-28T15:26:45Z</time></trkpt><trkpt lat="36.88871522193795" lon="14.997935376440934"><ele>204.99999999999997</ele><time>2026-03-28T15:26:48Z</time></trkpt><trkpt lat="36.88878812448688" lon="14.99789251381875"><ele>205.0</ele><time>2026-03-28T15:26:51Z</time></trkpt><trkpt lat="36.88878386316859" lon="14.997806643790316"><ele>205.0</ele><time>2026-03-28T15:26:56Z</time></trkpt><trkpt lat="36.88873778820253" lon="14.99774201540407"><ele>205.0</ele><time>2026-03-28T15:27:02Z</time></trkpt><trkpt lat="36.888709960306606" lon="14.997661264629306"><ele>205.0</ele><time>2026-03-28T15:27:10Z</time></trkpt><trkpt lat="36.888676980729834" lon="14.997591408209722"><ele>205.0</ele><time>2026-03-28T15:27:13Z</time></trkpt><trkpt lat="36.888644605629246" lon="14.997523512717798"><ele>205.0</ele><time>2026-03-28T15:27:45Z</time></trkpt><trkpt lat="36.88866127821292" lon="14.997608053169753"><ele>205.0</ele><time>2026-03-28T15:27:55Z</time></trkpt><trkpt lat="36.888721005193844" lon="14.997647055730534"><ele>205.0</ele><time>2026-03-28T15:27:58.001Z</time></trkpt><trkpt lat="36.888742802171386" lon="14.997744123244493"><ele>204.99999999999997</ele><time>2026-03-28T15:28:01.001Z</time></trkpt><trkpt lat="36.888788276726274" lon="14.997816448071772"><ele>205.0</ele><time>2026-03-28T15:28:05.001Z</time></trkpt><trkpt lat="36.88879569489108" lon="14.99789745759362"><ele>205.0</ele><time>2026-03-28T15:28:09.001Z</time></trkpt><trkpt lat="36.8887362388063" lon="14.997943793783158"><ele>205.0</ele><time>2026-03-28T15:28:11.001Z</time></trkpt><trkpt lat="36.88863716396908" lon="14.997954803019942"><ele>204.99999999999997</ele><time>2026-03-28T15:28:12.999Z</time></trkpt><trkpt lat="36.88857231283677" lon="14.997964249702688"><ele>205.0</ele><time>2026-03-28T15:28:15.999Z</time></trkpt><trkpt lat="36.88849535763241" lon="14.997984301480361"><ele>204.99999999999997</ele><time>2026-03-28T15:28:22.999Z</time></trkpt><trkpt lat="36.888517854051564" lon="14.998088365762191"><ele>205.0</ele><time>2026-03-28T15:30:50Z</time></trkpt><trkpt lat="36.888576596337025" lon="14.998132139515882"><ele>205.0</ele><time>2026-03-28T15:30:52Z</time></trkpt><trkpt lat="36.88863509484501" lon="14.998168597990446"><ele>205.0</ele><time>2026-03-28T15:30:54Z</time></trkpt><trkpt lat="36.888704661294824" lon="14.998195727187213"><ele>204.99999999999997</ele><time>2026-03-28T15:30:56Z</time></trkpt><trkpt lat="36.88878984861763" lon="14.998227194850921"><ele>205.0</ele><time>2026-03-28T15:30:58Z</time></trkpt><trkpt lat="36.888897018485615" lon="14.99826128212392"><ele>204.99999999999997</ele><time>2026-03-28T15:31:00Z</time></trkpt><trkpt lat="36.88899406002298" lon="14.998269437879634"><ele>205.0</ele><time>2026-03-28T15:31:02Z</time></trkpt><trkpt lat="36.88905930708523" lon="14.998265380144908"><ele>205.0</ele><time>2026-03-28T15:31:04Z</time></trkpt><trkpt lat="36.889159549026694" lon="14.998268343485305"><ele>205.0</ele><time>2026-03-28T15:31:07Z</time></trkpt><trkpt lat="36.88922161413469" lon="14.998253365775229"><ele>204.99999999999997</ele><time>2026-03-28T15:31:09Z</time></trkpt><trkpt lat="36.88919418679962" lon="14.998354129742845"><ele>205.0</ele><time>2026-03-28T15:31:12Z</time></trkpt><trkpt lat="36.88912679295622" lon="14.998430358604054"><ele>208.33333333333331</ele><time>2026-03-28T15:31:14Z</time></trkpt><trkpt lat="36.88909936562024" lon="14.998517124709384"><ele>211.66666666666666</ele><time>2026-03-28T15:31:16Z</time></trkpt><trkpt lat="36.88906258304144" lon="14.99858354649699"><ele>215.0</ele><time>2026-03-28T15:31:18Z</time></trkpt><trkpt lat="36.889027244904" lon="14.99865469835439"><ele>218.33333333333331</ele><time>2026-03-28T15:31:38Z</time></trkpt><trkpt lat="36.88900822077476" lon="14.99875358448538"><ele>221.66666666666666</ele><time>2026-03-28T15:31:41Z</time></trkpt><trkpt lat="36.88897744351687" lon="14.998860157939404"><ele>225.0</ele><time>2026-03-28T15:31:44Z</time></trkpt><trkpt lat="36.88890757451079" lon="14.998893697010555"><ele>225.0</ele><time>2026-03-28T15:31:46Z</time></trkpt><trkpt lat="36.8888090708358" lon="14.998902592800018"><ele>225.0</ele><time>2026-03-28T15:31:48Z</time></trkpt><trkpt lat="36.88870306156934" lon="14.998920268726039"><ele>225.0</ele><time>2026-03-28T15:31:50.001Z</time></trkpt><trkpt lat="36.888610522475524" lon="14.998970050940759"><ele>225.0</ele><time>2026-03-28T15:31:52.001Z</time></trkpt><trkpt lat="36.888525626353854" lon="14.999029245186964"><ele>225.0</ele><time>2026-03-28T15:31:54.001Z</time></trkpt><trkpt lat="36.88845032334326" lon="14.999089731618204"><ele>221.5</ele><time>2026-03-28T15:31:56.001Z</time></trkpt><trkpt lat="36.88837854619517" lon="14.999099734772543"><ele>218.0</ele><time>2026-03-28T15:31:58.001Z</time></trkpt><trkpt lat="36.88830331513735" lon="14.99906629617882"><ele>214.5</ele><time>2026-03-28T15:32:00.001Z</time></trkpt><trkpt lat="36.88823152157495" lon="14.999014737327979"><ele>211.0</ele><time>2026-03-28T15:32:02.001Z</time></trkpt><trkpt lat="36.88815662444798" lon="14.998973048833696"><ele>207.5</ele><time>2026-03-28T15:32:04.001Z</time></trkpt><trkpt lat="36.888092648582095" lon="14.99894516480895"><ele>204.0</ele><time>2026-03-28T15:32:06.001Z</time></trkpt><trkpt lat="36.88801873625315" lon="14.998916667092487"><ele>204.0</ele><time>2026-03-28T15:32:08.001Z</time></trkpt><trkpt lat="36.88795405378454" lon="14.998856703498667"><ele>204.0</ele><time>2026-03-28T15:32:12.001Z</time></trkpt><trkpt lat="36.88797619579413" lon="14.998778620243087"><ele>204.0</ele><time>2026-03-28T15:32:23.001Z</time></trkpt><trkpt lat="36.88803784275263" lon="14.998752681566648"><ele>204.0</ele><time>2026-03-28T15:32:26Z</time></trkpt><trkpt lat="36.888059117927874" lon="14.998657186046342"><ele>204.0</ele><time>2026-03-28T15:32:29Z</time></trkpt><trkpt lat="36.88798424231668" lon="14.998633715654568"><ele>204.0</ele><time>2026-03-28T15:32:32Z</time></trkpt><trkpt lat="36.88792111593885" lon="14.998608436521385"><ele>204.0</ele><time>2026-03-28T15:32:35Z</time></trkpt><trkpt lat="36.887868505634295" lon="14.998563327892683"><ele>204.0</ele><time>2026-03-28T15:33:39Z</time></trkpt><trkpt lat="36.88780918588557" lon="14.998533398002516"><ele>204.0</ele><time>2026-03-28T15:33:42Z</time></trkpt><trkpt lat="36.88774540646487" lon="14.998510032672973"><ele>204.0</ele><time>2026-03-28T15:33:46Z</time></trkpt><trkpt lat="36.88766158313515" lon="14.998443902456359"><ele>204.0</ele><time>2026-03-28T15:34:51Z</time></trkpt><trkpt lat="36.887568680798736" lon="14.998346639623472"><ele>204.0</ele><time>2026-03-28T15:34:53Z</time></trkpt><trkpt lat="36.88752105592848" lon="14.998291632314725"><ele>204.0</ele><time>2026-03-28T15:34:54Z</time></trkpt><trkpt lat="36.88744149048595" lon="14.998200084498082"><ele>199.2</ele><time>2026-03-28T15:34:56Z</time></trkpt><trkpt lat="36.88739451465355" lon="14.998114081707454"><ele>194.39999999999998</ele><time>2026-03-28T15:34:58Z</time></trkpt><trkpt lat="36.88733042062667" lon="14.998037575535522"><ele>189.6</ele><time>2026-03-28T15:35:00Z</time></trkpt><trkpt lat="36.887225603695086" lon="14.997978035896805"><ele>184.8</ele><time>2026-03-28T15:35:02Z</time></trkpt><trkpt lat="36.88713920231201" lon="14.997951684431092"><ele>180.0</ele><time>2026-03-28T15:35:04Z</time></trkpt><trkpt lat="36.88705440291124" lon="14.997926613134569"><ele>180.0</ele><time>2026-03-28T15:35:06Z</time></trkpt><trkpt lat="36.886956711685094" lon="14.997925768916685"><ele>180.0</ele><time>2026-03-28T15:35:09Z</time></trkpt><trkpt lat="36.88685886926485" lon="14.997921106827901"><ele>180.0</ele><time>2026-03-28T15:35:11Z</time></trkpt><trkpt lat="36.886782072728394" lon="14.997950873538345"><ele>180.0</ele><time>2026-03-28T15:35:13Z</time></trkpt><trkpt lat="36.886715657534715" lon="14.997994419941527"><ele>180.0</ele><time>2026-03-28T15:35:15Z</time></trkpt><trkpt lat="36.88664560543738" lon="14.998032124865876"><ele>180.0</ele><time>2026-03-28T15:35:17Z</time></trkpt><trkpt lat="36.88657513251841" lon="14.99806042623012"><ele>179.33333333333334</ele><time>2026-03-28T15:35:19Z</time></trkpt><trkpt lat="36.886507110466134" lon="14.998124102075383"><ele>178.66666666666666</ele><time>2026-03-28T15:35:21Z</time></trkpt><trkpt lat="36.886426756575666" lon="14.998206088107791"><ele>178.0</ele><time>2026-03-28T15:35:23Z</time></trkpt><trkpt lat="36.88634489699459" lon="14.998222518659697"><ele>177.33333333333331</ele><time>2026-03-28T15:35:32Z</time></trkpt><trkpt lat="36.88626830732536" lon="14.99819032841161"><ele>176.66666666666666</ele><time>2026-03-28T15:35:35Z</time></trkpt><trkpt lat="36.886205000085496" lon="14.9981372217504"><ele>176.0</ele><time>2026-03-28T15:35:37Z</time></trkpt><trkpt lat="36.886147608552" lon="14.99810219895277"><ele>176.0</ele><time>2026-03-28T15:35:38Z</time></trkpt><trkpt lat="36.88607885862984" lon="14.998078797145277"><ele>176.0</ele><time>2026-03-28T15:35:39Z</time></trkpt><trkpt lat="36.886018320410855" lon="14.998048695061973"><ele>176.0</ele><time>2026-03-28T15:35:40Z</time></trkpt><trkpt lat="36.88593998386151" lon="14.997989125564608"><ele>176.0</ele><time>2026-03-28T15:35:41Z</time></trkpt><trkpt lat="36.88585512329288" lon="14.997938169417745"><ele>176.0</ele><time>2026-03-28T15:35:42Z</time></trkpt><trkpt lat="36.885768051281396" lon="14.997883699331117"><ele>176.0</ele><time>2026-03-28T15:35:43Z</time></trkpt><trkpt lat="36.88567539820283" lon="14.997826289977505"><ele>175.4</ele><time>2026-03-28T15:35:44Z</time></trkpt><trkpt lat="36.885583887442785" lon="14.997749900477366"><ele>174.8</ele><time>2026-03-28T15:35:45Z</time></trkpt><trkpt lat="36.88549523069477" lon="14.997656773065925"><ele>174.20000000000002</ele><time>2026-03-28T15:35:46Z</time></trkpt><trkpt lat="36.885430663254795" lon="14.997568498750429"><ele>173.60000000000002</ele><time>2026-03-28T15:35:47Z</time></trkpt><trkpt lat="36.88538993197876" lon="14.99749013934972"><ele>173.0</ele><time>2026-03-28T15:35:48Z</time></trkpt><trkpt lat="36.88537906299119" lon="14.997326359317196"><ele>170.66666666666666</ele><time>2026-03-28T15:35:50Z</time></trkpt><trkpt lat="36.88539532501572" lon="14.997213935054699"><ele>168.33333333333331</ele><time>2026-03-28T15:35:52Z</time></trkpt><trkpt lat="36.88540188732321" lon="14.99712093957451"><ele>166.0</ele><time>2026-03-28T15:35:54.001Z</time></trkpt><trkpt lat="36.885400264010066" lon="14.997039942739057"><ele>163.66666666666666</ele><time>2026-03-28T15:35:56.001Z</time></trkpt><trkpt lat="36.885341113998315" lon="14.996978463714331"><ele>161.33333333333334</ele><time>2026-03-28T15:35:58.001Z</time></trkpt><trkpt lat="36.8852561854927" lon="14.996982121996773"><ele>159.0</ele><time>2026-03-28T15:36:00.001Z</time></trkpt><trkpt lat="36.885143537561746" lon="14.996975158188208"><ele>160.0</ele><time>2026-03-28T15:36:02.001Z</time></trkpt><trkpt lat="36.885070462224135" lon="14.996993266880043"><ele>161.0</ele><time>2026-03-28T15:36:03.001Z</time></trkpt><trkpt lat="36.88497650561056" lon="14.99698985975996"><ele>162.0</ele><time>2026-03-28T15:36:04.001Z</time></trkpt><trkpt lat="36.88490081571767" lon="14.99696368705479"><ele>163.0</ele><time>2026-03-28T15:36:05.001Z</time></trkpt><trkpt lat="36.884837761924096" lon="14.996916713596308"><ele>164.0</ele><time>2026-03-28T15:36:06.001Z</time></trkpt><trkpt lat="36.88477188330122" lon="14.996851333126536"><ele>165.0</ele><time>2026-03-28T15:36:07.001Z</time></trkpt><trkpt lat="36.88471369252465" lon="14.996807903467184"><ele>165.0</ele><time>2026-03-28T15:36:08.001Z</time></trkpt><trkpt lat="36.88465295701014" lon="14.996775585707836"><ele>165.0</ele><time>2026-03-28T15:36:09.001Z</time></trkpt><trkpt lat="36.88454246833423" lon="14.996733660945198"><ele>165.0</ele><time>2026-03-28T15:36:11.001Z</time></trkpt><trkpt lat="36.884430700950695" lon="14.996658752246079"><ele>165.0</ele><time>2026-03-28T15:36:13.001Z</time></trkpt><trkpt lat="36.88432596771794" lon="14.996572450023088"><ele>165.0</ele><time>2026-03-28T15:36:15.001Z</time></trkpt><trkpt lat="36.884267441558755" lon="14.996526791617029"><ele>162.0</ele><time>2026-03-28T15:36:16.001Z</time></trkpt><trkpt lat="36.88418748969107" lon="14.99642144287619"><ele>159.0</ele><time>2026-03-28T15:36:18.001Z</time></trkpt><trkpt lat="36.88411708539513" lon="14.996344797085108"><ele>156.0</ele><time>2026-03-28T15:36:20.001Z</time></trkpt><trkpt lat="36.88401604872674" lon="14.996266109726397"><ele>153.0</ele><time>2026-03-28T15:36:22.001Z</time></trkpt><trkpt lat="36.88396297949302" lon="14.996218577006863"><ele>150.0</ele><time>2026-03-28T15:36:23.001Z</time></trkpt><trkpt lat="36.88388450190984" lon="14.996139119187758"><ele>150.0</ele><time>2026-03-28T15:36:25.001Z</time></trkpt><trkpt lat="36.88381888745542" lon="14.99606577399402"><ele>150.0</ele><time>2026-03-28T15:36:27.001Z</time></trkpt><trkpt lat="36.883819958309495" lon="14.995955891389679"><ele>150.0</ele><time>2026-03-28T15:36:29.001Z</time></trkpt><trkpt lat="36.883819507694405" lon="14.995836915382972"><ele>150.0</ele><time>2026-03-28T15:36:31.001Z</time></trkpt><trkpt lat="36.88382209944114" lon="14.99571983717342"><ele>150.0</ele><time>2026-03-28T15:36:33.001Z</time></trkpt><trkpt lat="36.88380852535088" lon="14.99559697878577"><ele>148.0</ele><time>2026-03-28T15:36:35.001Z</time></trkpt><trkpt lat="36.88379403905545" lon="14.995489753578543"><ele>146.0</ele><time>2026-03-28T15:36:37Z</time></trkpt><trkpt lat="36.88378908154951" lon="14.995399052123291"><ele>144.0</ele><time>2026-03-28T15:36:39Z</time></trkpt><trkpt lat="36.88377456856757" lon="14.99530324584894"><ele>142.0</ele><time>2026-03-28T15:36:41Z</time></trkpt><trkpt lat="36.88377485067929" lon="14.995185538657118"><ele>140.0</ele><time>2026-03-28T15:36:43Z</time></trkpt><trkpt lat="36.88378370611945" lon="14.995047257555155"><ele>138.0</ele><time>2026-03-28T15:36:45Z</time></trkpt><trkpt lat="36.883790680309616" lon="14.994964708276298"><ele>135.83333333333334</ele><time>2026-03-28T15:36:46Z</time></trkpt><trkpt lat="36.88379152029285" lon="14.994856068288708"><ele>133.66666666666666</ele><time>2026-03-28T15:36:48Z</time></trkpt><trkpt lat="36.883787118352075" lon="14.994753041735779"><ele>131.5</ele><time>2026-03-28T15:36:50Z</time></trkpt><trkpt lat="36.88378773167604" lon="14.994641816472766"><ele>129.33333333333331</ele><time>2026-03-28T15:36:52Z</time></trkpt><trkpt lat="36.883785674684695" lon="14.994516424891595"><ele>127.16666666666666</ele><time>2026-03-28T15:36:54Z</time></trkpt><trkpt lat="36.88377352295663" lon="14.994425896528522"><ele>125.0</ele><time>2026-03-28T15:36:56Z</time></trkpt><trkpt lat="36.88370552806001" lon="14.994385366511292"><ele>125.0</ele><time>2026-03-28T15:36:58Z</time></trkpt><trkpt lat="36.88358163988759" lon="14.994370435393666"><ele>125.0</ele><time>2026-03-28T15:37:00Z</time></trkpt><trkpt lat="36.88348347489182" lon="14.994319724365699"><ele>125.0</ele><time>2026-03-28T15:37:02Z</time></trkpt><trkpt lat="36.88344927312762" lon="14.994236891523522"><ele>125.0</ele><time>2026-03-28T15:37:04Z</time></trkpt><trkpt lat="36.88346250859568" lon="14.994117554276194"><ele>125.0</ele><time>2026-03-28T15:37:06Z</time></trkpt><trkpt lat="36.883481021148285" lon="14.994018200460518"><ele>124.0</ele><time>2026-03-28T15:37:07Z</time></trkpt><trkpt lat="36.88350740389153" lon="14.993898527644125"><ele>123.0</ele><time>2026-03-28T15:37:08Z</time></trkpt><trkpt lat="36.88354453306224" lon="14.993772599733928"><ele>122.0</ele><time>2026-03-28T15:37:09Z</time></trkpt><trkpt lat="36.88356651811393" lon="14.993675337178145"><ele>121.0</ele><time>2026-03-28T15:37:10Z</time></trkpt><trkpt lat="36.88358884226635" lon="14.993561241048004"><ele>120.0</ele><time>2026-03-28T15:37:11Z</time></trkpt><trkpt lat="36.88361439231691" lon="14.993437470487672"><ele>121.16666666666667</ele><time>2026-03-28T15:37:12Z</time></trkpt><trkpt lat="36.883642077810464" lon="14.993305872041338"><ele>122.33333333333334</ele><time>2026-03-28T15:37:13Z</time></trkpt><trkpt lat="36.88366323346691" lon="14.993208904774086"><ele>123.5</ele><time>2026-03-28T15:37:14Z</time></trkpt><trkpt lat="36.883683382377086" lon="14.99311840151528"><ele>124.66666666666667</ele><time>2026-03-28T15:37:15Z</time></trkpt><trkpt lat="36.88370418737591" lon="14.993010739912268"><ele>125.83333333333334</ele><time>2026-03-28T15:37:16Z</time></trkpt><trkpt lat="36.88371997032448" lon="14.99293219548632"><ele>127.0</ele><time>2026-03-28T15:37:17Z</time></trkpt><trkpt lat="36.88374185679523" lon="14.992830724854006"><ele>127.00000000000001</ele><time>2026-03-28T15:37:19Z</time></trkpt><trkpt lat="36.88374051326791" lon="14.992711575638793"><ele>127.0</ele><time>2026-03-28T15:37:21Z</time></trkpt><trkpt lat="36.883810259057185" lon="14.992703255391"><ele>127.0</ele><time>2026-03-28T15:49:25.001Z</time></trkpt><trkpt lat="36.88388346815756" lon="14.992733633820267"><ele>127.0</ele><time>2026-03-28T15:49:27.001Z</time></trkpt><trkpt lat="36.883983722521045" lon="14.992763231499374"><ele>127.00000000000001</ele><time>2026-03-28T15:49:29.001Z</time></trkpt><trkpt lat="36.88407874259788" lon="14.992770734879887"><ele>127.0</ele><time>2026-03-28T15:49:31.001Z</time></trkpt><trkpt lat="36.8841442496513" lon="14.99278553232491"><ele>127.00000000000001</ele><time>2026-03-28T15:49:33.001Z</time></trkpt><trkpt lat="36.88422586216284" lon="14.992803626773458"><ele>127.0</ele><time>2026-03-28T15:49:37.001Z</time></trkpt><trkpt lat="36.88429168372454" lon="14.992817379176063"><ele>127.0</ele><time>2026-03-28T15:49:40.001Z</time></trkpt><trkpt lat="36.884369682581585" lon="14.992810511321062"><ele>127.0</ele><time>2026-03-28T15:49:42.001Z</time></trkpt><trkpt lat="36.884461228511654" lon="14.992800999198682"><ele>127.00000000000001</ele><time>2026-03-28T15:49:44.001Z</time></trkpt><trkpt lat="36.88455608496911" lon="14.99281131516184"><ele>127.0</ele><time>2026-03-28T15:49:46.001Z</time></trkpt><trkpt lat="36.88462687145368" lon="14.992822089542862"><ele>128.0</ele><time>2026-03-28T15:49:47.001Z</time></trkpt><trkpt lat="36.884709886899444" lon="14.992828411184544"><ele>129.0</ele><time>2026-03-28T15:49:48.001Z</time></trkpt><trkpt lat="36.88479125026947" lon="14.992863393951856"><ele>130.0</ele><time>2026-03-28T15:49:49.001Z</time></trkpt><trkpt lat="36.884872385150494" lon="14.992872734479198"><ele>131.0</ele><time>2026-03-28T15:49:50.001Z</time></trkpt><trkpt lat="36.88493965022382" lon="14.992874874742446"><ele>132.0</ele><time>2026-03-28T15:49:51.001Z</time></trkpt><trkpt lat="36.88500486364362" lon="14.99286195340545"><ele>133.0</ele><time>2026-03-28T15:49:52.001Z</time></trkpt><trkpt lat="36.885121167973516" lon="14.992823589001969"><ele>134.8</ele><time>2026-03-28T15:49:54.001Z</time></trkpt><trkpt lat="36.885193900962285" lon="14.992803037682014"><ele>136.60000000000002</ele><time>2026-03-28T15:50:53.001Z</time></trkpt><trkpt lat="36.88528622780941" lon="14.992806954999994"><ele>138.39999999999998</ele><time>2026-03-28T15:50:55.001Z</time></trkpt><trkpt lat="36.8854044399443" lon="14.992847631999666"><ele>140.2</ele><time>2026-03-28T15:50:57.001Z</time></trkpt><trkpt lat="36.88549282989076" lon="14.992841758561989"><ele>142.0</ele><time>2026-03-28T15:50:58.001Z</time></trkpt><trkpt lat="36.885574274873505" lon="14.99284474783962"><ele>142.0</ele><time>2026-03-28T15:50:59.001Z</time></trkpt><trkpt lat="36.88570983056443" lon="14.992835787972576"><ele>142.0</ele><time>2026-03-28T15:51:01.001Z</time></trkpt><trkpt lat="36.885800777824905" lon="14.992840727430789"><ele>142.0</ele><time>2026-03-28T15:51:02.001Z</time></trkpt><trkpt lat="36.8858885443771" lon="14.992833751795585"><ele>142.0</ele><time>2026-03-28T15:51:03.001Z</time></trkpt><trkpt lat="36.88597383493786" lon="14.99283978033239"><ele>142.0</ele><time>2026-03-28T15:51:04.001Z</time></trkpt><trkpt lat="36.886047722250304" lon="14.992847275404804"><ele>144.4</ele><time>2026-03-28T15:51:05.001Z</time></trkpt><trkpt lat="36.88617620926956" lon="14.9928611832201"><ele>146.79999999999998</ele><time>2026-03-28T15:51:07.001Z</time></trkpt><trkpt lat="36.886282091374646" lon="14.992872951956262"><ele>149.2</ele><time>2026-03-28T15:51:09.001Z</time></trkpt><trkpt lat="36.886362495811774" lon="14.992861293305294"><ele>151.6</ele><time>2026-03-28T15:51:12.001Z</time></trkpt><trkpt lat="36.88642443608307" lon="14.99290594682346"><ele>154.0</ele><time>2026-03-28T15:51:31Z</time></trkpt><trkpt lat="36.88649324745523" lon="14.992883274392282"><ele>154.0</ele><time>2026-03-28T15:51:35Z</time></trkpt><trkpt lat="36.88656800350741" lon="14.992879386183434"><ele>154.0</ele><time>2026-03-28T15:51:39Z</time></trkpt><trkpt lat="36.88663396879523" lon="14.992904701875835"><ele>154.0</ele><time>2026-03-28T15:53:24.001Z</time></trkpt><trkpt lat="36.886611091878315" lon="14.992986586417006"><ele>154.0</ele><time>2026-03-28T15:55:12.001Z</time></trkpt><trkpt lat="36.88658210612659" lon="14.993111228131008"><ele>154.0</ele><time>2026-03-28T15:55:14.001Z</time></trkpt><trkpt lat="36.886551231405605" lon="14.993202824046145"><ele>154.0</ele><time>2026-03-28T15:55:16.001Z</time></trkpt><trkpt lat="36.886518689345756" lon="14.993315658986223"><ele>154.0</ele><time>2026-03-28T15:55:18.001Z</time></trkpt><trkpt lat="36.88648761470736" lon="14.99345277635704"><ele>154.0</ele><time>2026-03-28T15:55:20.001Z</time></trkpt><trkpt lat="36.88647770468833" lon="14.99353488720592"><ele>154.0</ele><time>2026-03-28T15:55:21.001Z</time></trkpt><trkpt lat="36.886496598991" lon="14.993624964663937"><ele>154.0</ele><time>2026-03-28T15:55:23.001Z</time></trkpt><trkpt lat="36.886526094035496" lon="14.993702752214917"><ele>154.0</ele><time>2026-03-28T15:55:25.001Z</time></trkpt><trkpt lat="36.88663184979596" lon="14.993690615531516"><ele>154.0</ele><time>2026-03-28T15:55:27.001Z</time></trkpt><trkpt lat="36.88670708014376" lon="14.993665066208429"><ele>156.16666666666669</ele><time>2026-03-28T15:55:28.001Z</time></trkpt><trkpt lat="36.886772481752" lon="14.993642995186093"><ele>158.33333333333334</ele><time>2026-03-28T15:55:29.001Z</time></trkpt><trkpt lat="36.886880216024196" lon="14.993592223660734"><ele>160.5</ele><time>2026-03-28T15:55:31Z</time></trkpt><trkpt lat="36.88698438305094" lon="14.993629673670197"><ele>162.66666666666666</ele><time>2026-03-28T15:55:33Z</time></trkpt><trkpt lat="36.88704907689236" lon="14.993662458231709"><ele>164.83333333333331</ele><time>2026-03-28T15:55:34Z</time></trkpt><trkpt lat="36.887112364901625" lon="14.993703400008291"><ele>167.0</ele><time>2026-03-28T15:55:35Z</time></trkpt><trkpt lat="36.88718793648383" lon="14.993726156930666"><ele>167.0</ele><time>2026-03-28T15:55:36Z</time></trkpt><trkpt lat="36.88725386659362" lon="14.993781464413948"><ele>167.0</ele><time>2026-03-28T15:55:37Z</time></trkpt><trkpt lat="36.88732836597885" lon="14.99382140240902"><ele>167.0</ele><time>2026-03-28T15:55:38Z</time></trkpt><trkpt lat="36.88742358994801" lon="14.99387986365449"><ele>167.0</ele><time>2026-03-28T15:55:39Z</time></trkpt><trkpt lat="36.88748639364211" lon="14.993917881097456"><ele>167.0</ele><time>2026-03-28T15:55:40Z</time></trkpt><trkpt lat="36.88754508250485" lon="14.993951277316405"><ele>167.0</ele><time>2026-03-28T15:55:41Z</time></trkpt><trkpt lat="36.88765431617019" lon="14.993974688441371"><ele>168.0</ele><time>2026-03-28T15:55:43Z</time></trkpt><trkpt lat="36.88772378916146" lon="14.993960504343724"><ele>169.0</ele><time>2026-03-28T15:55:44Z</time></trkpt><trkpt lat="36.887790972650734" lon="14.993967540219291"><ele>170.0</ele><time>2026-03-28T15:55:45Z</time></trkpt><trkpt lat="36.88789715834029" lon="14.993976443775075"><ele>171.0</ele><time>2026-03-28T15:55:47Z</time></trkpt><trkpt lat="36.88796930638391" lon="14.993982493137128"><ele>172.0</ele><time>2026-03-28T15:55:49Z</time></trkpt><trkpt lat="36.88803979004283" lon="14.993975537271579"><ele>173.0</ele><time>2026-03-28T15:55:53Z</time></trkpt><trkpt lat="36.888105868984695" lon="14.993980928587334"><ele>173.0</ele><time>2026-03-28T15:55:58Z</time></trkpt><trkpt lat="36.88818946229226" lon="14.994000952450625"><ele>173.0</ele><time>2026-03-28T15:56:06Z</time></trkpt><trkpt lat="36.88825642727444" lon="14.994024870257766"><ele>173.0</ele><time>2026-03-28T15:56:10Z</time></trkpt><trkpt lat="36.88831599456252" lon="14.993927956601786"><ele>173.0</ele><time>2026-03-28T15:56:12Z</time></trkpt><trkpt lat="36.88836759508326" lon="14.99384476397912"><ele>173.0</ele><time>2026-03-28T15:56:14Z</time></trkpt><trkpt lat="36.888422006874215" lon="14.993745636655984"><ele>173.0</ele><time>2026-03-28T15:56:16Z</time></trkpt><trkpt lat="36.8884828849139" lon="14.99367298172098"><ele>175.4</ele><time>2026-03-28T15:56:18Z</time></trkpt><trkpt lat="36.88862335554747" lon="14.99366902154068"><ele>177.8</ele><time>2026-03-28T15:56:20Z</time></trkpt><trkpt lat="36.888697754987454" lon="14.99368186993918"><ele>180.2</ele><time>2026-03-28T15:56:21Z</time></trkpt><trkpt lat="36.888763895190074" lon="14.993689719547309"><ele>182.6</ele><time>2026-03-28T15:56:22Z</time></trkpt><trkpt lat="36.88887452144792" lon="14.993674064982514"><ele>185.0</ele><time>2026-03-28T15:56:24Z</time></trkpt><trkpt lat="36.88895100890212" lon="14.993655317025054"><ele>185.0</ele><time>2026-03-28T15:56:25Z</time></trkpt><trkpt lat="36.88902859887572" lon="14.993627754218206"><ele>185.0</ele><time>2026-03-28T15:56:27.001Z</time></trkpt><trkpt lat="36.8890951295245" lon="14.993610216918768"><ele>185.0</ele><time>2026-03-28T15:56:29.001Z</time></trkpt><trkpt lat="36.88910007653074" lon="14.993518202051053"><ele>185.0</ele><time>2026-03-28T15:56:32.001Z</time></trkpt><trkpt lat="36.88899765945723" lon="14.993455047943215"><ele>185.0</ele><time>2026-03-28T15:56:34.001Z</time></trkpt><trkpt lat="36.88891916961916" lon="14.993424101144067"><ele>185.0</ele><time>2026-03-28T15:56:35.001Z</time></trkpt><trkpt lat="36.888887485915866" lon="14.993178113847254"><ele>185.0</ele><time>2026-03-28T15:56:37.001Z</time></trkpt><trkpt lat="36.888815808109946" lon="14.993370568831226"><ele>185.0</ele><time>2026-03-28T15:56:49.001Z</time></trkpt><trkpt lat="36.88874291141407" lon="14.993334935562794"><ele>185.0</ele><time>2026-03-28T15:57:06.001Z</time></trkpt><trkpt lat="36.888703164620274" lon="14.993245875761833"><ele>185.0</ele><time>2026-03-28T15:57:17.001Z</time></trkpt><trkpt lat="36.88871680037744" lon="14.993156379194085"><ele>185.0</ele><time>2026-03-28T15:57:20.001Z</time></trkpt><trkpt lat="36.888808179936724" lon="14.993196070515184"><ele>186.5</ele><time>2026-03-28T15:58:00Z</time></trkpt><trkpt lat="36.88887462665388" lon="14.993196814457292"><ele>188.0</ele><time>2026-03-28T16:03:24.001Z</time></trkpt><trkpt lat="36.888983306369774" lon="14.993213509570708"><ele>189.5</ele><time>2026-03-28T16:03:26.001Z</time></trkpt><trkpt lat="36.88905057499589" lon="14.993224509737207"><ele>191.0</ele><time>2026-03-28T16:03:27.001Z</time></trkpt><trkpt lat="36.889115811696264" lon="14.993240452240492"><ele>192.50000000000003</ele><time>2026-03-28T16:03:28.001Z</time></trkpt><trkpt lat="36.88918160257638" lon="14.993281565929848"><ele>194.0</ele><time>2026-03-28T16:03:29.001Z</time></trkpt><trkpt lat="36.88925090703618" lon="14.993302144672196"><ele>195.5</ele><time>2026-03-28T16:03:30.001Z</time></trkpt><trkpt lat="36.88934527527696" lon="14.993329726657466"><ele>197.0</ele><time>2026-03-28T16:03:31.001Z</time></trkpt><trkpt lat="36.889477059154586" lon="14.993368232193154"><ele>198.5</ele><time>2026-03-28T16:03:32.001Z</time></trkpt><trkpt lat="36.889627665347476" lon="14.993394398767546"><ele>200.0</ele><time>2026-03-28T16:03:33.001Z</time></trkpt><trkpt lat="36.88976131897115" lon="14.993448430448339"><ele>200.00000000000003</ele><time>2026-03-28T16:03:34.001Z</time></trkpt><trkpt lat="36.889875417240845" lon="14.993458977106489"><ele>200.0</ele><time>2026-03-28T16:03:35.001Z</time></trkpt><trkpt lat="36.88997398317261" lon="14.993481210586886"><ele>200.0</ele><time>2026-03-28T16:03:36.001Z</time></trkpt><trkpt lat="36.89004968810766" lon="14.993497285474099"><ele>200.0</ele><time>2026-03-28T16:03:37.001Z</time></trkpt><trkpt lat="36.89011680259685" lon="14.993528162828621"><ele>200.00000000000003</ele><time>2026-03-28T16:03:38.001Z</time></trkpt><trkpt lat="36.89019092979848" lon="14.993541693424309"><ele>200.0</ele><time>2026-03-28T16:03:39.001Z</time></trkpt><trkpt lat="36.89027566943604" lon="14.993556937590343"><ele>203.33333333333334</ele><time>2026-03-28T16:03:40.001Z</time></trkpt><trkpt lat="36.8903466747553" lon="14.993569711040578"><ele>206.66666666666669</ele><time>2026-03-28T16:03:41.001Z</time></trkpt><trkpt lat="36.89046121956616" lon="14.993575311153693"><ele>210.0</ele><time>2026-03-28T16:03:43.001Z</time></trkpt><trkpt lat="36.89053746623798" lon="14.993591166455646"><ele>213.33333333333331</ele><time>2026-03-28T16:03:45.001Z</time></trkpt><trkpt lat="36.890633349842176" lon="14.993525669577455"><ele>216.66666666666666</ele><time>2026-03-28T16:03:48.001Z</time></trkpt><trkpt lat="36.89065201773341" lon="14.993437466756895"><ele>220.0</ele><time>2026-03-28T16:03:49.001Z</time></trkpt><trkpt lat="36.89062777791349" lon="14.993324754654898"><ele>220.0</ele><time>2026-03-28T16:03:50.001Z</time></trkpt><trkpt lat="36.89062806977312" lon="14.993193491466636"><ele>220.0</ele><time>2026-03-28T16:03:52.001Z</time></trkpt><trkpt lat="36.89063165704964" lon="14.993095526178061"><ele>220.0</ele><time>2026-03-28T16:03:54Z</time></trkpt><trkpt lat="36.89071110963824" lon="14.993164303797021"><ele>220.0</ele><time>2026-03-28T16:03:58Z</time></trkpt><trkpt lat="36.890755306887826" lon="14.99326363577199"><ele>220.0</ele><time>2026-03-28T16:03:59Z</time></trkpt><trkpt lat="36.89080124097454" lon="14.993365265644881"><ele>219.99999999999997</ele><time>2026-03-28T16:04:00Z</time></trkpt><trkpt lat="36.89085172015149" lon="14.993439608068938"><ele>220.0</ele><time>2026-03-28T16:04:01Z</time></trkpt><trkpt lat="36.890877356976134" lon="14.993517668704838"><ele>220.0</ele><time>2026-03-28T16:04:02Z</time></trkpt><trkpt lat="36.89091061036955" lon="14.993592204401786"><ele>220.0</ele><time>2026-03-28T16:04:03Z</time></trkpt><trkpt lat="36.89097382417888" lon="14.993731139840472"><ele>219.99999999999997</ele><time>2026-03-28T16:04:05Z</time></trkpt><trkpt lat="36.89102290875504" lon="14.993808189095855"><ele>220.0</ele><time>2026-03-28T16:04:06Z</time></trkpt><trkpt lat="36.89106760644886" lon="14.993865798180384"><ele>224.49999999999997</ele><time>2026-03-28T16:04:07Z</time></trkpt><trkpt lat="36.89113234493642" lon="14.993938366957599"><ele>229.0</ele><time>2026-03-28T16:04:09Z</time></trkpt><trkpt lat="36.89117742809764" lon="14.994011953944517"><ele>233.5</ele><time>2026-03-28T16:04:10Z</time></trkpt><trkpt lat="36.89119320447014" lon="14.99411302080445"><ele>238.0</ele><time>2026-03-28T16:04:11Z</time></trkpt><trkpt lat="36.891241409841726" lon="14.994206476515446"><ele>242.49999999999997</ele><time>2026-03-28T16:04:12Z</time></trkpt><trkpt lat="36.89127489624306" lon="14.994318762826031"><ele>247.0</ele><time>2026-03-28T16:04:13Z</time></trkpt><trkpt lat="36.8913041237041" lon="14.994421559767344"><ele>246.99999999999997</ele><time>2026-03-28T16:04:14Z</time></trkpt><trkpt lat="36.8913374353608" lon="14.994507838543331"><ele>247.0</ele><time>2026-03-28T16:04:15Z</time></trkpt><trkpt lat="36.89139366389473" lon="14.994646426426138"><ele>247.0</ele><time>2026-03-28T16:04:16Z</time></trkpt><trkpt lat="36.89142975758173" lon="14.994746927765918"><ele>247.0</ele><time>2026-03-28T16:04:17Z</time></trkpt><trkpt lat="36.89146238959108" lon="14.994819721487827"><ele>246.99999999999997</ele><time>2026-03-28T16:04:18Z</time></trkpt><trkpt lat="36.89150827093329" lon="14.994884467218112"><ele>247.0</ele><time>2026-03-28T16:04:19Z</time></trkpt><trkpt lat="36.891564054451436" lon="14.994947330986168"><ele>246.85714285714286</ele><time>2026-03-28T16:04:20Z</time></trkpt><trkpt lat="36.89161348819358" lon="14.9950083937897"><ele>246.71428571428572</ele><time>2026-03-28T16:04:21Z</time></trkpt><trkpt lat="36.89166931861162" lon="14.995068365655504"><ele>246.57142857142858</ele><time>2026-03-28T16:04:22Z</time></trkpt><trkpt lat="36.89170223878524" lon="14.995146128294648"><ele>246.42857142857144</ele><time>2026-03-28T16:04:23Z</time></trkpt><trkpt lat="36.891740160303556" lon="14.99522313206509"><ele>246.28571428571428</ele><time>2026-03-28T16:04:24Z</time></trkpt><trkpt lat="36.89179435220927" lon="14.995285499302103"><ele>246.14285714285717</ele><time>2026-03-28T16:04:25Z</time></trkpt><trkpt lat="36.89183519091283" lon="14.995360977775523"><ele>246.00000000000003</ele><time>2026-03-28T16:04:26.001Z</time></trkpt><trkpt lat="36.891886747348174" lon="14.995428884863493"><ele>246.83333333333334</ele><time>2026-03-28T16:04:27.001Z</time></trkpt><trkpt lat="36.89191976780109" lon="14.995539719047374"><ele>247.66666666666669</ele><time>2026-03-28T16:04:29.001Z</time></trkpt><trkpt lat="36.89196247280638" lon="14.99562442218357"><ele>248.5</ele><time>2026-03-28T16:04:31.001Z</time></trkpt><trkpt lat="36.891984094002126" lon="14.995700772419756"><ele>249.33333333333334</ele><time>2026-03-28T16:04:35.001Z</time></trkpt><trkpt lat="36.89207450232429" lon="14.99572817991398"><ele>250.16666666666669</ele><time>2026-03-28T16:04:37.001Z</time></trkpt><trkpt lat="36.89213514393463" lon="14.995768063712243"><ele>251.0</ele><time>2026-03-28T16:04:38.001Z</time></trkpt><trkpt lat="36.892212380277726" lon="14.995792882810425"><ele>251.00000000000003</ele><time>2026-03-28T16:04:39.001Z</time></trkpt><trkpt lat="36.89228289734242" lon="14.995797697388976"><ele>251.0</ele><time>2026-03-28T16:04:40.001Z</time></trkpt><trkpt lat="36.8923914091416" lon="14.995816057637828"><ele>251.0</ele><time>2026-03-28T16:04:42.001Z</time></trkpt><trkpt lat="36.892469675517056" lon="14.995833775637463"><ele>251.0</ele><time>2026-03-28T16:04:44.001Z</time></trkpt><trkpt lat="36.89254930244468" lon="14.995861908642754"><ele>251.00000000000003</ele><time>2026-03-28T16:04:46.001Z</time></trkpt><trkpt lat="36.89261383698993" lon="14.995873085378886"><ele>251.0</ele><time>2026-03-28T16:04:48.001Z</time></trkpt><trkpt lat="36.89270632773033" lon="14.995866063205247"><ele>250.83333333333334</ele><time>2026-03-28T16:04:51.001Z</time></trkpt><trkpt lat="36.892781245738874" lon="14.995859225091184"><ele>250.66666666666669</ele><time>2026-03-28T16:04:53.001Z</time></trkpt><trkpt lat="36.89280425754279" lon="14.99596018901883"><ele>250.5</ele><time>2026-03-28T16:04:58.001Z</time></trkpt><trkpt lat="36.89273266199358" lon="14.996050990298505"><ele>250.33333333333331</ele><time>2026-03-28T16:05:00.001Z</time></trkpt><trkpt lat="36.89270248712619" lon="14.996120164562383"><ele>250.16666666666666</ele><time>2026-03-28T16:05:01.001Z</time></trkpt><trkpt lat="36.89264850778786" lon="14.996177461334447"><ele>250.0</ele><time>2026-03-28T16:05:02.001Z</time></trkpt><trkpt lat="36.89258670743889" lon="14.996251295467067"><ele>249.4</ele><time>2026-03-28T16:05:03.001Z</time></trkpt><trkpt lat="36.89250986239738" lon="14.996311513041814"><ele>248.8</ele><time>2026-03-28T16:05:04.001Z</time></trkpt><trkpt lat="36.89245738788644" lon="14.996425667290621"><ele>248.2</ele><time>2026-03-28T16:05:06.001Z</time></trkpt><trkpt lat="36.892491246129175" lon="14.996543016456545"><ele>247.6</ele><time>2026-03-28T16:05:08.001Z</time></trkpt><trkpt lat="36.892588666496174" lon="14.996686412783104"><ele>247.0</ele><time>2026-03-28T16:05:10.001Z</time></trkpt><trkpt lat="36.892633729093085" lon="14.99679490968409"><ele>248.2</ele><time>2026-03-28T16:05:11.001Z</time></trkpt><trkpt lat="36.89268852835502" lon="14.996889011526907"><ele>249.39999999999998</ele><time>2026-03-28T16:05:12.001Z</time></trkpt><trkpt lat="36.89274181137693" lon="14.996980509688001"><ele>250.60000000000002</ele><time>2026-03-28T16:05:13.001Z</time></trkpt><trkpt lat="36.89280574776926" lon="14.99709030294307"><ele>251.8</ele><time>2026-03-28T16:05:14.001Z</time></trkpt><trkpt lat="36.89287536093664" lon="14.99720984377461"><ele>253.0</ele><time>2026-03-28T16:05:15.001Z</time></trkpt><trkpt lat="36.892937879580565" lon="14.997317201791171"><ele>253.0</ele><time>2026-03-28T16:05:16.001Z</time></trkpt><trkpt lat="36.893004463612506" lon="14.997431540913439"><ele>253.0</ele><time>2026-03-28T16:05:17.001Z</time></trkpt><trkpt lat="36.89307803808528" lon="14.997557884133052"><ele>253.0</ele><time>2026-03-28T16:05:18.001Z</time></trkpt><trkpt lat="36.89313695425447" lon="14.997659395746952"><ele>253.0</ele><time>2026-03-28T16:05:19.001Z</time></trkpt><trkpt lat="36.89318890969384" lon="14.997749485568718"><ele>253.0</ele><time>2026-03-28T16:05:20.001Z</time></trkpt><trkpt lat="36.89324661302367" lon="14.997849542072917"><ele>253.0</ele><time>2026-03-28T16:05:21.001Z</time></trkpt><trkpt lat="36.893306168617386" lon="14.99795356677208"><ele>253.0</ele><time>2026-03-28T16:05:22.001Z</time></trkpt><trkpt lat="36.89336485275466" lon="14.998062956761506"><ele>253.0</ele><time>2026-03-28T16:05:23.001Z</time></trkpt><trkpt lat="36.89341189210815" lon="14.998172850931716"><ele>253.0</ele><time>2026-03-28T16:05:24.001Z</time></trkpt><trkpt lat="36.89345085037612" lon="14.998267766333077"><ele>253.0</ele><time>2026-03-28T16:05:25.001Z</time></trkpt><trkpt lat="36.89349161326576" lon="14.99835243283788"><ele>253.66666666666666</ele><time>2026-03-28T16:05:26.001Z</time></trkpt><trkpt lat="36.893539488912914" lon="14.998414533155854"><ele>254.33333333333331</ele><time>2026-03-28T16:05:27.001Z</time></trkpt><trkpt lat="36.89360701314285" lon="14.998460830210673"><ele>255.0</ele><time>2026-03-28T16:05:28.001Z</time></trkpt><trkpt lat="36.89367192718782" lon="14.998518356519218"><ele>255.66666666666669</ele><time>2026-03-28T16:05:29.001Z</time></trkpt><trkpt lat="36.89374437479272" lon="14.998587484823744"><ele>256.33333333333337</ele><time>2026-03-28T16:05:30.001Z</time></trkpt><trkpt lat="36.89382707810977" lon="14.998663945713131"><ele>257.0</ele><time>2026-03-28T16:05:31.001Z</time></trkpt><trkpt lat="36.89390917935031" lon="14.998754973934702"><ele>257.0</ele><time>2026-03-28T16:05:32.001Z</time></trkpt><trkpt lat="36.893992597298435" lon="14.998839777095355"><ele>257.0</ele><time>2026-03-28T16:05:33.001Z</time></trkpt><trkpt lat="36.894079972704574" lon="14.99892835866604"><ele>257.0</ele><time>2026-03-28T16:05:34.001Z</time></trkpt><trkpt lat="36.894190327411714" lon="14.999039576019683"><ele>257.0</ele><time>2026-03-28T16:05:35.001Z</time></trkpt><trkpt lat="36.894288769296736" lon="14.99913789065983"><ele>257.4</ele><time>2026-03-28T16:05:36.001Z</time></trkpt><trkpt lat="36.89437563954447" lon="14.999228236180427"><ele>257.79999999999995</ele><time>2026-03-28T16:05:37.001Z</time></trkpt><trkpt lat="36.894456781166056" lon="14.999324797576513"><ele>258.2</ele><time>2026-03-28T16:05:38.001Z</time></trkpt><trkpt lat="36.89454477034368" lon="14.999416510519726"><ele>258.59999999999997</ele><time>2026-03-28T16:05:39.001Z</time></trkpt><trkpt lat="36.894625852718384" lon="14.999486933636684"><ele>259.0</ele><time>2026-03-28T16:05:40.001Z</time></trkpt><trkpt lat="36.894700955273684" lon="14.9995596620215"><ele>259.0</ele><time>2026-03-28T16:05:41.001Z</time></trkpt><trkpt lat="36.89477649763609" lon="14.999642593201429"><ele>259.0</ele><time>2026-03-28T16:05:42.001Z</time></trkpt><trkpt lat="36.89482873337329" lon="14.999711188285248"><ele>259.0</ele><time>2026-03-28T16:05:43.001Z</time></trkpt><trkpt lat="36.894876071654444" lon="14.99977662267421"><ele>259.0</ele><time>2026-03-28T16:05:44.001Z</time></trkpt><trkpt lat="36.8949281232593" lon="14.999885351305037"><ele>259.0</ele><time>2026-03-28T16:05:46.001Z</time></trkpt><trkpt lat="36.894975560637945" lon="14.999962851571727"><ele>259.0</ele><time>2026-03-28T16:05:47.001Z</time></trkpt><trkpt lat="36.895010279469446" lon="15.000053827015886"><ele>259.0</ele><time>2026-03-28T16:05:48.001Z</time></trkpt><trkpt lat="36.895044966502844" lon="15.000155440292"><ele>259.0</ele><time>2026-03-28T16:05:50.001Z</time></trkpt><trkpt lat="36.895077121958415" lon="15.000273117425346"><ele>259.0</ele><time>2026-03-28T16:05:52.001Z</time></trkpt><trkpt lat="36.89512033188382" lon="15.000392457312751"><ele>259.0</ele><time>2026-03-28T16:05:54.001Z</time></trkpt><trkpt lat="36.895156158909664" lon="15.000531912294104"><ele>259.0</ele><time>2026-03-28T16:05:56.001Z</time></trkpt><trkpt lat="36.895180304826184" lon="15.000630233798146"><ele>260.0</ele><time>2026-03-28T16:05:57.001Z</time></trkpt><trkpt lat="36.89518136219351" lon="15.00074176537257"><ele>261.0</ele><time>2026-03-28T16:05:58.001Z</time></trkpt><trkpt lat="36.89518108324094" lon="15.000856243652635"><ele>262.0</ele><time>2026-03-28T16:05:59.001Z</time></trkpt><trkpt lat="36.89518633307388" lon="15.000978020645425"><ele>263.0</ele><time>2026-03-28T16:06:00Z</time></trkpt><trkpt lat="36.895190047117275" lon="15.001096225130773"><ele>264.0</ele><time>2026-03-28T16:06:01Z</time></trkpt><trkpt lat="36.89520669996054" lon="15.001208827885646"><ele>264.0</ele><time>2026-03-28T16:06:02Z</time></trkpt><trkpt lat="36.89522577154943" lon="15.001299622549991"><ele>264.0</ele><time>2026-03-28T16:06:03Z</time></trkpt><trkpt lat="36.89524642426882" lon="15.001383980425238"><ele>264.0</ele><time>2026-03-28T16:06:04Z</time></trkpt><trkpt lat="36.89527455194123" lon="15.00148131543069"><ele>264.0</ele><time>2026-03-28T16:06:05Z</time></trkpt><trkpt lat="36.895324484943565" lon="15.001630013709434"><ele>264.0</ele><time>2026-03-28T16:06:06Z</time></trkpt><trkpt lat="36.89536792459852" lon="15.001762042069808"><ele>263.5</ele><time>2026-03-28T16:06:07Z</time></trkpt><trkpt lat="36.89540497791072" lon="15.001846361510273"><ele>263.0</ele><time>2026-03-28T16:06:08Z</time></trkpt><trkpt lat="36.89545865594703" lon="15.001931965246614"><ele>262.5</ele><time>2026-03-28T16:06:10Z</time></trkpt><trkpt lat="36.8955016076953" lon="15.002007215550769"><ele>262.0</ele><time>2026-03-28T16:06:12Z</time></trkpt><trkpt lat="36.89553715372223" lon="15.002082318187302"><ele>261.5</ele><time>2026-03-28T16:06:15Z</time></trkpt><trkpt lat="36.89557290698657" lon="15.002152636247871"><ele>261.0</ele><time>2026-03-28T16:13:49.001Z</time></trkpt><trkpt lat="36.89561840947767" lon="15.002228614421135"><ele>261.0</ele><time>2026-03-28T16:13:52.001Z</time></trkpt><trkpt lat="36.89566175419596" lon="15.002306687859006"><ele>261.0</ele><time>2026-03-28T16:14:42.001Z</time></trkpt><trkpt lat="36.89577288535169" lon="15.002393267586182"><ele>261.0</ele><time>2026-03-28T16:14:46.001Z</time></trkpt><trkpt lat="36.89584950761197" lon="15.002446821133365"><ele>261.0</ele><time>2026-03-28T16:14:48.001Z</time></trkpt><trkpt lat="36.89590805081735" lon="15.002523324052456"><ele>261.0</ele><time>2026-03-28T16:14:50.001Z</time></trkpt><trkpt lat="36.895991667661484" lon="15.00260498358882"><ele>261.6</ele><time>2026-03-28T16:14:52.001Z</time></trkpt><trkpt lat="36.89606432049817" lon="15.002671883083766"><ele>262.20000000000005</ele><time>2026-03-28T16:14:54.001Z</time></trkpt><trkpt lat="36.89613550431483" lon="15.002763426052264"><ele>262.79999999999995</ele><time>2026-03-28T16:14:56.001Z</time></trkpt><trkpt lat="36.8962216682323" lon="15.002874254845208"><ele>263.4</ele><time>2026-03-28T16:14:58.001Z</time></trkpt><trkpt lat="36.89627464458529" lon="15.00294543115409"><ele>264.0</ele><time>2026-03-28T16:15:00.001Z</time></trkpt><trkpt lat="36.89633365052531" lon="15.003008377165918"><ele>264.0</ele><time>2026-03-28T16:15:03.001Z</time></trkpt><trkpt lat="36.896399758008734" lon="15.003069875375537"><ele>264.0</ele><time>2026-03-28T16:15:06.001Z</time></trkpt><trkpt lat="36.896442592534896" lon="15.003142019148685"><ele>264.0</ele><time>2026-03-28T16:15:08.001Z</time></trkpt><trkpt lat="36.896499826071164" lon="15.003180929442115"><ele>264.0</ele><time>2026-03-28T16:15:10.001Z</time></trkpt><trkpt lat="36.89655567781925" lon="15.003240197422027"><ele>264.0</ele><time>2026-03-28T16:15:12.001Z</time></trkpt><trkpt lat="36.89661762777203" lon="15.003262104555857"><ele>264.0</ele><time>2026-03-28T16:15:14.001Z</time></trkpt><trkpt lat="36.896697001577856" lon="15.003317778336472"><ele>264.0</ele><time>2026-03-28T16:15:17.001Z</time></trkpt><trkpt lat="36.896760890028276" lon="15.003353648014182"><ele>260.8</ele><time>2026-03-28T16:15:19.001Z</time></trkpt><trkpt lat="36.89683643721484" lon="15.00339871813702"><ele>257.59999999999997</ele><time>2026-03-28T16:15:21.001Z</time></trkpt><trkpt lat="36.89690750350988" lon="15.003468866727482"><ele>254.4</ele><time>2026-03-28T16:15:23.001Z</time></trkpt><trkpt lat="36.896966702206576" lon="15.00358049929696"><ele>251.2</ele><time>2026-03-28T16:15:25.001Z</time></trkpt><trkpt lat="36.89704369015555" lon="15.003639570453235"><ele>248.0</ele><time>2026-03-28T16:15:27.001Z</time></trkpt><trkpt lat="36.89710978909508" lon="15.003709455210043"><ele>248.0</ele><time>2026-03-28T16:15:29.001Z</time></trkpt><trkpt lat="36.897173623312966" lon="15.00377129465417"><ele>248.00000000000003</ele><time>2026-03-28T16:15:31.001Z</time></trkpt><trkpt lat="36.89722997249002" lon="15.003830725255815"><ele>248.0</ele><time>2026-03-28T16:15:34.001Z</time></trkpt><trkpt lat="36.89727907570074" lon="15.003884757794948"><ele>248.0</ele><time>2026-03-28T16:15:38.001Z</time></trkpt><trkpt lat="36.89732357109465" lon="15.003963432353238"><ele>248.00000000000003</ele><time>2026-03-28T16:15:41.001Z</time></trkpt><trkpt lat="36.89737983152556" lon="15.004023784622369"><ele>248.0</ele><time>2026-03-28T16:15:43.001Z</time></trkpt><trkpt lat="36.897433715309056" lon="15.004077865110425"><ele>248.0</ele><time>2026-03-28T16:15:45.001Z</time></trkpt><trkpt lat="36.897473999133574" lon="15.004147253650343"><ele>245.50000000000003</ele><time>2026-03-28T16:15:47.001Z</time></trkpt><trkpt lat="36.89751017835218" lon="15.004247459318226"><ele>243.0</ele><time>2026-03-28T16:15:49.001Z</time></trkpt><trkpt lat="36.89754323854597" lon="15.00434307739547"><ele>240.5</ele><time>2026-03-28T16:15:52.001Z</time></trkpt><trkpt lat="36.89757933569583" lon="15.00441707965236"><ele>238.0</ele><time>2026-03-28T16:15:55.001Z</time></trkpt><trkpt lat="36.897621376270386" lon="15.004490490808193"><ele>235.50000000000003</ele><time>2026-03-28T16:15:57.001Z</time></trkpt><trkpt lat="36.89766410903566" lon="15.004564805860774"><ele>233.0</ele><time>2026-03-28T16:15:59.001Z</time></trkpt><trkpt lat="36.89771250955686" lon="15.004639484635817"><ele>233.00000000000003</ele><time>2026-03-28T16:16:02.001Z</time></trkpt><trkpt lat="36.89775893323303" lon="15.004723647606113"><ele>233.0</ele><time>2026-03-28T16:16:05.001Z</time></trkpt><trkpt lat="36.89781153426537" lon="15.004804535478312"><ele>233.0</ele><time>2026-03-28T16:16:08.001Z</time></trkpt><trkpt lat="36.89786298350436" lon="15.004858631767902"><ele>233.0</ele><time>2026-03-28T16:16:10.001Z</time></trkpt><trkpt lat="36.89790877402374" lon="15.00491713969101"><ele>233.00000000000003</ele><time>2026-03-28T16:16:12.001Z</time></trkpt><trkpt lat="36.89792937095071" lon="15.005030866113984"><ele>233.0</ele><time>2026-03-28T16:16:15.001Z</time></trkpt><trkpt lat="36.897943807535796" lon="15.00514668038338"><ele>232.66666666666669</ele><time>2026-03-28T16:16:17.001Z</time></trkpt><trkpt lat="36.897965185428326" lon="15.005241678217635"><ele>232.33333333333334</ele><time>2026-03-28T16:16:19.001Z</time></trkpt><trkpt lat="36.897965098348585" lon="15.005371568999747"><ele>232.0</ele><time>2026-03-28T16:16:21.001Z</time></trkpt><trkpt lat="36.89797125737368" lon="15.005450465635482"><ele>231.66666666666669</ele><time>2026-03-28T16:16:22.001Z</time></trkpt><trkpt lat="36.89799862702318" lon="15.005594427908903"><ele>231.33333333333334</ele><time>2026-03-28T16:16:24.001Z</time></trkpt><trkpt lat="36.89800707469736" lon="15.005685321889917"><ele>231.0</ele><time>2026-03-28T16:16:25.001Z</time></trkpt><trkpt lat="36.89802070096439" lon="15.005763768011427"><ele>230.83333333333334</ele><time>2026-03-28T16:16:26.001Z</time></trkpt><trkpt lat="36.89804230727314" lon="15.005877184356894"><ele>230.66666666666669</ele><time>2026-03-28T16:16:28.001Z</time></trkpt><trkpt lat="36.898071485425056" lon="15.005997181588645"><ele>230.5</ele><time>2026-03-28T16:16:30.001Z</time></trkpt><trkpt lat="36.89808205226419" lon="15.00607776042587"><ele>230.33333333333334</ele><time>2026-03-28T16:16:32.001Z</time></trkpt><trkpt lat="36.89811223960059" lon="15.00618330239082"><ele>230.16666666666669</ele><time>2026-03-28T16:17:28Z</time></trkpt><trkpt lat="36.898156510813635" lon="15.006275114239916"><ele>230.0</ele><time>2026-03-28T16:17:31.001Z</time></trkpt><trkpt lat="36.89817673608291" lon="15.006379297065786"><ele>230.00000000000003</ele><time>2026-03-28T16:17:34.001Z</time></trkpt><trkpt lat="36.89821844896362" lon="15.006466471335374"><ele>230.0</ele><time>2026-03-28T16:17:37.001Z</time></trkpt><trkpt lat="36.89824791493893" lon="15.006548243480776"><ele>230.0</ele><time>2026-03-28T16:17:47.001Z</time></trkpt><trkpt lat="36.898301655564964" lon="15.006636433012567"><ele>230.0</ele><time>2026-03-28T16:20:31.001Z</time></trkpt><trkpt lat="36.89834928495951" lon="15.006713715075879"><ele>230.00000000000003</ele><time>2026-03-28T16:20:42Z</time></trkpt><trkpt lat="36.8983905147429" lon="15.006788788730477"><ele>230.0</ele><time>2026-03-28T16:20:44Z</time></trkpt><trkpt lat="36.89842384715191" lon="15.006885417127888"><ele>231.4</ele><time>2026-03-28T16:20:46Z</time></trkpt><trkpt lat="36.8984953770892" lon="15.006961977990633"><ele>232.8</ele><time>2026-03-28T16:20:48Z</time></trkpt><trkpt lat="36.89853315307669" lon="15.007037326623845"><ele>234.2</ele><time>2026-03-28T16:20:50Z</time></trkpt><trkpt lat="36.89860189456476" lon="15.007146059049651"><ele>235.6</ele><time>2026-03-28T16:20:53Z</time></trkpt><trkpt lat="36.89866232137406" lon="15.007251221192286"><ele>237.0</ele><time>2026-03-28T16:20:55Z</time></trkpt><trkpt lat="36.89869904499327" lon="15.007326674695683"><ele>237.0</ele><time>2026-03-28T16:20:57Z</time></trkpt><trkpt lat="36.898765181187784" lon="15.007407639122784"><ele>237.0</ele><time>2026-03-28T16:20:59Z</time></trkpt><trkpt lat="36.898834800800344" lon="15.007466167808888"><ele>237.0</ele><time>2026-03-28T16:21:00Z</time></trkpt><trkpt lat="36.89889658047925" lon="15.007526658269668"><ele>237.0</ele><time>2026-03-28T16:21:02Z</time></trkpt><trkpt lat="36.89896329736187" lon="15.007567284185718"><ele>237.0</ele><time>2026-03-28T16:21:04Z</time></trkpt><trkpt lat="36.899020234085455" lon="15.00760334004448"><ele>237.0</ele><time>2026-03-28T16:21:28Z</time></trkpt><trkpt lat="36.8990895259565" lon="15.007635675566952"><ele>236.85714285714283</ele><time>2026-03-28T16:22:32.001Z</time></trkpt><trkpt lat="36.89916145476008" lon="15.00767640850744"><ele>236.71428571428572</ele><time>2026-03-28T16:23:30Z</time></trkpt><trkpt lat="36.89922426738247" lon="15.00771508842285"><ele>236.57142857142856</ele><time>2026-03-28T16:23:32Z</time></trkpt><trkpt lat="36.89929349205113" lon="15.007755817025007"><ele>236.42857142857142</ele><time>2026-03-28T16:23:36Z</time></trkpt><trkpt lat="36.89935540397975" lon="15.007807134038162"><ele>236.28571428571428</ele><time>2026-03-28T16:23:40Z</time></trkpt><trkpt lat="36.899419029478345" lon="15.00786792745157"><ele>236.14285714285714</ele><time>2026-03-28T16:23:53Z</time></trkpt><trkpt lat="36.8994512088964" lon="15.00793720548677"><ele>236.0</ele><time>2026-03-28T16:23:58Z</time></trkpt><trkpt lat="36.89950657090909" lon="15.00802176558641"><ele>236.00000000000003</ele><time>2026-03-28T16:25:00Z</time></trkpt><trkpt lat="36.89953864394334" lon="15.008098002773727"><ele>236.0</ele><time>2026-03-28T16:25:49Z</time></trkpt><trkpt lat="36.89959515857207" lon="15.008199818956271"><ele>236.0</ele><time>2026-03-28T16:25:51Z</time></trkpt><trkpt lat="36.89962914150214" lon="15.00827583056189"><ele>236.0</ele><time>2026-03-28T16:25:52Z</time></trkpt><trkpt lat="36.89965052828025" lon="15.008371137018184"><ele>236.00000000000003</ele><time>2026-03-28T16:25:53Z</time></trkpt><trkpt lat="36.89969117806799" lon="15.00849190625612"><ele>236.0</ele><time>2026-03-28T16:25:55Z</time></trkpt><trkpt lat="36.89969159947357" lon="15.008622114846192"><ele>235.33333333333334</ele><time>2026-03-28T16:25:58Z</time></trkpt><trkpt lat="36.89972130643458" lon="15.008720349407437"><ele>234.66666666666669</ele><time>2026-03-28T16:26:01Z</time></trkpt><trkpt lat="36.8997492145848" lon="15.008792633268172"><ele>234.0</ele><time>2026-03-28T16:26:03Z</time></trkpt><trkpt lat="36.89978285864434" lon="15.008908392561198"><ele>233.33333333333331</ele><time>2026-03-28T16:26:06Z</time></trkpt><trkpt lat="36.899809070881965" lon="15.009020403237503"><ele>232.66666666666666</ele><time>2026-03-28T16:26:08Z</time></trkpt><trkpt lat="36.899835505008575" lon="15.009118347938259"><ele>232.0</ele><time>2026-03-28T16:26:12Z</time></trkpt><trkpt lat="36.89987597482778" lon="15.009199006847297"><ele>230.66666666666666</ele><time>2026-03-28T16:26:14Z</time></trkpt><trkpt lat="36.89989833908485" lon="15.009289621484003"><ele>229.33333333333331</ele><time>2026-03-28T16:26:16Z</time></trkpt><trkpt lat="36.89994451437494" lon="15.009408806302934"><ele>228.0</ele><time>2026-03-28T16:26:18Z</time></trkpt><trkpt lat="36.89997508469588" lon="15.009488862857857"><ele>226.66666666666669</ele><time>2026-03-28T16:26:19Z</time></trkpt><trkpt lat="36.9000126321391" lon="15.009590889707273"><ele>225.33333333333334</ele><time>2026-03-28T16:26:21Z</time></trkpt><trkpt lat="36.90002865053073" lon="15.009684340647418"><ele>224.0</ele><time>2026-03-28T16:26:23Z</time></trkpt><trkpt lat="36.90005590375672" lon="15.009761760353884"><ele>224.66666666666669</ele><time>2026-03-28T16:26:24Z</time></trkpt><trkpt lat="36.90010492814686" lon="15.009830898309513"><ele>225.33333333333334</ele><time>2026-03-28T16:26:25Z</time></trkpt><trkpt lat="36.900153423515576" lon="15.009909975179347"><ele>226.0</ele><time>2026-03-28T16:26:27Z</time></trkpt><trkpt lat="36.90018133912482" lon="15.009981926432928"><ele>226.66666666666669</ele><time>2026-03-28T16:26:33Z</time></trkpt><trkpt lat="36.900150030257876" lon="15.010076403507808"><ele>227.33333333333334</ele><time>2026-03-28T16:26:35Z</time></trkpt><trkpt lat="36.90016712267694" lon="15.010164408668773"><ele>228.0</ele><time>2026-03-28T16:26:37Z</time></trkpt><trkpt lat="36.90020605919321" lon="15.010293563580978"><ele>228.0</ele><time>2026-03-28T16:26:39Z</time></trkpt><trkpt lat="36.900194306392834" lon="15.010400036005827"><ele>228.0</ele><time>2026-03-28T16:26:41Z</time></trkpt><trkpt lat="36.900217358991384" lon="15.010513028345155"><ele>228.0</ele><time>2026-03-28T16:26:43Z</time></trkpt><trkpt lat="36.90024490491748" lon="15.010622515365739"><ele>228.0</ele><time>2026-03-28T16:26:45Z</time></trkpt><trkpt lat="36.90027831697964" lon="15.010756475449723"><ele>228.0</ele><time>2026-03-28T16:26:47Z</time></trkpt><trkpt lat="36.900295535335054" lon="15.010839513719716"><ele>228.16666666666666</ele><time>2026-03-28T16:26:49Z</time></trkpt><trkpt lat="36.90031368155216" lon="15.010967095356039"><ele>228.33333333333331</ele><time>2026-03-28T16:26:52Z</time></trkpt><trkpt lat="36.90031691349109" lon="15.011062505635188"><ele>228.5</ele><time>2026-03-28T16:26:54Z</time></trkpt><trkpt lat="36.9003214815914" lon="15.011165834313362"><ele>228.66666666666666</ele><time>2026-03-28T16:26:56Z</time></trkpt><trkpt lat="36.90035022905009" lon="15.011261157552845"><ele>228.83333333333331</ele><time>2026-03-28T16:26:58Z</time></trkpt><trkpt lat="36.900396380925535" lon="15.01133532131678"><ele>229.0</ele><time>2026-03-28T16:27:01Z</time></trkpt><trkpt lat="36.90043954083999" lon="15.011453980382536"><ele>228.99999999999997</ele><time>2026-03-28T16:27:03Z</time></trkpt><trkpt lat="36.90046400200959" lon="15.011551186593667"><ele>229.0</ele><time>2026-03-28T16:27:05Z</time></trkpt><trkpt lat="36.90046392445094" lon="15.01164057726495"><ele>229.0</ele><time>2026-03-28T16:27:08Z</time></trkpt><trkpt lat="36.9004581831335" lon="15.011780763989513"><ele>229.0</ele><time>2026-03-28T16:27:12Z</time></trkpt><trkpt lat="36.90047228246524" lon="15.011908681374907"><ele>228.99999999999997</ele><time>2026-03-28T16:27:14Z</time></trkpt><trkpt lat="36.90047755336027" lon="15.01198798204774"><ele>229.0</ele><time>2026-03-28T16:27:15Z</time></trkpt><trkpt lat="36.90048808805469" lon="15.012071169831405"><ele>228.79999999999998</ele><time>2026-03-28T16:27:16Z</time></trkpt><trkpt lat="36.90048868949189" lon="15.012181155983848"><ele>228.59999999999997</ele><time>2026-03-28T16:27:17Z</time></trkpt><trkpt lat="36.900510486793834" lon="15.012309138677951"><ele>228.4</ele><time>2026-03-28T16:27:18Z</time></trkpt><trkpt lat="36.90055701204335" lon="15.012432299131653"><ele>228.2</ele><time>2026-03-28T16:27:19Z</time></trkpt><trkpt lat="36.90058304652156" lon="15.012533752369679"><ele>228.0</ele><time>2026-03-28T16:27:20Z</time></trkpt><trkpt lat="36.90061195945163" lon="15.01261598772447"><ele>228.4</ele><time>2026-03-28T16:27:21Z</time></trkpt><trkpt lat="36.900641238404994" lon="15.012694956724097"><ele>228.8</ele><time>2026-03-28T16:27:22Z</time></trkpt><trkpt lat="36.90068170069543" lon="15.012829111044176"><ele>229.2</ele><time>2026-03-28T16:27:24Z</time></trkpt><trkpt lat="36.900719105088804" lon="15.012910812321476"><ele>229.6</ele><time>2026-03-28T16:27:26Z</time></trkpt><trkpt lat="36.90076390229288" lon="15.012976619433616"><ele>230.0</ele><time>2026-03-28T16:36:18Z</time></trkpt><trkpt lat="36.90081439421369" lon="15.013118403292163"><ele>230.00000000000003</ele><time>2026-03-28T16:36:20Z</time></trkpt><trkpt lat="36.900851671594346" lon="15.013199617397321"><ele>230.0</ele><time>2026-03-28T16:36:21Z</time></trkpt><trkpt lat="36.900888084235504" lon="15.013282275773387"><ele>230.0</ele><time>2026-03-28T16:36:22Z</time></trkpt><trkpt lat="36.90092948724427" lon="15.013368075315498"><ele>230.0</ele><time>2026-03-28T16:36:23Z</time></trkpt><trkpt lat="36.90097068696089" lon="15.013455434387257"><ele>230.00000000000003</ele><time>2026-03-28T16:36:24Z</time></trkpt><trkpt lat="36.90101652978582" lon="15.013546971798966"><ele>230.0</ele><time>2026-03-28T16:36:25Z</time></trkpt><trkpt lat="36.901059476639645" lon="15.013621787065029"><ele>232.4</ele><time>2026-03-28T16:36:26Z</time></trkpt><trkpt lat="36.901129834138764" lon="15.01376550242315"><ele>234.8</ele><time>2026-03-28T16:36:28Z</time></trkpt><trkpt lat="36.90117544734909" lon="15.013844645866719"><ele>237.2</ele><time>2026-03-28T16:36:29Z</time></trkpt><trkpt lat="36.90122062261906" lon="15.013916152801537"><ele>239.6</ele><time>2026-03-28T16:36:30Z</time></trkpt><trkpt lat="36.90126468971533" lon="15.014004934867382"><ele>242.0</ele><time>2026-03-28T16:36:31Z</time></trkpt><trkpt lat="36.90131851806521" lon="15.014100648720838"><ele>240.6</ele><time>2026-03-28T16:36:32Z</time></trkpt><trkpt lat="36.9013715814258" lon="15.014211162097766"><ele>239.2</ele><time>2026-03-28T16:36:33Z</time></trkpt><trkpt lat="36.901425855472695" lon="15.014328157373175"><ele>237.8</ele><time>2026-03-28T16:36:34Z</time></trkpt><trkpt lat="36.90147460974208" lon="15.01442791460473"><ele>236.4</ele><time>2026-03-28T16:36:35Z</time></trkpt><trkpt lat="36.901521619764296" lon="15.014520158708539"><ele>235.0</ele><time>2026-03-28T16:36:36Z</time></trkpt><trkpt lat="36.90156940615379" lon="15.014623775173083"><ele>235.0</ele><time>2026-03-28T16:36:37Z</time></trkpt><trkpt lat="36.901620720003216" lon="15.014728349259979"><ele>235.0</ele><time>2026-03-28T16:36:38Z</time></trkpt><trkpt lat="36.901678993142" lon="15.014842073331552"><ele>235.0</ele><time>2026-03-28T16:36:39Z</time></trkpt><trkpt lat="36.90172935430052" lon="15.014950424496615"><ele>235.0</ele><time>2026-03-28T16:36:40Z</time></trkpt><trkpt lat="36.901788787574965" lon="15.015051565865974"><ele>235.0</ele><time>2026-03-28T16:36:41Z</time></trkpt><trkpt lat="36.90185063129655" lon="15.015166582746275"><ele>235.4</ele><time>2026-03-28T16:36:42Z</time></trkpt><trkpt lat="36.90191825254717" lon="15.015293447005957"><ele>235.8</ele><time>2026-03-28T16:36:43Z</time></trkpt><trkpt lat="36.90198061120928" lon="15.015410768479251"><ele>236.2</ele><time>2026-03-28T16:36:44Z</time></trkpt><trkpt lat="36.902034340862066" lon="15.015513259775785"><ele>236.6</ele><time>2026-03-28T16:36:45Z</time></trkpt><trkpt lat="36.90208538391876" lon="15.015609771464232"><ele>237.0</ele><time>2026-03-28T16:36:46Z</time></trkpt><trkpt lat="36.90213841919724" lon="15.015700007654898"><ele>237.0</ele><time>2026-03-28T16:36:47Z</time></trkpt><trkpt lat="36.90218632155943" lon="15.015790445111717"><ele>237.0</ele><time>2026-03-28T16:36:48Z</time></trkpt><trkpt lat="36.9022282928321" lon="15.015862575957199"><ele>237.0</ele><time>2026-03-28T16:36:49Z</time></trkpt><trkpt lat="36.90233826531522" lon="15.015958249753028"><ele>237.0</ele><time>2026-03-28T16:36:51Z</time></trkpt><trkpt lat="36.90240582614323" lon="15.0159960923445"><ele>237.0</ele><time>2026-03-28T16:36:52Z</time></trkpt><trkpt lat="36.90246898978318" lon="15.016029640507046"><ele>237.0</ele><time>2026-03-28T16:36:53Z</time></trkpt><trkpt lat="36.90253522480004" lon="15.01604722324626"><ele>235.0</ele><time>2026-03-28T16:36:54Z</time></trkpt><trkpt lat="36.90262257138733" lon="15.016048198811417"><ele>233.0</ele><time>2026-03-28T16:36:55Z</time></trkpt><trkpt lat="36.90272885455384" lon="15.01605363844608"><ele>231.0</ele><time>2026-03-28T16:36:56Z</time></trkpt><trkpt lat="36.902822822038644" lon="15.016073853332584"><ele>229.0</ele><time>2026-03-28T16:36:57Z</time></trkpt><trkpt lat="36.90288748863132" lon="15.01612113851395"><ele>227.0</ele><time>2026-03-28T16:36:58Z</time></trkpt><trkpt lat="36.90296542290818" lon="15.016156890376362"><ele>225.0</ele><time>2026-03-28T16:36:59Z</time></trkpt><trkpt lat="36.903064789360265" lon="15.016242533515813"><ele>225.0</ele><time>2026-03-28T16:37:00Z</time></trkpt><trkpt lat="36.90313231882494" lon="15.016340817745037"><ele>225.0</ele><time>2026-03-28T16:37:01Z</time></trkpt><trkpt lat="36.903189950354076" lon="15.016411265221267"><ele>225.0</ele><time>2026-03-28T16:37:02Z</time></trkpt><trkpt lat="36.90324626173749" lon="15.016483164856911"><ele>225.0</ele><time>2026-03-28T16:37:03Z</time></trkpt><trkpt lat="36.90332667579356" lon="15.01656009709818"><ele>225.0</ele><time>2026-03-28T16:37:04Z</time></trkpt><trkpt lat="36.903379731035045" lon="15.016645078638405"><ele>224.0</ele><time>2026-03-28T16:37:05Z</time></trkpt><trkpt lat="36.90345661190382" lon="15.016734329752941"><ele>223.0</ele><time>2026-03-28T16:37:06Z</time></trkpt><trkpt lat="36.90353132379613" lon="15.016814932371535"><ele>222.0</ele><time>2026-03-28T16:37:07Z</time></trkpt><trkpt lat="36.903595504369726" lon="15.016885666357709"><ele>221.0</ele><time>2026-03-28T16:37:08Z</time></trkpt><trkpt lat="36.903657218336846" lon="15.016959858588375"><ele>220.0</ele><time>2026-03-28T16:37:09Z</time></trkpt><trkpt lat="36.90371700995784" lon="15.017020055516431"><ele>220.0</ele><time>2026-03-28T16:37:10Z</time></trkpt><trkpt lat="36.903774797393126" lon="15.017076823430399"><ele>220.0</ele><time>2026-03-28T16:37:11Z</time></trkpt><trkpt lat="36.9038219450255" lon="15.017139816506692"><ele>220.0</ele><time>2026-03-28T16:37:12Z</time></trkpt><trkpt lat="36.903868939625106" lon="15.017263255223419"><ele>220.0</ele><time>2026-03-28T16:37:14Z</time></trkpt><trkpt lat="36.90379834559749" lon="15.017335541132773"><ele>220.0</ele><time>2026-03-28T16:37:16Z</time></trkpt><trkpt lat="36.90365631349037" lon="15.017354691859024"><ele>220.0</ele><time>2026-03-28T16:37:18Z</time></trkpt><trkpt lat="36.903553137598685" lon="15.017325231359779"><ele>220.0</ele><time>2026-03-28T16:37:19Z</time></trkpt><trkpt lat="36.903481567611685" lon="15.017349313973645"><ele>220.0</ele><time>2026-03-28T16:37:20Z</time></trkpt><trkpt lat="36.90339239328903" lon="15.01737594957644"><ele>220.0</ele><time>2026-03-28T16:37:22Z</time></trkpt><trkpt lat="36.90335908175114" lon="15.01749782677853"><ele>220.0</ele><time>2026-03-28T16:37:24Z</time></trkpt><trkpt lat="36.90342160621474" lon="15.017620761342469"><ele>220.8</ele><time>2026-03-28T16:37:26Z</time></trkpt><trkpt lat="36.90350506059574" lon="15.01763671836335"><ele>221.6</ele><time>2026-03-28T16:37:27Z</time></trkpt><trkpt lat="36.90358576035173" lon="15.01765082365955"><ele>222.39999999999998</ele><time>2026-03-28T16:37:28Z</time></trkpt><trkpt lat="36.90369763357237" lon="15.017688275951985"><ele>223.2</ele><time>2026-03-28T16:37:29Z</time></trkpt><trkpt lat="36.90379353487563" lon="15.017705595294732"><ele>224.0</ele><time>2026-03-28T16:37:30Z</time></trkpt><trkpt lat="36.90391324563141" lon="15.017795141224605"><ele>224.0</ele><time>2026-03-28T16:37:32Z</time></trkpt><trkpt lat="36.9039981435406" lon="15.017927178844081"><ele>224.0</ele><time>2026-03-28T16:37:33Z</time></trkpt><trkpt lat="36.9041264486558" lon="15.018057414603218"><ele>224.0</ele><time>2026-03-28T16:37:34Z</time></trkpt><trkpt lat="36.90425263373248" lon="15.018168185662802"><ele>225.25</ele><time>2026-03-28T16:37:35Z</time></trkpt><trkpt lat="36.90433354211274" lon="15.018248199810099"><ele>226.5</ele><time>2026-03-28T16:37:36Z</time></trkpt><trkpt lat="36.90437762989338" lon="15.018342971078237"><ele>227.75</ele><time>2026-03-28T16:37:37Z</time></trkpt><trkpt lat="36.904427581459835" lon="15.018510853692227"><ele>229.0</ele><time>2026-03-28T16:37:38Z</time></trkpt><trkpt lat="36.904466625802996" lon="15.018695568852248"><ele>230.79999999999998</ele><time>2026-03-28T16:37:39Z</time></trkpt><trkpt lat="36.90447145718188" lon="15.018805176454341"><ele>232.59999999999997</ele><time>2026-03-28T16:37:40Z</time></trkpt><trkpt lat="36.90441894625877" lon="15.018870636515814"><ele>234.4</ele><time>2026-03-28T16:37:41Z</time></trkpt><trkpt lat="36.904404180460745" lon="15.018998553208633"><ele>236.2</ele><time>2026-03-28T16:37:42Z</time></trkpt><trkpt lat="36.90439481589484" lon="15.019149472381768"><ele>238.0</ele><time>2026-03-28T16:37:43Z</time></trkpt><trkpt lat="36.90440689731338" lon="15.019367599601681"><ele>242.33333333333331</ele><time>2026-03-28T16:37:44Z</time></trkpt><trkpt lat="36.90440872406319" lon="15.019629927483471"><ele>246.66666666666669</ele><time>2026-03-28T16:37:45Z</time></trkpt><trkpt lat="36.9043769209522" lon="15.019818360078373"><ele>251.0</ele><time>2026-03-28T16:37:46Z</time></trkpt><trkpt lat="36.90435761032702" lon="15.01994445637964"><ele>251.4</ele><time>2026-03-28T16:37:47Z</time></trkpt><trkpt lat="36.90433547837338" lon="15.020044560394865"><ele>251.8</ele><time>2026-03-28T16:37:48Z</time></trkpt><trkpt lat="36.904286463106786" lon="15.020142180237018"><ele>252.20000000000002</ele><time>2026-03-28T16:37:49Z</time></trkpt><trkpt lat="36.90421848213391" lon="15.020223251006707"><ele>252.60000000000002</ele><time>2026-03-28T16:37:50Z</time></trkpt><trkpt lat="36.90414542344281" lon="15.020313646945876"><ele>253.0</ele><time>2026-03-28T16:37:51Z</time></trkpt><trkpt lat="36.9040862581772" lon="15.020402277280235"><ele>252.99999999999997</ele><time>2026-03-28T16:37:52Z</time></trkpt><trkpt lat="36.90403978814773" lon="15.020462066247719"><ele>253.0</ele><time>2026-03-28T16:37:53Z</time></trkpt><trkpt lat="36.903958988255624" lon="15.020538938378907"><ele>253.0</ele><time>2026-03-28T16:37:55Z</time></trkpt><trkpt lat="36.90393253107224" lon="15.020612717386872"><ele>253.0</ele><time>2026-03-28T16:37:58Z</time></trkpt><trkpt lat="36.90387802798707" lon="15.020728011863142"><ele>252.99999999999997</ele><time>2026-03-28T16:38:01Z</time></trkpt><trkpt lat="36.903844210145" lon="15.020802425913518"><ele>253.0</ele><time>2026-03-28T16:38:02Z</time></trkpt><trkpt lat="36.903799978459126" lon="15.020873088272236"><ele>256.6</ele><time>2026-03-28T16:38:03Z</time></trkpt><trkpt lat="36.903748809915555" lon="15.02095768234774"><ele>260.20000000000005</ele><time>2026-03-28T16:38:04Z</time></trkpt><trkpt lat="36.90370109521561" lon="15.0210621606723"><ele>263.8</ele><time>2026-03-28T16:38:05Z</time></trkpt><trkpt lat="36.903673521593255" lon="15.021181690322646"><ele>267.40000000000003</ele><time>2026-03-28T16:38:06Z</time></trkpt><trkpt lat="36.903650157536916" lon="15.021302622412698"><ele>271.0</ele><time>2026-03-28T16:38:07Z</time></trkpt><trkpt lat="36.9036356022121" lon="15.02143209932971"><ele>271.0</ele><time>2026-03-28T16:38:08Z</time></trkpt><trkpt lat="36.903633398107985" lon="15.021604030799741"><ele>271.0</ele><time>2026-03-28T16:38:09Z</time></trkpt><trkpt lat="36.90363388746646" lon="15.021800637988402"><ele>271.0</ele><time>2026-03-28T16:38:10Z</time></trkpt><trkpt lat="36.903645050530656" lon="15.022008938170135"><ele>274.0</ele><time>2026-03-28T16:38:11Z</time></trkpt><trkpt lat="36.90366204628043" lon="15.02217658549527"><ele>277.0</ele><time>2026-03-28T16:38:12Z</time></trkpt><trkpt lat="36.903689025772515" lon="15.02232913917875"><ele>280.0</ele><time>2026-03-28T16:38:13Z</time></trkpt><trkpt lat="36.90372699560484" lon="15.02245864490898"><ele>283.0</ele><time>2026-03-28T16:38:14Z</time></trkpt><trkpt lat="36.90377674691384" lon="15.022571160249164"><ele>283.2</ele><time>2026-03-28T16:38:15Z</time></trkpt><trkpt lat="36.90384102443085" lon="15.022675614729284"><ele>283.4</ele><time>2026-03-28T16:38:16Z</time></trkpt><trkpt lat="36.9039096548861" lon="15.022746972192532"><ele>283.59999999999997</ele><time>2026-03-28T16:38:17Z</time></trkpt><trkpt lat="36.903998316325264" lon="15.022826224322436"><ele>283.8</ele><time>2026-03-28T16:38:18Z</time></trkpt><trkpt lat="36.9041102433751" lon="15.022923565000506"><ele>284.0</ele><time>2026-03-28T16:38:19Z</time></trkpt><trkpt lat="36.90421415627597" lon="15.023030885180225"><ele>285.0</ele><time>2026-03-28T16:38:20Z</time></trkpt><trkpt lat="36.90429836961576" lon="15.0231296860677"><ele>286.0</ele><time>2026-03-28T16:38:21Z</time></trkpt><trkpt lat="36.904371611308164" lon="15.023203376457431"><ele>287.0</ele><time>2026-03-28T16:38:22Z</time></trkpt><trkpt lat="36.904441194504464" lon="15.023258870059141"><ele>288.0</ele><time>2026-03-28T16:38:23Z</time></trkpt><trkpt lat="36.90451456508149" lon="15.023317703800032"><ele>289.0</ele><time>2026-03-28T16:38:24Z</time></trkpt><trkpt lat="36.90457976958368" lon="15.023391231669144"><ele>289.0</ele><time>2026-03-28T16:38:25Z</time></trkpt><trkpt lat="36.90461185437857" lon="15.023477938124172"><ele>289.0</ele><time>2026-03-28T16:38:26Z</time></trkpt><trkpt lat="36.904618273483074" lon="15.02358867897783"><ele>289.0</ele><time>2026-03-28T16:38:27Z</time></trkpt><trkpt lat="36.90461236959071" lon="15.023737139001387"><ele>289.0</ele><time>2026-03-28T16:38:28Z</time></trkpt><trkpt lat="36.90460701228374" lon="15.023893698454486"><ele>289.0</ele><time>2026-03-28T16:38:29Z</time></trkpt><trkpt lat="36.90461728927435" lon="15.024041715276335"><ele>288.5</ele><time>2026-03-28T16:38:30Z</time></trkpt><trkpt lat="36.904649654116675" lon="15.024172015030592"><ele>288.0</ele><time>2026-03-28T16:38:31Z</time></trkpt><trkpt lat="36.90470456611566" lon="15.024290291010905"><ele>287.5</ele><time>2026-03-28T16:38:32Z</time></trkpt><trkpt lat="36.90478021924809" lon="15.02438872310565"><ele>287.0</ele><time>2026-03-28T16:38:33Z</time></trkpt><trkpt lat="36.904884703076235" lon="15.024468099119701"><ele>287.0</ele><time>2026-03-28T16:38:34Z</time></trkpt><trkpt lat="36.90502811343741" lon="15.02454688735593"><ele>287.0</ele><time>2026-03-28T16:38:35Z</time></trkpt><trkpt lat="36.905165880540245" lon="15.024634507480746"><ele>287.0</ele><time>2026-03-28T16:38:36Z</time></trkpt><trkpt lat="36.90527399669274" lon="15.024728494907508"><ele>287.0</ele><time>2026-03-28T16:38:37Z</time></trkpt><trkpt lat="36.905359911159515" lon="15.024826195719717"><ele>288.75</ele><time>2026-03-28T16:38:38Z</time></trkpt><trkpt lat="36.905417194645835" lon="15.024966443206315"><ele>290.5</ele><time>2026-03-28T16:38:39Z</time></trkpt><trkpt lat="36.905490701899524" lon="15.025103479734664"><ele>292.25</ele><time>2026-03-28T16:38:40Z</time></trkpt><trkpt lat="36.90557658424707" lon="15.025234049070152"><ele>294.0</ele><time>2026-03-28T16:38:41Z</time></trkpt><trkpt lat="36.90567253560613" lon="15.025349638851806"><ele>294.0</ele><time>2026-03-28T16:38:42Z</time></trkpt><trkpt lat="36.905778100719566" lon="15.025438832612371"><ele>294.0</ele><time>2026-03-28T16:38:43Z</time></trkpt><trkpt lat="36.90588126654991" lon="15.02550516739199"><ele>294.0</ele><time>2026-03-28T16:38:44Z</time></trkpt><trkpt lat="36.90599280056769" lon="15.025552503997124"><ele>294.0</ele><time>2026-03-28T16:38:45Z</time></trkpt><trkpt lat="36.906107688448486" lon="15.0255878681916"><ele>296.4</ele><time>2026-03-28T16:38:46Z</time></trkpt><trkpt lat="36.90621977983886" lon="15.025611437865496"><ele>298.79999999999995</ele><time>2026-03-28T16:38:47Z</time></trkpt><trkpt lat="36.90633488291402" lon="15.025617023310918"><ele>301.20000000000005</ele><time>2026-03-28T16:38:48Z</time></trkpt><trkpt lat="36.90642501451585" lon="15.025609312689015"><ele>303.6</ele><time>2026-03-28T16:38:49Z</time></trkpt><trkpt lat="36.90650514794327" lon="15.025622647704816"><ele>306.0</ele><time>2026-03-28T16:38:50Z</time></trkpt><trkpt lat="36.906570763449004" lon="15.025675507452377"><ele>306.0</ele><time>2026-03-28T16:38:51Z</time></trkpt><trkpt lat="36.906630175949154" lon="15.02576872580365"><ele>306.0</ele><time>2026-03-28T16:38:52Z</time></trkpt><trkpt lat="36.90667860752736" lon="15.0259030699061"><ele>306.0</ele><time>2026-03-28T16:38:53Z</time></trkpt><trkpt lat="36.906714770436125" lon="15.026032619250387"><ele>306.0</ele><time>2026-03-28T16:38:54Z</time></trkpt><trkpt lat="36.90677449114593" lon="15.026132139242868"><ele>306.0</ele><time>2026-03-28T16:38:55Z</time></trkpt><trkpt lat="36.90686111138635" lon="15.026201393666225"><ele>304.0</ele><time>2026-03-28T16:38:56Z</time></trkpt><trkpt lat="36.90697353094336" lon="15.026245314743123"><ele>302.0</ele><time>2026-03-28T16:38:57Z</time></trkpt><trkpt lat="36.90710325050943" lon="15.026269629822291"><ele>300.0</ele><time>2026-03-28T16:38:58Z</time></trkpt><trkpt lat="36.907247247178496" lon="15.026283806302576"><ele>298.0</ele><time>2026-03-28T16:38:59Z</time></trkpt><trkpt lat="36.907379055657316" lon="15.026304640553002"><ele>298.0</ele><time>2026-03-28T16:39:00Z</time></trkpt><trkpt lat="36.907490088268894" lon="15.026323600259133"><ele>298.0</ele><time>2026-03-28T16:39:01Z</time></trkpt><trkpt lat="36.90759139964262" lon="15.026334316120755"><ele>298.0</ele><time>2026-03-28T16:39:02Z</time></trkpt><trkpt lat="36.90767945396409" lon="15.026329203384282"><ele>298.0</ele><time>2026-03-28T16:39:03Z</time></trkpt><trkpt lat="36.90776176775776" lon="15.026309119593002"><ele>298.0</ele><time>2026-03-28T16:39:04Z</time></trkpt><trkpt lat="36.9078336687347" lon="15.026294027674012"><ele>298.16666666666663</ele><time>2026-03-28T16:39:05Z</time></trkpt><trkpt lat="36.907896776067524" lon="15.02637174647525"><ele>298.3333333333333</ele><time>2026-03-28T16:39:07Z</time></trkpt><trkpt lat="36.90789957398945" lon="15.02646954368587"><ele>298.5</ele><time>2026-03-28T16:39:09Z</time></trkpt><trkpt lat="36.90789045135555" lon="15.026592620284472"><ele>298.6666666666667</ele><time>2026-03-28T16:40:22Z</time></trkpt><trkpt lat="36.907864420882" lon="15.026689942745191"><ele>298.83333333333337</ele><time>2026-03-28T16:40:25Z</time></trkpt><trkpt lat="36.90789640871458" lon="15.026785873414166"><ele>299.0</ele><time>2026-03-28T16:40:27Z</time></trkpt><trkpt lat="36.90787989788306" lon="15.026865615324098"><ele>299.0</ele><time>2026-03-28T16:40:30Z</time></trkpt><trkpt lat="36.907905509407584" lon="15.026771550228519"><ele>299.0</ele><time>2026-03-28T16:41:03Z</time></trkpt><trkpt lat="36.907844855067616" lon="15.026819360440276"><ele>299.0</ele><time>2026-03-28T16:41:09Z</time></trkpt><trkpt lat="36.9078526403369" lon="15.026901769673398"><ele>299.0</ele><time>2026-03-28T16:42:34Z</time></trkpt><trkpt lat="36.90785023834212" lon="15.027017785340746"><ele>299.0</ele><time>2026-03-28T16:42:37Z</time></trkpt><trkpt lat="36.90756525649503" lon="15.02696211217388"><ele>296.1666666666667</ele><time>2026-03-28T16:42:39Z</time></trkpt><trkpt lat="36.90752730450737" lon="15.027026482214353"><ele>293.33333333333337</ele><time>2026-03-28T16:42:40Z</time></trkpt><trkpt lat="36.907474222880026" lon="15.027133075697089"><ele>290.5</ele><time>2026-03-28T16:42:41Z</time></trkpt><trkpt lat="36.907448941361125" lon="15.027223012084907"><ele>287.6666666666667</ele><time>2026-03-28T16:42:42Z</time></trkpt><trkpt lat="36.90743019020595" lon="15.027332393725553"><ele>284.8333333333333</ele><time>2026-03-28T16:42:44Z</time></trkpt><trkpt lat="36.9074278702186" lon="15.027451013373943"><ele>282.0</ele><time>2026-03-28T16:42:45Z</time></trkpt><trkpt lat="36.90742624948202" lon="15.027534947236761"><ele>281.3333333333333</ele><time>2026-03-28T16:42:46Z</time></trkpt><trkpt lat="36.907416023300854" lon="15.027633350032026"><ele>280.6666666666667</ele><time>2026-03-28T16:42:47Z</time></trkpt><trkpt lat="36.90739716960899" lon="15.027714358100132"><ele>280.0</ele><time>2026-03-28T16:42:48Z</time></trkpt><trkpt lat="36.907345603445826" lon="15.027802956752717"><ele>279.33333333333337</ele><time>2026-03-28T16:42:50Z</time></trkpt><trkpt lat="36.9072963088794" lon="15.02791029943284"><ele>278.6666666666667</ele><time>2026-03-28T16:42:51Z</time></trkpt><trkpt lat="36.90725175741098" lon="15.0280259277032"><ele>278.0</ele><time>2026-03-28T16:42:52Z</time></trkpt><trkpt lat="36.90722226256503" lon="15.028115483473357"><ele>278.0</ele><time>2026-03-28T16:42:53Z</time></trkpt><trkpt lat="36.90719739101128" lon="15.028193667315934"><ele>278.0</ele><time>2026-03-28T16:42:54Z</time></trkpt><trkpt lat="36.90715746631285" lon="15.028320746055366"><ele>278.0</ele><time>2026-03-28T16:42:56Z</time></trkpt><trkpt lat="36.90710863977591" lon="15.028509689863611"><ele>278.0</ele><time>2026-03-28T16:42:58Z</time></trkpt><trkpt lat="36.90707862990239" lon="15.028761494324577"><ele>282.0</ele><time>2026-03-28T16:42:59Z</time></trkpt><trkpt lat="36.90762035258138" lon="15.028768440875877"><ele>282.0</ele><time>2026-03-28T16:43:00Z</time></trkpt><trkpt lat="36.90765727093085" lon="15.028846440613075"><ele>282.0</ele><time>2026-03-28T16:43:03Z</time></trkpt><trkpt lat="36.90771553382535" lon="15.028944133283597"><ele>282.0</ele><time>2026-03-28T16:43:06Z</time></trkpt><trkpt lat="36.907779187197455" lon="15.028945216423075"><ele>282.0</ele><time>2026-03-28T16:43:08Z</time></trkpt><trkpt lat="36.90784120948799" lon="15.028893335586345"><ele>282.0</ele><time>2026-03-28T16:43:10Z</time></trkpt><trkpt lat="36.90790267532987" lon="15.028858856048872"><ele>282.0</ele><time>2026-03-28T16:43:11Z</time></trkpt><trkpt lat="36.9079854700705" lon="15.028831780718232"><ele>282.0</ele><time>2026-03-28T16:43:12Z</time></trkpt><trkpt lat="36.90806354098195" lon="15.028824505943998"><ele>282.0</ele><time>2026-03-28T16:43:13Z</time></trkpt><trkpt lat="36.90815366493423" lon="15.02882561213895"><ele>282.0</ele><time>2026-03-28T16:43:14Z</time></trkpt><trkpt lat="36.908228797560206" lon="15.028829347293351"><ele>282.0</ele><time>2026-03-28T16:43:15Z</time></trkpt><trkpt lat="36.908298637512516" lon="15.028816249791491"><ele>282.0</ele><time>2026-03-28T16:43:16Z</time></trkpt><trkpt lat="36.90838094694427" lon="15.028779932817793"><ele>282.0</ele><time>2026-03-28T16:43:17Z</time></trkpt><trkpt lat="36.90845597093559" lon="15.028721168966246"><ele>281.2</ele><time>2026-03-28T16:43:18Z</time></trkpt><trkpt lat="36.908545412632755" lon="15.02867648120613"><ele>280.4</ele><time>2026-03-28T16:43:19Z</time></trkpt><trkpt lat="36.908638641790816" lon="15.02861642808215"><ele>279.6</ele><time>2026-03-28T16:43:20Z</time></trkpt><trkpt lat="36.9087193609817" lon="15.028551705721691"><ele>278.8</ele><time>2026-03-28T16:43:21Z</time></trkpt><trkpt lat="36.90877792510738" lon="15.028497212787803"><ele>278.0</ele><time>2026-03-28T16:43:22Z</time></trkpt><trkpt lat="36.908862348231146" lon="15.028395953121937"><ele>281.6</ele><time>2026-03-28T16:43:23Z</time></trkpt><trkpt lat="36.908956236229784" lon="15.028286233676361"><ele>285.20000000000005</ele><time>2026-03-28T16:43:24Z</time></trkpt><trkpt lat="36.90904471494483" lon="15.028194958211373"><ele>288.8</ele><time>2026-03-28T16:43:25Z</time></trkpt><trkpt lat="36.90911828416081" lon="15.028108557328574"><ele>292.40000000000003</ele><time>2026-03-28T16:43:26Z</time></trkpt><trkpt lat="36.90917323961625" lon="15.028021202392285"><ele>296.0</ele><time>2026-03-28T16:43:27Z</time></trkpt><trkpt lat="36.90923716089078" lon="15.027936384325065"><ele>295.2</ele><time>2026-03-28T16:43:28Z</time></trkpt><trkpt lat="36.90932761365001" lon="15.027856411566415"><ele>294.40000000000003</ele><time>2026-03-28T16:43:29Z</time></trkpt><trkpt lat="36.90941305312819" lon="15.027781274762411"><ele>293.6</ele><time>2026-03-28T16:43:30Z</time></trkpt><trkpt lat="36.90950301584755" lon="15.027696784471493"><ele>292.8</ele><time>2026-03-28T16:43:31Z</time></trkpt><trkpt lat="36.90959009869075" lon="15.027659754093854"><ele>292.0</ele><time>2026-03-28T16:43:32Z</time></trkpt><trkpt lat="36.90973596910115" lon="15.027634575530177"><ele>292.0</ele><time>2026-03-28T16:43:34Z</time></trkpt><trkpt lat="36.90983132469595" lon="15.027620382033659"><ele>292.0</ele><time>2026-03-28T16:43:35Z</time></trkpt><trkpt lat="36.909964757093945" lon="15.027619678224369"><ele>292.0</ele><time>2026-03-28T16:43:36Z</time></trkpt><trkpt lat="36.910092857990094" lon="15.027616297218737"><ele>292.0</ele><time>2026-03-28T16:43:37Z</time></trkpt><trkpt lat="36.910194443730674" lon="15.027611908105996"><ele>291.16666666666663</ele><time>2026-03-28T16:43:38Z</time></trkpt><trkpt lat="36.91028711823721" lon="15.027607953942399"><ele>290.3333333333333</ele><time>2026-03-28T16:43:39Z</time></trkpt><trkpt lat="36.910378274652565" lon="15.027604266213713"><ele>289.5</ele><time>2026-03-28T16:43:40Z</time></trkpt><trkpt lat="36.91044985791429" lon="15.027579091323684"><ele>288.6666666666667</ele><time>2026-03-28T16:43:41Z</time></trkpt><trkpt lat="36.91052063947482" lon="15.0275334788621"><ele>287.83333333333337</ele><time>2026-03-28T16:43:42Z</time></trkpt><trkpt lat="36.91059989218454" lon="15.027476763815347"><ele>287.0</ele><time>2026-03-28T16:43:43Z</time></trkpt><trkpt lat="36.91070448367401" lon="15.02739852489352"><ele>288.6</ele><time>2026-03-28T16:43:44Z</time></trkpt><trkpt lat="36.91081229272844" lon="15.027335124917586"><ele>290.2</ele><time>2026-03-28T16:43:45Z</time></trkpt><trkpt lat="36.910879308607186" lon="15.02727087008404"><ele>291.8</ele><time>2026-03-28T16:43:46Z</time></trkpt><trkpt lat="36.91093408750865" lon="15.027191351232009"><ele>293.4</ele><time>2026-03-28T16:43:47Z</time></trkpt><trkpt lat="36.91098448010116" lon="15.02709710479472"><ele>295.0</ele><time>2026-03-28T16:43:48Z</time></trkpt><trkpt lat="36.91105995105268" lon="15.027016183070025"><ele>295.0</ele><time>2026-03-28T16:43:49Z</time></trkpt><trkpt lat="36.9111501699861" lon="15.02694666594665"><ele>295.0</ele><time>2026-03-28T16:43:50Z</time></trkpt><trkpt lat="36.911227388150905" lon="15.02689573104127"><ele>295.0</ele><time>2026-03-28T16:43:51Z</time></trkpt><trkpt lat="36.911324544352254" lon="15.02685084347176"><ele>295.0</ele><time>2026-03-28T16:43:52Z</time></trkpt><trkpt lat="36.91143288548669" lon="15.026807665768668"><ele>295.0</ele><time>2026-03-28T16:43:53Z</time></trkpt><trkpt lat="36.91152177047847" lon="15.026774603123389"><ele>295.0</ele><time>2026-03-28T16:43:54Z</time></trkpt><trkpt lat="36.91161800870024" lon="15.02675134383806"><ele>295.0</ele><time>2026-03-28T16:43:55Z</time></trkpt><trkpt lat="36.91172941503036" lon="15.026745491647851"><ele>295.0</ele><time>2026-03-28T16:43:56Z</time></trkpt><trkpt lat="36.9118723117832" lon="15.026740850673717"><ele>295.0</ele><time>2026-03-28T16:43:57Z</time></trkpt><trkpt lat="36.91199619285221" lon="15.026732560144568"><ele>294.75</ele><time>2026-03-28T16:43:58Z</time></trkpt><trkpt lat="36.91212045330259" lon="15.026710274105158"><ele>294.5</ele><time>2026-03-28T16:43:59Z</time></trkpt><trkpt lat="36.912268421273836" lon="15.02669236298225"><ele>294.25</ele><time>2026-03-28T16:44:00Z</time></trkpt><trkpt lat="36.912395508053784" lon="15.02666884916418"><ele>294.0</ele><time>2026-03-28T16:44:01Z</time></trkpt><trkpt lat="36.912518592148295" lon="15.026625477555275"><ele>300.0</ele><time>2026-03-28T16:44:02Z</time></trkpt><trkpt lat="36.912653766068246" lon="15.026558045588025"><ele>306.0</ele><time>2026-03-28T16:44:03Z</time></trkpt><trkpt lat="36.91278972363965" lon="15.02648176812085"><ele>312.0</ele><time>2026-03-28T16:44:04Z</time></trkpt><trkpt lat="36.91295202444282" lon="15.026423997025407"><ele>312.0</ele><time>2026-03-28T16:44:05Z</time></trkpt><trkpt lat="36.91309970892868" lon="15.02635835456073"><ele>312.0</ele><time>2026-03-28T16:44:06Z</time></trkpt><trkpt lat="36.91325759713441" lon="15.026291906133379"><ele>312.0</ele><time>2026-03-28T16:44:07Z</time></trkpt><trkpt lat="36.91337516456892" lon="15.026242490927991"><ele>312.0</ele><time>2026-03-28T16:44:08Z</time></trkpt><trkpt lat="36.91346933378743" lon="15.02616870501313"><ele>310.8</ele><time>2026-03-28T16:44:09Z</time></trkpt><trkpt lat="36.91356962671294" lon="15.026114997701004"><ele>309.6</ele><time>2026-03-28T16:44:10Z</time></trkpt><trkpt lat="36.91369018038469" lon="15.026087387143901"><ele>308.40000000000003</ele><time>2026-03-28T16:44:11Z</time></trkpt><trkpt lat="36.91378273089481" lon="15.026056339379608"><ele>307.2</ele><time>2026-03-28T16:44:12Z</time></trkpt><trkpt lat="36.913879674929476" lon="15.02600625322939"><ele>306.0</ele><time>2026-03-28T16:44:13Z</time></trkpt><trkpt lat="36.91397072999082" lon="15.025984744320258"><ele>306.0</ele><time>2026-03-28T16:44:14Z</time></trkpt><trkpt lat="36.91405143043765" lon="15.025989759517742"><ele>306.0</ele><time>2026-03-28T16:44:15Z</time></trkpt><trkpt lat="36.91413998829278" lon="15.025958128903232"><ele>306.0</ele><time>2026-03-28T16:44:16Z</time></trkpt><trkpt lat="36.9142475281888" lon="15.025967195294346"><ele>306.0</ele><time>2026-03-28T16:44:17Z</time></trkpt><trkpt lat="36.914343880859214" lon="15.025940216428737"><ele>306.0</ele><time>2026-03-28T16:44:18Z</time></trkpt><trkpt lat="36.91441977107709" lon="15.025951494168488"><ele>305.1666666666667</ele><time>2026-03-28T16:44:19Z</time></trkpt><trkpt lat="36.91448112655608" lon="15.025926318837799"><ele>304.3333333333333</ele><time>2026-03-28T16:44:20Z</time></trkpt><trkpt lat="36.91455287619941" lon="15.025936263820501"><ele>303.5</ele><time>2026-03-28T16:44:21Z</time></trkpt><trkpt lat="36.91463639542482" lon="15.025903943770057"><ele>302.66666666666663</ele><time>2026-03-28T16:44:22Z</time></trkpt><trkpt lat="36.91472988880264" lon="15.025888375157432"><ele>301.8333333333333</ele><time>2026-03-28T16:44:23Z</time></trkpt><trkpt lat="36.91485592386117" lon="15.025851879073706"><ele>301.0</ele><time>2026-03-28T16:44:24Z</time></trkpt><trkpt lat="36.91500511789193" lon="15.025802893619977"><ele>305.5</ele><time>2026-03-28T16:44:25Z</time></trkpt><trkpt lat="36.91517045372605" lon="15.025783635964105"><ele>310.0</ele><time>2026-03-28T16:44:26Z</time></trkpt><trkpt lat="36.91530144641422" lon="15.025742885413603"><ele>314.5</ele><time>2026-03-28T16:44:27Z</time></trkpt><trkpt lat="36.915427993948654" lon="15.025747325088313"><ele>319.0</ele><time>2026-03-28T16:44:28Z</time></trkpt><trkpt lat="36.915555601050336" lon="15.025711511917601"><ele>319.0</ele><time>2026-03-28T16:44:29Z</time></trkpt><trkpt lat="36.91568697765097" lon="15.025705058490761"><ele>319.0</ele><time>2026-03-28T16:44:30Z</time></trkpt><trkpt lat="36.91578240818653" lon="15.025697723892797"><ele>319.0</ele><time>2026-03-28T16:44:31Z</time></trkpt><trkpt lat="36.91585706189056" lon="15.025694669832136"><ele>319.0</ele><time>2026-03-28T16:44:32Z</time></trkpt><trkpt lat="36.91599276982807" lon="15.025694145068051"><ele>319.0</ele><time>2026-03-28T16:44:34Z</time></trkpt><trkpt lat="36.91607717391467" lon="15.025703629912014"><ele>319.3333333333333</ele><time>2026-03-28T16:44:35Z</time></trkpt><trkpt lat="36.91615068946075" lon="15.025730614929888"><ele>319.66666666666663</ele><time>2026-03-28T16:44:36Z</time></trkpt><trkpt lat="36.91622449158275" lon="15.025737591037196"><ele>320.0</ele><time>2026-03-28T16:44:37Z</time></trkpt><trkpt lat="36.91629720426447" lon="15.025765957746994"><ele>320.3333333333333</ele><time>2026-03-28T16:44:38Z</time></trkpt><trkpt lat="36.91638598892415" lon="15.025777032403093"><ele>320.6666666666667</ele><time>2026-03-28T16:44:39Z</time></trkpt><trkpt lat="36.91649848940017" lon="15.025800165323536"><ele>321.0</ele><time>2026-03-28T16:44:40Z</time></trkpt><trkpt lat="36.91659462982968" lon="15.025819241604745"><ele>318.0</ele><time>2026-03-28T16:44:41Z</time></trkpt><trkpt lat="36.91666482034269" lon="15.025835822446009"><ele>315.0</ele><time>2026-03-28T16:44:42Z</time></trkpt><trkpt lat="36.91673443331903" lon="15.025839591004193"><ele>312.0</ele><time>2026-03-28T16:44:43Z</time></trkpt><trkpt lat="36.91684876251956" lon="15.025871375752521"><ele>309.0</ele><time>2026-03-28T16:44:45Z</time></trkpt><trkpt lat="36.91691296836131" lon="15.02587919116543"><ele>306.0</ele><time>2026-03-28T16:44:46Z</time></trkpt><trkpt lat="36.91699344119452" lon="15.025891038743042"><ele>303.0</ele><time>2026-03-28T16:44:47Z</time></trkpt><trkpt lat="36.917104123703496" lon="15.025892131338802"><ele>303.0</ele><time>2026-03-28T16:44:49Z</time></trkpt><trkpt lat="36.91719446722686" lon="15.025895455352638"><ele>303.0</ele><time>2026-03-28T16:44:51Z</time></trkpt><trkpt lat="36.917287696909646" lon="15.025918395249649"><ele>303.0</ele><time>2026-03-28T16:44:53Z</time></trkpt><trkpt lat="36.917361582910914" lon="15.025951334340476"><ele>303.0</ele><time>2026-03-28T16:44:55Z</time></trkpt><trkpt lat="36.91745543812514" lon="15.025993376499136"><ele>303.0</ele><time>2026-03-28T16:44:58Z</time></trkpt><trkpt lat="36.917539640945" lon="15.02601281491974"><ele>303.0</ele><time>2026-03-28T16:45:01Z</time></trkpt><trkpt lat="36.917603783094115" lon="15.02602522420641"><ele>302.6</ele><time>2026-03-28T16:45:03Z</time></trkpt><trkpt lat="36.91771408246445" lon="15.026048346673639"><ele>302.20000000000005</ele><time>2026-03-28T16:45:05Z</time></trkpt><trkpt lat="36.917805636137935" lon="15.026060730548028"><ele>301.8</ele><time>2026-03-28T16:45:08Z</time></trkpt><trkpt lat="36.91787961989228" lon="15.026079784697998"><ele>301.40000000000003</ele><time>2026-03-28T16:45:10Z</time></trkpt><trkpt lat="36.91795383579732" lon="15.026130170639153"><ele>301.0</ele><time>2026-03-28T16:45:12Z</time></trkpt><trkpt lat="36.91805498404211" lon="15.026147007745621"><ele>301.0</ele><time>2026-03-28T16:45:14Z</time></trkpt><trkpt lat="36.91813144603322" lon="15.026182610597143"><ele>301.0</ele><time>2026-03-28T16:45:16Z</time></trkpt><trkpt lat="36.91820453457691" lon="15.026213076416717"><ele>301.0</ele><time>2026-03-28T16:45:17Z</time></trkpt><trkpt lat="36.918293844983566" lon="15.026222694377022"><ele>301.0</ele><time>2026-03-28T16:45:18Z</time></trkpt><trkpt lat="36.91836531701007" lon="15.026235174836712"><ele>301.0</ele><time>2026-03-28T16:45:19Z</time></trkpt><trkpt lat="36.918489645933626" lon="15.026228226932233"><ele>301.0</ele><time>2026-03-28T16:45:21Z</time></trkpt><trkpt lat="36.918588825830355" lon="15.026211907265012"><ele>300.5</ele><time>2026-03-28T16:45:22Z</time></trkpt><trkpt lat="36.91868050490533" lon="15.026219672689802"><ele>300.0</ele><time>2026-03-28T16:45:23Z</time></trkpt><trkpt lat="36.91875817356987" lon="15.026222806882995"><ele>299.5</ele><time>2026-03-28T16:45:24Z</time></trkpt><trkpt lat="36.918849812898074" lon="15.026209826569428"><ele>299.0</ele><time>2026-03-28T16:45:25Z</time></trkpt><trkpt lat="36.91895168573012" lon="15.026224084418748"><ele>298.5</ele><time>2026-03-28T16:45:26Z</time></trkpt><trkpt lat="36.9190153498721" lon="15.026232146753461"><ele>298.0</ele><time>2026-03-28T16:45:27Z</time></trkpt><trkpt lat="36.91911747763381" lon="15.026197861293667"><ele>298.0</ele><time>2026-03-28T16:45:29Z</time></trkpt><trkpt lat="36.919203274982436" lon="15.026171699455471"><ele>298.0</ele><time>2026-03-28T16:45:30Z</time></trkpt><trkpt lat="36.91928004269258" lon="15.026144786034108"><ele>298.0</ele><time>2026-03-28T16:45:31Z</time></trkpt><trkpt lat="36.91937146474072" lon="15.026123841664115"><ele>298.0</ele><time>2026-03-28T16:45:32Z</time></trkpt><trkpt lat="36.919444697105675" lon="15.026096856984543"><ele>298.0</ele><time>2026-03-28T16:45:33Z</time></trkpt><trkpt lat="36.9195130504649" lon="15.026097680014365"><ele>298.0</ele><time>2026-03-28T16:45:34Z</time></trkpt><trkpt lat="36.919601857272255" lon="15.026079105237079"><ele>297.6</ele><time>2026-03-28T16:45:35Z</time></trkpt><trkpt lat="36.91971449805774" lon="15.02608791100159"><ele>297.20000000000005</ele><time>2026-03-28T16:45:36Z</time></trkpt><trkpt lat="36.91979938009154" lon="15.026065883569785"><ele>296.8</ele><time>2026-03-28T16:45:37Z</time></trkpt><trkpt lat="36.919884314539935" lon="15.025920796401685"><ele>296.40000000000003</ele><time>2026-03-28T16:45:39Z</time></trkpt><trkpt lat="36.91997504875457" lon="15.025881139132425"><ele>296.0</ele><time>2026-03-28T16:45:40Z</time></trkpt><trkpt lat="36.92006732950531" lon="15.025841092595149"><ele>294.83333333333337</ele><time>2026-03-28T16:45:41Z</time></trkpt><trkpt lat="36.92013631754234" lon="15.02581195457942"><ele>293.6666666666667</ele><time>2026-03-28T16:45:42Z</time></trkpt><trkpt lat="36.9202255298647" lon="15.025774274576094"><ele>292.5</ele><time>2026-03-28T16:45:44Z</time></trkpt><trkpt lat="36.92028677253978" lon="15.02574840790777"><ele>291.3333333333333</ele><time>2026-03-28T16:45:45Z</time></trkpt><trkpt lat="36.92035694295697" lon="15.025718770491855"><ele>290.16666666666663</ele><time>2026-03-28T16:45:46Z</time></trkpt><trkpt lat="36.92043444138252" lon="15.02568603801576"><ele>289.0</ele><time>2026-03-28T16:45:47Z</time></trkpt><trkpt lat="36.9205048239958" lon="15.025654415934898"><ele>295.0</ele><time>2026-03-28T16:45:48Z</time></trkpt><trkpt lat="36.92060178290514" lon="15.025609575163605"><ele>301.0</ele><time>2026-03-28T16:45:50Z</time></trkpt><trkpt lat="36.92068084993102" lon="15.025544575608409"><ele>307.0</ele><time>2026-03-28T16:45:53Z</time></trkpt><trkpt lat="36.920736099825085" lon="15.025482410134424"><ele>313.0</ele><time>2026-03-28T16:45:55Z</time></trkpt><trkpt lat="36.92110677308037" lon="15.025840584767806"><ele>309.0</ele><time>2026-03-28T16:45:59Z</time></trkpt><trkpt lat="36.921177432453696" lon="15.0257988900412"><ele>305.0</ele><time>2026-03-28T16:46:01Z</time></trkpt><trkpt lat="36.921235253740825" lon="15.025741662439527"><ele>301.0</ele><time>2026-03-28T16:46:03Z</time></trkpt><trkpt lat="36.92129483424579" lon="15.025666846275817"><ele>297.0</ele><time>2026-03-28T16:46:05Z</time></trkpt><trkpt lat="36.92137400049336" lon="15.025617513656385"><ele>293.0</ele><time>2026-03-28T16:46:08Z</time></trkpt><trkpt lat="36.92142419107952" lon="15.025562395731356"><ele>289.0</ele><time>2026-03-28T16:46:10Z</time></trkpt><trkpt lat="36.921498740249234" lon="15.025498374508086"><ele>289.0</ele><time>2026-03-28T16:46:12Z</time></trkpt><trkpt lat="36.92154999015416" lon="15.025436627357488"><ele>289.0</ele><time>2026-03-28T16:46:14Z</time></trkpt><trkpt lat="36.92163590288557" lon="15.025377807779005"><ele>289.0</ele><time>2026-03-28T16:46:16Z</time></trkpt><trkpt lat="36.92171399480369" lon="15.025287334264787"><ele>289.0</ele><time>2026-03-28T16:46:18Z</time></trkpt><trkpt lat="36.921790036531355" lon="15.025192219780141"><ele>289.0</ele><time>2026-03-28T16:46:20Z</time></trkpt><trkpt lat="36.92186828909739" lon="15.025069970771638"><ele>290.0</ele><time>2026-03-28T16:46:22Z</time></trkpt><trkpt lat="36.92193315766139" lon="15.025005334986595"><ele>291.0</ele><time>2026-03-28T16:46:24Z</time></trkpt><trkpt lat="36.922031136023634" lon="15.02494607472068"><ele>292.0</ele><time>2026-03-28T16:46:26Z</time></trkpt><trkpt lat="36.9221594404855" lon="15.024906235296791"><ele>293.0</ele><time>2026-03-28T16:46:28Z</time></trkpt><trkpt lat="36.92222359480935" lon="15.024877285927456"><ele>294.0</ele><time>2026-03-28T16:46:29Z</time></trkpt><trkpt lat="36.9223392035957" lon="15.024852590122187"><ele>294.0</ele><time>2026-03-28T16:46:31Z</time></trkpt><trkpt lat="36.92241613415916" lon="15.024811446126384"><ele>294.0</ele><time>2026-03-28T16:46:32Z</time></trkpt><trkpt lat="36.92250562006284" lon="15.02476651368585"><ele>294.0</ele><time>2026-03-28T16:46:33Z</time></trkpt><trkpt lat="36.922579482996774" lon="15.024737106401313"><ele>294.0</ele><time>2026-03-28T16:46:34Z</time></trkpt><trkpt lat="36.922647223651694" lon="15.024731931280837"><ele>294.0</ele><time>2026-03-28T16:46:35Z</time></trkpt><trkpt lat="36.92275441081836" lon="15.024760222395464"><ele>294.0</ele><time>2026-03-28T16:46:37Z</time></trkpt><trkpt lat="36.922836077109025" lon="15.024747061364549"><ele>291.1666666666667</ele><time>2026-03-28T16:46:39Z</time></trkpt><trkpt lat="36.92291242085978" lon="15.02473943299145"><ele>288.3333333333333</ele><time>2026-03-28T16:46:41Z</time></trkpt><trkpt lat="36.92299454916749" lon="15.024745987014041"><ele>285.5</ele><time>2026-03-28T16:46:45Z</time></trkpt><trkpt lat="36.92307549164856" lon="15.024778005055998"><ele>282.66666666666663</ele><time>2026-03-28T16:49:06Z</time></trkpt><trkpt lat="36.92315094930211" lon="15.024746194034481"><ele>279.8333333333333</ele><time>2026-03-28T16:49:10Z</time></trkpt><trkpt lat="36.92318932511076" lon="15.02466058208354"><ele>277.0</ele><time>2026-03-28T16:49:13Z</time></trkpt><trkpt lat="36.92326137885128" lon="15.024571824346845"><ele>277.0</ele><time>2026-03-28T16:49:16Z</time></trkpt><trkpt lat="36.923316902499174" lon="15.024526978737914"><ele>277.0</ele><time>2026-03-28T16:49:18Z</time></trkpt><trkpt lat="36.92339839798395" lon="15.024527033694946"><ele>277.0</ele><time>2026-03-28T16:49:21Z</time></trkpt><trkpt lat="36.92348531443106" lon="15.024538847632236"><ele>277.0</ele><time>2026-03-28T16:49:24Z</time></trkpt><trkpt lat="36.92355155889888" lon="15.024515595338503"><ele>277.0</ele><time>2026-03-28T16:49:26Z</time></trkpt><trkpt lat="36.923638390904266" lon="15.024469885157085"><ele>277.0</ele><time>2026-03-28T16:49:28Z</time></trkpt><trkpt lat="36.92374034061406" lon="15.02444546888217"><ele>273.8333333333333</ele><time>2026-03-28T16:49:30Z</time></trkpt><trkpt lat="36.92382121946922" lon="15.024404874121933"><ele>270.66666666666663</ele><time>2026-03-28T16:49:32Z</time></trkpt><trkpt lat="36.92390089519134" lon="15.024352505861314"><ele>267.5</ele><time>2026-03-28T16:49:34Z</time></trkpt><trkpt lat="36.92397228145248" lon="15.024310517286407"><ele>264.3333333333333</ele><time>2026-03-28T16:49:36Z</time></trkpt><trkpt lat="36.92404900350301" lon="15.024274048366397"><ele>261.1666666666667</ele><time>2026-03-28T16:49:38Z</time></trkpt><trkpt lat="36.9241511643049" lon="15.024288161663737"><ele>258.0</ele><time>2026-03-28T16:49:40Z</time></trkpt><trkpt lat="36.92422951536688" lon="15.024299542836328"><ele>255.66666666666666</ele><time>2026-03-28T16:49:42Z</time></trkpt><trkpt lat="36.924306113274234" lon="15.024298467363883"><ele>253.33333333333331</ele><time>2026-03-28T16:49:45Z</time></trkpt><trkpt lat="36.924397419815236" lon="15.024302336114895"><ele>251.0</ele><time>2026-03-28T16:49:48Z</time></trkpt><trkpt lat="36.92447775429377" lon="15.024309788425162"><ele>248.66666666666666</ele><time>2026-03-28T16:49:51Z</time></trkpt><trkpt lat="36.92457528572029" lon="15.024329590979674"><ele>246.33333333333331</ele><time>2026-03-28T16:49:54Z</time></trkpt><trkpt lat="36.924646009842036" lon="15.024354213659276"><ele>244.0</ele><time>2026-03-28T16:49:56Z</time></trkpt><trkpt lat="36.92473828591823" lon="15.024354568327867"><ele>243.99999999999997</ele><time>2026-03-28T16:49:59Z</time></trkpt><trkpt lat="36.92480320079901" lon="15.02436363913215"><ele>244.0</ele><time>2026-03-28T16:50:01Z</time></trkpt><trkpt lat="36.924866750803545" lon="15.024361335179256"><ele>244.0</ele><time>2026-03-28T16:50:03Z</time></trkpt><trkpt lat="36.924953787274625" lon="15.024355088771381"><ele>244.0</ele><time>2026-03-28T16:50:06Z</time></trkpt><trkpt lat="36.92504441431757" lon="15.02435169751638"><ele>243.99999999999997</ele><time>2026-03-28T16:50:09Z</time></trkpt><trkpt lat="36.9251117402168" lon="15.024362007713433"><ele>244.0</ele><time>2026-03-28T16:50:11Z</time></trkpt><trkpt lat="36.9251889486298" lon="15.024369503712736"><ele>241.99999999999997</ele><time>2026-03-28T16:50:13Z</time></trkpt><trkpt lat="36.92526738966828" lon="15.02438196899253"><ele>240.0</ele><time>2026-03-28T16:50:16Z</time></trkpt><trkpt lat="36.92534319408274" lon="15.024399655528443"><ele>238.0</ele><time>2026-03-28T16:50:19Z</time></trkpt><trkpt lat="36.92541146796516" lon="15.024404076956037"><ele>236.0</ele><time>2026-03-28T16:50:22Z</time></trkpt><trkpt lat="36.92549116032591" lon="15.02440596006241"><ele>233.99999999999997</ele><time>2026-03-28T16:50:25Z</time></trkpt><trkpt lat="36.92557444796069" lon="15.024381101118585"><ele>232.0</ele><time>2026-03-28T16:50:28Z</time></trkpt><trkpt lat="36.925668838963134" lon="15.024359958832015"><ele>232.0</ele><time>2026-03-28T16:50:31Z</time></trkpt><trkpt lat="36.92575516589505" lon="15.024387414596543"><ele>232.0</ele><time>2026-03-28T16:50:33Z</time></trkpt><trkpt lat="36.92585144350399" lon="15.024348601610338"><ele>232.0</ele><time>2026-03-28T16:50:35Z</time></trkpt><trkpt lat="36.92596146260587" lon="15.024408968538873"><ele>232.0</ele><time>2026-03-28T16:50:36Z</time></trkpt><trkpt lat="36.92603093320597" lon="15.024360111682697"><ele>232.0</ele><time>2026-03-28T16:50:37Z</time></trkpt><trkpt lat="36.92610138545717" lon="15.024316222670247"><ele>233.99999999999997</ele><time>2026-03-28T16:50:41Z</time></trkpt><trkpt lat="36.92616712491695" lon="15.024286932124685"><ele>236.0</ele><time>2026-03-28T16:50:44Z</time></trkpt><trkpt lat="36.92624105106672" lon="15.024227803915808"><ele>238.0</ele><time>2026-03-28T16:50:47Z</time></trkpt><trkpt lat="36.9263303629081" lon="15.024201131668363"><ele>240.0</ele><time>2026-03-28T16:57:26Z</time></trkpt><trkpt lat="36.92642670573304" lon="15.024158729067409"><ele>241.99999999999997</ele><time>2026-03-28T16:57:28Z</time></trkpt><trkpt lat="36.92649432278851" lon="15.024118327649687"><ele>244.0</ele><time>2026-03-28T16:57:29Z</time></trkpt><trkpt lat="36.926565070504054" lon="15.024075442273126"><ele>243.99999999999997</ele><time>2026-03-28T16:57:30Z</time></trkpt><trkpt lat="36.926635424459235" lon="15.024033120960762"><ele>244.0</ele><time>2026-03-28T16:57:31Z</time></trkpt><trkpt lat="36.92671062089234" lon="15.023992157335682"><ele>244.0</ele><time>2026-03-28T16:57:32Z</time></trkpt><trkpt lat="36.92678085409006" lon="15.023954871707124"><ele>244.0</ele><time>2026-03-28T16:57:33Z</time></trkpt><trkpt lat="36.92684704048663" lon="15.023916294515233"><ele>243.99999999999997</ele><time>2026-03-28T16:57:34Z</time></trkpt><trkpt lat="36.92691144170902" lon="15.023877338468418"><ele>244.0</ele><time>2026-03-28T16:57:35Z</time></trkpt><trkpt lat="36.926981258150334" lon="15.023839036810815"><ele>239.66666666666666</ele><time>2026-03-28T16:57:36Z</time></trkpt><trkpt lat="36.927057208659306" lon="15.02379281684728"><ele>235.33333333333331</ele><time>2026-03-28T16:57:37Z</time></trkpt><trkpt lat="36.92713762832447" lon="15.02375819440053"><ele>231.0</ele><time>2026-03-28T16:57:38Z</time></trkpt><trkpt lat="36.92720559716949" lon="15.023718433380392"><ele>226.66666666666669</ele><time>2026-03-28T16:57:39Z</time></trkpt><trkpt lat="36.92727755941486" lon="15.023678756144376"><ele>222.33333333333334</ele><time>2026-03-28T16:57:40Z</time></trkpt><trkpt lat="36.92735863512763" lon="15.02362078173561"><ele>218.0</ele><time>2026-03-28T16:57:41Z</time></trkpt><trkpt lat="36.92742986722405" lon="15.023538062850065"><ele>218.00000000000003</ele><time>2026-03-28T16:57:42Z</time></trkpt><trkpt lat="36.92749113582071" lon="15.023445886518974"><ele>218.0</ele><time>2026-03-28T16:57:43Z</time></trkpt><trkpt lat="36.92754170248832" lon="15.02335333286291"><ele>218.0</ele><time>2026-03-28T16:57:44Z</time></trkpt><trkpt lat="36.92757274953941" lon="15.02327318338815"><ele>218.0</ele><time>2026-03-28T16:57:45Z</time></trkpt><trkpt lat="36.92759029216601" lon="15.023185852779761"><ele>218.00000000000003</ele><time>2026-03-28T16:57:46Z</time></trkpt><trkpt lat="36.92760765075612" lon="15.023087607933814"><ele>218.0</ele><time>2026-03-28T16:57:47Z</time></trkpt><trkpt lat="36.92761416968102" lon="15.022987123014808"><ele>218.16666666666669</ele><time>2026-03-28T16:57:48Z</time></trkpt><trkpt lat="36.92761416967113" lon="15.022863449897525"><ele>218.33333333333334</ele><time>2026-03-28T16:57:50Z</time></trkpt><trkpt lat="36.92762151254817" lon="15.022741320048402"><ele>218.5</ele><time>2026-03-28T16:57:52Z</time></trkpt><trkpt lat="36.92765320215029" lon="15.022657667482477"><ele>218.66666666666669</ele><time>2026-03-28T16:57:55Z</time></trkpt><trkpt lat="36.927706219410354" lon="15.02258652678043"><ele>218.83333333333334</ele><time>2026-03-28T16:57:57Z</time></trkpt><trkpt lat="36.927782258559894" lon="15.022532179441711"><ele>219.0</ele><time>2026-03-28T16:57:59Z</time></trkpt><trkpt lat="36.92784179223956" lon="15.02247993590128"><ele>220.39999999999998</ele><time>2026-03-28T16:58:00Z</time></trkpt><trkpt lat="36.927901223349295" lon="15.02238087118538"><ele>221.79999999999998</ele><time>2026-03-28T16:58:02Z</time></trkpt><trkpt lat="36.92791755284048" lon="15.022203719286686"><ele>223.20000000000002</ele><time>2026-03-28T16:58:04Z</time></trkpt><trkpt lat="36.92792910694318" lon="15.022107612591903"><ele>224.60000000000002</ele><time>2026-03-28T16:58:05Z</time></trkpt><trkpt lat="36.92800083540809" lon="15.022017278374145"><ele>226.0</ele><time>2026-03-28T16:58:07Z</time></trkpt><trkpt lat="36.92806417073766" lon="15.022029658511869"><ele>226.0</ele><time>2026-03-28T16:58:08Z</time></trkpt><trkpt lat="36.92815795007449" lon="15.022065990253727"><ele>226.0</ele><time>2026-03-28T16:58:09Z</time></trkpt><trkpt lat="36.92826418997783" lon="15.022151956910896"><ele>226.0</ele><time>2026-03-28T16:58:10Z</time></trkpt><trkpt lat="36.928381183494025" lon="15.022199286912443"><ele>226.0</ele><time>2026-03-28T16:58:11Z</time></trkpt><trkpt lat="36.92848070030513" lon="15.022286950530198"><ele>226.8</ele><time>2026-03-28T16:58:12Z</time></trkpt><trkpt lat="36.92858100031199" lon="15.022358298014689"><ele>227.60000000000002</ele><time>2026-03-28T16:58:13Z</time></trkpt><trkpt lat="36.92865061936218" lon="15.022429471858196"><ele>228.4</ele><time>2026-03-28T16:58:14Z</time></trkpt><trkpt lat="36.92871641198046" lon="15.022504471512471"><ele>229.2</ele><time>2026-03-28T16:58:15Z</time></trkpt><trkpt lat="36.9287967137293" lon="15.022597657497629"><ele>230.0</ele><time>2026-03-28T16:58:16Z</time></trkpt><trkpt lat="36.92890226677545" lon="15.022700813610502"><ele>230.0</ele><time>2026-03-28T16:58:17Z</time></trkpt><trkpt lat="36.928972767711834" lon="15.022774575138147"><ele>230.0</ele><time>2026-03-28T16:58:18Z</time></trkpt><trkpt lat="36.92904694010506" lon="15.022801078931742"><ele>230.0</ele><time>2026-03-28T16:58:20Z</time></trkpt><trkpt lat="36.92910495649479" lon="15.022730725153584"><ele>230.0</ele><time>2026-03-28T16:58:21Z</time></trkpt><trkpt lat="36.929103448479104" lon="15.022556631790343"><ele>230.0</ele><time>2026-03-28T16:58:22Z</time></trkpt><trkpt lat="36.92912414813207" lon="15.02239469760175"><ele>230.0</ele><time>2026-03-28T16:58:23Z</time></trkpt><trkpt lat="36.92914371592191" lon="15.022286294167381"><ele>230.0</ele><time>2026-03-28T16:58:24Z</time></trkpt><trkpt lat="36.92921544049806" lon="15.0223312909604"><ele>230.0</ele><time>2026-03-28T16:58:27Z</time></trkpt><trkpt lat="36.92920527671408" lon="15.022439453262828"><ele>230.0</ele><time>2026-03-28T16:58:28Z</time></trkpt><trkpt lat="36.92922107665698" lon="15.022569443734408"><ele>230.0</ele><time>2026-03-28T16:58:29Z</time></trkpt><trkpt lat="36.929237043554544" lon="15.02271103936084"><ele>240.0</ele><time>2026-03-28T16:58:30Z</time></trkpt><trkpt lat="36.92929224327607" lon="15.022834804237583"><ele>250.0</ele><time>2026-03-28T16:58:31Z</time></trkpt><trkpt lat="36.92940234278529" lon="15.022939604513528"><ele>260.0</ele><time>2026-03-28T16:58:32Z</time></trkpt><trkpt lat="36.9295458417794" lon="15.023090023708617"><ele>270.0</ele><time>2026-03-28T16:58:33Z</time></trkpt><trkpt lat="36.92965549060163" lon="15.023254759548466"><ele>267.0</ele><time>2026-03-28T16:58:34Z</time></trkpt><trkpt lat="36.92975361515697" lon="15.023401878596015"><ele>264.0</ele><time>2026-03-28T16:58:35Z</time></trkpt><trkpt lat="36.929840685152065" lon="15.023551820526604"><ele>261.0</ele><time>2026-03-28T16:58:36Z</time></trkpt><trkpt lat="36.92990409734349" lon="15.02369656288615"><ele>258.0</ele><time>2026-03-28T16:58:37Z</time></trkpt><trkpt lat="36.92995548023301" lon="15.023835943300652"><ele>258.0</ele><time>2026-03-28T16:58:38Z</time></trkpt><trkpt lat="36.93000522294019" lon="15.023961847764037"><ele>258.0</ele><time>2026-03-28T16:58:39Z</time></trkpt><trkpt lat="36.93004695693972" lon="15.02405908803397"><ele>258.0</ele><time>2026-03-28T16:58:40Z</time></trkpt><trkpt lat="36.93009260732645" lon="15.024138796013702"><ele>258.0</ele><time>2026-03-28T16:58:41Z</time></trkpt><trkpt lat="36.93016486478251" lon="15.02420415048513"><ele>258.0</ele><time>2026-03-28T16:58:42Z</time></trkpt><trkpt lat="36.93027228740216" lon="15.024226805990322"><ele>261.25</ele><time>2026-03-28T16:58:43Z</time></trkpt><trkpt lat="36.930405422368565" lon="15.024278287848823"><ele>264.5</ele><time>2026-03-28T16:58:44Z</time></trkpt><trkpt lat="36.93053242719072" lon="15.02431326810107"><ele>267.75</ele><time>2026-03-28T16:58:45Z</time></trkpt><trkpt lat="36.93062944157679" lon="15.02435141011951"><ele>271.0</ele><time>2026-03-28T16:58:46Z</time></trkpt><trkpt lat="36.93070297005089" lon="15.024393404503526"><ele>271.0</ele><time>2026-03-28T16:58:47Z</time></trkpt><trkpt lat="36.93075934918151" lon="15.0244419025898"><ele>271.0</ele><time>2026-03-28T16:58:48Z</time></trkpt><trkpt lat="36.93080482226685" lon="15.0245024903576"><ele>271.0</ele><time>2026-03-28T16:58:49Z</time></trkpt><trkpt lat="36.93082625907332" lon="15.024579067226169"><ele>271.0</ele><time>2026-03-28T16:58:50Z</time></trkpt><trkpt lat="36.930821928450634" lon="15.02468273428584"><ele>271.0</ele><time>2026-03-28T16:58:51Z</time></trkpt><trkpt lat="36.93076753760136" lon="15.02482066722398"><ele>271.0</ele><time>2026-03-28T16:58:52Z</time></trkpt><trkpt lat="36.93068769693998" lon="15.02501092125801"><ele>268.66666666666663</ele><time>2026-03-28T16:58:53Z</time></trkpt><trkpt lat="36.930626228033596" lon="15.025245165969682"><ele>266.3333333333333</ele><time>2026-03-28T16:58:54Z</time></trkpt><trkpt lat="36.93057379388931" lon="15.025440592625738"><ele>264.0</ele><time>2026-03-28T16:58:55Z</time></trkpt><trkpt lat="36.930554009419225" lon="15.025623797404329"><ele>264.0</ele><time>2026-03-28T16:58:56Z</time></trkpt><trkpt lat="36.93055412607112" lon="15.025805639266663"><ele>264.0</ele><time>2026-03-28T16:58:57Z</time></trkpt><trkpt lat="36.930547720103654" lon="15.025968703626509"><ele>264.0</ele><time>2026-03-28T16:58:58Z</time></trkpt><trkpt lat="36.930519210625974" lon="15.026125723739286"><ele>264.0</ele><time>2026-03-28T16:58:59Z</time></trkpt><trkpt lat="36.930504121805434" lon="15.02629976924543"><ele>267.75</ele><time>2026-03-28T16:59:00Z</time></trkpt><trkpt lat="36.93048849982583" lon="15.026479964619092"><ele>271.5</ele><time>2026-03-28T16:59:01Z</time></trkpt><trkpt lat="36.93058592993165" lon="15.026656564558774"><ele>275.25</ele><time>2026-03-28T16:59:02Z</time></trkpt><trkpt lat="36.930600587006424" lon="15.026783805951954"><ele>279.0</ele><time>2026-03-28T16:59:03Z</time></trkpt><trkpt lat="36.93063125319196" lon="15.026915774217604"><ele>279.2</ele><time>2026-03-28T16:59:04Z</time></trkpt><trkpt lat="36.93068192822969" lon="15.027064050224915"><ele>279.4</ele><time>2026-03-28T16:59:05Z</time></trkpt><trkpt lat="36.93071849913604" lon="15.027220697372949"><ele>279.6</ele><time>2026-03-28T16:59:06Z</time></trkpt><trkpt lat="36.93073671598018" lon="15.027337775401122"><ele>279.8</ele><time>2026-03-28T16:59:07Z</time></trkpt><trkpt lat="36.93077159786229" lon="15.027425711038331"><ele>280.0</ele><time>2026-03-28T16:59:08Z</time></trkpt><trkpt lat="36.930845844213636" lon="15.027503503079883"><ele>284.0</ele><time>2026-03-28T16:59:09Z</time></trkpt><trkpt lat="36.930929671212844" lon="15.027558878666074"><ele>288.0</ele><time>2026-03-28T16:59:10Z</time></trkpt><trkpt lat="36.931031092908775" lon="15.027532965866085"><ele>292.0</ele><time>2026-03-28T16:59:12Z</time></trkpt><trkpt lat="36.93105549470726" lon="15.027450155463974"><ele>296.0</ele><time>2026-03-28T16:59:13Z</time></trkpt><trkpt lat="36.93105764207458" lon="15.027316910565629"><ele>300.0</ele><time>2026-03-28T16:59:14Z</time></trkpt><trkpt lat="36.93106265721046" lon="15.027118107665265"><ele>303.3333333333333</ele><time>2026-03-28T16:59:15Z</time></trkpt><trkpt lat="36.93107154114815" lon="15.026902887330056"><ele>306.66666666666663</ele><time>2026-03-28T16:59:16Z</time></trkpt><trkpt lat="36.93108957745528" lon="15.026718910052614"><ele>310.0</ele><time>2026-03-28T16:59:17Z</time></trkpt><trkpt lat="36.931127124954685" lon="15.02655707797458"><ele>310.0</ele><time>2026-03-28T16:59:18Z</time></trkpt><trkpt lat="36.93116682800104" lon="15.026413090778249"><ele>310.0</ele><time>2026-03-28T16:59:19Z</time></trkpt><trkpt lat="36.931196981337926" lon="15.026283654179766"><ele>310.0</ele><time>2026-03-28T16:59:20Z</time></trkpt><trkpt lat="36.931222518768145" lon="15.026183493860115"><ele>310.0</ele><time>2026-03-28T16:59:21Z</time></trkpt><trkpt lat="36.93129925822735" lon="15.026138066070594"><ele>310.0</ele><time>2026-03-28T16:59:23Z</time></trkpt><trkpt lat="36.93134530152732" lon="15.026279559658455"><ele>310.0</ele><time>2026-03-28T16:59:25Z</time></trkpt><trkpt lat="36.93135375601417" lon="15.026425150160433"><ele>310.0</ele><time>2026-03-28T16:59:26Z</time></trkpt><trkpt lat="36.93137755864014" lon="15.026606100860677"><ele>310.0</ele><time>2026-03-28T16:59:27Z</time></trkpt><trkpt lat="36.93142254699625" lon="15.02676729874423"><ele>310.0</ele><time>2026-03-28T16:59:28Z</time></trkpt><trkpt lat="36.9314920866549" lon="15.026838889623848"><ele>310.0</ele><time>2026-03-28T16:59:29Z</time></trkpt><trkpt lat="36.93158335076084" lon="15.026837097939199"><ele>310.0</ele><time>2026-03-28T16:59:31Z</time></trkpt><trkpt lat="36.931619060670975" lon="15.026643416808138"><ele>310.0</ele><time>2026-03-28T16:59:33Z</time></trkpt><trkpt lat="36.931619207955826" lon="15.02647984219747"><ele>310.0</ele><time>2026-03-28T16:59:34Z</time></trkpt><trkpt lat="36.93162228287985" lon="15.026343856715359"><ele>310.0</ele><time>2026-03-28T16:59:35Z</time></trkpt><trkpt lat="36.93165325974148" lon="15.026233232756496"><ele>310.0</ele><time>2026-03-28T16:59:36Z</time></trkpt><trkpt lat="36.9316905158975" lon="15.02613987003836"><ele>310.0</ele><time>2026-03-28T16:59:37Z</time></trkpt><trkpt lat="36.9317553402412" lon="15.02601891081832"><ele>310.0</ele><time>2026-03-28T16:59:39Z</time></trkpt><trkpt lat="36.93184535882366" lon="15.026060474501524"><ele>310.0</ele><time>2026-03-28T16:59:41Z</time></trkpt><trkpt lat="36.93188754502548" lon="15.026159861987928"><ele>315.8</ele><time>2026-03-28T16:59:42Z</time></trkpt><trkpt lat="36.93193320272149" lon="15.026295521439094"><ele>321.6</ele><time>2026-03-28T16:59:43Z</time></trkpt><trkpt lat="36.93198616148959" lon="15.026413650596846"><ele>327.4</ele><time>2026-03-28T16:59:44Z</time></trkpt><trkpt lat="36.93202564626968" lon="15.02647958001671"><ele>333.2</ele><time>2026-03-28T16:59:45Z</time></trkpt><trkpt lat="36.932101072211516" lon="15.026496841714827"><ele>339.0</ele><time>2026-03-28T16:59:47Z</time></trkpt><trkpt lat="36.93217868823355" lon="15.026328061385708"><ele>339.0</ele><time>2026-03-28T16:59:49Z</time></trkpt><trkpt lat="36.93222807429884" lon="15.026212020504609"><ele>339.0</ele><time>2026-03-28T16:59:50Z</time></trkpt><trkpt lat="36.93228552706663" lon="15.026145820061918"><ele>339.0</ele><time>2026-03-28T16:59:52Z</time></trkpt><trkpt lat="36.93235331736225" lon="15.026201899320366"><ele>339.0</ele><time>2026-03-28T16:59:54Z</time></trkpt><trkpt lat="36.93241285131097" lon="15.026287883660675"><ele>339.0</ele><time>2026-03-28T16:59:56Z</time></trkpt><trkpt lat="36.932376546829985" lon="15.02641463105646"><ele>339.0</ele><time>2026-03-28T16:59:57Z</time></trkpt><trkpt lat="36.9323779554614" lon="15.02653604302992"><ele>339.0</ele><time>2026-03-28T16:59:58Z</time></trkpt><trkpt lat="36.93241658654029" lon="15.026631568235024"><ele>339.0</ele><time>2026-03-28T16:59:59Z</time></trkpt><trkpt lat="36.93245807330295" lon="15.026694192181782"><ele>339.0</ele><time>2026-03-28T17:00:00Z</time></trkpt><trkpt lat="36.93252427481317" lon="15.026772742861048"><ele>339.0</ele><time>2026-03-28T17:00:01Z</time></trkpt><trkpt lat="36.93261005179219" lon="15.026868339444942"><ele>341.6</ele><time>2026-03-28T17:00:02Z</time></trkpt><trkpt lat="36.932703814401656" lon="15.026988053789243"><ele>344.2</ele><time>2026-03-28T17:00:03Z</time></trkpt><trkpt lat="36.93281723031266" lon="15.027051185779055"><ele>346.8</ele><time>2026-03-28T17:00:04Z</time></trkpt><trkpt lat="36.93290847662916" lon="15.027094116701747"><ele>349.40000000000003</ele><time>2026-03-28T17:00:05Z</time></trkpt><trkpt lat="36.9329805928059" lon="15.027134482320708"><ele>352.0</ele><time>2026-03-28T17:00:06Z</time></trkpt><trkpt lat="36.933049992461825" lon="15.027149099200727"><ele>352.0</ele><time>2026-03-28T17:00:07Z</time></trkpt><trkpt lat="36.9331171080873" lon="15.027138883205673"><ele>352.0</ele><time>2026-03-28T17:00:08Z</time></trkpt><trkpt lat="36.93318008742409" lon="15.027091431440429"><ele>352.0</ele><time>2026-03-28T17:00:09Z</time></trkpt><trkpt lat="36.93322223132818" lon="15.027000811415892"><ele>352.0</ele><time>2026-03-28T17:00:10Z</time></trkpt><trkpt lat="36.933298856019654" lon="15.026940148100282"><ele>352.0</ele><time>2026-03-28T17:00:11Z</time></trkpt><trkpt lat="36.9333585321562" lon="15.026868809908372"><ele>352.0</ele><time>2026-03-28T17:00:12Z</time></trkpt><trkpt lat="36.93340973848356" lon="15.02680828680569"><ele>356.16666666666663</ele><time>2026-03-28T17:00:13Z</time></trkpt><trkpt lat="36.933471571582544" lon="15.026738097608126"><ele>360.3333333333333</ele><time>2026-03-28T17:00:14Z</time></trkpt><trkpt lat="36.93350902452202" lon="15.026670177909049"><ele>364.5</ele><time>2026-03-28T17:00:15Z</time></trkpt><trkpt lat="36.9335219007495" lon="15.026589597992116"><ele>368.6666666666667</ele><time>2026-03-28T17:00:16Z</time></trkpt><trkpt lat="36.93350080984989" lon="15.026504629959092"><ele>372.83333333333337</ele><time>2026-03-28T17:00:17Z</time></trkpt><trkpt lat="36.933463294366874" lon="15.026392302521494"><ele>377.0</ele><time>2026-03-28T17:00:18Z</time></trkpt><trkpt lat="36.93338368997625" lon="15.026271129108578"><ele>377.0</ele><time>2026-03-28T17:00:19Z</time></trkpt><trkpt lat="36.933296793612925" lon="15.02615271843073"><ele>377.0</ele><time>2026-03-28T17:00:20Z</time></trkpt><trkpt lat="36.93320400779204" lon="15.026049312970105"><ele>377.0</ele><time>2026-03-28T17:00:21Z</time></trkpt><trkpt lat="36.93310751516014" lon="15.025975507048335"><ele>377.0</ele><time>2026-03-28T17:00:22Z</time></trkpt><trkpt lat="36.93302299087249" lon="15.025888928076782"><ele>377.0</ele><time>2026-03-28T17:00:23Z</time></trkpt><trkpt lat="36.93296023889003" lon="15.025814328427096"><ele>377.0</ele><time>2026-03-28T17:00:24Z</time></trkpt><trkpt lat="36.932913126381564" lon="15.025704288134648"><ele>377.0</ele><time>2026-03-28T17:00:26Z</time></trkpt><trkpt lat="36.93287564604342" lon="15.025640123756368"><ele>377.0</ele><time>2026-03-28T17:00:27Z</time></trkpt><trkpt lat="36.93279397519548" lon="15.025519338909845"><ele>377.0</ele><time>2026-03-28T17:00:29Z</time></trkpt><trkpt lat="36.932758712296014" lon="15.02544562465044"><ele>377.0</ele><time>2026-03-28T17:00:30Z</time></trkpt><trkpt lat="36.932721586990354" lon="15.02536819090819"><ele>377.20000000000005</ele><time>2026-03-28T17:00:31Z</time></trkpt><trkpt lat="36.93268643367317" lon="15.025273738167927"><ele>377.4</ele><time>2026-03-28T17:00:32Z</time></trkpt><trkpt lat="36.93265244038058" lon="15.025202262373053"><ele>377.6</ele><time>2026-03-28T17:00:33Z</time></trkpt><trkpt lat="36.93262722124101" lon="15.025125805116078"><ele>377.79999999999995</ele><time>2026-03-28T17:00:34Z</time></trkpt><trkpt lat="36.9326309330614" lon="15.024981545582031"><ele>378.0</ele><time>2026-03-28T17:00:36Z</time></trkpt><trkpt lat="36.93271874518419" lon="15.024868118274775"><ele>373.59999999999997</ele><time>2026-03-28T17:00:38Z</time></trkpt><trkpt lat="36.93277638263372" lon="15.024794455861242"><ele>369.2</ele><time>2026-03-28T17:00:39Z</time></trkpt><trkpt lat="36.932851183705985" lon="15.024719632528102"><ele>364.8</ele><time>2026-03-28T17:00:40Z</time></trkpt><trkpt lat="36.93293682249298" lon="15.024642337291077"><ele>360.4</ele><time>2026-03-28T17:00:41Z</time></trkpt><trkpt lat="36.93300672010608" lon="15.024587899246985"><ele>356.0</ele><time>2026-03-28T17:00:42Z</time></trkpt><trkpt lat="36.933120375777285" lon="15.024526859460554"><ele>356.0</ele><time>2026-03-28T17:00:44Z</time></trkpt><trkpt lat="36.9331915728428" lon="15.02449983626706"><ele>356.0</ele><time>2026-03-28T17:00:45Z</time></trkpt><trkpt lat="36.93326100029769" lon="15.024480193508452"><ele>356.0</ele><time>2026-03-28T17:00:46Z</time></trkpt><trkpt lat="36.9333378199494" lon="15.024466137475413"><ele>356.0</ele><time>2026-03-28T17:00:47Z</time></trkpt><trkpt lat="36.93342097231329" lon="15.02443355307847"><ele>356.0</ele><time>2026-03-28T17:00:48Z</time></trkpt><trkpt lat="36.933510220631334" lon="15.024430135032066"><ele>356.0</ele><time>2026-03-28T17:00:49Z</time></trkpt><trkpt lat="36.933587118854796" lon="15.02443091301211"><ele>358.4</ele><time>2026-03-28T17:00:50Z</time></trkpt><trkpt lat="36.93366487770248" lon="15.024448328228607"><ele>360.8</ele><time>2026-03-28T17:00:51Z</time></trkpt><trkpt lat="36.93374304120448" lon="15.024450350846315"><ele>363.2</ele><time>2026-03-28T17:00:52Z</time></trkpt><trkpt lat="36.93384507807005" lon="15.024454373484893"><ele>365.59999999999997</ele><time>2026-03-28T17:00:53Z</time></trkpt><trkpt lat="36.93394673333414" lon="15.024458381072556"><ele>368.0</ele><time>2026-03-28T17:00:54Z</time></trkpt><trkpt lat="36.93404767035372" lon="15.02446239906135"><ele>368.0</ele><time>2026-03-28T17:00:55Z</time></trkpt><trkpt lat="36.934142805879446" lon="15.024467469574125"><ele>368.0</ele><time>2026-03-28T17:00:56Z</time></trkpt><trkpt lat="36.93423690387773" lon="15.024468708540255"><ele>368.0</ele><time>2026-03-28T17:00:57Z</time></trkpt><trkpt lat="36.934345947409824" lon="15.024447455109245"><ele>368.0</ele><time>2026-03-28T17:00:58Z</time></trkpt><trkpt lat="36.934467046151646" lon="15.02440196452659"><ele>368.0</ele><time>2026-03-28T17:00:59Z</time></trkpt><trkpt lat="36.93459182743607" lon="15.024348329554808"><ele>370.59999999999997</ele><time>2026-03-28T17:01:00Z</time></trkpt><trkpt lat="36.934702651931964" lon="15.024296399967433"><ele>373.2</ele><time>2026-03-28T17:01:01Z</time></trkpt><trkpt lat="36.934807121557974" lon="15.024247066002935"><ele>375.8</ele><time>2026-03-28T17:01:02Z</time></trkpt><trkpt lat="36.934904423603456" lon="15.024200898852685"><ele>378.4</ele><time>2026-03-28T17:01:03Z</time></trkpt><trkpt lat="36.93501083548868" lon="15.024153056344408"><ele>381.0</ele><time>2026-03-28T17:01:04Z</time></trkpt><trkpt lat="36.93510682678864" lon="15.02410990501849"><ele>383.6</ele><time>2026-03-28T17:01:05Z</time></trkpt><trkpt lat="36.9352130495567" lon="15.024059102900772"><ele>386.20000000000005</ele><time>2026-03-28T17:01:06Z</time></trkpt><trkpt lat="36.93529108953533" lon="15.023992900757428"><ele>388.79999999999995</ele><time>2026-03-28T17:01:07Z</time></trkpt><trkpt lat="36.93538369611382" lon="15.023940142327836"><ele>391.4</ele><time>2026-03-28T17:01:08Z</time></trkpt><trkpt lat="36.935474000500434" lon="15.023881620821122"><ele>394.0</ele><time>2026-03-28T17:01:09Z</time></trkpt><trkpt lat="36.93555037233765" lon="15.023820442948447"><ele>394.00000000000006</ele><time>2026-03-28T17:01:10Z</time></trkpt><trkpt lat="36.935620004772794" lon="15.02374816612701"><ele>394.0</ele><time>2026-03-28T17:01:11Z</time></trkpt><trkpt lat="36.93568993987049" lon="15.023690560417732"><ele>394.0</ele><time>2026-03-28T17:01:12Z</time></trkpt><trkpt lat="36.935752144945134" lon="15.023716726828894"><ele>394.0</ele><time>2026-03-28T17:01:13Z</time></trkpt><trkpt lat="36.93583310807105" lon="15.023722585034163"><ele>394.00000000000006</ele><time>2026-03-28T17:01:14Z</time></trkpt><trkpt lat="36.93594103041152" lon="15.023712898504877"><ele>394.0</ele><time>2026-03-28T17:01:15Z</time></trkpt><trkpt lat="36.936056995927814" lon="15.023733848883422"><ele>395.79999999999995</ele><time>2026-03-28T17:01:16Z</time></trkpt><trkpt lat="36.936149876826235" lon="15.023732546237465"><ele>397.59999999999997</ele><time>2026-03-28T17:01:17Z</time></trkpt><trkpt lat="36.9362516538477" lon="15.023719314372801"><ele>399.4</ele><time>2026-03-28T17:01:18Z</time></trkpt><trkpt lat="36.936367561847405" lon="15.02368634135232"><ele>401.2</ele><time>2026-03-28T17:01:19Z</time></trkpt><trkpt lat="36.936480310931096" lon="15.023672094325374"><ele>403.0</ele><time>2026-03-28T17:01:20Z</time></trkpt><trkpt lat="36.93657210484144" lon="15.023647521918292"><ele>403.0</ele><time>2026-03-28T17:01:21Z</time></trkpt><trkpt lat="36.9366704590574" lon="15.023645466847336"><ele>403.0</ele><time>2026-03-28T17:01:23Z</time></trkpt><trkpt lat="36.93672670352965" lon="15.023692165471465"><ele>403.0</ele><time>2026-03-28T17:01:25Z</time></trkpt><trkpt lat="36.93677226633858" lon="15.023855116588328"><ele>403.0</ele><time>2026-03-28T17:01:27Z</time></trkpt><trkpt lat="36.93682285925346" lon="15.023961995091485"><ele>403.0</ele><time>2026-03-28T17:01:28Z</time></trkpt><trkpt lat="36.93689532684056" lon="15.02408459979704"><ele>403.59999999999997</ele><time>2026-03-28T17:01:29Z</time></trkpt><trkpt lat="36.93696352135613" lon="15.024195477692503"><ele>404.2</ele><time>2026-03-28T17:01:30Z</time></trkpt><trkpt lat="36.937010213252194" lon="15.024280706621258"><ele>404.8</ele><time>2026-03-28T17:01:31Z</time></trkpt><trkpt lat="36.93706637345628" lon="15.024365724947295"><ele>405.4</ele><time>2026-03-28T17:01:33Z</time></trkpt><trkpt lat="36.93715874881861" lon="15.024383288993638"><ele>406.0</ele><time>2026-03-28T17:01:35Z</time></trkpt><trkpt lat="36.937234394007604" lon="15.024298149447892"><ele>406.0</ele><time>2026-03-28T17:01:36Z</time></trkpt><trkpt lat="36.93731597830318" lon="15.024236314416084"><ele>406.0</ele><time>2026-03-28T17:01:37Z</time></trkpt><trkpt lat="36.937405414756" lon="15.024155182651157"><ele>406.0</ele><time>2026-03-28T17:01:38Z</time></trkpt><trkpt lat="36.93752793741544" lon="15.024090309958227"><ele>406.0</ele><time>2026-03-28T17:01:39Z</time></trkpt><trkpt lat="36.93764531305222" lon="15.024010236445712"><ele>407.20000000000005</ele><time>2026-03-28T17:01:40Z</time></trkpt><trkpt lat="36.93774361836841" lon="15.023939546680547"><ele>408.40000000000003</ele><time>2026-03-28T17:01:41Z</time></trkpt><trkpt lat="36.93782337299193" lon="15.023882196204083"><ele>409.6</ele><time>2026-03-28T17:01:42Z</time></trkpt><trkpt lat="36.93788904658011" lon="15.023834971349604"><ele>410.8</ele><time>2026-03-28T17:01:43Z</time></trkpt><trkpt lat="36.93796138788149" lon="15.023785146141742"><ele>412.0</ele><time>2026-03-28T17:01:44Z</time></trkpt><trkpt lat="36.93803679467102" lon="15.023716815909044"><ele>412.0</ele><time>2026-03-28T17:01:45Z</time></trkpt><trkpt lat="36.93812429612373" lon="15.023675938383498"><ele>412.0</ele><time>2026-03-28T17:01:46Z</time></trkpt><trkpt lat="36.938215784188074" lon="15.023618064551028"><ele>412.0</ele><time>2026-03-28T17:01:47Z</time></trkpt><trkpt lat="36.93829961946738" lon="15.023540463231244"><ele>412.0</ele><time>2026-03-28T17:01:48Z</time></trkpt><trkpt lat="36.938372408742346" lon="15.023485130563833"><ele>412.0</ele><time>2026-03-28T17:01:49Z</time></trkpt><trkpt lat="36.938440846877505" lon="15.02343256299927"><ele>412.75</ele><time>2026-03-28T17:01:50Z</time></trkpt><trkpt lat="36.93848274067667" lon="15.023339004700423"><ele>413.5</ele><time>2026-03-28T17:01:51Z</time></trkpt><trkpt lat="36.938495895052974" lon="15.023213910099933"><ele>414.25</ele><time>2026-03-28T17:01:52Z</time></trkpt><trkpt lat="36.9385324106428" lon="15.023079412854521"><ele>415.0</ele><time>2026-03-28T17:01:53Z</time></trkpt><trkpt lat="36.93856488663002" lon="15.022886146118283"><ele>415.0</ele><time>2026-03-28T17:01:54Z</time></trkpt><trkpt lat="36.93859281422372" lon="15.02273287841882"><ele>415.0</ele><time>2026-03-28T17:01:55Z</time></trkpt><trkpt lat="36.93861197690205" lon="15.022632245830842"><ele>415.0</ele><time>2026-03-28T17:01:56Z</time></trkpt><trkpt lat="36.938637964247" lon="15.022497303699415"><ele>415.0</ele><time>2026-03-28T17:01:58Z</time></trkpt><trkpt lat="36.93865494143687" lon="15.02240530776377"><ele>415.0</ele><time>2026-03-28T17:02:00Z</time></trkpt><trkpt lat="36.93866502484852" lon="15.0223086552653"><ele>414.6</ele><time>2026-03-28T17:02:03Z</time></trkpt><trkpt lat="36.93873666662198" lon="15.022274138129324"><ele>414.2</ele><time>2026-03-28T17:02:20Z</time></trkpt><trkpt lat="36.93882423280334" lon="15.022277283056555"><ele>413.79999999999995</ele><time>2026-03-28T17:02:23Z</time></trkpt><trkpt lat="36.93897561127531" lon="15.022319761481274"><ele>413.4</ele><time>2026-03-28T17:02:25Z</time></trkpt><trkpt lat="36.93909285455708" lon="15.02234700489835"><ele>413.0</ele><time>2026-03-28T17:02:26Z</time></trkpt><trkpt lat="36.939189580217075" lon="15.022416597514255"><ele>413.25</ele><time>2026-03-28T17:02:27Z</time></trkpt><trkpt lat="36.93929207302172" lon="15.02247107992342"><ele>413.5</ele><time>2026-03-28T17:02:28Z</time></trkpt><trkpt lat="36.939403980111024" lon="15.02252904490535"><ele>413.75</ele><time>2026-03-28T17:02:29Z</time></trkpt><trkpt lat="36.93947924345625" lon="15.022639781984195"><ele>414.0</ele><time>2026-03-28T17:02:30Z</time></trkpt><trkpt lat="36.93957706268441" lon="15.022731248571683"><ele>414.0</ele><time>2026-03-28T17:02:31Z</time></trkpt><trkpt lat="36.93965777841822" lon="15.022810048364436"><ele>414.0</ele><time>2026-03-28T17:02:32Z</time></trkpt><trkpt lat="36.93973924168893" lon="15.022837166818812"><ele>414.0</ele><time>2026-03-28T17:02:33Z</time></trkpt><trkpt lat="36.93984580657794" lon="15.02285142241222"><ele>414.0</ele><time>2026-03-28T17:02:34Z</time></trkpt><trkpt lat="36.93998618458054" lon="15.022861271395099"><ele>414.0</ele><time>2026-03-28T17:02:35Z</time></trkpt><trkpt lat="36.94017815450483" lon="15.022900186951484"><ele>414.33333333333337</ele><time>2026-03-28T17:02:36Z</time></trkpt><trkpt lat="36.94037837453327" lon="15.022924869394245"><ele>414.6666666666667</ele><time>2026-03-28T17:02:37Z</time></trkpt><trkpt lat="36.940545756124415" lon="15.022945217821526"><ele>415.0</ele><time>2026-03-28T17:02:38Z</time></trkpt><trkpt lat="36.94071671963087" lon="15.022945102533276"><ele>415.0</ele><time>2026-03-28T17:02:39Z</time></trkpt><trkpt lat="36.94087853302731" lon="15.022982592385006"><ele>415.0</ele><time>2026-03-28T17:02:40Z</time></trkpt><trkpt lat="36.94102130189951" lon="15.023030942355323"><ele>415.0</ele><time>2026-03-28T17:02:41Z</time></trkpt><trkpt lat="36.941164209834696" lon="15.023092930942608"><ele>415.25</ele><time>2026-03-28T17:02:42Z</time></trkpt><trkpt lat="36.94129885982475" lon="15.023146039708077"><ele>415.5</ele><time>2026-03-28T17:02:43Z</time></trkpt><trkpt lat="36.94141864772705" lon="15.023189403475914"><ele>415.75</ele><time>2026-03-28T17:02:44Z</time></trkpt><trkpt lat="36.94153082400238" lon="15.023224727176858"><ele>416.0</ele><time>2026-03-28T17:02:45Z</time></trkpt><trkpt lat="36.94162502170318" lon="15.02327646652798"><ele>416.25</ele><time>2026-03-28T17:02:46Z</time></trkpt><trkpt lat="36.94172266474422" lon="15.023316516597022"><ele>416.5</ele><time>2026-03-28T17:02:47Z</time></trkpt><trkpt lat="36.94182721986352" lon="15.023367431695716"><ele>416.75</ele><time>2026-03-28T17:02:48Z</time></trkpt><trkpt lat="36.94195313754619" lon="15.023394343496765"><ele>417.0</ele><time>2026-03-28T17:02:49Z</time></trkpt><trkpt lat="36.94207706508158" lon="15.023422312918692"><ele>417.0</ele><time>2026-03-28T17:02:50Z</time></trkpt><trkpt lat="36.942198062864534" lon="15.023430390371608"><ele>417.0</ele><time>2026-03-28T17:02:51Z</time></trkpt><trkpt lat="36.94231598962116" lon="15.023431395887496"><ele>417.0</ele><time>2026-03-28T17:02:52Z</time></trkpt><trkpt lat="36.94244473560183" lon="15.023425854607785"><ele>417.0</ele><time>2026-03-28T17:02:53Z</time></trkpt><trkpt lat="36.94257638076703" lon="15.02341725259"><ele>416.5</ele><time>2026-03-28T17:02:54Z</time></trkpt><trkpt lat="36.94272865000489" lon="15.023415668411435"><ele>416.0</ele><time>2026-03-28T17:02:55Z</time></trkpt><trkpt lat="36.94287366069333" lon="15.023432359923333"><ele>415.5</ele><time>2026-03-28T17:02:56Z</time></trkpt><trkpt lat="36.943021190425455" lon="15.023402463796415"><ele>415.0</ele><time>2026-03-28T17:02:57Z</time></trkpt><trkpt lat="36.943167792687596" lon="15.023380435567574"><ele>415.0</ele><time>2026-03-28T17:02:58Z</time></trkpt><trkpt lat="36.94331663836996" lon="15.023353351159704"><ele>415.0</ele><time>2026-03-28T17:02:59Z</time></trkpt><trkpt lat="36.94344840306989" lon="15.0233347610213"><ele>415.0</ele><time>2026-03-28T17:03:00Z</time></trkpt><trkpt lat="36.94356499688745" lon="15.023313008135467"><ele>415.0</ele><time>2026-03-28T17:03:01Z</time></trkpt><trkpt lat="36.94366750428039" lon="15.023279303020361"><ele>413.5</ele><time>2026-03-28T17:03:02Z</time></trkpt><trkpt lat="36.94377331035796" lon="15.023247077826614"><ele>412.0</ele><time>2026-03-28T17:03:03Z</time></trkpt><trkpt lat="36.94389767282372" lon="15.023228387767459"><ele>410.5</ele><time>2026-03-28T17:03:04Z</time></trkpt><trkpt lat="36.94404704528674" lon="15.023212426793277"><ele>409.0</ele><time>2026-03-28T17:03:05Z</time></trkpt><trkpt lat="36.94418934181794" lon="15.023213962566203"><ele>406.75</ele><time>2026-03-28T17:03:06Z</time></trkpt><trkpt lat="36.9443249711378" lon="15.023193035208935"><ele>404.5</ele><time>2026-03-28T17:03:07Z</time></trkpt><trkpt lat="36.944455773420636" lon="15.023157811164582"><ele>402.25</ele><time>2026-03-28T17:03:08Z</time></trkpt><trkpt lat="36.944572422351804" lon="15.023119070781602"><ele>400.0</ele><time>2026-03-28T17:03:09Z</time></trkpt><trkpt lat="36.94467555893298" lon="15.023083589392286"><ele>400.0</ele><time>2026-03-28T17:03:10Z</time></trkpt><trkpt lat="36.94475999509211" lon="15.023055614141697"><ele>400.0</ele><time>2026-03-28T17:03:11Z</time></trkpt><trkpt lat="36.944830079389526" lon="15.023037146688043"><ele>400.0</ele><time>2026-03-28T17:03:12Z</time></trkpt><trkpt lat="36.94492870051806" lon="15.02302750675859"><ele>400.0</ele><time>2026-03-28T17:03:14Z</time></trkpt><trkpt lat="36.94504573089055" lon="15.023106780988352"><ele>400.0</ele><time>2026-03-28T17:03:16Z</time></trkpt><trkpt lat="36.94510204297631" lon="15.02315919467149"><ele>400.83333333333337</ele><time>2026-03-28T17:03:17Z</time></trkpt><trkpt lat="36.945165158360204" lon="15.02327325515919"><ele>401.6666666666667</ele><time>2026-03-28T17:03:19Z</time></trkpt><trkpt lat="36.94519047957345" lon="15.023346320529468"><ele>402.5</ele><time>2026-03-28T17:03:20Z</time></trkpt><trkpt lat="36.94521206214755" lon="15.023426901825975"><ele>403.33333333333337</ele><time>2026-03-28T17:03:21Z</time></trkpt><trkpt lat="36.94524329535087" lon="15.023501145636832"><ele>404.1666666666667</ele><time>2026-03-28T17:03:22Z</time></trkpt><trkpt lat="36.94524230649479" lon="15.023646382148545"><ele>405.0</ele><time>2026-03-28T17:03:24Z</time></trkpt><trkpt lat="36.94529696884454" lon="15.023784327444316"><ele>406.6666666666667</ele><time>2026-03-28T17:03:26Z</time></trkpt><trkpt lat="36.945346725878714" lon="15.023847407546294"><ele>408.33333333333337</ele><time>2026-03-28T17:03:27Z</time></trkpt><trkpt lat="36.94541153414566" lon="15.023893411868192"><ele>410.0</ele><time>2026-03-28T17:03:28Z</time></trkpt><trkpt lat="36.945505528584135" lon="15.023911354145067"><ele>411.6666666666667</ele><time>2026-03-28T17:03:29Z</time></trkpt><trkpt lat="36.94560388381237" lon="15.023879743495304"><ele>413.33333333333337</ele><time>2026-03-28T17:03:30Z</time></trkpt><trkpt lat="36.945700405132705" lon="15.023889321350385"><ele>415.0</ele><time>2026-03-28T17:03:31Z</time></trkpt><trkpt lat="36.9457791815798" lon="15.02387549265263"><ele>412.75</ele><time>2026-03-28T17:03:32Z</time></trkpt><trkpt lat="36.94589067223001" lon="15.023826294431341"><ele>410.5</ele><time>2026-03-28T17:03:34Z</time></trkpt><trkpt lat="36.945949285076125" lon="15.023752556023654"><ele>408.25</ele><time>2026-03-28T17:03:35Z</time></trkpt><trkpt lat="36.94603075597694" lon="15.023640870191793"><ele>406.0</ele><time>2026-03-28T17:03:36Z</time></trkpt><trkpt lat="36.94610552465341" lon="15.023509448973119"><ele>406.00000000000006</ele><time>2026-03-28T17:03:37Z</time></trkpt><trkpt lat="36.94617767717399" lon="15.023375838970042"><ele>406.0</ele><time>2026-03-28T17:03:38Z</time></trkpt><trkpt lat="36.94622859753981" lon="15.023281660265338"><ele>406.0</ele><time>2026-03-28T17:03:39Z</time></trkpt><trkpt lat="36.94627627272749" lon="15.023194736933734"><ele>406.0</ele><time>2026-03-28T17:03:40Z</time></trkpt><trkpt lat="36.94632394850478" lon="15.023114440305351"><ele>406.00000000000006</ele><time>2026-03-28T17:03:41Z</time></trkpt><trkpt lat="36.946362049016315" lon="15.023051531943826"><ele>406.0</ele><time>2026-03-28T17:03:42Z</time></trkpt><trkpt lat="36.946412605592414" lon="15.023001797497503"><ele>406.00000000000006</ele><time>2026-03-28T17:03:44Z</time></trkpt><trkpt lat="36.94650571215813" lon="15.023060719216147"><ele>406.0</ele><time>2026-03-28T17:04:10Z</time></trkpt><trkpt lat="36.94656502552735" lon="15.02310833696593"><ele>406.0</ele><time>2026-03-28T17:04:11Z</time></trkpt><trkpt lat="36.9466130091868" lon="15.023168659731303"><ele>406.0</ele><time>2026-03-28T17:04:12Z</time></trkpt><trkpt lat="36.946655020977246" lon="15.023268362333528"><ele>406.00000000000006</ele><time>2026-03-28T17:04:13Z</time></trkpt><trkpt lat="36.94669293116699" lon="15.023399248231065"><ele>406.0</ele><time>2026-03-28T17:04:14Z</time></trkpt><trkpt lat="36.946720818512524" lon="15.023509635514184"><ele>407.83333333333337</ele><time>2026-03-28T17:04:15Z</time></trkpt><trkpt lat="36.94675243994673" lon="15.023598181456698"><ele>409.6666666666667</ele><time>2026-03-28T17:04:16Z</time></trkpt><trkpt lat="36.94678763350622" lon="15.023680539797152"><ele>411.5</ele><time>2026-03-28T17:04:17Z</time></trkpt><trkpt lat="36.946836193154425" lon="15.023761204280492"><ele>413.33333333333337</ele><time>2026-03-28T17:04:18Z</time></trkpt><trkpt lat="36.94690534910746" lon="15.023829483116966"><ele>415.1666666666667</ele><time>2026-03-28T17:04:19Z</time></trkpt><trkpt lat="36.94698800497306" lon="15.023883259486905"><ele>417.0</ele><time>2026-03-28T17:04:20Z</time></trkpt><trkpt lat="36.94707869231101" lon="15.023906133770058"><ele>417.0</ele><time>2026-03-28T17:04:21Z</time></trkpt><trkpt lat="36.94717300752864" lon="15.023911988331559"><ele>417.0</ele><time>2026-03-28T17:04:22Z</time></trkpt><trkpt lat="36.94726618034195" lon="15.023940598838223"><ele>417.0</ele><time>2026-03-28T17:04:23Z</time></trkpt><trkpt lat="36.9473478969221" lon="15.02400899157042"><ele>417.0</ele><time>2026-03-28T17:04:24Z</time></trkpt><trkpt lat="36.94742896443603" lon="15.024096911146048"><ele>417.0</ele><time>2026-03-28T17:04:25Z</time></trkpt><trkpt lat="36.94750574406685" lon="15.024175993935499"><ele>418.0</ele><time>2026-03-28T17:04:26Z</time></trkpt><trkpt lat="36.947568951585595" lon="15.024252937063945"><ele>419.0</ele><time>2026-03-28T17:04:27Z</time></trkpt><trkpt lat="36.9476128130192" lon="15.024348548667014"><ele>420.0</ele><time>2026-03-28T17:04:28Z</time></trkpt><trkpt lat="36.9476369256786" lon="15.02448032671834"><ele>421.0</ele><time>2026-03-28T17:04:29Z</time></trkpt><trkpt lat="36.94765839321139" lon="15.024638056415286"><ele>422.0</ele><time>2026-03-28T17:04:30Z</time></trkpt><trkpt lat="36.947684793870295" lon="15.024787808025971"><ele>421.99999999999994</ele><time>2026-03-28T17:04:31Z</time></trkpt><trkpt lat="36.947712152036175" lon="15.024915766550412"><ele>422.0</ele><time>2026-03-28T17:04:32Z</time></trkpt><trkpt lat="36.947740289724464" lon="15.025034888277338"><ele>422.0</ele><time>2026-03-28T17:04:33Z</time></trkpt><trkpt lat="36.947757959059395" lon="15.025133238615535"><ele>422.0</ele><time>2026-03-28T17:04:34Z</time></trkpt><trkpt lat="36.947765066111636" lon="15.02522504221251"><ele>421.99999999999994</ele><time>2026-03-28T17:04:35Z</time></trkpt><trkpt lat="36.94774875421643" lon="15.025308160681126"><ele>422.0</ele><time>2026-03-28T17:04:36Z</time></trkpt><trkpt lat="36.94768146137864" lon="15.025372651374541"><ele>418.0</ele><time>2026-03-28T17:04:37Z</time></trkpt><trkpt lat="36.94762925987508" lon="15.025454884357023"><ele>414.0</ele><time>2026-03-28T17:04:38Z</time></trkpt><trkpt lat="36.947569684881095" lon="15.025513182426062"><ele>410.0</ele><time>2026-03-28T17:04:40Z</time></trkpt><trkpt lat="36.947507255831205" lon="15.025450550681265"><ele>406.0</ele><time>2026-03-28T17:04:42Z</time></trkpt><trkpt lat="36.94745903691372" lon="15.025367010843782"><ele>402.0</ele><time>2026-03-28T17:04:43Z</time></trkpt><trkpt lat="36.9473735071876" lon="15.02524107299231"><ele>401.6</ele><time>2026-03-28T17:04:44Z</time></trkpt><trkpt lat="36.94732049655015" lon="15.02510166267439"><ele>401.20000000000005</ele><time>2026-03-28T17:04:45Z</time></trkpt><trkpt lat="36.947271212653355" lon="15.024952138766057"><ele>400.8</ele><time>2026-03-28T17:04:46Z</time></trkpt><trkpt lat="36.947231774539596" lon="15.02483248627505"><ele>400.4</ele><time>2026-03-28T17:04:47Z</time></trkpt><trkpt lat="36.94717856674701" lon="15.024741743946526"><ele>400.0</ele><time>2026-03-28T17:04:48Z</time></trkpt><trkpt lat="36.947118586889964" lon="15.024663777210616"><ele>400.0</ele><time>2026-03-28T17:04:49Z</time></trkpt><trkpt lat="36.947037106503664" lon="15.02462163656573"><ele>400.0</ele><time>2026-03-28T17:04:50Z</time></trkpt><trkpt lat="36.94694364374849" lon="15.024615563200147"><ele>400.0</ele><time>2026-03-28T17:04:51Z</time></trkpt><trkpt lat="36.94683017819418" lon="15.024643335929767"><ele>400.0</ele><time>2026-03-28T17:04:52Z</time></trkpt><trkpt lat="36.946687497257095" lon="15.024697872645298"><ele>400.0</ele><time>2026-03-28T17:04:53Z</time></trkpt><trkpt lat="36.946535609100984" lon="15.024767241746545"><ele>396.6666666666667</ele><time>2026-03-28T17:04:54Z</time></trkpt><trkpt lat="36.94638372911444" lon="15.024826405663823"><ele>393.33333333333337</ele><time>2026-03-28T17:04:55Z</time></trkpt><trkpt lat="36.9462417228034" lon="15.024883637402505"><ele>390.0</ele><time>2026-03-28T17:04:56Z</time></trkpt><trkpt lat="36.94609585543019" lon="15.024960616963591"><ele>389.33333333333337</ele><time>2026-03-28T17:04:57Z</time></trkpt><trkpt lat="36.94592723436188" lon="15.025062862794645"><ele>388.6666666666667</ele><time>2026-03-28T17:04:58Z</time></trkpt><trkpt lat="36.945750445507585" lon="15.025169172936298"><ele>388.0</ele><time>2026-03-28T17:04:59Z</time></trkpt><trkpt lat="36.94556800245652" lon="15.025275094423193"><ele>388.0</ele><time>2026-03-28T17:05:00Z</time></trkpt><trkpt lat="36.94537509529178" lon="15.02538140105701"><ele>388.0</ele><time>2026-03-28T17:05:01Z</time></trkpt><trkpt lat="36.94518429389409" lon="15.025469098537817"><ele>388.0</ele><time>2026-03-28T17:05:02Z</time></trkpt><trkpt lat="36.944997010371594" lon="15.025536647161127"><ele>386.75</ele><time>2026-03-28T17:05:03Z</time></trkpt><trkpt lat="36.94482498365857" lon="15.025594067728152"><ele>385.5</ele><time>2026-03-28T17:05:04Z</time></trkpt><trkpt lat="36.94467611606911" lon="15.025648049607565"><ele>384.25</ele><time>2026-03-28T17:05:05Z</time></trkpt><trkpt lat="36.9445651887196" lon="15.02568972740845"><ele>383.0</ele><time>2026-03-28T17:05:06Z</time></trkpt><trkpt lat="36.944497234971614" lon="15.025721788499222"><ele>383.0</ele><time>2026-03-28T17:05:07Z</time></trkpt><trkpt lat="36.94441470347363" lon="15.025806392801476"><ele>383.0</ele><time>2026-03-28T17:05:09Z</time></trkpt><trkpt lat="36.94452313548144" lon="15.025930925850849"><ele>383.0</ele><time>2026-03-28T17:05:10Z</time></trkpt><trkpt lat="36.94461325915921" lon="15.026018555052824"><ele>383.0</ele><time>2026-03-28T17:05:11Z</time></trkpt><trkpt lat="36.9447546835748" lon="15.02613796833961"><ele>389.0</ele><time>2026-03-28T17:05:12Z</time></trkpt><trkpt lat="36.94490757493197" lon="15.026279263162113"><ele>395.0</ele><time>2026-03-28T17:05:13Z</time></trkpt><trkpt lat="36.94504853856268" lon="15.026420803953824"><ele>401.0</ele><time>2026-03-28T17:05:14Z</time></trkpt><trkpt lat="36.94518755513339" lon="15.026567400149876"><ele>404.3333333333333</ele><time>2026-03-28T17:05:15Z</time></trkpt><trkpt lat="36.9453271399967" lon="15.026716219547565"><ele>407.66666666666663</ele><time>2026-03-28T17:05:16Z</time></trkpt><trkpt lat="36.94546654313033" lon="15.026855695808024"><ele>411.0</ele><time>2026-03-28T17:05:17Z</time></trkpt><trkpt lat="36.945597188950785" lon="15.026986420712772"><ele>411.0</ele><time>2026-03-28T17:05:18Z</time></trkpt><trkpt lat="36.9457064043698" lon="15.027098283065637"><ele>411.0</ele><time>2026-03-28T17:05:19Z</time></trkpt><trkpt lat="36.945799948923714" lon="15.027184196407639"><ele>411.0</ele><time>2026-03-28T17:05:20Z</time></trkpt><trkpt lat="36.94589877958628" lon="15.02722941471364"><ele>411.0</ele><time>2026-03-28T17:05:21Z</time></trkpt><trkpt lat="36.94603168393002" lon="15.027232030205235"><ele>411.0</ele><time>2026-03-28T17:05:22Z</time></trkpt><trkpt lat="36.94622681999013" lon="15.027205846053983"><ele>411.0</ele><time>2026-03-28T17:05:23Z</time></trkpt><trkpt lat="36.94646957117815" lon="15.027166627000565"><ele>411.0</ele><time>2026-03-28T17:05:24Z</time></trkpt><trkpt lat="36.94674567025237" lon="15.027170616245774"><ele>409.5</ele><time>2026-03-28T17:05:25Z</time></trkpt><trkpt lat="36.94705042080337" lon="15.027157299060478"><ele>408.0</ele><time>2026-03-28T17:05:26Z</time></trkpt><trkpt lat="36.9473738712145" lon="15.027144988358438"><ele>409.0</ele><time>2026-03-28T17:05:27Z</time></trkpt><trkpt lat="36.94770676725475" lon="15.027100374324078"><ele>410.0</ele><time>2026-03-28T17:05:28Z</time></trkpt><trkpt lat="36.947981637181975" lon="15.027087291590552"><ele>410.0</ele><time>2026-03-28T17:05:29Z</time></trkpt><trkpt lat="36.94818862920554" lon="15.027072672386183"><ele>410.0</ele><time>2026-03-28T17:05:30Z</time></trkpt><trkpt lat="36.948364982892826" lon="15.02706231980973"><ele>410.0</ele><time>2026-03-28T17:05:31Z</time></trkpt><trkpt lat="36.94850846694907" lon="15.027051066406026"><ele>411.0</ele><time>2026-03-28T17:05:32Z</time></trkpt><trkpt lat="36.94863878922112" lon="15.027045964963753"><ele>412.0</ele><time>2026-03-28T17:05:33Z</time></trkpt><trkpt lat="36.948746322984974" lon="15.027040473481849"><ele>413.0</ele><time>2026-03-28T17:05:34Z</time></trkpt><trkpt lat="36.948840816246566" lon="15.027016110813761"><ele>414.0</ele><time>2026-03-28T17:05:35Z</time></trkpt><trkpt lat="36.94892649466365" lon="15.026949321379343"><ele>415.0</ele><time>2026-03-28T17:05:36Z</time></trkpt><trkpt lat="36.948994998762245" lon="15.026861789629399"><ele>415.00000000000006</ele><time>2026-03-28T17:05:37Z</time></trkpt><trkpt lat="36.94905945534064" lon="15.02679773740325"><ele>415.0</ele><time>2026-03-28T17:05:38Z</time></trkpt><trkpt lat="36.94912227430476" lon="15.026719735374199"><ele>415.0</ele><time>2026-03-28T17:05:39Z</time></trkpt><trkpt lat="36.94917918149422" lon="15.026628058698384"><ele>415.0</ele><time>2026-03-28T17:05:40Z</time></trkpt><trkpt lat="36.94924691661945" lon="15.026554529540014"><ele>415.00000000000006</ele><time>2026-03-28T17:05:41Z</time></trkpt><trkpt lat="36.94931920074689" lon="15.026490130657823"><ele>415.0</ele><time>2026-03-28T17:05:42Z</time></trkpt><trkpt lat="36.94941629637532" lon="15.026462126928598"><ele>414.75</ele><time>2026-03-28T17:05:43Z</time></trkpt><trkpt lat="36.949521145914346" lon="15.02643134861927"><ele>414.5</ele><time>2026-03-28T17:05:44Z</time></trkpt><trkpt lat="36.949658662558676" lon="15.026405012215271"><ele>414.25</ele><time>2026-03-28T17:05:45Z</time></trkpt><trkpt lat="36.949833732076726" lon="15.026354486361948"><ele>414.0</ele><time>2026-03-28T17:05:46Z</time></trkpt><trkpt lat="36.95002465519654" lon="15.026326641255428"><ele>416.0</ele><time>2026-03-28T17:05:47Z</time></trkpt><trkpt lat="36.95019863982665" lon="15.026299121763087"><ele>418.0</ele><time>2026-03-28T17:05:48Z</time></trkpt><trkpt lat="36.95035218792325" lon="15.026290907258257"><ele>420.0</ele><time>2026-03-28T17:05:49Z</time></trkpt><trkpt lat="36.95046494862738" lon="15.026316503297112"><ele>422.0</ele><time>2026-03-28T17:05:50Z</time></trkpt><trkpt lat="36.95056867353878" lon="15.026375107971539"><ele>422.0</ele><time>2026-03-28T17:05:51Z</time></trkpt><trkpt lat="36.95068240542066" lon="15.026499345265567"><ele>422.0</ele><time>2026-03-28T17:05:52Z</time></trkpt><trkpt lat="36.95084759445252" lon="15.026626757509726"><ele>422.0</ele><time>2026-03-28T17:05:53Z</time></trkpt><trkpt lat="36.95103149659943" lon="15.026787619370843"><ele>420.0</ele><time>2026-03-28T17:05:54Z</time></trkpt><trkpt lat="36.95119068359225" lon="15.026920117156527"><ele>418.0</ele><time>2026-03-28T17:05:55Z</time></trkpt><trkpt lat="36.95134804201567" lon="15.02708128154784"><ele>416.0</ele><time>2026-03-28T17:05:56Z</time></trkpt><trkpt lat="36.95150680553272" lon="15.02727962884302"><ele>416.0</ele><time>2026-03-28T17:05:57Z</time></trkpt><trkpt lat="36.951645882271244" lon="15.027463626425945"><ele>416.0</ele><time>2026-03-28T17:05:58Z</time></trkpt><trkpt lat="36.951777529257036" lon="15.027642816298082"><ele>416.0</ele><time>2026-03-28T17:05:59Z</time></trkpt><trkpt lat="36.951891817302354" lon="15.027830953128595"><ele>415.3333333333333</ele><time>2026-03-28T17:06:00Z</time></trkpt><trkpt lat="36.95197291780651" lon="15.02805934135543"><ele>414.66666666666663</ele><time>2026-03-28T17:06:01Z</time></trkpt><trkpt lat="36.952046233279255" lon="15.028311877155021"><ele>414.0</ele><time>2026-03-28T17:06:02Z</time></trkpt><trkpt lat="36.952130265554835" lon="15.02861702774892"><ele>411.5</ele><time>2026-03-28T17:06:03Z</time></trkpt><trkpt lat="36.95219014931856" lon="15.028957610465206"><ele>409.0</ele><time>2026-03-28T17:06:04Z</time></trkpt><trkpt lat="36.95223273360443" lon="15.029237211137753"><ele>408.6666666666667</ele><time>2026-03-28T17:06:05Z</time></trkpt><trkpt lat="36.95227222705198" lon="15.029460535638533"><ele>408.33333333333337</ele><time>2026-03-28T17:06:06Z</time></trkpt><trkpt lat="36.95231977534666" lon="15.02964705681526"><ele>408.0</ele><time>2026-03-28T17:06:07Z</time></trkpt><trkpt lat="36.95237126541359" lon="15.029799547542332"><ele>408.0</ele><time>2026-03-28T17:06:08Z</time></trkpt><trkpt lat="36.952425008744335" lon="15.029935257265183"><ele>408.0</ele><time>2026-03-28T17:06:09Z</time></trkpt><trkpt lat="36.95248178782955" lon="15.030039525501179"><ele>408.0</ele><time>2026-03-28T17:06:10Z</time></trkpt><trkpt lat="36.952554302655145" lon="15.030096651388135"><ele>408.0</ele><time>2026-03-28T17:06:11Z</time></trkpt><trkpt lat="36.95265042019353" lon="15.030107248945892"><ele>408.0</ele><time>2026-03-28T17:06:12Z</time></trkpt><trkpt lat="36.95279588158336" lon="15.030092720364305"><ele>407.25</ele><time>2026-03-28T17:06:13Z</time></trkpt><trkpt lat="36.952949843992855" lon="15.030097556213033"><ele>406.5</ele><time>2026-03-28T17:06:14Z</time></trkpt><trkpt lat="36.95306446199097" lon="15.03013330701653"><ele>405.75</ele><time>2026-03-28T17:06:15Z</time></trkpt><trkpt lat="36.95315280487038" lon="15.030234240692522"><ele>405.0</ele><time>2026-03-28T17:06:16Z</time></trkpt><trkpt lat="36.95329354538964" lon="15.030362844831883"><ele>406.0</ele><time>2026-03-28T17:06:17Z</time></trkpt><trkpt lat="36.9534543892087" lon="15.030566732928518"><ele>407.0</ele><time>2026-03-28T17:06:18Z</time></trkpt><trkpt lat="36.953596669778044" lon="15.030743327587322"><ele>408.0</ele><time>2026-03-28T17:06:19Z</time></trkpt><trkpt lat="36.95371645676922" lon="15.030870418856404"><ele>402.33333333333337</ele><time>2026-03-28T17:06:20Z</time></trkpt><trkpt lat="36.953830087976" lon="15.030951811917975"><ele>396.6666666666667</ele><time>2026-03-28T17:06:21Z</time></trkpt><trkpt lat="36.95396873088424" lon="15.031000081010962"><ele>391.0</ele><time>2026-03-28T17:06:22Z</time></trkpt><trkpt lat="36.954146643271635" lon="15.031020840426551"><ele>389.6666666666667</ele><time>2026-03-28T17:06:23Z</time></trkpt><trkpt lat="36.95437507625873" lon="15.031021979157146"><ele>388.33333333333337</ele><time>2026-03-28T17:06:24Z</time></trkpt><trkpt lat="36.95459176248429" lon="15.03100394587833"><ele>387.0</ele><time>2026-03-28T17:06:25Z</time></trkpt><trkpt lat="36.95478808936327" lon="15.03096325712496"><ele>387.0</ele><time>2026-03-28T17:06:26Z</time></trkpt><trkpt lat="36.95497480292248" lon="15.030901093542473"><ele>387.0</ele><time>2026-03-28T17:06:27Z</time></trkpt><trkpt lat="36.95514894448522" lon="15.030848427286852"><ele>387.0</ele><time>2026-03-28T17:06:28Z</time></trkpt><trkpt lat="36.95531920703112" lon="15.030812941233766"><ele>385.0</ele><time>2026-03-28T17:06:29Z</time></trkpt><trkpt lat="36.95548123645035" lon="15.030824208756217"><ele>383.0</ele><time>2026-03-28T17:06:30Z</time></trkpt><trkpt lat="36.95563993913411" lon="15.030793741096714"><ele>381.0</ele><time>2026-03-28T17:06:31Z</time></trkpt><trkpt lat="36.95580316334239" lon="15.03075471993724"><ele>382.5</ele><time>2026-03-28T17:06:32Z</time></trkpt><trkpt lat="36.95596077698597" lon="15.030725552348532"><ele>384.0</ele><time>2026-03-28T17:06:33Z</time></trkpt><trkpt lat="36.95610329786482" lon="15.030699177792643"><ele>385.5</ele><time>2026-03-28T17:06:34Z</time></trkpt><trkpt lat="36.956234027202484" lon="15.030674985363682"><ele>387.0</ele><time>2026-03-28T17:06:35Z</time></trkpt><trkpt lat="36.95634734496135" lon="15.03065352540692"><ele>387.0</ele><time>2026-03-28T17:06:36Z</time></trkpt><trkpt lat="36.95646189887684" lon="15.030629178796135"><ele>387.0</ele><time>2026-03-28T17:06:37Z</time></trkpt><trkpt lat="36.9565528584079" lon="15.030618934698268"><ele>387.0</ele><time>2026-03-28T17:06:38Z</time></trkpt><trkpt lat="36.95661958167739" lon="15.030593892436988"><ele>387.0</ele><time>2026-03-28T17:06:39Z</time></trkpt><trkpt lat="36.95666380987509" lon="15.030531804293707"><ele>387.0</ele><time>2026-03-28T17:06:40Z</time></trkpt><trkpt lat="36.95669529222397" lon="15.030430143039707"><ele>387.0</ele><time>2026-03-28T17:06:41Z</time></trkpt><trkpt lat="36.95670838638111" lon="15.030326795731652"><ele>387.8333333333333</ele><time>2026-03-28T17:06:42Z</time></trkpt><trkpt lat="36.956730172266546" lon="15.030209875392472"><ele>388.66666666666663</ele><time>2026-03-28T17:06:44Z</time></trkpt><trkpt lat="36.95675485105699" lon="15.030110547072704"><ele>389.5</ele><time>2026-03-28T17:06:47Z</time></trkpt><trkpt lat="36.956781305793584" lon="15.030017764707486"><ele>390.3333333333333</ele><time>2026-03-28T17:06:51Z</time></trkpt><trkpt lat="36.956803630892985" lon="15.029943523001243"><ele>391.16666666666663</ele><time>2026-03-28T17:06:55Z</time></trkpt><trkpt lat="36.95684991702013" lon="15.02987393101774"><ele>392.0</ele><time>2026-03-28T17:06:57Z</time></trkpt><trkpt lat="36.9568908569884" lon="15.02980849446484"><ele>392.8333333333333</ele><time>2026-03-28T17:06:58Z</time></trkpt><trkpt lat="36.95693931331629" lon="15.029724376924014"><ele>393.66666666666663</ele><time>2026-03-28T17:06:59Z</time></trkpt><trkpt lat="36.95700130410484" lon="15.02964328643579"><ele>394.5</ele><time>2026-03-28T17:07:00Z</time></trkpt><trkpt lat="36.95707444257165" lon="15.02959165700009"><ele>395.33333333333337</ele><time>2026-03-28T17:07:01Z</time></trkpt><trkpt lat="36.95713940950003" lon="15.029577038659903"><ele>396.1666666666667</ele><time>2026-03-28T17:07:02Z</time></trkpt><trkpt lat="36.957255606867285" lon="15.029641101075827"><ele>397.0</ele><time>2026-03-28T17:07:04Z</time></trkpt><trkpt lat="36.95729640266577" lon="15.029711328042378"><ele>397.00000000000006</ele><time>2026-03-28T17:07:05Z</time></trkpt><trkpt lat="36.95730070618833" lon="15.029830396947718"><ele>397.0</ele><time>2026-03-28T17:07:07Z</time></trkpt><trkpt lat="36.957260827464694" lon="15.02989680656368"><ele>397.0</ele><time>2026-03-28T17:07:08Z</time></trkpt><trkpt lat="36.95722181125893" lon="15.02996232746765"><ele>397.0</ele><time>2026-03-28T17:07:09Z</time></trkpt><trkpt lat="36.9571803179505" lon="15.030106994961061"><ele>397.00000000000006</ele><time>2026-03-28T17:07:11Z</time></trkpt><trkpt lat="36.95718206131606" lon="15.030193790602057"><ele>397.0</ele><time>2026-03-28T17:07:12Z</time></trkpt><trkpt lat="36.957222915220285" lon="15.03030034459583"><ele>395.75</ele><time>2026-03-28T17:07:13Z</time></trkpt><trkpt lat="36.95731301765637" lon="15.030455126654648"><ele>394.5</ele><time>2026-03-28T17:07:14Z</time></trkpt><trkpt lat="36.95741317476734" lon="15.030614741678292"><ele>393.25</ele><time>2026-03-28T17:07:15Z</time></trkpt><trkpt lat="36.957483873079234" lon="15.030753878578892"><ele>392.0</ele><time>2026-03-28T17:07:16Z</time></trkpt><trkpt lat="36.957506007703905" lon="15.030872763252713"><ele>388.25</ele><time>2026-03-28T17:07:17Z</time></trkpt><trkpt lat="36.95751292691682" lon="15.030965359579845"><ele>384.5</ele><time>2026-03-28T17:07:18Z</time></trkpt><trkpt lat="36.9574849438207" lon="15.031100891408274"><ele>380.75</ele><time>2026-03-28T17:07:19Z</time></trkpt><trkpt lat="36.957468925258624" lon="15.031307247240886"><ele>377.0</ele><time>2026-03-28T17:07:20Z</time></trkpt><trkpt lat="36.9574358568316" lon="15.031469862653003"><ele>377.0</ele><time>2026-03-28T17:07:21Z</time></trkpt><trkpt lat="36.95739754393645" lon="15.031572448706168"><ele>377.0</ele><time>2026-03-28T17:07:22Z</time></trkpt><trkpt lat="36.957333378669425" lon="15.031627789944201"><ele>377.0</ele><time>2026-03-28T17:07:23Z</time></trkpt><trkpt lat="36.95723224275763" lon="15.031595701019992"><ele>377.0</ele><time>2026-03-28T17:07:24Z</time></trkpt><trkpt lat="36.95712835334906" lon="15.03163160362806"><ele>377.0</ele><time>2026-03-28T17:07:25Z</time></trkpt><trkpt lat="36.95703047709294" lon="15.031639750914062"><ele>377.0</ele><time>2026-03-28T17:07:26Z</time></trkpt><trkpt lat="36.95693102722258" lon="15.031735529555949"><ele>377.0</ele><time>2026-03-28T17:07:27Z</time></trkpt><trkpt lat="36.95681367297502" lon="15.031909319692895"><ele>377.0</ele><time>2026-03-28T17:07:28Z</time></trkpt><trkpt lat="36.9566996936443" lon="15.032139619710177"><ele>374.0</ele><time>2026-03-28T17:07:29Z</time></trkpt><trkpt lat="36.956572735472825" lon="15.03241131453371"><ele>371.0</ele><time>2026-03-28T17:07:30Z</time></trkpt><trkpt lat="36.956443429578165" lon="15.032653222851904"><ele>374.5</ele><time>2026-03-28T17:07:31Z</time></trkpt><trkpt lat="36.95634779005771" lon="15.032827424410423"><ele>378.0</ele><time>2026-03-28T17:07:32Z</time></trkpt><trkpt lat="36.95628551379274" lon="15.032959552981527"><ele>381.5</ele><time>2026-03-28T17:07:33Z</time></trkpt><trkpt lat="36.95625545413478" lon="15.033061953442722"><ele>385.0</ele><time>2026-03-28T17:07:34Z</time></trkpt><trkpt lat="36.95628512695091" lon="15.033197861281872"><ele>385.0</ele><time>2026-03-28T17:07:36Z</time></trkpt><trkpt lat="36.95640163748288" lon="15.033198315351806"><ele>385.0</ele><time>2026-03-28T17:07:37Z</time></trkpt><trkpt lat="36.95651590437784" lon="15.033167546224"><ele>385.0</ele><time>2026-03-28T17:07:38Z</time></trkpt><trkpt lat="36.95665170929514" lon="15.033096234994064"><ele>385.0</ele><time>2026-03-28T17:07:39Z</time></trkpt><trkpt lat="36.95680606173497" lon="15.033012127889311"><ele>389.0</ele><time>2026-03-28T17:07:40Z</time></trkpt><trkpt lat="36.95701147275027" lon="15.032920203997282"><ele>393.0</ele><time>2026-03-28T17:07:41Z</time></trkpt><trkpt lat="36.95725046212593" lon="15.032818482594086"><ele>393.0</ele><time>2026-03-28T17:07:42Z</time></trkpt><trkpt lat="36.95749431414411" lon="15.032726045176641"><ele>393.0</ele><time>2026-03-28T17:07:43Z</time></trkpt><trkpt lat="36.95768395630114" lon="15.032658846199697"><ele>391.4</ele><time>2026-03-28T17:07:44Z</time></trkpt><trkpt lat="36.95782484965511" lon="15.032608336929979"><ele>389.79999999999995</ele><time>2026-03-28T17:07:45Z</time></trkpt><trkpt lat="36.9579262726973" lon="15.032575698266657"><ele>388.2</ele><time>2026-03-28T17:07:46Z</time></trkpt><trkpt lat="36.95800517731581" lon="15.032554207274485"><ele>386.6</ele><time>2026-03-28T17:07:47Z</time></trkpt><trkpt lat="36.95807478917025" lon="15.032657937620533"><ele>385.0</ele><time>2026-03-28T17:07:49Z</time></trkpt><trkpt lat="36.958137495172345" lon="15.032763792255698"><ele>385.0</ele><time>2026-03-28T17:07:50Z</time></trkpt><trkpt lat="36.958170713561834" lon="15.03293920053273"><ele>385.0</ele><time>2026-03-28T17:07:51Z</time></trkpt><trkpt lat="36.9582151101196" lon="15.03315991859188"><ele>385.0</ele><time>2026-03-28T17:07:52Z</time></trkpt><trkpt lat="36.95828872867674" lon="15.033427645715038"><ele>392.5</ele><time>2026-03-28T17:07:53Z</time></trkpt><trkpt lat="36.95836943440746" lon="15.033730068899533"><ele>400.0</ele><time>2026-03-28T17:07:54Z</time></trkpt><trkpt lat="36.95844032066531" lon="15.03402658880553"><ele>404.33333333333337</ele><time>2026-03-28T17:07:55Z</time></trkpt><trkpt lat="36.95850433557499" lon="15.034260096111566"><ele>408.66666666666663</ele><time>2026-03-28T17:07:56Z</time></trkpt><trkpt lat="36.95854762344081" lon="15.034453184502762"><ele>413.0</ele><time>2026-03-28T17:07:57Z</time></trkpt><trkpt lat="36.958597820365895" lon="15.03460688672346"><ele>413.0</ele><time>2026-03-28T17:07:58Z</time></trkpt><trkpt lat="36.95868805439606" lon="15.034744839622842"><ele>413.0</ele><time>2026-03-28T17:07:59Z</time></trkpt><trkpt lat="36.95883878465036" lon="15.0349075270465"><ele>413.0</ele><time>2026-03-28T17:08:00Z</time></trkpt><trkpt lat="36.95903922372516" lon="15.035103575536963"><ele>413.5</ele><time>2026-03-28T17:08:01Z</time></trkpt><trkpt lat="36.959260597989896" lon="15.03533521616648"><ele>414.0</ele><time>2026-03-28T17:08:02Z</time></trkpt><trkpt lat="36.95949485583668" lon="15.035589024564198"><ele>411.0</ele><time>2026-03-28T17:08:03Z</time></trkpt><trkpt lat="36.95974482577349" lon="15.035860635131158"><ele>408.0</ele><time>2026-03-28T17:08:04Z</time></trkpt><trkpt lat="36.95997205351585" lon="15.036113564858674"><ele>410.5</ele><time>2026-03-28T17:08:05Z</time></trkpt><trkpt lat="36.96017862447531" lon="15.036335338573807"><ele>413.0</ele><time>2026-03-28T17:08:06Z</time></trkpt><trkpt lat="36.96037400062322" lon="15.036547449401214"><ele>410.66666666666663</ele><time>2026-03-28T17:08:07Z</time></trkpt><trkpt lat="36.96055163135688" lon="15.036740539659169"><ele>408.33333333333337</ele><time>2026-03-28T17:08:08Z</time></trkpt><trkpt lat="36.96070815091704" lon="15.036906226309931"><ele>406.0</ele><time>2026-03-28T17:08:09Z</time></trkpt><trkpt lat="36.96084625290537" lon="15.037046297662357"><ele>406.75</ele><time>2026-03-28T17:08:10Z</time></trkpt><trkpt lat="36.96095992268311" lon="15.037193712893353"><ele>407.5</ele><time>2026-03-28T17:08:11Z</time></trkpt><trkpt lat="36.961069853614866" lon="15.037286144277335"><ele>408.25</ele><time>2026-03-28T17:08:12Z</time></trkpt><trkpt lat="36.96115168507843" lon="15.037380582891313"><ele>409.0</ele><time>2026-03-28T17:08:13Z</time></trkpt><trkpt lat="36.96121835596864" lon="15.037459289814423"><ele>409.1666666666667</ele><time>2026-03-28T17:08:14Z</time></trkpt><trkpt lat="36.96126588423309" lon="15.037519575753453"><ele>409.33333333333337</ele><time>2026-03-28T17:08:15Z</time></trkpt><trkpt lat="36.96130838794745" lon="15.037596165938794"><ele>409.5</ele><time>2026-03-28T17:08:17Z</time></trkpt><trkpt lat="36.96133845053455" lon="15.03767820723917"><ele>409.66666666666663</ele><time>2026-03-28T17:09:15Z</time></trkpt><trkpt lat="36.96145258907993" lon="15.037641181508025"><ele>409.8333333333333</ele><time>2026-03-28T17:09:19Z</time></trkpt><trkpt lat="36.96151235530666" lon="15.037610595574352"><ele>410.0</ele><time>2026-03-28T17:09:20Z</time></trkpt><trkpt lat="36.96160510251712" lon="15.037564532590396"><ele>410.75</ele><time>2026-03-28T17:09:21Z</time></trkpt><trkpt lat="36.96171837635593" lon="15.037518309095978"><ele>411.5</ele><time>2026-03-28T17:09:22Z</time></trkpt><trkpt lat="36.96184116067467" lon="15.037460414598664"><ele>412.25</ele><time>2026-03-28T17:09:23Z</time></trkpt><trkpt lat="36.961974094288706" lon="15.037400387925848"><ele>413.0</ele><time>2026-03-28T17:09:24Z</time></trkpt><trkpt lat="36.96212201517845" lon="15.037335601466381"><ele>413.0</ele><time>2026-03-28T17:09:25Z</time></trkpt><trkpt lat="36.9622561514704" lon="15.037279585990118"><ele>413.0</ele><time>2026-03-28T17:09:26Z</time></trkpt><trkpt lat="36.962349483375455" lon="15.037235655767414"><ele>413.0</ele><time>2026-03-28T17:09:27Z</time></trkpt><trkpt lat="36.962438560063006" lon="15.037218608227448"><ele>413.0</ele><time>2026-03-28T17:09:29Z</time></trkpt><trkpt lat="36.96249635811085" lon="15.037151161512528"><ele>413.0</ele><time>2026-03-28T17:09:31Z</time></trkpt><trkpt lat="36.9625562234062" lon="15.03712343507368"><ele>412.99999999999994</ele><time>2026-03-28T17:09:33Z</time></trkpt><trkpt lat="36.962470002590436" lon="15.037118606102743"><ele>413.0</ele><time>2026-03-28T17:09:38Z</time></trkpt><trkpt lat="36.96242691124938" lon="15.03719165818833"><ele>413.0</ele><time>2026-03-28T17:09:39Z</time></trkpt><trkpt lat="36.962384505036354" lon="15.037250399947087"><ele>413.0</ele><time>2026-03-28T17:09:41Z</time></trkpt><trkpt lat="36.96239510181135" lon="15.037343764123143"><ele>412.99999999999994</ele><time>2026-03-28T17:09:44Z</time></trkpt><trkpt lat="36.962439327068" lon="15.037412662482739"><ele>413.0</ele><time>2026-03-28T17:09:45Z</time></trkpt><trkpt lat="36.96251472162874" lon="15.037472501024787"><ele>414.0</ele><time>2026-03-28T17:09:46Z</time></trkpt><trkpt lat="36.96257456637108" lon="15.037545110144453"><ele>415.0</ele><time>2026-03-28T17:09:47Z</time></trkpt><trkpt lat="36.962592596642324" lon="15.03762421585615"><ele>416.0</ele><time>2026-03-28T17:09:48Z</time></trkpt><trkpt lat="36.9626090436147" lon="15.037735939247467"><ele>417.0</ele><time>2026-03-28T17:09:50Z</time></trkpt><trkpt lat="36.9626441657933" lon="15.037848957125432"><ele>418.0</ele><time>2026-03-28T17:09:52Z</time></trkpt><trkpt lat="36.96268586447445" lon="15.037997575303462"><ele>418.0</ele><time>2026-03-28T17:09:54Z</time></trkpt><trkpt lat="36.96273298647661" lon="15.03808781577479"><ele>418.0</ele><time>2026-03-28T17:09:55Z</time></trkpt><trkpt lat="36.96281082503797" lon="15.038167142415643"><ele>418.0</ele><time>2026-03-28T17:09:56Z</time></trkpt><trkpt lat="36.96290039779952" lon="15.038257522395025"><ele>418.0</ele><time>2026-03-28T17:09:57Z</time></trkpt><trkpt lat="36.963006045116316" lon="15.03835211147161"><ele>418.0</ele><time>2026-03-28T17:09:58Z</time></trkpt><trkpt lat="36.96311419870557" lon="15.038449957390077"><ele>416.4</ele><time>2026-03-28T17:09:59Z</time></trkpt><trkpt lat="36.963180198466674" lon="15.038559912991264"><ele>414.79999999999995</ele><time>2026-03-28T17:10:00Z</time></trkpt><trkpt lat="36.963257193948195" lon="15.038644145078573"><ele>413.2</ele><time>2026-03-28T17:10:01Z</time></trkpt><trkpt lat="36.96331274944169" lon="15.038741714393492"><ele>411.6</ele><time>2026-03-28T17:10:02Z</time></trkpt><trkpt lat="36.96333023433674" lon="15.03885122060468"><ele>410.0</ele><time>2026-03-28T17:10:03Z</time></trkpt><trkpt lat="36.96334401653476" lon="15.038968823932528"><ele>410.0</ele><time>2026-03-28T17:10:04Z</time></trkpt><trkpt lat="36.96337221543446" lon="15.039135517426228"><ele>410.0</ele><time>2026-03-28T17:10:05Z</time></trkpt><trkpt lat="36.96336913203797" lon="15.039327483027256"><ele>410.0</ele><time>2026-03-28T17:10:06Z</time></trkpt><trkpt lat="36.963378976393955" lon="15.039490331779042"><ele>410.0</ele><time>2026-03-28T17:10:07Z</time></trkpt><trkpt lat="36.96338672801787" lon="15.039637525451015"><ele>410.0</ele><time>2026-03-28T17:10:08Z</time></trkpt><trkpt lat="36.96340224932858" lon="15.03978809489038"><ele>410.0</ele><time>2026-03-28T17:10:09Z</time></trkpt><trkpt lat="36.963438453891804" lon="15.03995303587206"><ele>410.0</ele><time>2026-03-28T17:10:10Z</time></trkpt><trkpt lat="36.96345939835395" lon="15.040110857091282"><ele>410.0</ele><time>2026-03-28T17:10:11Z</time></trkpt><trkpt lat="36.96346600450016" lon="15.04026725948559"><ele>409.4</ele><time>2026-03-28T17:10:12Z</time></trkpt><trkpt lat="36.96347442506464" lon="15.04043277303468"><ele>408.8</ele><time>2026-03-28T17:10:13Z</time></trkpt><trkpt lat="36.963486034780594" lon="15.040584215339683"><ele>408.20000000000005</ele><time>2026-03-28T17:10:14Z</time></trkpt><trkpt lat="36.963494744102974" lon="15.040708952739006"><ele>407.6</ele><time>2026-03-28T17:10:15Z</time></trkpt><trkpt lat="36.96350363632294" lon="15.040807371397856"><ele>407.0</ele><time>2026-03-28T17:10:16Z</time></trkpt><trkpt lat="36.96351301338413" lon="15.040946748567684"><ele>406.0</ele><time>2026-03-28T17:10:18Z</time></trkpt><trkpt lat="36.96351713602371" lon="15.041096617696187"><ele>405.0</ele><time>2026-03-28T17:10:20Z</time></trkpt><trkpt lat="36.96352572439356" lon="15.04122155980207"><ele>404.0</ele><time>2026-03-28T17:10:22Z</time></trkpt><trkpt lat="36.96354894817032" lon="15.041358625907847"><ele>403.0</ele><time>2026-03-28T17:10:24Z</time></trkpt><trkpt lat="36.963558285860515" lon="15.041438758885317"><ele>402.0</ele><time>2026-03-28T17:10:25Z</time></trkpt><trkpt lat="36.96358157325465" lon="15.041545767311531"><ele>400.8</ele><time>2026-03-28T17:10:26Z</time></trkpt><trkpt lat="36.96358952709755" lon="15.041662357888763"><ele>399.6</ele><time>2026-03-28T17:10:27Z</time></trkpt><trkpt lat="36.963604424259145" lon="15.041798220069884"><ele>398.40000000000003</ele><time>2026-03-28T17:10:28Z</time></trkpt><trkpt lat="36.963614603165084" lon="15.041919452512268"><ele>397.20000000000005</ele><time>2026-03-28T17:10:29Z</time></trkpt><trkpt lat="36.96362544939171" lon="15.042054019465462"><ele>396.0</ele><time>2026-03-28T17:10:30Z</time></trkpt><trkpt lat="36.96364244251929" lon="15.042190527777528"><ele>396.0</ele><time>2026-03-28T17:10:31Z</time></trkpt><trkpt lat="36.96367905031896" lon="15.042316779100082"><ele>396.0</ele><time>2026-03-28T17:10:32Z</time></trkpt><trkpt lat="36.96369677886234" lon="15.04244913945428"><ele>396.0</ele><time>2026-03-28T17:10:33Z</time></trkpt><trkpt lat="36.96370262850494" lon="15.042576462438328"><ele>396.0</ele><time>2026-03-28T17:10:34Z</time></trkpt><trkpt lat="36.96370873089124" lon="15.042729534525112"><ele>396.0</ele><time>2026-03-28T17:10:35Z</time></trkpt><trkpt lat="36.96372528618068" lon="15.04289930362304"><ele>395.20000000000005</ele><time>2026-03-28T17:10:36Z</time></trkpt><trkpt lat="36.963719162581974" lon="15.04305040255929"><ele>394.40000000000003</ele><time>2026-03-28T17:10:37Z</time></trkpt><trkpt lat="36.9637317969556" lon="15.043194187895951"><ele>393.6</ele><time>2026-03-28T17:10:38Z</time></trkpt><trkpt lat="36.963754334401315" lon="15.04332248328712"><ele>392.8</ele><time>2026-03-28T17:10:39Z</time></trkpt><trkpt lat="36.96377768341332" lon="15.043427977718686"><ele>392.0</ele><time>2026-03-28T17:10:40Z</time></trkpt><trkpt lat="36.96380687938563" lon="15.043520557776736"><ele>391.99999999999994</ele><time>2026-03-28T17:10:41Z</time></trkpt><trkpt lat="36.9638421925255" lon="15.043589592514945"><ele>392.0</ele><time>2026-03-28T17:10:42Z</time></trkpt><trkpt lat="36.963902493196926" lon="15.04366300916914"><ele>392.0</ele><time>2026-03-28T17:10:43Z</time></trkpt><trkpt lat="36.96398316097956" lon="15.043745355894348"><ele>392.0</ele><time>2026-03-28T17:10:44Z</time></trkpt><trkpt lat="36.96406921195075" lon="15.043816864567319"><ele>391.99999999999994</ele><time>2026-03-28T17:10:45Z</time></trkpt><trkpt lat="36.964124335862486" lon="15.043904891752032"><ele>392.0</ele><time>2026-03-28T17:10:46Z</time></trkpt><trkpt lat="36.964170355950486" lon="15.043989793468786"><ele>392.6</ele><time>2026-03-28T17:10:47Z</time></trkpt><trkpt lat="36.96420844634388" lon="15.044070085845306"><ele>393.20000000000005</ele><time>2026-03-28T17:10:48Z</time></trkpt><trkpt lat="36.96428113059336" lon="15.044164450064113"><ele>393.8</ele><time>2026-03-28T17:10:49Z</time></trkpt><trkpt lat="36.964364921045316" lon="15.04427173662018"><ele>394.4</ele><time>2026-03-28T17:10:50Z</time></trkpt><trkpt lat="36.9644638536807" lon="15.044373912538804"><ele>395.0</ele><time>2026-03-28T17:10:51Z</time></trkpt><trkpt lat="36.96451424116961" lon="15.044492493576088"><ele>395.6</ele><time>2026-03-28T17:10:52Z</time></trkpt><trkpt lat="36.96457111677029" lon="15.044602314083162"><ele>396.2</ele><time>2026-03-28T17:10:53Z</time></trkpt><trkpt lat="36.964639555089406" lon="15.044693121092932"><ele>396.79999999999995</ele><time>2026-03-28T17:10:54Z</time></trkpt><trkpt lat="36.964689517760036" lon="15.044795655789715"><ele>397.4</ele><time>2026-03-28T17:10:55Z</time></trkpt><trkpt lat="36.964745710325424" lon="15.044921997102303"><ele>398.0</ele><time>2026-03-28T17:10:56Z</time></trkpt><trkpt lat="36.964785577434455" lon="15.045031648709028"><ele>398.79999999999995</ele><time>2026-03-28T17:10:57Z</time></trkpt><trkpt lat="36.96481836757712" lon="15.04513355595187"><ele>399.6</ele><time>2026-03-28T17:10:58Z</time></trkpt><trkpt lat="36.96483145948325" lon="15.04524630946394"><ele>400.4</ele><time>2026-03-28T17:10:59Z</time></trkpt><trkpt lat="36.96487989009897" lon="15.045349845681862"><ele>401.20000000000005</ele><time>2026-03-28T17:11:00Z</time></trkpt><trkpt lat="36.96491275900294" lon="15.045463941232425"><ele>402.0</ele><time>2026-03-28T17:11:01Z</time></trkpt><trkpt lat="36.96496541707335" lon="15.045577467518493"><ele>402.0</ele><time>2026-03-28T17:11:02Z</time></trkpt><trkpt lat="36.96502058360321" lon="15.04568605475643"><ele>402.0</ele><time>2026-03-28T17:11:03Z</time></trkpt><trkpt lat="36.96508032041702" lon="15.04579840290443"><ele>402.0</ele><time>2026-03-28T17:11:04Z</time></trkpt><trkpt lat="36.96512018623812" lon="15.045905702163866"><ele>402.0</ele><time>2026-03-28T17:11:05Z</time></trkpt><trkpt lat="36.96512679110912" lon="15.04600783767723"><ele>402.0</ele><time>2026-03-28T17:11:06Z</time></trkpt><trkpt lat="36.96515900881616" lon="15.046113652413709"><ele>402.8333333333333</ele><time>2026-03-28T17:11:07Z</time></trkpt><trkpt lat="36.965192584272" lon="15.046217222422356"><ele>403.66666666666663</ele><time>2026-03-28T17:11:08Z</time></trkpt><trkpt lat="36.96523888647193" lon="15.046285641842182"><ele>404.5</ele><time>2026-03-28T17:11:09Z</time></trkpt><trkpt lat="36.9652636624128" lon="15.046367278670088"><ele>405.3333333333333</ele><time>2026-03-28T17:11:10Z</time></trkpt><trkpt lat="36.965309424063975" lon="15.046425904652569"><ele>406.16666666666663</ele><time>2026-03-28T17:11:11Z</time></trkpt><trkpt lat="36.96539201826737" lon="15.046472659656702"><ele>407.0</ele><time>2026-03-28T17:11:12Z</time></trkpt><trkpt lat="36.96547590169641" lon="15.04651901782597"><ele>407.0</ele><time>2026-03-28T17:11:13Z</time></trkpt><trkpt lat="36.96553956453933" lon="15.046564106525304"><ele>407.0</ele><time>2026-03-28T17:11:14Z</time></trkpt><trkpt lat="36.965638817956474" lon="15.046609195899109"><ele>407.0</ele><time>2026-03-28T17:11:16Z</time></trkpt><trkpt lat="36.96576320939684" lon="15.046648473987883"><ele>407.0</ele><time>2026-03-28T17:11:18Z</time></trkpt><trkpt lat="36.965851118508475" lon="15.04670934993526"><ele>407.0</ele><time>2026-03-28T17:11:20Z</time></trkpt><trkpt lat="36.96586422156561" lon="15.046849712478402"><ele>407.49999999999994</ele><time>2026-03-28T17:11:22Z</time></trkpt><trkpt lat="36.965893441927584" lon="15.046931973417566"><ele>408.0</ele><time>2026-03-28T17:11:23Z</time></trkpt><trkpt lat="36.96591549941073" lon="15.047023544013578"><ele>408.5</ele><time>2026-03-28T17:11:24Z</time></trkpt><trkpt lat="36.96595223999523" lon="15.04711570000246"><ele>409.0</ele><time>2026-03-28T17:11:25Z</time></trkpt><trkpt lat="36.965987362975696" lon="15.047189197557197"><ele>409.49999999999994</ele><time>2026-03-28T17:11:26Z</time></trkpt><trkpt lat="36.96603028686311" lon="15.047334460197629"><ele>410.0</ele><time>2026-03-28T17:11:28Z</time></trkpt><trkpt lat="36.966027439246936" lon="15.047427699033312"><ele>410.49999999999994</ele><time>2026-03-28T17:11:29Z</time></trkpt><trkpt lat="36.96601523229753" lon="15.047545745802246"><ele>411.0</ele><time>2026-03-28T17:11:30Z</time></trkpt><trkpt lat="36.9659966892305" lon="15.047666759977343"><ele>411.5</ele><time>2026-03-28T17:11:31Z</time></trkpt><trkpt lat="36.96598753395091" lon="15.047761662766797"><ele>412.0</ele><time>2026-03-28T17:11:32Z</time></trkpt><trkpt lat="36.965983870787" lon="15.047846349443118"><ele>412.49999999999994</ele><time>2026-03-28T17:11:33Z</time></trkpt><trkpt lat="36.96597715711156" lon="15.047929488595628"><ele>413.0</ele><time>2026-03-28T17:11:34Z</time></trkpt><trkpt lat="36.96598259972986" lon="15.0480277861783"><ele>413.0</ele><time>2026-03-28T17:11:35Z</time></trkpt><trkpt lat="36.96599571624365" lon="15.048160599219955"><ele>413.0</ele><time>2026-03-28T17:11:37Z</time></trkpt><trkpt lat="36.966023611679354" lon="15.048312443144146"><ele>413.0</ele><time>2026-03-28T17:11:39Z</time></trkpt><trkpt lat="36.966034740289686" lon="15.048395938478276"><ele>413.0</ele><time>2026-03-28T17:11:40Z</time></trkpt><trkpt lat="36.96603424626385" lon="15.048561689395061"><ele>413.0</ele><time>2026-03-28T17:11:42Z</time></trkpt><trkpt lat="36.96603251933577" lon="15.048643635037635"><ele>413.4</ele><time>2026-03-28T17:11:43Z</time></trkpt><trkpt lat="36.96603042896822" lon="15.048735417784771"><ele>413.79999999999995</ele><time>2026-03-28T17:11:44Z</time></trkpt><trkpt lat="36.9660204977541" lon="15.048885450335206"><ele>414.2</ele><time>2026-03-28T17:11:46Z</time></trkpt><trkpt lat="36.9660151181039" lon="15.049001598097878"><ele>414.6</ele><time>2026-03-28T17:11:47Z</time></trkpt><trkpt lat="36.96602325090085" lon="15.049152673417954"><ele>415.0</ele><time>2026-03-28T17:11:48Z</time></trkpt><trkpt lat="36.966030780562626" lon="15.049287737046349"><ele>415.33333333333337</ele><time>2026-03-28T17:11:49Z</time></trkpt><trkpt lat="36.96603285350253" lon="15.049402847739515"><ele>415.6666666666667</ele><time>2026-03-28T17:11:50Z</time></trkpt><trkpt lat="36.96603244398464" lon="15.049512769591717"><ele>416.0</ele><time>2026-03-28T17:11:51Z</time></trkpt><trkpt lat="36.966037807183234" lon="15.049611945187394"><ele>416.33333333333337</ele><time>2026-03-28T17:11:52Z</time></trkpt><trkpt lat="36.9660445800208" lon="15.049713962498881"><ele>416.6666666666667</ele><time>2026-03-28T17:11:53Z</time></trkpt><trkpt lat="36.96604913944007" lon="15.049793321176704"><ele>417.0</ele><time>2026-03-28T17:11:54Z</time></trkpt><trkpt lat="36.966052805944415" lon="15.049887369251442"><ele>418.0</ele><time>2026-03-28T17:11:55Z</time></trkpt><trkpt lat="36.966071280444204" lon="15.050038962723887"><ele>419.0</ele><time>2026-03-28T17:11:57Z</time></trkpt><trkpt lat="36.96607618587827" lon="15.050123368977973"><ele>420.0</ele><time>2026-03-28T17:11:58Z</time></trkpt><trkpt lat="36.96607969590099" lon="15.050219910929638"><ele>421.0</ele><time>2026-03-28T17:11:59Z</time></trkpt><trkpt lat="36.9660945425364" lon="15.050342627202962"><ele>422.0</ele><time>2026-03-28T17:12:00Z</time></trkpt><trkpt lat="36.96610953580889" lon="15.050448616846078"><ele>422.0</ele><time>2026-03-28T17:12:01Z</time></trkpt><trkpt lat="36.96612949136925" lon="15.050550614865822"><ele>422.0</ele><time>2026-03-28T17:12:02Z</time></trkpt><trkpt lat="36.96615417543849" lon="15.050660355698046"><ele>422.0</ele><time>2026-03-28T17:12:03Z</time></trkpt><trkpt lat="36.96618325887784" lon="15.050748040653733"><ele>422.0</ele><time>2026-03-28T17:12:04Z</time></trkpt><trkpt lat="36.966215496409845" lon="15.050857826348036"><ele>422.0</ele><time>2026-03-28T17:12:05Z</time></trkpt><trkpt lat="36.96625334558244" lon="15.051003729622833"><ele>424.40000000000003</ele><time>2026-03-28T17:12:06Z</time></trkpt><trkpt lat="36.96628857993546" lon="15.051135201182818"><ele>426.8</ele><time>2026-03-28T17:12:07Z</time></trkpt><trkpt lat="36.96631227907227" lon="15.05123573465162"><ele>429.2</ele><time>2026-03-28T17:12:08Z</time></trkpt><trkpt lat="36.96633819804616" lon="15.051336753235507"><ele>431.6</ele><time>2026-03-28T17:12:09Z</time></trkpt><trkpt lat="36.9663645706022" lon="15.051451432724166"><ele>434.0</ele><time>2026-03-28T17:12:10Z</time></trkpt><trkpt lat="36.966393138924865" lon="15.051576417637204"><ele>434.49999999999994</ele><time>2026-03-28T17:12:11Z</time></trkpt><trkpt lat="36.96641801572558" lon="15.051677894758233"><ele>435.0</ele><time>2026-03-28T17:12:12Z</time></trkpt><trkpt lat="36.96644211703106" lon="15.051773676922313"><ele>435.5</ele><time>2026-03-28T17:12:13Z</time></trkpt><trkpt lat="36.96646848615958" lon="15.051867031176641"><ele>436.0</ele><time>2026-03-28T17:12:14Z</time></trkpt><trkpt lat="36.966501678489394" lon="15.051962834039436"><ele>436.49999999999994</ele><time>2026-03-28T17:12:15Z</time></trkpt><trkpt lat="36.966545347460766" lon="15.052056119147018"><ele>437.0</ele><time>2026-03-28T17:12:16Z</time></trkpt><trkpt lat="36.96659951835207" lon="15.052167654406711"><ele>437.0</ele><time>2026-03-28T17:12:17Z</time></trkpt><trkpt lat="36.966645620297356" lon="15.052275889276126"><ele>437.00000000000006</ele><time>2026-03-28T17:12:18Z</time></trkpt><trkpt lat="36.966683771737415" lon="15.052366293775773"><ele>437.00000000000006</ele><time>2026-03-28T17:12:19Z</time></trkpt><trkpt lat="36.9666973333813" lon="15.052488692001807"><ele>437.0</ele><time>2026-03-28T17:12:20Z</time></trkpt><trkpt lat="36.96673064135726" lon="15.052594985780054"><ele>437.0</ele><time>2026-03-28T17:12:21Z</time></trkpt><trkpt lat="36.966739989992526" lon="15.052710112415124"><ele>439.16666666666663</ele><time>2026-03-28T17:12:22Z</time></trkpt><trkpt lat="36.96675158678598" lon="15.052840764556834"><ele>441.3333333333333</ele><time>2026-03-28T17:12:23Z</time></trkpt><trkpt lat="36.966767353953784" lon="15.052955290940668"><ele>443.5</ele><time>2026-03-28T17:12:24Z</time></trkpt><trkpt lat="36.96676138295102" lon="15.053063711769584"><ele>445.66666666666663</ele><time>2026-03-28T17:12:25Z</time></trkpt><trkpt lat="36.96675704860824" lon="15.053165465373542"><ele>447.8333333333333</ele><time>2026-03-28T17:12:26Z</time></trkpt><trkpt lat="36.96675091859418" lon="15.053252649703435"><ele>450.0</ele><time>2026-03-28T17:12:27Z</time></trkpt><trkpt lat="36.96674243889188" lon="15.053335229475081"><ele>450.0</ele><time>2026-03-28T17:12:28Z</time></trkpt><trkpt lat="36.96672470531167" lon="15.053439344616024"><ele>450.0</ele><time>2026-03-28T17:12:29Z</time></trkpt><trkpt lat="36.966698184399846" lon="15.053580876378206"><ele>450.0</ele><time>2026-03-28T17:12:30Z</time></trkpt><trkpt lat="36.96669574060436" lon="15.05368814176233"><ele>450.0</ele><time>2026-03-28T17:12:31Z</time></trkpt><trkpt lat="36.96667514224283" lon="15.053806008202706"><ele>450.0</ele><time>2026-03-28T17:12:32Z</time></trkpt><trkpt lat="36.96665204114544" lon="15.053941689808763"><ele>449.2</ele><time>2026-03-28T17:12:33Z</time></trkpt><trkpt lat="36.96662827388779" lon="15.05405256922452"><ele>448.4</ele><time>2026-03-28T17:12:34Z</time></trkpt><trkpt lat="36.96660392809326" lon="15.054166433170895"><ele>447.6</ele><time>2026-03-28T17:12:35Z</time></trkpt><trkpt lat="36.96658985466096" lon="15.05428764526289"><ele>446.8</ele><time>2026-03-28T17:12:36Z</time></trkpt><trkpt lat="36.96657383281582" lon="15.054399525258047"><ele>446.0</ele><time>2026-03-28T17:12:37Z</time></trkpt><trkpt lat="36.96655774423137" lon="15.054491449967554"><ele>445.99999999999994</ele><time>2026-03-28T17:12:38Z</time></trkpt><trkpt lat="36.96654054412763" lon="15.054598765280907"><ele>446.0</ele><time>2026-03-28T17:12:39Z</time></trkpt><trkpt lat="36.966515897154856" lon="15.054707698994623"><ele>446.0</ele><time>2026-03-28T17:12:40Z</time></trkpt><trkpt lat="36.966499499308554" lon="15.054803878884558"><ele>446.0</ele><time>2026-03-28T17:12:41Z</time></trkpt><trkpt lat="36.966481970655636" lon="15.054884735330408"><ele>445.99999999999994</ele><time>2026-03-28T17:12:42Z</time></trkpt><trkpt lat="36.96646444326706" lon="15.054962844612254"><ele>446.0</ele><time>2026-03-28T17:12:43Z</time></trkpt><trkpt lat="36.96645112359882" lon="15.055042343824057"><ele>446.99999999999994</ele><time>2026-03-28T17:12:44Z</time></trkpt><trkpt lat="36.96642468478291" lon="15.055178589049248"><ele>448.0</ele><time>2026-03-28T17:12:46Z</time></trkpt><trkpt lat="36.96639744932825" lon="15.055281616490806"><ele>449.0</ele><time>2026-03-28T17:12:47Z</time></trkpt><trkpt lat="36.966383382138915" lon="15.055394445953995"><ele>450.0</ele><time>2026-03-28T17:12:48Z</time></trkpt><trkpt lat="36.966380575358436" lon="15.055484647068196"><ele>450.99999999999994</ele><time>2026-03-28T17:12:49Z</time></trkpt><trkpt lat="36.966371455159546" lon="15.055567380733573"><ele>452.0</ele><time>2026-03-28T17:12:50Z</time></trkpt><trkpt lat="36.96636424146781" lon="15.055661100538492"><ele>452.0</ele><time>2026-03-28T17:12:51Z</time></trkpt><trkpt lat="36.966373468906305" lon="15.05576462588005"><ele>452.00000000000006</ele><time>2026-03-28T17:12:52Z</time></trkpt><trkpt lat="36.966386054125834" lon="15.055882661791696"><ele>452.00000000000006</ele><time>2026-03-28T17:12:53Z</time></trkpt><trkpt lat="36.966381403030056" lon="15.056003371620205"><ele>452.0</ele><time>2026-03-28T17:12:54Z</time></trkpt><trkpt lat="36.966382979589184" lon="15.056108311697667"><ele>452.0</ele><time>2026-03-28T17:12:55Z</time></trkpt><trkpt lat="36.966361531064386" lon="15.056250937090677"><ele>453.0</ele><time>2026-03-28T17:12:56Z</time></trkpt><trkpt lat="36.966360910155814" lon="15.056391791678111"><ele>454.00000000000006</ele><time>2026-03-28T17:12:57Z</time></trkpt><trkpt lat="36.9663474912777" lon="15.056503568861709"><ele>455.00000000000006</ele><time>2026-03-28T17:12:58Z</time></trkpt><trkpt lat="36.96633409586786" lon="15.056612446863577"><ele>456.0</ele><time>2026-03-28T17:12:59Z</time></trkpt><trkpt lat="36.96631062965638" lon="15.05671997966212"><ele>457.0</ele><time>2026-03-28T17:13:00Z</time></trkpt><trkpt lat="36.96630902066889" lon="15.056835497778966"><ele>457.8</ele><time>2026-03-28T17:13:01Z</time></trkpt><trkpt lat="36.96628820955096" lon="15.056961577560653"><ele>458.6</ele><time>2026-03-28T17:13:02Z</time></trkpt><trkpt lat="36.96625058656894" lon="15.057090558708403"><ele>459.40000000000003</ele><time>2026-03-28T17:13:03Z</time></trkpt><trkpt lat="36.966225812108846" lon="15.057205039846824"><ele>460.20000000000005</ele><time>2026-03-28T17:13:04Z</time></trkpt><trkpt lat="36.96621087406748" lon="15.05731659656993"><ele>461.0</ele><time>2026-03-28T17:13:05Z</time></trkpt><trkpt lat="36.9661794123797" lon="15.05738724929424"><ele>462.0</ele><time>2026-03-28T17:13:06Z</time></trkpt><trkpt lat="36.96613562116992" lon="15.057550235957432"><ele>463.0</ele><time>2026-03-28T17:13:08Z</time></trkpt><trkpt lat="36.966122396722035" lon="15.057670891955697"><ele>464.0</ele><time>2026-03-28T17:13:09Z</time></trkpt><trkpt lat="36.96610328202445" lon="15.05776607375817"><ele>465.0</ele><time>2026-03-28T17:13:10Z</time></trkpt><trkpt lat="36.96609109552699" lon="15.057885202109516"><ele>466.0</ele><time>2026-03-28T17:13:11Z</time></trkpt><trkpt lat="36.96609582004842" lon="15.058023644369545"><ele>466.0</ele><time>2026-03-28T17:13:12Z</time></trkpt><trkpt lat="36.966084100180176" lon="15.05818963955621"><ele>466.0</ele><time>2026-03-28T17:13:13Z</time></trkpt><trkpt lat="36.96608915846362" lon="15.05829998577093"><ele>466.0</ele><time>2026-03-28T17:13:14Z</time></trkpt><trkpt lat="36.96608693390178" lon="15.058414217957417"><ele>466.0</ele><time>2026-03-28T17:13:15Z</time></trkpt><trkpt lat="36.96608679556392" lon="15.058535922531453"><ele>466.0</ele><time>2026-03-28T17:13:16Z</time></trkpt><trkpt lat="36.966068604516614" lon="15.05863176502165"><ele>466.6</ele><time>2026-03-28T17:13:17Z</time></trkpt><trkpt lat="36.966070653932285" lon="15.05873804038053"><ele>467.20000000000005</ele><time>2026-03-28T17:13:18Z</time></trkpt><trkpt lat="36.966048916852365" lon="15.058858602097798"><ele>467.79999999999995</ele><time>2026-03-28T17:13:19Z</time></trkpt><trkpt lat="36.96602451517818" lon="15.058957696102672"><ele>468.4</ele><time>2026-03-28T17:13:20Z</time></trkpt><trkpt lat="36.96599500221408" lon="15.059071621419056"><ele>469.0</ele><time>2026-03-28T17:13:21Z</time></trkpt><trkpt lat="36.96596515637712" lon="15.059188338384272"><ele>469.4</ele><time>2026-03-28T17:13:22Z</time></trkpt><trkpt lat="36.96593345741772" lon="15.059295900464894"><ele>469.79999999999995</ele><time>2026-03-28T17:13:23Z</time></trkpt><trkpt lat="36.96588858793164" lon="15.059403078676759"><ele>470.20000000000005</ele><time>2026-03-28T17:13:24Z</time></trkpt><trkpt lat="36.96582820036107" lon="15.059528120094834"><ele>470.6</ele><time>2026-03-28T17:13:25Z</time></trkpt><trkpt lat="36.965771901787214" lon="15.059635404002185"><ele>471.0</ele><time>2026-03-28T17:13:26Z</time></trkpt><trkpt lat="36.965718537397336" lon="15.059761656589014"><ele>470.8</ele><time>2026-03-28T17:13:27Z</time></trkpt><trkpt lat="36.96565314864769" lon="15.059853867593072"><ele>470.6</ele><time>2026-03-28T17:13:28Z</time></trkpt><trkpt lat="36.96559267116494" lon="15.05993652233345"><ele>470.4</ele><time>2026-03-28T17:13:29Z</time></trkpt><trkpt lat="36.9655305876091" lon="15.060008927908923"><ele>470.2</ele><time>2026-03-28T17:13:30Z</time></trkpt><trkpt lat="36.965455867512944" lon="15.060117622604626"><ele>470.0</ele><time>2026-03-28T17:13:31Z</time></trkpt><trkpt lat="36.96540213518654" lon="15.060241856283081"><ele>470.0</ele><time>2026-03-28T17:13:32Z</time></trkpt><trkpt lat="36.965330310973876" lon="15.0603665008201"><ele>470.0</ele><time>2026-03-28T17:13:33Z</time></trkpt><trkpt lat="36.96525655883744" lon="15.060519606647349"><ele>470.0</ele><time>2026-03-28T17:13:34Z</time></trkpt><trkpt lat="36.96519783816085" lon="15.06065899493943"><ele>470.0</ele><time>2026-03-28T17:13:35Z</time></trkpt><trkpt lat="36.96515640596838" lon="15.060777588234268"><ele>470.0</ele><time>2026-03-28T17:13:36Z</time></trkpt><trkpt lat="36.96510830434704" lon="15.060901251225003"><ele>470.0</ele><time>2026-03-28T17:13:37Z</time></trkpt><trkpt lat="36.96505116267592" lon="15.061023506682723"><ele>470.0</ele><time>2026-03-28T17:13:38Z</time></trkpt><trkpt lat="36.964995364993186" lon="15.061133604928036"><ele>470.0</ele><time>2026-03-28T17:13:39Z</time></trkpt><trkpt lat="36.96494918752486" lon="15.061232485122888"><ele>470.0</ele><time>2026-03-28T17:13:40Z</time></trkpt><trkpt lat="36.964897759785906" lon="15.06134384791579"><ele>469.6</ele><time>2026-03-28T17:13:41Z</time></trkpt><trkpt lat="36.96484643790556" lon="15.06144723578331"><ele>469.2</ele><time>2026-03-28T17:13:42Z</time></trkpt><trkpt lat="36.96479524548142" lon="15.061537433490555"><ele>468.79999999999995</ele><time>2026-03-28T17:13:43Z</time></trkpt><trkpt lat="36.96475066169078" lon="15.061622840723137"><ele>468.4</ele><time>2026-03-28T17:13:44Z</time></trkpt><trkpt lat="36.96469817221188" lon="15.06173091038481"><ele>468.0</ele><time>2026-03-28T17:13:45Z</time></trkpt><trkpt lat="36.96465413914725" lon="15.061837023361944"><ele>467.8333333333333</ele><time>2026-03-28T17:13:46Z</time></trkpt><trkpt lat="36.964592717334945" lon="15.061930742413598"><ele>467.66666666666663</ele><time>2026-03-28T17:13:47Z</time></trkpt><trkpt lat="36.96455651341175" lon="15.062010244445936"><ele>467.5</ele><time>2026-03-28T17:13:48Z</time></trkpt><trkpt lat="36.9645249909477" lon="15.06207942689012"><ele>467.3333333333333</ele><time>2026-03-28T17:13:49Z</time></trkpt><trkpt lat="36.964486093131924" lon="15.062164796159689"><ele>467.16666666666663</ele><time>2026-03-28T17:13:50Z</time></trkpt><trkpt lat="36.964454128761595" lon="15.062249707292693"><ele>467.0</ele><time>2026-03-28T17:13:51Z</time></trkpt><trkpt lat="36.96442980033259" lon="15.062333726615345"><ele>466.20000000000005</ele><time>2026-03-28T17:13:52Z</time></trkpt><trkpt lat="36.964405187088076" lon="15.062457858251474"><ele>465.40000000000003</ele><time>2026-03-28T17:13:54Z</time></trkpt><trkpt lat="36.96437177659403" lon="15.062579303922993"><ele>464.59999999999997</ele><time>2026-03-28T17:13:56Z</time></trkpt><trkpt lat="36.964345471389336" lon="15.062658148217645"><ele>463.79999999999995</ele><time>2026-03-28T17:13:57Z</time></trkpt><trkpt lat="36.96426751888007" lon="15.062740009373796"><ele>463.0</ele><time>2026-03-28T17:13:59Z</time></trkpt><trkpt lat="36.96419581149071" lon="15.062790332092222"><ele>462.6666666666667</ele><time>2026-03-28T17:14:00Z</time></trkpt><trkpt lat="36.96415212597164" lon="15.062857416540416"><ele>462.33333333333337</ele><time>2026-03-28T17:14:01Z</time></trkpt><trkpt lat="36.96409168657081" lon="15.062929049000802"><ele>462.0</ele><time>2026-03-28T17:14:02Z</time></trkpt><trkpt lat="36.964035820652235" lon="15.063012938973607"><ele>461.66666666666663</ele><time>2026-03-28T17:14:03Z</time></trkpt><trkpt lat="36.96399187457732" lon="15.063098228402161"><ele>461.3333333333333</ele><time>2026-03-28T17:14:04Z</time></trkpt><trkpt lat="36.96395475708685" lon="15.063175400633764"><ele>461.0</ele><time>2026-03-28T17:14:05Z</time></trkpt><trkpt lat="36.963887372950865" lon="15.0633111463887"><ele>459.8</ele><time>2026-03-28T17:14:07Z</time></trkpt><trkpt lat="36.963825453782874" lon="15.063393228416432"><ele>458.6</ele><time>2026-03-28T17:14:08Z</time></trkpt><trkpt lat="36.963786636389216" lon="15.063501785020403"><ele>457.4</ele><time>2026-03-28T17:14:09Z</time></trkpt><trkpt lat="36.963710791378055" lon="15.063601571116942"><ele>456.2</ele><time>2026-03-28T17:14:10Z</time></trkpt><trkpt lat="36.963662420018885" lon="15.063680156650364"><ele>455.0</ele><time>2026-03-28T17:14:11Z</time></trkpt><trkpt lat="36.96361428531605" lon="15.063761251719392"><ele>454.99999999999994</ele><time>2026-03-28T17:14:12Z</time></trkpt><trkpt lat="36.963570270694724" lon="15.063841183478722"><ele>455.0</ele><time>2026-03-28T17:14:13Z</time></trkpt><trkpt lat="36.96350337242924" lon="15.06394223882191"><ele>455.0</ele><time>2026-03-28T17:14:14Z</time></trkpt><trkpt lat="36.963454603706" lon="15.064036393319263"><ele>455.0</ele><time>2026-03-28T17:14:15Z</time></trkpt><trkpt lat="36.96343020324479" lon="15.064124946811395"><ele>454.99999999999994</ele><time>2026-03-28T17:14:16Z</time></trkpt><trkpt lat="36.96340830861203" lon="15.064227439559959"><ele>455.0</ele><time>2026-03-28T17:14:17Z</time></trkpt><trkpt lat="36.96339523703003" lon="15.064307768072926"><ele>454.99999999999994</ele><time>2026-03-28T17:14:18Z</time></trkpt><trkpt lat="36.963371987147255" lon="15.064396887694459"><ele>455.0</ele><time>2026-03-28T17:14:19Z</time></trkpt><trkpt lat="36.96333322084192" lon="15.064526693646268"><ele>455.0</ele><time>2026-03-28T17:14:21Z</time></trkpt><trkpt lat="36.96330953797181" lon="15.064607509592799"><ele>455.0</ele><time>2026-03-28T17:14:23Z</time></trkpt><trkpt lat="36.96330367870514" lon="15.064695558265704"><ele>454.99999999999994</ele><time>2026-03-28T17:15:17Z</time></trkpt><trkpt lat="36.96328718301939" lon="15.064797038955037"><ele>455.0</ele><time>2026-03-28T17:15:20Z</time></trkpt><trkpt lat="36.963277882206754" lon="15.064927202511647"><ele>454.49999999999994</ele><time>2026-03-28T17:15:22Z</time></trkpt><trkpt lat="36.96327156135776" lon="15.065033289726024"><ele>454.0</ele><time>2026-03-28T17:15:23Z</time></trkpt><trkpt lat="36.963270162095604" lon="15.065148727577933"><ele>453.5</ele><time>2026-03-28T17:15:24Z</time></trkpt><trkpt lat="36.96326909697296" lon="15.065271250083278"><ele>453.0</ele><time>2026-03-28T17:15:25Z</time></trkpt><trkpt lat="36.96324096701007" lon="15.065388367667023"><ele>452.49999999999994</ele><time>2026-03-28T17:15:26Z</time></trkpt><trkpt lat="36.96322450006156" lon="15.065481752256135"><ele>452.0</ele><time>2026-03-28T17:15:27Z</time></trkpt><trkpt lat="36.96320504139402" lon="15.065632941361933"><ele>452.0</ele><time>2026-03-28T17:15:29Z</time></trkpt><trkpt lat="36.96316864195772" lon="15.065742691663926"><ele>452.00000000000006</ele><time>2026-03-28T17:15:30Z</time></trkpt><trkpt lat="36.96313672937371" lon="15.065825580341007"><ele>452.00000000000006</ele><time>2026-03-28T17:15:31Z</time></trkpt><trkpt lat="36.963114327058506" lon="15.06590765923918"><ele>452.0</ele><time>2026-03-28T17:15:32Z</time></trkpt><trkpt lat="36.96307718678503" lon="15.066084050140134"><ele>452.0</ele><time>2026-03-28T17:15:34Z</time></trkpt><trkpt lat="36.96306277227293" lon="15.066168611176824"><ele>452.8333333333333</ele><time>2026-03-28T17:15:35Z</time></trkpt><trkpt lat="36.963049972959254" lon="15.066255352589513"><ele>453.66666666666663</ele><time>2026-03-28T17:15:36Z</time></trkpt><trkpt lat="36.963039960563066" lon="15.066342828649038"><ele>454.5</ele><time>2026-03-28T17:15:37Z</time></trkpt><trkpt lat="36.96301989095287" lon="15.066452345555993"><ele>455.33333333333337</ele><time>2026-03-28T17:15:38Z</time></trkpt><trkpt lat="36.962999831292265" lon="15.066552934776608"><ele>456.1666666666667</ele><time>2026-03-28T17:15:39Z</time></trkpt><trkpt lat="36.96298523418762" lon="15.066644318904391"><ele>457.0</ele><time>2026-03-28T17:15:40Z</time></trkpt><trkpt lat="36.96295618073591" lon="15.066751319879192"><ele>457.8</ele><time>2026-03-28T17:15:41Z</time></trkpt><trkpt lat="36.96294280069506" lon="15.06684942476947"><ele>458.6</ele><time>2026-03-28T17:15:42Z</time></trkpt><trkpt lat="36.9629217904177" lon="15.066954884806533"><ele>459.40000000000003</ele><time>2026-03-28T17:15:43Z</time></trkpt><trkpt lat="36.96288415911139" lon="15.067076956985177"><ele>460.20000000000005</ele><time>2026-03-28T17:15:44Z</time></trkpt><trkpt lat="36.962843900672915" lon="15.067191971741845"><ele>461.0</ele><time>2026-03-28T17:15:45Z</time></trkpt><trkpt lat="36.96279831049922" lon="15.067295632600848"><ele>461.0</ele><time>2026-03-28T17:15:46Z</time></trkpt><trkpt lat="36.962782762547775" lon="15.067374335804132"><ele>461.0</ele><time>2026-03-28T17:15:47Z</time></trkpt><trkpt lat="36.96275974218819" lon="15.067449852586268"><ele>461.0</ele><time>2026-03-28T17:15:48Z</time></trkpt><trkpt lat="36.962712236972" lon="15.067556043249889"><ele>461.0</ele><time>2026-03-28T17:15:50Z</time></trkpt><trkpt lat="36.962666149256826" lon="15.067642791415057"><ele>461.0</ele><time>2026-03-28T17:15:52Z</time></trkpt><trkpt lat="36.962726130972065" lon="15.067857140786439"><ele>460.8333333333333</ele><time>2026-03-28T17:16:55Z</time></trkpt><trkpt lat="36.96276508957493" lon="15.0679245725119"><ele>460.66666666666663</ele><time>2026-03-28T17:16:57Z</time></trkpt><trkpt lat="36.962795749685796" lon="15.06801616036913"><ele>460.5</ele><time>2026-03-28T17:17:00Z</time></trkpt><trkpt lat="36.96284780619591" lon="15.068111427769974"><ele>460.33333333333337</ele><time>2026-03-28T17:17:03Z</time></trkpt><trkpt lat="36.962911716469165" lon="15.068215059023373"><ele>460.1666666666667</ele><time>2026-03-28T17:17:06Z</time></trkpt><trkpt lat="36.962960888256745" lon="15.068296368761152"><ele>460.0</ele><time>2026-03-28T17:17:09Z</time></trkpt><trkpt lat="36.96300850006593" lon="15.068363390401183"><ele>460.00000000000006</ele><time>2026-03-28T17:17:16Z</time></trkpt><trkpt lat="36.963060300899826" lon="15.06843852223894"><ele>460.0</ele><time>2026-03-28T17:17:34Z</time></trkpt><trkpt lat="36.96311347440695" lon="15.068497537029025"><ele>460.0</ele><time>2026-03-28T17:17:38Z</time></trkpt><trkpt lat="36.96317150314135" lon="15.068547436344009"><ele>460.0</ele><time>2026-03-28T17:17:41Z</time></trkpt><trkpt lat="36.96323410679889" lon="15.068627521965078"><ele>460.00000000000006</ele><time>2026-03-28T17:17:44Z</time></trkpt><trkpt lat="36.963298719493935" lon="15.06867822422795"><ele>460.0</ele><time>2026-03-28T17:17:46Z</time></trkpt><trkpt lat="36.96337417024195" lon="15.068748667755498"><ele>459.6666666666667</ele><time>2026-03-28T17:17:48Z</time></trkpt><trkpt lat="36.96344395681974" lon="15.0688276740591"><ele>459.33333333333337</ele><time>2026-03-28T17:17:50Z</time></trkpt><trkpt lat="36.96354059106723" lon="15.068916643818485"><ele>459.0</ele><time>2026-03-28T17:17:52Z</time></trkpt><trkpt lat="36.96358485258625" lon="15.068977611441678"><ele>458.66666666666663</ele><time>2026-03-28T17:17:53Z</time></trkpt><trkpt lat="36.96362740035926" lon="15.069040394662911"><ele>458.3333333333333</ele><time>2026-03-28T17:17:54Z</time></trkpt><trkpt lat="36.963668330501044" lon="15.069111897576665"><ele>458.0</ele><time>2026-03-28T17:17:55Z</time></trkpt><trkpt lat="36.96370587022119" lon="15.069190394115417"><ele>458.0</ele><time>2026-03-28T17:17:56Z</time></trkpt><trkpt lat="36.96374424436602" lon="15.069273091495015"><ele>458.0</ele><time>2026-03-28T17:17:57Z</time></trkpt><trkpt lat="36.96377996454323" lon="15.069355295368226"><ele>458.0</ele><time>2026-03-28T17:17:58Z</time></trkpt><trkpt lat="36.963806572591054" lon="15.06943318609963"><ele>458.0</ele><time>2026-03-28T17:17:59Z</time></trkpt><trkpt lat="36.96383441929567" lon="15.069515172352212"><ele>458.0</ele><time>2026-03-28T17:18:00Z</time></trkpt><trkpt lat="36.96385940993269" lon="15.069601619509347"><ele>458.0</ele><time>2026-03-28T17:18:01Z</time></trkpt><trkpt lat="36.963881214106856" lon="15.069682904400596"><ele>458.0</ele><time>2026-03-28T17:18:02Z</time></trkpt><trkpt lat="36.96389401463843" lon="15.069831588150546"><ele>458.0</ele><time>2026-03-28T17:18:04Z</time></trkpt><trkpt lat="36.96393527485066" lon="15.069920099069112"><ele>457.99999999999994</ele><time>2026-03-28T17:18:06Z</time></trkpt><trkpt lat="36.963962566963936" lon="15.069997658050855"><ele>457.99999999999994</ele><time>2026-03-28T17:18:09Z</time></trkpt><trkpt lat="36.963983723340824" lon="15.070097058637279"><ele>458.0</ele><time>2026-03-28T17:18:11Z</time></trkpt><trkpt lat="36.964020024530704" lon="15.07024791686411"><ele>458.0</ele><time>2026-03-28T17:18:13Z</time></trkpt><trkpt lat="36.96405942814114" lon="15.070354640367194"><ele>458.16666666666663</ele><time>2026-03-28T17:18:15Z</time></trkpt><trkpt lat="36.96406148437405" lon="15.070437111562464"><ele>458.3333333333333</ele><time>2026-03-28T17:18:17Z</time></trkpt><trkpt lat="36.964054669754844" lon="15.07052068441283"><ele>458.5</ele><time>2026-03-28T17:18:19Z</time></trkpt><trkpt lat="36.96403966008085" lon="15.070616157364164"><ele>458.66666666666663</ele><time>2026-03-28T17:18:21Z</time></trkpt><trkpt lat="36.96405591643583" lon="15.070715052362067"><ele>458.8333333333333</ele><time>2026-03-28T17:18:24Z</time></trkpt><trkpt lat="36.96405242085054" lon="15.070830018220445"><ele>459.0</ele><time>2026-03-28T17:18:26Z</time></trkpt><trkpt lat="36.96405060647312" lon="15.070966138687355"><ele>459.0</ele><time>2026-03-28T17:18:28Z</time></trkpt><trkpt lat="36.964047153364945" lon="15.071049291530928"><ele>459.0</ele><time>2026-03-28T17:18:29Z</time></trkpt><trkpt lat="36.96404181867673" lon="15.071134570510551"><ele>459.0</ele><time>2026-03-28T17:18:30Z</time></trkpt><trkpt lat="36.964038334997134" lon="15.071217196648023"><ele>459.0</ele><time>2026-03-28T17:18:31Z</time></trkpt><trkpt lat="36.96403599244979" lon="15.071355821109218"><ele>459.0</ele><time>2026-03-28T17:18:33Z</time></trkpt><trkpt lat="36.96403462014663" lon="15.071442857168908"><ele>459.0</ele><time>2026-03-28T17:18:34Z</time></trkpt><trkpt lat="36.96402086371509" lon="15.071530380042807"><ele>458.8333333333333</ele><time>2026-03-28T17:18:35Z</time></trkpt><trkpt lat="36.96401690310434" lon="15.07162198219372"><ele>458.66666666666663</ele><time>2026-03-28T17:18:36Z</time></trkpt><trkpt lat="36.96402278653351" lon="15.071704952610633"><ele>458.5</ele><time>2026-03-28T17:18:37Z</time></trkpt><trkpt lat="36.96403758293365" lon="15.071833199048982"><ele>458.3333333333333</ele><time>2026-03-28T17:18:39Z</time></trkpt><trkpt lat="36.96405433592937" lon="15.071917708838697"><ele>458.16666666666663</ele><time>2026-03-28T17:18:40Z</time></trkpt><trkpt lat="36.964077941936345" lon="15.072008512655485"><ele>458.0</ele><time>2026-03-28T17:18:41Z</time></trkpt><trkpt lat="36.96411008971191" lon="15.072091029597694"><ele>457.99999999999994</ele><time>2026-03-28T17:18:42Z</time></trkpt><trkpt lat="36.964135004993544" lon="15.072170165707341"><ele>458.0</ele><time>2026-03-28T17:18:43Z</time></trkpt><trkpt lat="36.96413765659263" lon="15.072332162554892"><ele>458.0</ele><time>2026-03-28T17:18:45Z</time></trkpt><trkpt lat="36.964129273198004" lon="15.072431513609066"><ele>458.0</ele><time>2026-03-28T17:18:46Z</time></trkpt><trkpt lat="36.96412970079521" lon="15.072523228955355"><ele>457.99999999999994</ele><time>2026-03-28T17:18:47Z</time></trkpt><trkpt lat="36.964127732456866" lon="15.072616119974162"><ele>458.0</ele><time>2026-03-28T17:18:48Z</time></trkpt><trkpt lat="36.96412450785334" lon="15.072716749622108"><ele>458.0</ele><time>2026-03-28T17:18:49Z</time></trkpt><trkpt lat="36.96411574842786" lon="15.072808747840575"><ele>457.99999999999994</ele><time>2026-03-28T17:18:50Z</time></trkpt><trkpt lat="36.96410535352479" lon="15.072907477590578"><ele>457.99999999999994</ele><time>2026-03-28T17:18:51Z</time></trkpt><trkpt lat="36.964098929472364" lon="15.073000381419575"><ele>458.0</ele><time>2026-03-28T17:18:52Z</time></trkpt><trkpt lat="36.96407902992487" lon="15.073132390313965"><ele>458.0</ele><time>2026-03-28T17:18:54Z</time></trkpt><trkpt lat="36.96405526363733" lon="15.073283558933403"><ele>458.16666666666663</ele><time>2026-03-28T17:18:56Z</time></trkpt><trkpt lat="36.96403626436477" lon="15.073366707368509"><ele>458.3333333333333</ele><time>2026-03-28T17:18:57Z</time></trkpt><trkpt lat="36.96401345199235" lon="15.073449222799447"><ele>458.5</ele><time>2026-03-28T17:18:58Z</time></trkpt><trkpt lat="36.963978676576815" lon="15.073604520457078"><ele>458.66666666666663</ele><time>2026-03-28T17:19:00Z</time></trkpt><trkpt lat="36.963955141831036" lon="15.073691087797249"><ele>458.8333333333333</ele><time>2026-03-28T17:19:01Z</time></trkpt><trkpt lat="36.963933069927265" lon="15.073773326553521"><ele>459.0</ele><time>2026-03-28T17:19:02Z</time></trkpt><trkpt lat="36.96391270702141" lon="15.073852837207752"><ele>459.0</ele><time>2026-03-28T17:19:03Z</time></trkpt><trkpt lat="36.96388037507387" lon="15.073928268024"><ele>459.0</ele><time>2026-03-28T17:19:04Z</time></trkpt><trkpt lat="36.96383839383529" lon="15.073989594525127"><ele>459.0</ele><time>2026-03-28T17:19:05Z</time></trkpt><trkpt lat="36.963766017639266" lon="15.07412024776535"><ele>459.0</ele><time>2026-03-28T17:19:07Z</time></trkpt><trkpt lat="36.96370137473462" lon="15.074259024183974"><ele>459.0</ele><time>2026-03-28T17:19:09Z</time></trkpt><trkpt lat="36.963674813873354" lon="15.074337286080471"><ele>458.8571428571429</ele><time>2026-03-28T17:19:10Z</time></trkpt><trkpt lat="36.963647847041976" lon="15.07442100792415"><ele>458.71428571428567</ele><time>2026-03-28T17:19:11Z</time></trkpt><trkpt lat="36.96362709762729" lon="15.07450095540267"><ele>458.57142857142856</ele><time>2026-03-28T17:19:12Z</time></trkpt><trkpt lat="36.96360569516186" lon="15.074578197239022"><ele>458.42857142857144</ele><time>2026-03-28T17:19:13Z</time></trkpt><trkpt lat="36.96359146032427" lon="15.07467410478512"><ele>458.28571428571433</ele><time>2026-03-28T17:19:14Z</time></trkpt><trkpt lat="36.96358295792557" lon="15.07477489147016"><ele>458.1428571428571</ele><time>2026-03-28T17:19:15Z</time></trkpt><trkpt lat="36.96357571287548" lon="15.074855967404188"><ele>458.0</ele><time>2026-03-28T17:19:16Z</time></trkpt><trkpt lat="36.96357400799191" lon="15.074950289422592"><ele>457.3333333333333</ele><time>2026-03-28T17:19:17Z</time></trkpt><trkpt lat="36.963582004194286" lon="15.0750526895946"><ele>456.66666666666663</ele><time>2026-03-28T17:19:18Z</time></trkpt><trkpt lat="36.96361027045571" lon="15.075147591254762"><ele>456.0</ele><time>2026-03-28T17:19:19Z</time></trkpt><trkpt lat="36.96364031703997" lon="15.075236791250282"><ele>455.33333333333337</ele><time>2026-03-28T17:19:20Z</time></trkpt><trkpt lat="36.96367212885769" lon="15.075318237739962"><ele>454.6666666666667</ele><time>2026-03-28T17:19:21Z</time></trkpt><trkpt lat="36.96370643967231" lon="15.075386171762052"><ele>454.0</ele><time>2026-03-28T17:19:22Z</time></trkpt><trkpt lat="36.963762887174674" lon="15.075510806025674"><ele>454.0</ele><time>2026-03-28T17:19:24Z</time></trkpt><trkpt lat="36.963790105930826" lon="15.075593642090768"><ele>454.0</ele><time>2026-03-28T17:19:25Z</time></trkpt><trkpt lat="36.96382759151074" lon="15.075733385389332"><ele>454.0</ele><time>2026-03-28T17:19:26Z</time></trkpt><trkpt lat="36.96385688263501" lon="15.07585621386582"><ele>454.0</ele><time>2026-03-28T17:19:27Z</time></trkpt><trkpt lat="36.9638862206973" lon="15.075955841717592"><ele>454.0</ele><time>2026-03-28T17:19:28Z</time></trkpt><trkpt lat="36.96391613759529" lon="15.076061532563765"><ele>453.6666666666667</ele><time>2026-03-28T17:19:29Z</time></trkpt><trkpt lat="36.963945098114074" lon="15.076139831857471"><ele>453.33333333333337</ele><time>2026-03-28T17:19:30Z</time></trkpt><trkpt lat="36.963977201414224" lon="15.076235388286506"><ele>453.0</ele><time>2026-03-28T17:19:31Z</time></trkpt><trkpt lat="36.96400343450783" lon="15.076339629585426"><ele>452.66666666666663</ele><time>2026-03-28T17:19:32Z</time></trkpt><trkpt lat="36.96403363801598" lon="15.076439829798788"><ele>452.3333333333333</ele><time>2026-03-28T17:19:33Z</time></trkpt><trkpt lat="36.96405762135353" lon="15.076524610036198"><ele>452.0</ele><time>2026-03-28T17:19:34Z</time></trkpt><trkpt lat="36.96406697523075" lon="15.076680264938656"><ele>453.25</ele><time>2026-03-28T17:19:36Z</time></trkpt><trkpt lat="36.96406634980986" lon="15.076818365831217"><ele>454.5</ele><time>2026-03-28T17:19:37Z</time></trkpt><trkpt lat="36.96407771670775" lon="15.076986552127812"><ele>455.75</ele><time>2026-03-28T17:19:38Z</time></trkpt><trkpt lat="36.96408803085294" lon="15.077164385820355"><ele>457.0</ele><time>2026-03-28T17:19:39Z</time></trkpt><trkpt lat="36.96409409038729" lon="15.07729860485839"><ele>457.0</ele><time>2026-03-28T17:19:40Z</time></trkpt><trkpt lat="36.96411137009592" lon="15.077410538759706"><ele>457.0</ele><time>2026-03-28T17:19:41Z</time></trkpt><trkpt lat="36.964168105959104" lon="15.077542984400129"><ele>457.0</ele><time>2026-03-28T17:19:43Z</time></trkpt><trkpt lat="36.96422612201563" lon="15.077644734779863"><ele>457.0</ele><time>2026-03-28T17:19:44Z</time></trkpt><trkpt lat="36.96432139087862" lon="15.077795842134638"><ele>459.0</ele><time>2026-03-28T17:19:45Z</time></trkpt><trkpt lat="36.96443972679946" lon="15.07797489875741"><ele>461.0</ele><time>2026-03-28T17:19:46Z</time></trkpt><trkpt lat="36.96453951840947" lon="15.078136256446237"><ele>463.0</ele><time>2026-03-28T17:19:47Z</time></trkpt><trkpt lat="36.96461142227441" lon="15.078292400366266"><ele>463.6666666666667</ele><time>2026-03-28T17:19:48Z</time></trkpt><trkpt lat="36.96466813767656" lon="15.07845620255169"><ele>464.33333333333337</ele><time>2026-03-28T17:19:49Z</time></trkpt><trkpt lat="36.964720174401194" lon="15.07863906586005"><ele>465.0</ele><time>2026-03-28T17:19:50Z</time></trkpt><trkpt lat="36.964774152990856" lon="15.078828030672183"><ele>465.0</ele><time>2026-03-28T17:19:51Z</time></trkpt><trkpt lat="36.964841115716304" lon="15.07905974575739"><ele>465.0</ele><time>2026-03-28T17:19:52Z</time></trkpt><trkpt lat="36.96491740413648" lon="15.079316813461695"><ele>465.0</ele><time>2026-03-28T17:19:53Z</time></trkpt><trkpt lat="36.96499453108544" lon="15.079591101955208"><ele>465.66666666666663</ele><time>2026-03-28T17:19:54Z</time></trkpt><trkpt lat="36.965055032132284" lon="15.079852373949082"><ele>466.3333333333333</ele><time>2026-03-28T17:19:55Z</time></trkpt><trkpt lat="36.965107041074305" lon="15.080091553325037"><ele>467.0</ele><time>2026-03-28T17:19:56Z</time></trkpt><trkpt lat="36.965147288563585" lon="15.080322167008402"><ele>467.0</ele><time>2026-03-28T17:19:57Z</time></trkpt><trkpt lat="36.965170852701014" lon="15.080530759143842"><ele>467.0</ele><time>2026-03-28T17:19:58Z</time></trkpt><trkpt lat="36.965181069955825" lon="15.08073622581291"><ele>467.0</ele><time>2026-03-28T17:19:59Z</time></trkpt><trkpt lat="36.96518778299637" lon="15.080953070879223"><ele>468.0</ele><time>2026-03-28T17:20:00Z</time></trkpt><trkpt lat="36.96519771553759" lon="15.081167309493122"><ele>469.0</ele><time>2026-03-28T17:20:01Z</time></trkpt><trkpt lat="36.96521113763267" lon="15.081372611748657"><ele>470.0</ele><time>2026-03-28T17:20:02Z</time></trkpt><trkpt lat="36.96523365724123" lon="15.081571146694905"><ele>472.66666666666663</ele><time>2026-03-28T17:20:03Z</time></trkpt><trkpt lat="36.96526144122337" lon="15.081761413083939"><ele>475.33333333333337</ele><time>2026-03-28T17:20:04Z</time></trkpt><trkpt lat="36.96529775638847" lon="15.081943902040743"><ele>478.0</ele><time>2026-03-28T17:20:05Z</time></trkpt><trkpt lat="36.965345105781566" lon="15.08212425269148"><ele>478.0</ele><time>2026-03-28T17:20:06Z</time></trkpt><trkpt lat="36.96539698746596" lon="15.082303157755195"><ele>478.0</ele><time>2026-03-28T17:20:07Z</time></trkpt><trkpt lat="36.965459907991146" lon="15.08247713494023"><ele>478.0</ele><time>2026-03-28T17:20:08Z</time></trkpt><trkpt lat="36.965518621765966" lon="15.082640825012287"><ele>478.0</ele><time>2026-03-28T17:20:09Z</time></trkpt><trkpt lat="36.96556992962883" lon="15.082800903741836"><ele>480.5</ele><time>2026-03-28T17:20:10Z</time></trkpt><trkpt lat="36.96561695392042" lon="15.082962462435207"><ele>483.0</ele><time>2026-03-28T17:20:11Z</time></trkpt><trkpt lat="36.965651317705984" lon="15.083125372265217"><ele>485.5</ele><time>2026-03-28T17:20:12Z</time></trkpt><trkpt lat="36.96568006737623" lon="15.08328837098808"><ele>488.0</ele><time>2026-03-28T17:20:13Z</time></trkpt><trkpt lat="36.96569949532604" lon="15.08345070959684"><ele>490.25</ele><time>2026-03-28T17:20:14Z</time></trkpt><trkpt lat="36.96570129877988" lon="15.083617344477766"><ele>492.5</ele><time>2026-03-28T17:20:15Z</time></trkpt><trkpt lat="36.96568537943293" lon="15.083785890695994"><ele>494.75</ele><time>2026-03-28T17:20:16Z</time></trkpt><trkpt lat="36.965656537926705" lon="15.083952468616063"><ele>497.0</ele><time>2026-03-28T17:20:17Z</time></trkpt><trkpt lat="36.96561494165811" lon="15.08411976647489"><ele>497.25</ele><time>2026-03-28T17:20:18Z</time></trkpt><trkpt lat="36.965577409620835" lon="15.084298354061696"><ele>497.5</ele><time>2026-03-28T17:20:19Z</time></trkpt><trkpt lat="36.96555931002429" lon="15.084476547553631"><ele>497.75</ele><time>2026-03-28T17:20:20Z</time></trkpt><trkpt lat="36.96556321144382" lon="15.084658427040408"><ele>498.0</ele><time>2026-03-28T17:20:21Z</time></trkpt><trkpt lat="36.96557839085288" lon="15.084818191216732"><ele>497.79999999999995</ele><time>2026-03-28T17:20:22Z</time></trkpt><trkpt lat="36.965592081163265" lon="15.084968743891332"><ele>497.59999999999997</ele><time>2026-03-28T17:20:23Z</time></trkpt><trkpt lat="36.9656041154169" lon="15.085110599369715"><ele>497.40000000000003</ele><time>2026-03-28T17:20:24Z</time></trkpt><trkpt lat="36.96561402028347" lon="15.085243335005764"><ele>497.20000000000005</ele><time>2026-03-28T17:20:25Z</time></trkpt><trkpt lat="36.9656224172641" lon="15.085358516018745"><ele>497.0</ele><time>2026-03-28T17:20:26Z</time></trkpt><trkpt lat="36.965667511670894" lon="15.08546375543233"><ele>497.0</ele><time>2026-03-28T17:20:27Z</time></trkpt><trkpt lat="36.96562416536799" lon="15.085629197141163"><ele>497.0</ele><time>2026-03-28T17:20:28Z</time></trkpt><trkpt lat="36.96561148743595" lon="15.085821152167814"><ele>497.0</ele><time>2026-03-28T17:20:29Z</time></trkpt><trkpt lat="36.96560150434448" lon="15.08603276759236"><ele>496.3333333333333</ele><time>2026-03-28T17:20:30Z</time></trkpt><trkpt lat="36.965595284489325" lon="15.08625033864505"><ele>495.66666666666663</ele><time>2026-03-28T17:20:31Z</time></trkpt><trkpt lat="36.965585678117684" lon="15.086462506231477"><ele>495.0</ele><time>2026-03-28T17:20:32Z</time></trkpt><trkpt lat="36.965572900520215" lon="15.086670169592328"><ele>496.5</ele><time>2026-03-28T17:20:33Z</time></trkpt><trkpt lat="36.96556171685502" lon="15.086853524876066"><ele>498.0</ele><time>2026-03-28T17:20:34Z</time></trkpt><trkpt lat="36.96555349564224" lon="15.087014117561674"><ele>499.5</ele><time>2026-03-28T17:20:35Z</time></trkpt><trkpt lat="36.96554247142719" lon="15.087140974874997"><ele>501.0</ele><time>2026-03-28T17:20:36Z</time></trkpt><trkpt lat="36.96551784605631" lon="15.087252136547441"><ele>501.0</ele><time>2026-03-28T17:20:37Z</time></trkpt><trkpt lat="36.96546161907248" lon="15.0873387021398"><ele>501.0</ele><time>2026-03-28T17:20:38Z</time></trkpt><trkpt lat="36.96537069924879" lon="15.0874376023508"><ele>501.0</ele><time>2026-03-28T17:20:39Z</time></trkpt><trkpt lat="36.96525502938592" lon="15.087531258073763"><ele>501.0</ele><time>2026-03-28T17:20:40Z</time></trkpt><trkpt lat="36.9651563565342" lon="15.087617261991943"><ele>500.75</ele><time>2026-03-28T17:20:41Z</time></trkpt><trkpt lat="36.96509016041841" lon="15.087730677521003"><ele>500.5</ele><time>2026-03-28T17:20:42Z</time></trkpt><trkpt lat="36.965053912107415" lon="15.087878614984156"><ele>500.25</ele><time>2026-03-28T17:20:43Z</time></trkpt><trkpt lat="36.96504675582804" lon="15.088068687529475"><ele>500.0</ele><time>2026-03-28T17:20:44Z</time></trkpt><trkpt lat="36.965049359347766" lon="15.088321372508796"><ele>500.0</ele><time>2026-03-28T17:20:45Z</time></trkpt><trkpt lat="36.96504984580984" lon="15.088616100188217"><ele>500.0</ele><time>2026-03-28T17:20:46Z</time></trkpt><trkpt lat="36.965043109677296" lon="15.088916448513938"><ele>500.0</ele><time>2026-03-28T17:20:47Z</time></trkpt><trkpt lat="36.965037025704234" lon="15.089166065277578"><ele>500.0</ele><time>2026-03-28T17:20:48Z</time></trkpt><trkpt lat="36.96503405165767" lon="15.08938296733064"><ele>500.0</ele><time>2026-03-28T17:20:49Z</time></trkpt><trkpt lat="36.96503129019236" lon="15.089587067507633"><ele>500.75</ele><time>2026-03-28T17:20:50Z</time></trkpt><trkpt lat="36.965028281941976" lon="15.0897701570335"><ele>501.5</ele><time>2026-03-28T17:20:51Z</time></trkpt><trkpt lat="36.96502381206079" lon="15.089939846799508"><ele>502.25</ele><time>2026-03-28T17:20:52Z</time></trkpt><trkpt lat="36.96500277950403" lon="15.090116909220047"><ele>503.0</ele><time>2026-03-28T17:20:53Z</time></trkpt><trkpt lat="36.964951744091515" lon="15.090304240597076"><ele>503.0</ele><time>2026-03-28T17:20:54Z</time></trkpt><trkpt lat="36.96486222739669" lon="15.090488623057487"><ele>503.0</ele><time>2026-03-28T17:20:55Z</time></trkpt><trkpt lat="36.96476410129597" lon="15.09067798919852"><ele>503.0</ele><time>2026-03-28T17:20:56Z</time></trkpt><trkpt lat="36.964683106339585" lon="15.090845536228459"><ele>502.5</ele><time>2026-03-28T17:20:57Z</time></trkpt><trkpt lat="36.96460530122864" lon="15.091001969402669"><ele>502.0</ele><time>2026-03-28T17:20:58Z</time></trkpt><trkpt lat="36.964525401862346" lon="15.091155810814374"><ele>501.5</ele><time>2026-03-28T17:20:59Z</time></trkpt><trkpt lat="36.964457605613084" lon="15.091293362775028"><ele>501.0</ele><time>2026-03-28T17:21:00Z</time></trkpt><trkpt lat="36.964387948978334" lon="15.091447899381858"><ele>500.0</ele><time>2026-03-28T17:21:01Z</time></trkpt><trkpt lat="36.964332225968384" lon="15.09160490932585"><ele>499.0</ele><time>2026-03-28T17:21:02Z</time></trkpt><trkpt lat="36.96429051329052" lon="15.091777130606202"><ele>498.0</ele><time>2026-03-28T17:21:03Z</time></trkpt><trkpt lat="36.964270335805516" lon="15.091968466592304"><ele>497.0</ele><time>2026-03-28T17:21:04Z</time></trkpt><trkpt lat="36.96426437211916" lon="15.092159591569379"><ele>497.0</ele><time>2026-03-28T17:21:05Z</time></trkpt><trkpt lat="36.96421688166869" lon="15.092314268995755"><ele>497.0</ele><time>2026-03-28T17:21:06Z</time></trkpt><trkpt lat="36.96415513438783" lon="15.092459020090933"><ele>497.0</ele><time>2026-03-28T17:21:07Z</time></trkpt><trkpt lat="36.964086007114645" lon="15.09261364048212"><ele>497.0</ele><time>2026-03-28T17:21:08Z</time></trkpt><trkpt lat="36.964033806485986" lon="15.092760797359032"><ele>496.75</ele><time>2026-03-28T17:21:09Z</time></trkpt><trkpt lat="36.96397575922007" lon="15.092896063848462"><ele>496.5</ele><time>2026-03-28T17:21:10Z</time></trkpt><trkpt lat="36.963919322297926" lon="15.093022144106001"><ele>496.25</ele><time>2026-03-28T17:21:11Z</time></trkpt><trkpt lat="36.96385935998396" lon="15.093143398841029"><ele>496.0</ele><time>2026-03-28T17:21:12Z</time></trkpt><trkpt lat="36.96380734640977" lon="15.093261309620402"><ele>495.5</ele><time>2026-03-28T17:21:13Z</time></trkpt><trkpt lat="36.9637437888023" lon="15.093341686342393"><ele>495.0</ele><time>2026-03-28T17:21:14Z</time></trkpt><trkpt lat="36.96376205074021" lon="15.093528037586657"><ele>494.5</ele><time>2026-03-28T17:21:16Z</time></trkpt><trkpt lat="36.96381471319738" lon="15.093649258149929"><ele>494.0</ele><time>2026-03-28T17:21:17Z</time></trkpt><trkpt lat="36.96390104816887" lon="15.093803864654861"><ele>494.0</ele><time>2026-03-28T17:21:18Z</time></trkpt><trkpt lat="36.96399468361845" lon="15.09395908978359"><ele>494.0</ele><time>2026-03-28T17:21:19Z</time></trkpt><trkpt lat="36.9640724702833" lon="15.094064461740583"><ele>494.0</ele><time>2026-03-28T17:21:20Z</time></trkpt><trkpt lat="36.96415851965785" lon="15.09411644595815"><ele>494.0</ele><time>2026-03-28T17:21:21Z</time></trkpt><trkpt lat="36.964275257346245" lon="15.094101436372204"><ele>492.75</ele><time>2026-03-28T17:21:22Z</time></trkpt><trkpt lat="36.96440916664983" lon="15.094052578757706"><ele>491.5</ele><time>2026-03-28T17:21:23Z</time></trkpt><trkpt lat="36.96455212429482" lon="15.093992907795679"><ele>490.25</ele><time>2026-03-28T17:21:24Z</time></trkpt><trkpt lat="36.96468018446027" lon="15.094012319148746"><ele>489.0</ele><time>2026-03-28T17:21:25Z</time></trkpt><trkpt lat="36.964817441693064" lon="15.094049168976902"><ele>489.0</ele><time>2026-03-28T17:21:26Z</time></trkpt><trkpt lat="36.96498203056283" lon="15.094111110042382"><ele>489.0</ele><time>2026-03-28T17:21:27Z</time></trkpt><trkpt lat="36.96514185680494" lon="15.09417135756305"><ele>489.0</ele><time>2026-03-28T17:21:28Z</time></trkpt><trkpt lat="36.965287546739845" lon="15.094222362262025"><ele>491.33333333333337</ele><time>2026-03-28T17:21:29Z</time></trkpt><trkpt lat="36.96543312614951" lon="15.094254932676062"><ele>493.6666666666667</ele><time>2026-03-28T17:21:30Z</time></trkpt><trkpt lat="36.96557830149391" lon="15.094298770059497"><ele>496.0</ele><time>2026-03-28T17:21:31Z</time></trkpt><trkpt lat="36.96573465270336" lon="15.094333869732043"><ele>498.33333333333337</ele><time>2026-03-28T17:21:32Z</time></trkpt><trkpt lat="36.96589165933484" lon="15.09439373852153"><ele>500.66666666666663</ele><time>2026-03-28T17:21:33Z</time></trkpt><trkpt lat="36.96603552390271" lon="15.09443293263777"><ele>503.0</ele><time>2026-03-28T17:21:34Z</time></trkpt><trkpt lat="36.966172934212494" lon="15.094488257960814"><ele>503.0</ele><time>2026-03-28T17:21:35Z</time></trkpt><trkpt lat="36.96629819145265" lon="15.094537170113965"><ele>503.0</ele><time>2026-03-28T17:21:36Z</time></trkpt><trkpt lat="36.96640905580419" lon="15.094582767556147"><ele>503.0</ele><time>2026-03-28T17:21:37Z</time></trkpt><trkpt lat="36.96652858770533" lon="15.094609487338039"><ele>503.0</ele><time>2026-03-28T17:21:38Z</time></trkpt><trkpt lat="36.96665257480804" lon="15.094632498382868"><ele>502.5</ele><time>2026-03-28T17:21:39Z</time></trkpt><trkpt lat="36.966769334714726" lon="15.094660022220904"><ele>502.0</ele><time>2026-03-28T17:21:40Z</time></trkpt><trkpt lat="36.96689238922812" lon="15.094693469757305"><ele>501.5</ele><time>2026-03-28T17:21:41Z</time></trkpt><trkpt lat="36.96701423331941" lon="15.094721296786723"><ele>501.0</ele><time>2026-03-28T17:21:42Z</time></trkpt><trkpt lat="36.9671172979416" lon="15.094769529588492"><ele>501.0</ele><time>2026-03-28T17:21:43Z</time></trkpt><trkpt lat="36.96721214661045" lon="15.09480101514586"><ele>501.0</ele><time>2026-03-28T17:21:44Z</time></trkpt><trkpt lat="36.96731887264454" lon="15.094675953127997"><ele>501.0</ele><time>2026-03-28T17:21:45Z</time></trkpt><trkpt lat="36.967379160041865" lon="15.09460816769884"><ele>501.0</ele><time>2026-03-28T17:21:46Z</time></trkpt><trkpt lat="36.96744365414048" lon="15.094501634711841"><ele>501.0</ele><time>2026-03-28T17:21:48Z</time></trkpt><trkpt lat="36.96748566693805" lon="15.094426897224047"><ele>501.0</ele><time>2026-03-28T17:21:50Z</time></trkpt><trkpt lat="36.96752259989858" lon="15.094355683857938"><ele>501.0</ele><time>2026-03-28T17:21:53Z</time></trkpt><trkpt lat="36.96756141929002" lon="15.094285222129653"><ele>501.0</ele><time>2026-03-28T17:21:58Z</time></trkpt><trkpt lat="36.96755105692753" lon="15.094204771843236"><ele>501.0</ele><time>2026-03-28T17:24:37Z</time></trkpt><trkpt lat="36.96756012334897" lon="15.094126595999944"><ele>501.0</ele><time>2026-03-28T17:24:44Z</time></trkpt><trkpt lat="36.96758489341259" lon="15.09404324866475"><ele>501.0</ele><time>2026-03-28T17:25:01Z</time></trkpt><trkpt lat="36.96760486172804" lon="15.093964698041832"><ele>501.0</ele><time>2026-03-28T17:25:05Z</time></trkpt><trkpt lat="36.96760170796083" lon="15.093879751659605"><ele>498.7142857142857</ele><time>2026-03-28T17:25:09Z</time></trkpt><trkpt lat="36.967667997475026" lon="15.093842981524945"><ele>496.42857142857144</ele><time>2026-03-28T17:28:17Z</time></trkpt><trkpt lat="36.96760622065811" lon="15.09388584379719"><ele>494.14285714285717</ele><time>2026-03-28T17:31:13Z</time></trkpt><trkpt lat="36.967606381437975" lon="15.093965353072113"><ele>491.8571428571429</ele><time>2026-03-28T17:31:22Z</time></trkpt><trkpt lat="36.967572084386916" lon="15.094039519011856"><ele>489.57142857142856</ele><time>2026-03-28T17:31:33Z</time></trkpt><trkpt lat="36.96755581980902" lon="15.094128502542436"><ele>487.28571428571433</ele><time>2026-03-28T17:31:40Z</time></trkpt><trkpt lat="36.96753306758733" lon="15.094218529388284"><ele>485.00000000000006</ele><time>2026-03-28T17:31:47Z</time></trkpt><trkpt lat="36.967543966215814" lon="15.094296140575665"><ele>488.2</ele><time>2026-03-28T17:31:53Z</time></trkpt><trkpt lat="36.967536221767155" lon="15.09438622408902"><ele>491.4</ele><time>2026-03-28T17:34:16Z</time></trkpt><trkpt lat="36.96744682250352" lon="15.094439072482215"><ele>494.6</ele><time>2026-03-28T17:34:19Z</time></trkpt><trkpt lat="36.96737669901633" lon="15.094538560211545"><ele>497.8</ele><time>2026-03-28T17:34:21Z</time></trkpt><trkpt lat="36.96731292514988" lon="15.094634527216325"><ele>501.0</ele><time>2026-03-28T17:34:23Z</time></trkpt><trkpt lat="36.96723811834469" lon="15.09471392002316"><ele>501.0</ele><time>2026-03-28T17:34:25Z</time></trkpt><trkpt lat="36.96729499042182" lon="15.094862757814331"><ele>501.0</ele><time>2026-03-28T17:34:28Z</time></trkpt><trkpt lat="36.96732430828058" lon="15.09497269111545"><ele>501.0</ele><time>2026-03-28T17:34:30Z</time></trkpt><trkpt lat="36.96725002793045" lon="15.095080522695142"><ele>501.0</ele><time>2026-03-28T17:34:32Z</time></trkpt><trkpt lat="36.967213894335416" lon="15.09516314180487"><ele>501.0</ele><time>2026-03-28T17:34:33Z</time></trkpt><trkpt lat="36.96716378877136" lon="15.095262109620412"><ele>496.5</ele><time>2026-03-28T17:34:34Z</time></trkpt><trkpt lat="36.96710838274367" lon="15.095373069450982"><ele>492.0</ele><time>2026-03-28T17:34:35Z</time></trkpt><trkpt lat="36.967051657369446" lon="15.095486369090457"><ele>487.5</ele><time>2026-03-28T17:34:36Z</time></trkpt><trkpt lat="36.96698601489109" lon="15.095619313849358"><ele>483.0</ele><time>2026-03-28T17:34:37Z</time></trkpt><trkpt lat="36.966915236847036" lon="15.095762406918233"><ele>477.59999999999997</ele><time>2026-03-28T17:34:38Z</time></trkpt><trkpt lat="36.966864138890635" lon="15.095881842247543"><ele>472.19999999999993</ele><time>2026-03-28T17:34:39Z</time></trkpt><trkpt lat="36.96683501609091" lon="15.09598943623877"><ele>466.8</ele><time>2026-03-28T17:34:40Z</time></trkpt><trkpt lat="36.96681630459151" lon="15.096096029113077"><ele>461.4</ele><time>2026-03-28T17:34:41Z</time></trkpt><trkpt lat="36.966806252490976" lon="15.096215343049636"><ele>456.0</ele><time>2026-03-28T17:34:42Z</time></trkpt><trkpt lat="36.96680014770309" lon="15.096335657832576"><ele>456.0</ele><time>2026-03-28T17:34:43Z</time></trkpt><trkpt lat="36.96679529055917" lon="15.096458069705335"><ele>456.0</ele><time>2026-03-28T17:34:44Z</time></trkpt><trkpt lat="36.966791388284925" lon="15.096589358079143"><ele>456.0</ele><time>2026-03-28T17:34:45Z</time></trkpt><trkpt lat="36.96678778860454" lon="15.09671046597726"><ele>456.0</ele><time>2026-03-28T17:34:46Z</time></trkpt><trkpt lat="36.966800062593414" lon="15.096816762069857"><ele>456.0</ele><time>2026-03-28T17:34:47Z</time></trkpt><trkpt lat="36.96678107842096" lon="15.096909135133696"><ele>455.6</ele><time>2026-03-28T17:34:48Z</time></trkpt><trkpt lat="36.96677688022063" lon="15.097024918990066"><ele>455.20000000000005</ele><time>2026-03-28T17:34:49Z</time></trkpt><trkpt lat="36.96677173485548" lon="15.097145785675073"><ele>454.79999999999995</ele><time>2026-03-28T17:34:50Z</time></trkpt><trkpt lat="36.96676413226284" lon="15.097304173016484"><ele>454.4</ele><time>2026-03-28T17:34:51Z</time></trkpt><trkpt lat="36.96675830497519" lon="15.097436411662933"><ele>454.0</ele><time>2026-03-28T17:34:52Z</time></trkpt><trkpt lat="36.966754064535806" lon="15.097554430498295"><ele>456.2</ele><time>2026-03-28T17:34:53Z</time></trkpt><trkpt lat="36.96674997515055" lon="15.097668245441573"><ele>458.4</ele><time>2026-03-28T17:34:54Z</time></trkpt><trkpt lat="36.96674267316252" lon="15.097788166612403"><ele>460.6</ele><time>2026-03-28T17:34:55Z</time></trkpt><trkpt lat="36.966727926705126" lon="15.0979400637329"><ele>462.8</ele><time>2026-03-28T17:34:56Z</time></trkpt><trkpt lat="36.966719813028064" lon="15.098095253380713"><ele>465.0</ele><time>2026-03-28T17:34:57Z</time></trkpt><trkpt lat="36.96670155433606" lon="15.09823804405513"><ele>470.6</ele><time>2026-03-28T17:34:58Z</time></trkpt><trkpt lat="36.96667035319609" lon="15.098360680465396"><ele>476.2</ele><time>2026-03-28T17:34:59Z</time></trkpt><trkpt lat="36.96665215809645" lon="15.098473674114677"><ele>481.79999999999995</ele><time>2026-03-28T17:35:00Z</time></trkpt><trkpt lat="36.96662892765102" lon="15.09860297252399"><ele>487.4</ele><time>2026-03-28T17:35:01Z</time></trkpt><trkpt lat="36.966605968850956" lon="15.09873400090437"><ele>493.0</ele><time>2026-03-28T17:35:02Z</time></trkpt><trkpt lat="36.966602267553085" lon="15.09886631136819"><ele>493.0</ele><time>2026-03-28T17:35:03Z</time></trkpt><trkpt lat="36.96658279722318" lon="15.098998153687907"><ele>492.99999999999994</ele><time>2026-03-28T17:35:04Z</time></trkpt><trkpt lat="36.966564461164985" lon="15.099116658801117"><ele>492.99999999999994</ele><time>2026-03-28T17:35:05Z</time></trkpt><trkpt lat="36.966543836933035" lon="15.099236215897438"><ele>493.0</ele><time>2026-03-28T17:35:06Z</time></trkpt><trkpt lat="36.96651754912483" lon="15.099376604227933"><ele>493.0</ele><time>2026-03-28T17:35:07Z</time></trkpt><trkpt lat="36.966481088428154" lon="15.099522351427966"><ele>493.4</ele><time>2026-03-28T17:35:08Z</time></trkpt><trkpt lat="36.966459446853165" lon="15.0996642347754"><ele>493.79999999999995</ele><time>2026-03-28T17:35:09Z</time></trkpt><trkpt lat="36.9664393697335" lon="15.099795861515759"><ele>494.2</ele><time>2026-03-28T17:35:10Z</time></trkpt><trkpt lat="36.96642073168211" lon="15.099915661780177"><ele>494.6</ele><time>2026-03-28T17:35:11Z</time></trkpt><trkpt lat="36.96639870753215" lon="15.100030921672321"><ele>495.0</ele><time>2026-03-28T17:35:12Z</time></trkpt><trkpt lat="36.96635869905236" lon="15.100168268464442"><ele>496.5</ele><time>2026-03-28T17:35:13Z</time></trkpt><trkpt lat="36.96631665117166" lon="15.10028907399518"><ele>498.0</ele><time>2026-03-28T17:35:14Z</time></trkpt><trkpt lat="36.966260594497136" lon="15.100450944277723"><ele>499.5</ele><time>2026-03-28T17:35:15Z</time></trkpt><trkpt lat="36.96620817454389" lon="15.100586820029323"><ele>501.0</ele><time>2026-03-28T17:35:16Z</time></trkpt><trkpt lat="36.966154648843194" lon="15.100702986870884"><ele>501.4</ele><time>2026-03-28T17:35:17Z</time></trkpt><trkpt lat="36.96610958351812" lon="15.100793020585458"><ele>501.8</ele><time>2026-03-28T17:35:18Z</time></trkpt><trkpt lat="36.9660611505246" lon="15.100911969440281"><ele>502.19999999999993</ele><time>2026-03-28T17:35:19Z</time></trkpt><trkpt lat="36.96598529806945" lon="15.101012681968605"><ele>502.59999999999997</ele><time>2026-03-28T17:35:20Z</time></trkpt><trkpt lat="36.965913399177396" lon="15.101097726116196"><ele>503.0</ele><time>2026-03-28T17:35:21Z</time></trkpt><trkpt lat="36.96582132854789" lon="15.101189824800787"><ele>503.0</ele><time>2026-03-28T17:35:22Z</time></trkpt><trkpt lat="36.96574489371022" lon="15.101278406500173"><ele>502.99999999999994</ele><time>2026-03-28T17:35:23Z</time></trkpt><trkpt lat="36.96566747532496" lon="15.101358985352208"><ele>502.99999999999994</ele><time>2026-03-28T17:35:24Z</time></trkpt><trkpt lat="36.96558897697876" lon="15.101452648723008"><ele>503.0</ele><time>2026-03-28T17:35:25Z</time></trkpt><trkpt lat="36.96550427761542" lon="15.101543100631783"><ele>503.0</ele><time>2026-03-28T17:35:26Z</time></trkpt><trkpt lat="36.965415125402764" lon="15.101630850325718"><ele>503.2</ele><time>2026-03-28T17:35:27Z</time></trkpt><trkpt lat="36.96533576414803" lon="15.101731841383927"><ele>503.4</ele><time>2026-03-28T17:35:28Z</time></trkpt><trkpt lat="36.96527033802837" lon="15.101815847893869"><ele>503.59999999999997</ele><time>2026-03-28T17:35:29Z</time></trkpt><trkpt lat="36.96520963242673" lon="15.10189443463281"><ele>503.79999999999995</ele><time>2026-03-28T17:35:30Z</time></trkpt><trkpt lat="36.96514836577813" lon="15.101975154197438"><ele>504.0</ele><time>2026-03-28T17:35:31Z</time></trkpt><trkpt lat="36.9650966827649" lon="15.102043555020087"><ele>504.0</ele><time>2026-03-28T17:35:32Z</time></trkpt><trkpt lat="36.96504690030448" lon="15.102110717846326"><ele>504.0</ele><time>2026-03-28T17:35:33Z</time></trkpt><trkpt lat="36.964992578883376" lon="15.10218400425436"><ele>504.0</ele><time>2026-03-28T17:35:34Z</time></trkpt><trkpt lat="36.96493668528118" lon="15.102261549086478"><ele>504.0</ele><time>2026-03-28T17:35:35Z</time></trkpt><trkpt lat="36.96489283313516" lon="15.102325587703714"><ele>504.0</ele><time>2026-03-28T17:35:36Z</time></trkpt><trkpt lat="36.96486306276678" lon="15.102404548379038"><ele>504.0</ele><time>2026-03-28T17:35:37Z</time></trkpt><trkpt lat="36.96480944607816" lon="15.102473043189754"><ele>502.2</ele><time>2026-03-28T17:35:38Z</time></trkpt><trkpt lat="36.96477320882782" lon="15.102564067570878"><ele>500.4</ele><time>2026-03-28T17:35:39Z</time></trkpt><trkpt lat="36.964695064315066" lon="15.102675595993192"><ele>498.6</ele><time>2026-03-28T17:35:40Z</time></trkpt><trkpt lat="36.96463840861734" lon="15.102780689528942"><ele>496.8</ele><time>2026-03-28T17:35:41Z</time></trkpt><trkpt lat="36.96459789749113" lon="15.102897945654194"><ele>495.0</ele><time>2026-03-28T17:35:42Z</time></trkpt><trkpt lat="36.96455024328413" lon="15.103007608953618"><ele>495.0</ele><time>2026-03-28T17:35:43Z</time></trkpt><trkpt lat="36.96453482153441" lon="15.10310680634581"><ele>495.0</ele><time>2026-03-28T17:35:44Z</time></trkpt><trkpt lat="36.9645174099881" lon="15.103238473868391"><ele>495.0</ele><time>2026-03-28T17:35:45Z</time></trkpt><trkpt lat="36.96451280166295" lon="15.10337433644624"><ele>495.0</ele><time>2026-03-28T17:35:46Z</time></trkpt><trkpt lat="36.96450207337756" lon="15.10352344690522"><ele>495.0</ele><time>2026-03-28T17:35:47Z</time></trkpt><trkpt lat="36.96447511976113" lon="15.103654125316355"><ele>494.5</ele><time>2026-03-28T17:35:48Z</time></trkpt><trkpt lat="36.96446203315848" lon="15.103799452513845"><ele>494.0</ele><time>2026-03-28T17:35:49Z</time></trkpt><trkpt lat="36.96444432374988" lon="15.103948891555286"><ele>493.5</ele><time>2026-03-28T17:35:50Z</time></trkpt><trkpt lat="36.96441860171722" lon="15.104107158472837"><ele>493.0</ele><time>2026-03-28T17:35:51Z</time></trkpt><trkpt lat="36.9643897139134" lon="15.10425768257682"><ele>492.59999999999997</ele><time>2026-03-28T17:35:52.001Z</time></trkpt><trkpt lat="36.96435556576893" lon="15.104381511358026"><ele>492.19999999999993</ele><time>2026-03-28T17:35:53.001Z</time></trkpt><trkpt lat="36.96434484516291" lon="15.104501517960742"><ele>491.8</ele><time>2026-03-28T17:35:54.001Z</time></trkpt><trkpt lat="36.96436358607704" lon="15.104645950882208"><ele>491.4</ele><time>2026-03-28T17:35:55.001Z</time></trkpt><trkpt lat="36.964376582472134" lon="15.104794804943518"><ele>491.0</ele><time>2026-03-28T17:35:56.001Z</time></trkpt><trkpt lat="36.964376731495804" lon="15.10496470410567"><ele>490.75</ele><time>2026-03-28T17:35:57.001Z</time></trkpt><trkpt lat="36.96438233790911" lon="15.105119402247434"><ele>490.5</ele><time>2026-03-28T17:35:58.001Z</time></trkpt><trkpt lat="36.964379270855794" lon="15.105260344814553"><ele>490.25</ele><time>2026-03-28T17:35:59.001Z</time></trkpt><trkpt lat="36.96436620304704" lon="15.105398816437567"><ele>490.0</ele><time>2026-03-28T17:36:00.001Z</time></trkpt><trkpt lat="36.96433732855831" lon="15.105550363475945"><ele>490.0</ele><time>2026-03-28T17:36:01.001Z</time></trkpt><trkpt lat="36.96430035002736" lon="15.105717274769601"><ele>490.0</ele><time>2026-03-28T17:36:02.001Z</time></trkpt><trkpt lat="36.96425721933306" lon="15.105895587064978"><ele>490.0</ele><time>2026-03-28T17:36:03.001Z</time></trkpt><trkpt lat="36.96421382813133" lon="15.106071085307246"><ele>490.0</ele><time>2026-03-28T17:36:04.001Z</time></trkpt><trkpt lat="36.96417628992538" lon="15.10622291051682"><ele>487.0</ele><time>2026-03-28T17:36:05.001Z</time></trkpt><trkpt lat="36.964140201926085" lon="15.106368868901235"><ele>484.0</ele><time>2026-03-28T17:36:06.001Z</time></trkpt><trkpt lat="36.96410297889323" lon="15.106519417940627"><ele>481.0</ele><time>2026-03-28T17:36:07.001Z</time></trkpt><trkpt lat="36.96407686667769" lon="15.106695122719247"><ele>478.0</ele><time>2026-03-28T17:36:08.001Z</time></trkpt><trkpt lat="36.96402031919999" lon="15.106873531192981"><ele>477.75</ele><time>2026-03-28T17:36:09.001Z</time></trkpt><trkpt lat="36.96396122773311" lon="15.107049593134457"><ele>477.5</ele><time>2026-03-28T17:36:10.001Z</time></trkpt><trkpt lat="36.96390899192366" lon="15.10719339628788"><ele>477.25</ele><time>2026-03-28T17:36:11.001Z</time></trkpt><trkpt lat="36.96386132859101" lon="15.1073252437409"><ele>477.0</ele><time>2026-03-28T17:36:12.001Z</time></trkpt><trkpt lat="36.96382376659124" lon="15.107458938459294"><ele>476.75</ele><time>2026-03-28T17:36:13Z</time></trkpt><trkpt lat="36.963782813447985" lon="15.107613763352521"><ele>476.5</ele><time>2026-03-28T17:36:14Z</time></trkpt><trkpt lat="36.96374803028666" lon="15.107764394407688"><ele>476.25</ele><time>2026-03-28T17:36:15Z</time></trkpt><trkpt lat="36.96371009611137" lon="15.107924414599248"><ele>476.0</ele><time>2026-03-28T17:36:16Z</time></trkpt><trkpt lat="36.96367698510744" lon="15.108086172159462"><ele>476.4</ele><time>2026-03-28T17:36:17Z</time></trkpt><trkpt lat="36.96364535770421" lon="15.10825115554715"><ele>476.8</ele><time>2026-03-28T17:36:18Z</time></trkpt><trkpt lat="36.963625726511395" lon="15.108379291459537"><ele>477.19999999999993</ele><time>2026-03-28T17:36:19Z</time></trkpt><trkpt lat="36.96359603503238" lon="15.108511006615075"><ele>477.59999999999997</ele><time>2026-03-28T17:36:20Z</time></trkpt><trkpt lat="36.96357006661833" lon="15.108626875316626"><ele>478.0</ele><time>2026-03-28T17:36:21Z</time></trkpt><trkpt lat="36.96354509037712" lon="15.108734704024029"><ele>478.0</ele><time>2026-03-28T17:36:22Z</time></trkpt><trkpt lat="36.96350375699389" lon="15.108864037359442"><ele>478.0</ele><time>2026-03-28T17:36:23Z</time></trkpt><trkpt lat="36.9634571481872" lon="15.108998307222098"><ele>478.0</ele><time>2026-03-28T17:36:24Z</time></trkpt><trkpt lat="36.96340127768235" lon="15.10913101973732"><ele>478.0</ele><time>2026-03-28T17:36:25Z</time></trkpt><trkpt lat="36.96334595185383" lon="15.10926639228802"><ele>477.00000000000006</ele><time>2026-03-28T17:36:26Z</time></trkpt><trkpt lat="36.963305946942334" lon="15.10937575948828"><ele>476.0</ele><time>2026-03-28T17:36:27Z</time></trkpt><trkpt lat="36.96328568253741" lon="15.109467650284236"><ele>475.0</ele><time>2026-03-28T17:36:28Z</time></trkpt><trkpt lat="36.963281975032295" lon="15.109547368429123"><ele>474.0</ele><time>2026-03-28T17:36:29Z</time></trkpt><trkpt lat="36.96328416050713" lon="15.109641964465181"><ele>473.00000000000006</ele><time>2026-03-28T17:36:30Z</time></trkpt><trkpt lat="36.96329800394705" lon="15.109774436999201"><ele>472.0</ele><time>2026-03-28T17:36:31Z</time></trkpt><trkpt lat="36.96331002235657" lon="15.10993613682251"><ele>471.6666666666667</ele><time>2026-03-28T17:36:32Z</time></trkpt><trkpt lat="36.96331615548156" lon="15.110105548480691"><ele>471.33333333333337</ele><time>2026-03-28T17:36:33Z</time></trkpt><trkpt lat="36.96333663184002" lon="15.110278948640893"><ele>471.0</ele><time>2026-03-28T17:36:34Z</time></trkpt><trkpt lat="36.96337351065988" lon="15.110492237478272"><ele>469.25</ele><time>2026-03-28T17:36:35Z</time></trkpt><trkpt lat="36.96342038541422" lon="15.11069529983371"><ele>467.5</ele><time>2026-03-28T17:36:36Z</time></trkpt><trkpt lat="36.96345070431822" lon="15.110870994602857"><ele>465.75</ele><time>2026-03-28T17:36:37Z</time></trkpt><trkpt lat="36.96347429175898" lon="15.111039325730943"><ele>464.0</ele><time>2026-03-28T17:36:38Z</time></trkpt><trkpt lat="36.96349175161281" lon="15.111194884370416"><ele>459.0</ele><time>2026-03-28T17:36:39Z</time></trkpt><trkpt lat="36.96350784824442" lon="15.111333367999002"><ele>454.0</ele><time>2026-03-28T17:36:40Z</time></trkpt><trkpt lat="36.96352485922575" lon="15.111440423804245"><ele>449.0</ele><time>2026-03-28T17:36:41Z</time></trkpt><trkpt lat="36.96353559657658" lon="15.111533259937985"><ele>444.0</ele><time>2026-03-28T17:36:42Z</time></trkpt><trkpt lat="36.96352969795896" lon="15.111636356930473"><ele>439.0</ele><time>2026-03-28T17:36:43Z</time></trkpt><trkpt lat="36.9635102991941" lon="15.111783667883758"><ele>448.33333333333337</ele><time>2026-03-28T17:36:44Z</time></trkpt><trkpt lat="36.96347490216774" lon="15.11194844230398"><ele>457.66666666666663</ele><time>2026-03-28T17:36:45Z</time></trkpt><trkpt lat="36.96343357222578" lon="15.112136395231433"><ele>467.0</ele><time>2026-03-28T17:36:46Z</time></trkpt><trkpt lat="36.963356353450585" lon="15.11230842382013"><ele>466.25</ele><time>2026-03-28T17:36:47Z</time></trkpt><trkpt lat="36.96330979608814" lon="15.112481786227535"><ele>465.5</ele><time>2026-03-28T17:36:48Z</time></trkpt><trkpt lat="36.96326885498189" lon="15.11263122445672"><ele>464.75</ele><time>2026-03-28T17:36:49Z</time></trkpt><trkpt lat="36.963244327432584" lon="15.112772512583783"><ele>464.0</ele><time>2026-03-28T17:36:50Z</time></trkpt><trkpt lat="36.963198132237274" lon="15.112922700535279"><ele>464.0</ele><time>2026-03-28T17:36:51Z</time></trkpt><trkpt lat="36.963156614944864" lon="15.113107741730904"><ele>464.0</ele><time>2026-03-28T17:36:52Z</time></trkpt><trkpt lat="36.96311249665919" lon="15.113281073330294"><ele>464.0</ele><time>2026-03-28T17:36:53Z</time></trkpt><trkpt lat="36.96307359300641" lon="15.113451734485807"><ele>464.0</ele><time>2026-03-28T17:36:54Z</time></trkpt><trkpt lat="36.96303303729687" lon="15.113625041870323"><ele>457.25</ele><time>2026-03-28T17:36:55Z</time></trkpt><trkpt lat="36.96299021584252" lon="15.11380095960389"><ele>450.5</ele><time>2026-03-28T17:36:56Z</time></trkpt><trkpt lat="36.9629331440606" lon="15.11396226158041"><ele>443.75</ele><time>2026-03-28T17:36:57Z</time></trkpt><trkpt lat="36.962885524444204" lon="15.114127785511524"><ele>437.0</ele><time>2026-03-28T17:36:58Z</time></trkpt><trkpt lat="36.96283898616544" lon="15.114278918714557"><ele>429.6</ele><time>2026-03-28T17:36:59Z</time></trkpt><trkpt lat="36.962792763130366" lon="15.11441958940548"><ele>422.20000000000005</ele><time>2026-03-28T17:37:00Z</time></trkpt><trkpt lat="36.96274235980091" lon="15.114560147053073"><ele>414.8</ele><time>2026-03-28T17:37:01Z</time></trkpt><trkpt lat="36.96271125819998" lon="15.114671137160391"><ele>407.4</ele><time>2026-03-28T17:37:02Z</time></trkpt><trkpt lat="36.962687764943105" lon="15.11477107103452"><ele>400.0</ele><time>2026-03-28T17:37:03Z</time></trkpt><trkpt lat="36.96266266374127" lon="15.11487150118603"><ele>394.1666666666667</ele><time>2026-03-28T17:37:04Z</time></trkpt><trkpt lat="36.96263368149359" lon="15.114979149376405"><ele>388.33333333333337</ele><time>2026-03-28T17:37:05Z</time></trkpt><trkpt lat="36.96260945154716" lon="15.11506914651075"><ele>382.5</ele><time>2026-03-28T17:37:06Z</time></trkpt><trkpt lat="36.962577154787986" lon="15.115189687630826"><ele>376.6666666666667</ele><time>2026-03-28T17:37:07Z</time></trkpt><trkpt lat="36.9625491384993" lon="15.115296410941799"><ele>370.83333333333337</ele><time>2026-03-28T17:37:08Z</time></trkpt><trkpt lat="36.962521276861985" lon="15.115402545071545"><ele>365.0</ele><time>2026-03-28T17:37:09Z</time></trkpt><trkpt lat="36.962494785189065" lon="15.11550725404176"><ele>381.8</ele><time>2026-03-28T17:37:10Z</time></trkpt><trkpt lat="36.962468712273996" lon="15.115614464688736"><ele>398.6</ele><time>2026-03-28T17:37:11Z</time></trkpt><trkpt lat="36.962446541977634" lon="15.115709845302113"><ele>415.4</ele><time>2026-03-28T17:37:12Z</time></trkpt><trkpt lat="36.962428380475394" lon="15.115806828105534"><ele>432.2</ele><time>2026-03-28T17:37:13Z</time></trkpt><trkpt lat="36.96240982842374" lon="15.115930158557155"><ele>449.0</ele><time>2026-03-28T17:37:14Z</time></trkpt><trkpt lat="36.962395801297" lon="15.116065309609185"><ele>449.0</ele><time>2026-03-28T17:37:15Z</time></trkpt><trkpt lat="36.96238317680257" lon="15.116213214580611"><ele>449.0</ele><time>2026-03-28T17:37:16Z</time></trkpt><trkpt lat="36.962379321119364" lon="15.116340928374099"><ele>449.0</ele><time>2026-03-28T17:37:17Z</time></trkpt><trkpt lat="36.962400788022876" lon="15.116487457890015"><ele>449.0</ele><time>2026-03-28T17:37:18Z</time></trkpt><trkpt lat="36.9624188504752" lon="15.116672034811664"><ele>447.66666666666663</ele><time>2026-03-28T17:37:19Z</time></trkpt><trkpt lat="36.96244541122065" lon="15.116872862721936"><ele>446.33333333333337</ele><time>2026-03-28T17:37:20Z</time></trkpt><trkpt lat="36.962458709656666" lon="15.117077399353647"><ele>445.0</ele><time>2026-03-28T17:37:21Z</time></trkpt><trkpt lat="36.962475740728046" lon="15.117239448972771"><ele>445.0</ele><time>2026-03-28T17:37:22Z</time></trkpt><trkpt lat="36.962485116122664" lon="15.117375704847657"><ele>445.0</ele><time>2026-03-28T17:37:23Z</time></trkpt><trkpt lat="36.96248946728975" lon="15.117512434998979"><ele>445.0</ele><time>2026-03-28T17:37:24Z</time></trkpt><trkpt lat="36.96248896814438" lon="15.117681135732047"><ele>445.0</ele><time>2026-03-28T17:37:25Z</time></trkpt><trkpt lat="36.96247911276634" lon="15.117859019894983"><ele>445.25</ele><time>2026-03-28T17:37:26Z</time></trkpt><trkpt lat="36.96246576230621" lon="15.118023558297429"><ele>445.5</ele><time>2026-03-28T17:37:27Z</time></trkpt><trkpt lat="36.962448647651335" lon="15.11818868834614"><ele>445.75</ele><time>2026-03-28T17:37:28Z</time></trkpt><trkpt lat="36.96243090490748" lon="15.118346231668294"><ele>446.0</ele><time>2026-03-28T17:37:29Z</time></trkpt><trkpt lat="36.96241497843709" lon="15.11848934088345"><ele>446.4</ele><time>2026-03-28T17:37:30Z</time></trkpt><trkpt lat="36.96240060874198" lon="15.118619969255626"><ele>446.8</ele><time>2026-03-28T17:37:31Z</time></trkpt><trkpt lat="36.96240459406295" lon="15.118745550656897"><ele>447.19999999999993</ele><time>2026-03-28T17:37:32Z</time></trkpt><trkpt lat="36.96239081750555" lon="15.118848339325774"><ele>447.59999999999997</ele><time>2026-03-28T17:37:33Z</time></trkpt><trkpt lat="36.96238566341684" lon="15.11894872252014"><ele>448.0</ele><time>2026-03-28T17:37:34Z</time></trkpt><trkpt lat="36.96242490137355" lon="15.119098412578929"><ele>448.0</ele><time>2026-03-28T17:37:36Z</time></trkpt><trkpt lat="36.96249241781637" lon="15.119214068457172"><ele>448.0</ele><time>2026-03-28T17:37:37Z</time></trkpt><trkpt lat="36.962584962190626" lon="15.119366860766478"><ele>448.0</ele><time>2026-03-28T17:37:38Z</time></trkpt><trkpt lat="36.96266842176481" lon="15.119487082636445"><ele>448.0</ele><time>2026-03-28T17:37:39Z</time></trkpt><trkpt lat="36.96275596595855" lon="15.119604903965907"><ele>445.79999999999995</ele><time>2026-03-28T17:37:40Z</time></trkpt><trkpt lat="36.96284212468141" lon="15.119730627054661"><ele>443.59999999999997</ele><time>2026-03-28T17:37:41Z</time></trkpt><trkpt lat="36.962910091105265" lon="15.119829756074228"><ele>441.40000000000003</ele><time>2026-03-28T17:37:42Z</time></trkpt><trkpt lat="36.96295985226873" lon="15.119911939967857"><ele>439.20000000000005</ele><time>2026-03-28T17:37:43Z</time></trkpt><trkpt lat="36.96299070770824" lon="15.11999122446383"><ele>437.0</ele><time>2026-03-28T17:37:44Z</time></trkpt><trkpt lat="36.96302554200443" lon="15.120069104758073"><ele>436.99999999999994</ele><time>2026-03-28T17:37:45Z</time></trkpt><trkpt lat="36.963052808653764" lon="15.120164450542488"><ele>437.0</ele><time>2026-03-28T17:37:46Z</time></trkpt><trkpt lat="36.96307293195307" lon="15.120292477943483"><ele>437.0</ele><time>2026-03-28T17:37:47Z</time></trkpt><trkpt lat="36.963093898229836" lon="15.120403941437402"><ele>437.0</ele><time>2026-03-28T17:37:48.001Z</time></trkpt><trkpt lat="36.963109132494104" lon="15.120484536970913"><ele>436.99999999999994</ele><time>2026-03-28T17:37:49.001Z</time></trkpt><trkpt lat="36.963125321934996" lon="15.120569084073123"><ele>437.0</ele><time>2026-03-28T17:37:50.001Z</time></trkpt><trkpt lat="36.96314419223443" lon="15.120667321393979"><ele>438.8</ele><time>2026-03-28T17:37:51.001Z</time></trkpt><trkpt lat="36.96317666465399" lon="15.120779908672588"><ele>440.6</ele><time>2026-03-28T17:37:52.001Z</time></trkpt><trkpt lat="36.96320871385277" lon="15.120942947059682"><ele>442.40000000000003</ele><time>2026-03-28T17:37:53.001Z</time></trkpt><trkpt lat="36.9632345422095" lon="15.121076258120072"><ele>444.20000000000005</ele><time>2026-03-28T17:37:54.001Z</time></trkpt><trkpt lat="36.96324387910422" lon="15.121178964692081"><ele>446.0</ele><time>2026-03-28T17:37:55.001Z</time></trkpt><trkpt lat="36.963265593793864" lon="15.121257411937512"><ele>446.0</ele><time>2026-03-28T17:37:56.001Z</time></trkpt><trkpt lat="36.96328742970877" lon="15.121336296820894"><ele>446.0</ele><time>2026-03-28T17:37:57.001Z</time></trkpt><trkpt lat="36.9632953127246" lon="15.121428987477575"><ele>446.0</ele><time>2026-03-28T17:37:58.001Z</time></trkpt><trkpt lat="36.9632939803926" lon="15.121555293469829"><ele>446.0</ele><time>2026-03-28T17:37:59.001Z</time></trkpt><trkpt lat="36.96328073623059" lon="15.121700291260236"><ele>446.0</ele><time>2026-03-28T17:38:00.001Z</time></trkpt><trkpt lat="36.963261182113136" lon="15.121844049519181"><ele>446.0</ele><time>2026-03-28T17:38:01.001Z</time></trkpt><trkpt lat="36.9632426178185" lon="15.121980164537261"><ele>446.0</ele><time>2026-03-28T17:38:02.001Z</time></trkpt><trkpt lat="36.963221942240615" lon="15.122131100623996"><ele>446.0</ele><time>2026-03-28T17:38:03.001Z</time></trkpt><trkpt lat="36.96319439444135" lon="15.122309057777356"><ele>446.0</ele><time>2026-03-28T17:38:04.001Z</time></trkpt><trkpt lat="36.96315804491454" lon="15.122475385868775"><ele>442.0</ele><time>2026-03-28T17:38:05.001Z</time></trkpt><trkpt lat="36.96311791130603" lon="15.122616642862841"><ele>438.0</ele><time>2026-03-28T17:38:06.001Z</time></trkpt><trkpt lat="36.96307608548986" lon="15.12273083515102"><ele>434.0</ele><time>2026-03-28T17:38:07.001Z</time></trkpt><trkpt lat="36.96302933587627" lon="15.122819687368624"><ele>430.0</ele><time>2026-03-28T17:38:08.001Z</time></trkpt><trkpt lat="36.96297643212689" lon="15.122882177992341"><ele>426.0</ele><time>2026-03-28T17:38:09.001Z</time></trkpt><trkpt lat="36.9629191960403" lon="15.122944653160424"><ele>426.0</ele><time>2026-03-28T17:38:10.001Z</time></trkpt><trkpt lat="36.96282412209755" lon="15.123040703511446"><ele>426.0</ele><time>2026-03-28T17:38:11.001Z</time></trkpt><trkpt lat="36.9627439779925" lon="15.123118627971275"><ele>426.0</ele><time>2026-03-28T17:38:12.001Z</time></trkpt><trkpt lat="36.962667621725636" lon="15.123195265277031"><ele>426.0</ele><time>2026-03-28T17:38:13.001Z</time></trkpt><trkpt lat="36.962597772832254" lon="15.123302071640863"><ele>426.0</ele><time>2026-03-28T17:38:14.001Z</time></trkpt><trkpt lat="36.96252674342086" lon="15.123390168621203"><ele>432.25</ele><time>2026-03-28T17:38:15.001Z</time></trkpt><trkpt lat="36.96247913470909" lon="15.123519232726027"><ele>438.5</ele><time>2026-03-28T17:38:16.001Z</time></trkpt><trkpt lat="36.96242180161317" lon="15.123666076575425"><ele>444.75</ele><time>2026-03-28T17:38:17.001Z</time></trkpt><trkpt lat="36.96235973338131" lon="15.123836463691003"><ele>451.0</ele><time>2026-03-28T17:38:18.001Z</time></trkpt><trkpt lat="36.96231528681747" lon="15.123991832402844"><ele>447.5</ele><time>2026-03-28T17:38:19Z</time></trkpt><trkpt lat="36.96226915826496" lon="15.12414037952192"><ele>444.0</ele><time>2026-03-28T17:38:20Z</time></trkpt><trkpt lat="36.96223055074273" lon="15.124269946652499"><ele>440.5</ele><time>2026-03-28T17:38:21Z</time></trkpt><trkpt lat="36.962200619505715" lon="15.12439736808614"><ele>437.0</ele><time>2026-03-28T17:38:22Z</time></trkpt><trkpt lat="36.962151422643146" lon="15.124528297258225"><ele>437.0</ele><time>2026-03-28T17:38:23Z</time></trkpt><trkpt lat="36.962103247792236" lon="15.124678813175288"><ele>437.0</ele><time>2026-03-28T17:38:24Z</time></trkpt><trkpt lat="36.9620507282471" lon="15.124813548030708"><ele>437.0</ele><time>2026-03-28T17:38:25Z</time></trkpt><trkpt lat="36.961992916806146" lon="15.124955160152865"><ele>437.0</ele><time>2026-03-28T17:38:26Z</time></trkpt><trkpt lat="36.96194057734892" lon="15.125076755732193"><ele>439.40000000000003</ele><time>2026-03-28T17:38:27Z</time></trkpt><trkpt lat="36.96189623851051" lon="15.12520598838174"><ele>441.80000000000007</ele><time>2026-03-28T17:38:28Z</time></trkpt><trkpt lat="36.96184444847594" lon="15.125337143567775"><ele>444.2</ele><time>2026-03-28T17:38:29Z</time></trkpt><trkpt lat="36.961792780908056" lon="15.125441835356161"><ele>446.6</ele><time>2026-03-28T17:38:30Z</time></trkpt><trkpt lat="36.961744219411685" lon="15.125546046541317"><ele>449.0</ele><time>2026-03-28T17:38:31Z</time></trkpt><trkpt lat="36.961696117040766" lon="15.125622331672478"><ele>447.75</ele><time>2026-03-28T17:38:32Z</time></trkpt><trkpt lat="36.961638415455326" lon="15.125747502916902"><ele>446.5</ele><time>2026-03-28T17:38:34Z</time></trkpt><trkpt lat="36.961591877989754" lon="15.1258455972777"><ele>445.25</ele><time>2026-03-28T17:38:36Z</time></trkpt><trkpt lat="36.961527729507715" lon="15.125958617967088"><ele>444.0</ele><time>2026-03-28T17:38:38Z</time></trkpt><trkpt lat="36.96144589135015" lon="15.126108016297499"><ele>444.0</ele><time>2026-03-28T17:38:40Z</time></trkpt><trkpt lat="36.96136181401315" lon="15.12623555461625"><ele>444.0</ele><time>2026-03-28T17:38:41Z</time></trkpt><trkpt lat="36.961290251334816" lon="15.126360514957762"><ele>444.0</ele><time>2026-03-28T17:38:42Z</time></trkpt><trkpt lat="36.96124231355444" lon="15.12646547862031"><ele>444.0</ele><time>2026-03-28T17:38:43Z</time></trkpt><trkpt lat="36.96119279600718" lon="15.126573193774167"><ele>439.6</ele><time>2026-03-28T17:38:44Z</time></trkpt><trkpt lat="36.96116299473772" lon="15.12669921241007"><ele>435.2</ele><time>2026-03-28T17:38:45Z</time></trkpt><trkpt lat="36.96114043141198" lon="15.126849836411283"><ele>430.8</ele><time>2026-03-28T17:38:46Z</time></trkpt><trkpt lat="36.961110174615264" lon="15.126972668752014"><ele>426.40000000000003</ele><time>2026-03-28T17:38:47Z</time></trkpt><trkpt lat="36.96106953645218" lon="15.127069566346858"><ele>422.0</ele><time>2026-03-28T17:38:48Z</time></trkpt><trkpt lat="36.96101597626968" lon="15.12716774605819"><ele>422.0</ele><time>2026-03-28T17:38:49Z</time></trkpt><trkpt lat="36.960971807926825" lon="15.127278886079399"><ele>422.0</ele><time>2026-03-28T17:38:50Z</time></trkpt><trkpt lat="36.960942797543645" lon="15.127394232741509"><ele>422.0</ele><time>2026-03-28T17:38:51Z</time></trkpt><trkpt lat="36.9609227324155" lon="15.127525738056226"><ele>422.0</ele><time>2026-03-28T17:38:52Z</time></trkpt><trkpt lat="36.960912138421264" lon="15.127660412585996"><ele>422.0</ele><time>2026-03-28T17:38:53Z</time></trkpt><trkpt lat="36.96089627170184" lon="15.127785554904685"><ele>426.0</ele><time>2026-03-28T17:38:54Z</time></trkpt><trkpt lat="36.960875407229565" lon="15.127903710326061"><ele>430.0</ele><time>2026-03-28T17:38:55Z</time></trkpt><trkpt lat="36.960845575326985" lon="15.128011884141065"><ele>434.00000000000006</ele><time>2026-03-28T17:38:56Z</time></trkpt><trkpt lat="36.96080899990675" lon="15.128112575409265"><ele>438.0</ele><time>2026-03-28T17:38:57Z</time></trkpt><trkpt lat="36.960767395144366" lon="15.128209922822466"><ele>442.0</ele><time>2026-03-28T17:38:58Z</time></trkpt><trkpt lat="36.96071040844579" lon="15.12834643578286"><ele>442.0</ele><time>2026-03-28T17:39:00Z</time></trkpt><trkpt lat="36.96068137129744" lon="15.128424263797692"><ele>442.00000000000006</ele><time>2026-03-28T17:39:01Z</time></trkpt><trkpt lat="36.96062869258048" lon="15.128547104859685"><ele>442.00000000000006</ele><time>2026-03-28T17:39:03Z</time></trkpt><trkpt lat="36.960587593056495" lon="15.128681249950109"><ele>442.0</ele><time>2026-03-28T17:39:05Z</time></trkpt><trkpt lat="36.96054551898264" lon="15.128831753698613"><ele>442.0</ele><time>2026-03-28T17:39:07Z</time></trkpt><trkpt lat="36.960520719442094" lon="15.128974147481237"><ele>437.5</ele><time>2026-03-28T17:39:09Z</time></trkpt><trkpt lat="36.96047672148989" lon="15.12911760519737"><ele>433.0</ele><time>2026-03-28T17:39:11Z</time></trkpt><trkpt lat="36.96042076153688" lon="15.129270582279503"><ele>428.5</ele><time>2026-03-28T17:39:13Z</time></trkpt><trkpt lat="36.96036611409123" lon="15.129400013730674"><ele>424.0</ele><time>2026-03-28T17:39:14Z</time></trkpt><trkpt lat="36.96031202446902" lon="15.12952920661914"><ele>424.00000000000006</ele><time>2026-03-28T17:39:15Z</time></trkpt><trkpt lat="36.96026983867371" lon="15.12964017286371"><ele>424.0</ele><time>2026-03-28T17:39:16Z</time></trkpt><trkpt lat="36.960230229307" lon="15.12974289829089"><ele>424.0</ele><time>2026-03-28T17:39:17Z</time></trkpt><trkpt lat="36.96019673690588" lon="15.129846095340621"><ele>424.0</ele><time>2026-03-28T17:39:18Z</time></trkpt><trkpt lat="36.9601665846351" lon="15.12992887729638"><ele>424.00000000000006</ele><time>2026-03-28T17:39:19Z</time></trkpt><trkpt lat="36.96013708276024" lon="15.130008430904484"><ele>424.0</ele><time>2026-03-28T17:39:20Z</time></trkpt><trkpt lat="36.96010209217047" lon="15.130109699924226"><ele>427.25</ele><time>2026-03-28T17:39:21Z</time></trkpt><trkpt lat="36.96005255283118" lon="15.130232926988633"><ele>430.5</ele><time>2026-03-28T17:39:22Z</time></trkpt><trkpt lat="36.959987531954354" lon="15.130398014573975"><ele>433.75</ele><time>2026-03-28T17:39:23Z</time></trkpt><trkpt lat="36.95991976483147" lon="15.13058308188669"><ele>437.0</ele><time>2026-03-28T17:39:24Z</time></trkpt><trkpt lat="36.95985462656233" lon="15.13075866849309"><ele>437.75</ele><time>2026-03-28T17:39:25Z</time></trkpt><trkpt lat="36.95980547855325" lon="15.130924666464452"><ele>438.5</ele><time>2026-03-28T17:39:26Z</time></trkpt><trkpt lat="36.95976461183553" lon="15.131079447950563"><ele>439.25</ele><time>2026-03-28T17:39:27Z</time></trkpt><trkpt lat="36.959722579438264" lon="15.131237619496469"><ele>440.0</ele><time>2026-03-28T17:39:28Z</time></trkpt><trkpt lat="36.959712923374596" lon="15.13141515250057"><ele>440.3333333333333</ele><time>2026-03-28T17:39:29Z</time></trkpt><trkpt lat="36.95969708928901" lon="15.131652953108695"><ele>440.66666666666663</ele><time>2026-03-28T17:39:30Z</time></trkpt><trkpt lat="36.95969984743969" lon="15.131876250097418"><ele>441.0</ele><time>2026-03-28T17:39:31Z</time></trkpt><trkpt lat="36.95970804305549" lon="15.132088116516213"><ele>441.0</ele><time>2026-03-28T17:39:32Z</time></trkpt><trkpt lat="36.95970338395783" lon="15.132291137599475"><ele>441.0</ele><time>2026-03-28T17:39:33Z</time></trkpt><trkpt lat="36.95969312127979" lon="15.132492348398456"><ele>441.0</ele><time>2026-03-28T17:39:34Z</time></trkpt><trkpt lat="36.95967641390543" lon="15.132686722971256"><ele>438.5</ele><time>2026-03-28T17:39:35Z</time></trkpt><trkpt lat="36.959636736093096" lon="15.132849722371446"><ele>436.0</ele><time>2026-03-28T17:39:36Z</time></trkpt><trkpt lat="36.95957760411535" lon="15.133009236005709"><ele>433.5</ele><time>2026-03-28T17:39:37Z</time></trkpt><trkpt lat="36.95948372798743" lon="15.133170601915705"><ele>431.0</ele><time>2026-03-28T17:39:38Z</time></trkpt><trkpt lat="36.95942826060916" lon="15.133372859438854"><ele>422.66666666666663</ele><time>2026-03-28T17:39:39Z</time></trkpt><trkpt lat="36.959371061611414" lon="15.133571921981838"><ele>414.33333333333337</ele><time>2026-03-28T17:39:40Z</time></trkpt><trkpt lat="36.95931240647402" lon="15.133751200611895"><ele>406.0</ele><time>2026-03-28T17:39:41Z</time></trkpt><trkpt lat="36.959247111555904" lon="15.133927948866766"><ele>410.75</ele><time>2026-03-28T17:39:42Z</time></trkpt><trkpt lat="36.95918672892816" lon="15.134085383417808"><ele>415.5</ele><time>2026-03-28T17:39:43Z</time></trkpt><trkpt lat="36.95914011897264" lon="15.134215372235767"><ele>420.25</ele><time>2026-03-28T17:39:44Z</time></trkpt><trkpt lat="36.95910500781567" lon="15.134334072173553"><ele>425.0</ele><time>2026-03-28T17:39:45Z</time></trkpt><trkpt lat="36.9590969591187" lon="15.13447364100738"><ele>425.0</ele><time>2026-03-28T17:39:46Z</time></trkpt><trkpt lat="36.959149116367406" lon="15.13462592890711"><ele>425.0</ele><time>2026-03-28T17:39:47Z</time></trkpt><trkpt lat="36.959175216474" lon="15.134791635765092"><ele>425.0</ele><time>2026-03-28T17:39:48Z</time></trkpt><trkpt lat="36.95920485285591" lon="15.134950301160048"><ele>425.0</ele><time>2026-03-28T17:39:49Z</time></trkpt><trkpt lat="36.95923063117176" lon="15.135111941747923"><ele>424.0</ele><time>2026-03-28T17:39:50Z</time></trkpt><trkpt lat="36.95922984965346" lon="15.135264362225177"><ele>423.0</ele><time>2026-03-28T17:39:51Z</time></trkpt><trkpt lat="36.95920846550898" lon="15.13539670967379"><ele>422.0</ele><time>2026-03-28T17:39:52Z</time></trkpt><trkpt lat="36.959192896915944" lon="15.135527282640878"><ele>421.0</ele><time>2026-03-28T17:39:53Z</time></trkpt><trkpt lat="36.959138092912255" lon="15.135664400610343"><ele>419.0</ele><time>2026-03-28T17:39:54Z</time></trkpt><trkpt lat="36.95908451729804" lon="15.135817244387466"><ele>417.0</ele><time>2026-03-28T17:39:55Z</time></trkpt><trkpt lat="36.9590153883996" lon="15.135965967837826"><ele>415.0</ele><time>2026-03-28T17:39:56Z</time></trkpt><trkpt lat="36.958948541342515" lon="15.136139155097014"><ele>413.0</ele><time>2026-03-28T17:39:57Z</time></trkpt><trkpt lat="36.9588737798429" lon="15.136328777283802"><ele>413.0</ele><time>2026-03-28T17:39:58Z</time></trkpt><trkpt lat="36.95880235613781" lon="15.136496858130688"><ele>413.0</ele><time>2026-03-28T17:39:59.001Z</time></trkpt><trkpt lat="36.95873848261386" lon="15.13665730257875"><ele>413.0</ele><time>2026-03-28T17:40:00.001Z</time></trkpt><trkpt lat="36.95868116799586" lon="15.136800368077596"><ele>413.0</ele><time>2026-03-28T17:40:01.001Z</time></trkpt><trkpt lat="36.95862652872293" lon="15.136938702250356"><ele>411.25</ele><time>2026-03-28T17:40:02.001Z</time></trkpt><trkpt lat="36.958562593573404" lon="15.137100806772288"><ele>409.5</ele><time>2026-03-28T17:40:03.001Z</time></trkpt><trkpt lat="36.95849449121075" lon="15.13726615035079"><ele>407.75</ele><time>2026-03-28T17:40:04.001Z</time></trkpt><trkpt lat="36.95843355173611" lon="15.13742067812587"><ele>406.0</ele><time>2026-03-28T17:40:05.001Z</time></trkpt><trkpt lat="36.95838159886421" lon="15.137561448111153"><ele>404.75</ele><time>2026-03-28T17:40:06.001Z</time></trkpt><trkpt lat="36.95832933230758" lon="15.137691732460361"><ele>403.5</ele><time>2026-03-28T17:40:07.001Z</time></trkpt><trkpt lat="36.95827319894605" lon="15.13783366798484"><ele>402.25</ele><time>2026-03-28T17:40:08.001Z</time></trkpt><trkpt lat="36.95821653033212" lon="15.137968712168425"><ele>401.0</ele><time>2026-03-28T17:40:09.001Z</time></trkpt><trkpt lat="36.95816555095126" lon="15.138084849526601"><ele>401.0</ele><time>2026-03-28T17:40:10.001Z</time></trkpt><trkpt lat="36.95812712431424" lon="15.13818717498925"><ele>401.0</ele><time>2026-03-28T17:40:11.001Z</time></trkpt><trkpt lat="36.95808230268671" lon="15.138295466131673"><ele>401.0</ele><time>2026-03-28T17:40:12.001Z</time></trkpt><trkpt lat="36.9580368315056" lon="15.138410708647752"><ele>401.0</ele><time>2026-03-28T17:40:13.001Z</time></trkpt><trkpt lat="36.95798996526145" lon="15.138527842017613"><ele>401.0</ele><time>2026-03-28T17:40:14.001Z</time></trkpt><trkpt lat="36.95795017035009" lon="15.138646725615258"><ele>400.0</ele><time>2026-03-28T17:40:15.001Z</time></trkpt><trkpt lat="36.9579089653811" lon="15.138726394986675"><ele>399.0</ele><time>2026-03-28T17:40:16.001Z</time></trkpt><trkpt lat="36.95785655767744" lon="15.13885669778239"><ele>398.0</ele><time>2026-03-28T17:40:18.001Z</time></trkpt><trkpt lat="36.957812997252724" lon="15.138967425765538"><ele>397.0</ele><time>2026-03-28T17:40:20.001Z</time></trkpt><trkpt lat="36.957758453748895" lon="15.139110579211145"><ele>396.0</ele><time>2026-03-28T17:40:22.001Z</time></trkpt><trkpt lat="36.95772422984144" lon="15.139201085135403"><ele>395.20000000000005</ele><time>2026-03-28T17:40:23.001Z</time></trkpt><trkpt lat="36.95768943907706" lon="15.139338195907019"><ele>394.40000000000003</ele><time>2026-03-28T17:40:24Z</time></trkpt><trkpt lat="36.95764041228082" lon="15.139465144350009"><ele>393.6</ele><time>2026-03-28T17:40:25Z</time></trkpt><trkpt lat="36.95760321808028" lon="15.139570456407194"><ele>392.8</ele><time>2026-03-28T17:40:26Z</time></trkpt><trkpt lat="36.95755259776848" lon="15.139658256494101"><ele>392.0</ele><time>2026-03-28T17:40:27Z</time></trkpt><trkpt lat="36.95753568348047" lon="15.139746713025906"><ele>391.25</ele><time>2026-03-28T17:40:28Z</time></trkpt><trkpt lat="36.95750142616687" lon="15.139832194509678"><ele>390.5</ele><time>2026-03-28T17:40:29Z</time></trkpt><trkpt lat="36.95744322031512" lon="15.139932899625437"><ele>389.75</ele><time>2026-03-28T17:40:30Z</time></trkpt><trkpt lat="36.95735757785447" lon="15.140090133313258"><ele>389.0</ele><time>2026-03-28T17:40:31Z</time></trkpt><trkpt lat="36.95725923350389" lon="15.140273567405648"><ele>389.0</ele><time>2026-03-28T17:40:32Z</time></trkpt><trkpt lat="36.95716337739046" lon="15.140478667958487"><ele>389.0</ele><time>2026-03-28T17:40:33Z</time></trkpt><trkpt lat="36.957076102171264" lon="15.140686632430295"><ele>389.0</ele><time>2026-03-28T17:40:34Z</time></trkpt><trkpt lat="36.95701593951052" lon="15.140831746303562"><ele>390.25</ele><time>2026-03-28T17:40:35Z</time></trkpt><trkpt lat="36.9569689180198" lon="15.140968334830191"><ele>391.5</ele><time>2026-03-28T17:40:36Z</time></trkpt><trkpt lat="36.956901719822426" lon="15.141149347161104"><ele>392.75</ele><time>2026-03-28T17:40:37Z</time></trkpt><trkpt lat="36.95683172377783" lon="15.141318805225524"><ele>394.0</ele><time>2026-03-28T17:40:38Z</time></trkpt><trkpt lat="36.95676734520435" lon="15.141474009078866"><ele>394.25</ele><time>2026-03-28T17:40:39Z</time></trkpt><trkpt lat="36.956708082356" lon="15.141613995922766"><ele>394.5</ele><time>2026-03-28T17:40:40Z</time></trkpt><trkpt lat="36.95664480416043" lon="15.141747894495747"><ele>394.75</ele><time>2026-03-28T17:40:41Z</time></trkpt><trkpt lat="36.95658843683645" lon="15.141881730504883"><ele>395.0</ele><time>2026-03-28T17:40:42Z</time></trkpt><trkpt lat="36.95654400082638" lon="15.14202642210369"><ele>396.25</ele><time>2026-03-28T17:40:43Z</time></trkpt><trkpt lat="36.956477775044" lon="15.142145058362708"><ele>397.5</ele><time>2026-03-28T17:40:44Z</time></trkpt><trkpt lat="36.95642279005291" lon="15.142257577017833"><ele>398.75</ele><time>2026-03-28T17:40:45Z</time></trkpt><trkpt lat="36.956317187721055" lon="15.142315246100432"><ele>400.0</ele><time>2026-03-28T17:40:46Z</time></trkpt><trkpt lat="36.956188303849984" lon="15.142350482684328"><ele>399.5</ele><time>2026-03-28T17:40:47Z</time></trkpt><trkpt lat="36.95607726743117" lon="15.14243449428404"><ele>399.0</ele><time>2026-03-28T17:40:48Z</time></trkpt><trkpt lat="36.9559602322866" lon="15.14251112930849"><ele>398.5</ele><time>2026-03-28T17:40:49Z</time></trkpt><trkpt lat="36.95586617572254" lon="15.142623210374493"><ele>398.0</ele><time>2026-03-28T17:40:50Z</time></trkpt><trkpt lat="36.95577927859534" lon="15.142752315745746"><ele>396.0</ele><time>2026-03-28T17:40:51Z</time></trkpt><trkpt lat="36.9557007383611" lon="15.142887538403402"><ele>394.0</ele><time>2026-03-28T17:40:52Z</time></trkpt><trkpt lat="36.9556351134877" lon="15.14301697351843"><ele>392.0</ele><time>2026-03-28T17:40:53Z</time></trkpt><trkpt lat="36.955576822827744" lon="15.143149146099866"><ele>390.0</ele><time>2026-03-28T17:40:54Z</time></trkpt><trkpt lat="36.955532250335324" lon="15.143283457710805"><ele>389.4</ele><time>2026-03-28T17:40:55Z</time></trkpt><trkpt lat="36.95549459621117" lon="15.1434124294905"><ele>388.8</ele><time>2026-03-28T17:40:56Z</time></trkpt><trkpt lat="36.95547104359448" lon="15.143527315368353"><ele>388.20000000000005</ele><time>2026-03-28T17:40:57Z</time></trkpt><trkpt lat="36.95546339252374" lon="15.143640312035885"><ele>387.6</ele><time>2026-03-28T17:40:58Z</time></trkpt><trkpt lat="36.95548131492912" lon="15.143758260299514"><ele>387.0</ele><time>2026-03-28T17:40:59Z</time></trkpt><trkpt lat="36.95552356858753" lon="15.143878289953603"><ele>387.0</ele><time>2026-03-28T17:41:00Z</time></trkpt><trkpt lat="36.955567187138" lon="15.143977632324807"><ele>387.0</ele><time>2026-03-28T17:41:01Z</time></trkpt><trkpt lat="36.95558461599144" lon="15.144079266418478"><ele>387.0</ele><time>2026-03-28T17:41:02Z</time></trkpt><trkpt lat="36.9555708175791" lon="15.144176640304446"><ele>387.0</ele><time>2026-03-28T17:41:03Z</time></trkpt><trkpt lat="36.955535593509516" lon="15.144270178925034"><ele>387.0</ele><time>2026-03-28T17:41:04Z</time></trkpt><trkpt lat="36.95548839817364" lon="15.14438001663821"><ele>387.0</ele><time>2026-03-28T17:41:05Z</time></trkpt><trkpt lat="36.95542697706276" lon="15.144504766079228"><ele>385.5</ele><time>2026-03-28T17:41:06Z</time></trkpt><trkpt lat="36.955363289461495" lon="15.144629748326308"><ele>384.0</ele><time>2026-03-28T17:41:07Z</time></trkpt><trkpt lat="36.95530345725073" lon="15.144742554952332"><ele>382.5</ele><time>2026-03-28T17:41:08Z</time></trkpt><trkpt lat="36.95523466538485" lon="15.14484646198865"><ele>381.0</ele><time>2026-03-28T17:41:09Z</time></trkpt><trkpt lat="36.95514685200287" lon="15.144955800488223"><ele>381.0</ele><time>2026-03-28T17:41:10Z</time></trkpt><trkpt lat="36.95505731179797" lon="15.14504009856132"><ele>381.0</ele><time>2026-03-28T17:41:11Z</time></trkpt><trkpt lat="36.954950419161456" lon="15.145090100020825"><ele>381.0</ele><time>2026-03-28T17:41:12Z</time></trkpt><trkpt lat="36.95483105255487" lon="15.145155484000576"><ele>381.0</ele><time>2026-03-28T17:41:13Z</time></trkpt><trkpt lat="36.954709993591464" lon="15.145238857420564"><ele>380.0</ele><time>2026-03-28T17:41:14Z</time></trkpt><trkpt lat="36.95457367099345" lon="15.145313485609286"><ele>379.0</ele><time>2026-03-28T17:41:15Z</time></trkpt><trkpt lat="36.95443063233675" lon="15.145371766631232"><ele>378.0</ele><time>2026-03-28T17:41:16Z</time></trkpt><trkpt lat="36.95430397560624" lon="15.14544070793399"><ele>377.0</ele><time>2026-03-28T17:41:17Z</time></trkpt><trkpt lat="36.9541969797288" lon="15.145499834649561"><ele>374.25</ele><time>2026-03-28T17:41:18Z</time></trkpt><trkpt lat="36.95411415330245" lon="15.145589323097038"><ele>371.5</ele><time>2026-03-28T17:41:19Z</time></trkpt><trkpt lat="36.95404799329057" lon="15.145689255486127"><ele>368.75</ele><time>2026-03-28T17:41:20Z</time></trkpt><trkpt lat="36.953996145058085" lon="15.145831832855293"><ele>366.0</ele><time>2026-03-28T17:41:21Z</time></trkpt><trkpt lat="36.953958327392115" lon="15.146007025246645"><ele>366.0</ele><time>2026-03-28T17:41:22Z</time></trkpt><trkpt lat="36.95392175608799" lon="15.146174615941469"><ele>366.0</ele><time>2026-03-28T17:41:23Z</time></trkpt><trkpt lat="36.953879787085135" lon="15.14632631890685"><ele>366.0</ele><time>2026-03-28T17:41:24Z</time></trkpt><trkpt lat="36.95383173002696" lon="15.146463722128654"><ele>366.0</ele><time>2026-03-28T17:41:25Z</time></trkpt><trkpt lat="36.9537791381348" lon="15.146597844068804"><ele>364.5</ele><time>2026-03-28T17:41:26Z</time></trkpt><trkpt lat="36.95370459555118" lon="15.146712904709721"><ele>363.0</ele><time>2026-03-28T17:41:27Z</time></trkpt><trkpt lat="36.95365675005296" lon="15.146850801878717"><ele>361.5</ele><time>2026-03-28T17:41:28Z</time></trkpt><trkpt lat="36.95361006028675" lon="15.146977269850984"><ele>360.0</ele><time>2026-03-28T17:41:29Z</time></trkpt><trkpt lat="36.95360289467441" lon="15.147103665262428"><ele>360.0</ele><time>2026-03-28T17:41:30Z</time></trkpt><trkpt lat="36.95363290801526" lon="15.147252226883309"><ele>360.0</ele><time>2026-03-28T17:41:31Z</time></trkpt><trkpt lat="36.95368402572574" lon="15.147407315025218"><ele>360.0</ele><time>2026-03-28T17:41:32Z</time></trkpt><trkpt lat="36.953723482727895" lon="15.14755528988061"><ele>360.0</ele><time>2026-03-28T17:41:33Z</time></trkpt><trkpt lat="36.95374079943899" lon="15.14770225481394"><ele>359.8</ele><time>2026-03-28T17:41:34Z</time></trkpt><trkpt lat="36.95373771187579" lon="15.147830608652976"><ele>359.6</ele><time>2026-03-28T17:41:35Z</time></trkpt><trkpt lat="36.95370833788846" lon="15.147937553140055"><ele>359.4</ele><time>2026-03-28T17:41:36Z</time></trkpt><trkpt lat="36.95363183098574" lon="15.148009195515417"><ele>359.2</ele><time>2026-03-28T17:41:37Z</time></trkpt><trkpt lat="36.95355322176395" lon="15.148106717379035"><ele>359.0</ele><time>2026-03-28T17:41:38Z</time></trkpt><trkpt lat="36.95347848631204" lon="15.148213640378787"><ele>359.5</ele><time>2026-03-28T17:41:39Z</time></trkpt><trkpt lat="36.95340287554118" lon="15.148291802083568"><ele>360.0</ele><time>2026-03-28T17:41:40Z</time></trkpt><trkpt lat="36.953364283918155" lon="15.148379970168813"><ele>360.5</ele><time>2026-03-28T17:41:41Z</time></trkpt><trkpt lat="36.9533482539115" lon="15.148467807204279"><ele>361.0</ele><time>2026-03-28T17:41:42Z</time></trkpt><trkpt lat="36.95340824784592" lon="15.148559692254649"><ele>361.5</ele><time>2026-03-28T17:41:43Z</time></trkpt><trkpt lat="36.95346760305007" lon="15.148632768489527"><ele>362.0</ele><time>2026-03-28T17:41:44Z</time></trkpt><trkpt lat="36.95351019668449" lon="15.148695728146773"><ele>362.0</ele><time>2026-03-28T17:41:45Z</time></trkpt><trkpt lat="36.95347536393028" lon="15.14882279679027"><ele>362.0</ele><time>2026-03-28T17:41:47Z</time></trkpt><trkpt lat="36.95341072680509" lon="15.148836461673945"><ele>362.0</ele><time>2026-03-28T17:41:48Z</time></trkpt><trkpt lat="36.95332581746481" lon="15.148782991339013"><ele>362.0</ele><time>2026-03-28T17:41:49Z</time></trkpt><trkpt lat="36.953229486154015" lon="15.148729180861894"><ele>362.0</ele><time>2026-03-28T17:41:50Z</time></trkpt><trkpt lat="36.9531164047875" lon="15.148672593268197"><ele>358.83333333333337</ele><time>2026-03-28T17:41:51Z</time></trkpt><trkpt lat="36.95301725491844" lon="15.148630838281127"><ele>355.6666666666667</ele><time>2026-03-28T17:41:52Z</time></trkpt><trkpt lat="36.95292824378407" lon="15.148596564837089"><ele>352.5</ele><time>2026-03-28T17:41:53Z</time></trkpt><trkpt lat="36.95286534906332" lon="15.148572479645413"><ele>349.3333333333333</ele><time>2026-03-28T17:41:54Z</time></trkpt><trkpt lat="36.95277184899092" lon="15.148536674305694"><ele>346.16666666666663</ele><time>2026-03-28T17:41:56Z</time></trkpt><trkpt lat="36.95270213458129" lon="15.148519986237474"><ele>343.0</ele><time>2026-03-28T17:41:59Z</time></trkpt><trkpt lat="36.95263433611065" lon="15.148545790310804"><ele>343.0</ele><time>2026-03-28T17:42:03Z</time></trkpt><trkpt lat="36.952718398822235" lon="15.148763698716099"><ele>343.0</ele><time>2026-03-28T17:42:23.001Z</time></trkpt><trkpt lat="36.95280656294973" lon="15.148820652151125"><ele>343.0</ele><time>2026-03-28T17:42:24.001Z</time></trkpt><trkpt lat="36.95289310152322" lon="15.148888276314082"><ele>343.0</ele><time>2026-03-28T17:42:25.001Z</time></trkpt><trkpt lat="36.95297299046604" lon="15.14896632803578"><ele>343.0</ele><time>2026-03-28T17:42:26.001Z</time></trkpt><trkpt lat="36.95303990991452" lon="15.149036976688231"><ele>343.0</ele><time>2026-03-28T17:42:27.001Z</time></trkpt><trkpt lat="36.953104794962975" lon="15.149113046829807"><ele>343.0</ele><time>2026-03-28T17:42:28.001Z</time></trkpt><trkpt lat="36.953149788977065" lon="15.149181332628148"><ele>343.0</ele><time>2026-03-28T17:42:29.001Z</time></trkpt><trkpt lat="36.95315445825231" lon="15.14931363154827"><ele>343.0</ele><time>2026-03-28T17:42:31Z</time></trkpt><trkpt lat="36.95302260031992" lon="15.149337263560525"><ele>341.25</ele><time>2026-03-28T17:42:33Z</time></trkpt><trkpt lat="36.95291247759309" lon="15.149323732568716"><ele>339.5</ele><time>2026-03-28T17:42:34Z</time></trkpt><trkpt lat="36.95276577278701" lon="15.14927612677891"><ele>337.75</ele><time>2026-03-28T17:42:35Z</time></trkpt><trkpt lat="36.9526390363371" lon="15.149258190212551"><ele>336.0</ele><time>2026-03-28T17:42:36Z</time></trkpt><trkpt lat="36.95254086285788" lon="15.149255956832341"><ele>333.3333333333333</ele><time>2026-03-28T17:42:37Z</time></trkpt><trkpt lat="36.952462999936415" lon="15.149255984067821"><ele>330.6666666666667</ele><time>2026-03-28T17:42:38Z</time></trkpt><trkpt lat="36.95238911229008" lon="15.14924909416403"><ele>328.0</ele><time>2026-03-28T17:42:39Z</time></trkpt><trkpt lat="36.95231456016575" lon="15.149248317482074"><ele>325.33333333333337</ele><time>2026-03-28T17:42:40Z</time></trkpt><trkpt lat="36.952233211896136" lon="15.149223739548264"><ele>322.6666666666667</ele><time>2026-03-28T17:42:41Z</time></trkpt><trkpt lat="36.95212673583318" lon="15.149202775443808"><ele>320.0</ele><time>2026-03-28T17:42:42Z</time></trkpt><trkpt lat="36.95200859782439" lon="15.149188902496284"><ele>320.0</ele><time>2026-03-28T17:42:43Z</time></trkpt><trkpt lat="36.951897752998235" lon="15.149154621605424"><ele>320.0</ele><time>2026-03-28T17:42:44Z</time></trkpt><trkpt lat="36.95180001109813" lon="15.14912878451865"><ele>320.0</ele><time>2026-03-28T17:42:45Z</time></trkpt><trkpt lat="36.95170142509284" lon="15.149139675217855"><ele>320.0</ele><time>2026-03-28T17:42:46Z</time></trkpt><trkpt lat="36.951607736104286" lon="15.149144733283554"><ele>320.0</ele><time>2026-03-28T17:42:47Z</time></trkpt><trkpt lat="36.95153620001035" lon="15.149237246103132"><ele>313.25</ele><time>2026-03-28T17:42:48Z</time></trkpt><trkpt lat="36.95146772613467" lon="15.149345693320402"><ele>306.5</ele><time>2026-03-28T17:42:49Z</time></trkpt><trkpt lat="36.95141713441718" lon="15.149487289654232"><ele>299.75</ele><time>2026-03-28T17:42:50Z</time></trkpt><trkpt lat="36.951395826822825" lon="15.149646766262261"><ele>293.0</ele><time>2026-03-28T17:42:51Z</time></trkpt><trkpt lat="36.951406787494676" lon="15.149790052169632"><ele>292.0</ele><time>2026-03-28T17:42:52Z</time></trkpt><trkpt lat="36.9514470149832" lon="15.149900591642592"><ele>291.0</ele><time>2026-03-28T17:42:53Z</time></trkpt><trkpt lat="36.95151406615651" lon="15.14999040518267"><ele>290.0</ele><time>2026-03-28T17:42:54Z</time></trkpt><trkpt lat="36.95160192134903" lon="15.150072067305157"><ele>289.0</ele><time>2026-03-28T17:42:55Z</time></trkpt><trkpt lat="36.95168973186984" lon="15.150150464103191"><ele>288.0</ele><time>2026-03-28T17:42:56Z</time></trkpt><trkpt lat="36.951775589570836" lon="15.150230253604004"><ele>290.4</ele><time>2026-03-28T17:42:57Z</time></trkpt><trkpt lat="36.95186277058801" lon="15.150311512765379"><ele>292.8</ele><time>2026-03-28T17:42:58Z</time></trkpt><trkpt lat="36.9519486662768" lon="15.150397834891264"><ele>295.2</ele><time>2026-03-28T17:42:59Z</time></trkpt><trkpt lat="36.952025458578284" lon="15.15047357895971"><ele>297.6</ele><time>2026-03-28T17:43:00Z</time></trkpt><trkpt lat="36.95210824473951" lon="15.150551377947743"><ele>300.0</ele><time>2026-03-28T17:43:01Z</time></trkpt><trkpt lat="36.95217680504195" lon="15.150618015886076"><ele>300.0</ele><time>2026-03-28T17:43:02Z</time></trkpt><trkpt lat="36.95223094546552" lon="15.150670016499776"><ele>300.0</ele><time>2026-03-28T17:43:03Z</time></trkpt><trkpt lat="36.952248561628856" lon="15.15078554010474"><ele>300.0</ele><time>2026-03-28T17:43:05Z</time></trkpt><trkpt lat="36.95219182850981" lon="15.15082669248411"><ele>300.0</ele><time>2026-03-28T17:43:06Z</time></trkpt><trkpt lat="36.95208997954251" lon="15.15079845198734"><ele>300.0</ele><time>2026-03-28T17:43:07Z</time></trkpt><trkpt lat="36.95196337330552" lon="15.150807187869963"><ele>296.5</ele><time>2026-03-28T17:43:08Z</time></trkpt><trkpt lat="36.95184951413376" lon="15.150832993264846"><ele>293.0</ele><time>2026-03-28T17:43:09Z</time></trkpt><trkpt lat="36.951771028459994" lon="15.150875207321965"><ele>289.5</ele><time>2026-03-28T17:43:10Z</time></trkpt><trkpt lat="36.95170141133796" lon="15.150954076229443"><ele>286.0</ele><time>2026-03-28T17:43:12Z</time></trkpt><trkpt lat="36.95175825823973" lon="15.151017285593229"><ele>282.5</ele><time>2026-03-28T17:43:13Z</time></trkpt><trkpt lat="36.95183091525728" lon="15.15104521698076"><ele>279.0</ele><time>2026-03-28T17:43:14Z</time></trkpt><trkpt lat="36.95193099255279" lon="15.15109138317416"><ele>279.0</ele><time>2026-03-28T17:43:15Z</time></trkpt><trkpt lat="36.95203613473561" lon="15.151171603753339"><ele>279.0</ele><time>2026-03-28T17:43:16Z</time></trkpt><trkpt lat="36.952115213543706" lon="15.151278891452051"><ele>279.0</ele><time>2026-03-28T17:43:17Z</time></trkpt><trkpt lat="36.95216345840091" lon="15.151412163439963"><ele>279.0</ele><time>2026-03-28T17:43:18Z</time></trkpt><trkpt lat="36.95219298737818" lon="15.151566390635393"><ele>273.75</ele><time>2026-03-28T17:43:19Z</time></trkpt><trkpt lat="36.95222706548287" lon="15.151730227307969"><ele>268.5</ele><time>2026-03-28T17:43:20Z</time></trkpt><trkpt lat="36.952271423564135" lon="15.151886873752114"><ele>263.25</ele><time>2026-03-28T17:43:21Z</time></trkpt><trkpt lat="36.95231968730604" lon="15.152012451437557"><ele>258.0</ele><time>2026-03-28T17:43:22Z</time></trkpt><trkpt lat="36.952372274088695" lon="15.152080531175212"><ele>258.0</ele><time>2026-03-28T17:43:23Z</time></trkpt><trkpt lat="36.95242567586054" lon="15.152147751064462"><ele>258.0</ele><time>2026-03-28T17:43:24Z</time></trkpt><trkpt lat="36.952461852348875" lon="15.152218336236238"><ele>258.0</ele><time>2026-03-28T17:43:25Z</time></trkpt><trkpt lat="36.95244814174937" lon="15.152305668578572"><ele>258.0</ele><time>2026-03-28T17:43:26Z</time></trkpt><trkpt lat="36.95244319647739" lon="15.152398459676233"><ele>258.0</ele><time>2026-03-28T17:43:27Z</time></trkpt><trkpt lat="36.95244351646638" lon="15.152504953078024"><ele>258.0</ele><time>2026-03-28T17:43:28Z</time></trkpt><trkpt lat="36.95248272093307" lon="15.15263080622937"><ele>258.25</ele><time>2026-03-28T17:43:29Z</time></trkpt><trkpt lat="36.95255424821378" lon="15.152758024478466"><ele>258.5</ele><time>2026-03-28T17:43:30Z</time></trkpt><trkpt lat="36.952640596943624" lon="15.152876442912468"><ele>258.75</ele><time>2026-03-28T17:43:31Z</time></trkpt><trkpt lat="36.95271976492772" lon="15.152975121387078"><ele>259.0</ele><time>2026-03-28T17:43:32Z</time></trkpt><trkpt lat="36.95278867596857" lon="15.153064048514135"><ele>259.0</ele><time>2026-03-28T17:43:33Z</time></trkpt><trkpt lat="36.95285148916786" lon="15.153149525973234"><ele>259.0</ele><time>2026-03-28T17:43:34Z</time></trkpt><trkpt lat="36.95290298529213" lon="15.153225441975673"><ele>259.0</ele><time>2026-03-28T17:43:35Z</time></trkpt><trkpt lat="36.95296043392047" lon="15.15331897667024"><ele>259.0</ele><time>2026-03-28T17:43:37Z</time></trkpt><trkpt lat="36.952996413391446" lon="15.153385467554038"><ele>259.0</ele><time>2026-03-28T17:43:39Z</time></trkpt><trkpt lat="36.952967555292" lon="15.153480737152995"><ele>259.0</ele><time>2026-03-28T17:43:42Z</time></trkpt><trkpt lat="36.952899349812284" lon="15.153484092616594"><ele>256.0</ele><time>2026-03-28T17:43:44Z</time></trkpt><trkpt lat="36.95279987252492" lon="15.15337995986341"><ele>253.0</ele><time>2026-03-28T17:43:46Z</time></trkpt><trkpt lat="36.95271473561879" lon="15.153301186217181"><ele>250.0</ele><time>2026-03-28T17:43:47Z</time></trkpt><trkpt lat="36.95259462937446" lon="15.15322069578777"><ele>247.0</ele><time>2026-03-28T17:43:48Z</time></trkpt><trkpt lat="36.95248075243482" lon="15.153144363623786"><ele>247.0</ele><time>2026-03-28T17:43:49Z</time></trkpt><trkpt lat="36.95237302275807" lon="15.15305687271411"><ele>247.0</ele><time>2026-03-28T17:43:50Z</time></trkpt><trkpt lat="36.952279927388005" lon="15.152945116886151"><ele>247.0</ele><time>2026-03-28T17:43:51Z</time></trkpt><trkpt lat="36.952180373046076" lon="15.152845983818482"><ele>247.0</ele><time>2026-03-28T17:43:52Z</time></trkpt><trkpt lat="36.95207626213681" lon="15.152753282229785"><ele>247.0</ele><time>2026-03-28T17:43:53Z</time></trkpt><trkpt lat="36.95195759391189" lon="15.152678505747772"><ele>247.0</ele><time>2026-03-28T17:43:54Z</time></trkpt><trkpt lat="36.951839817290086" lon="15.152631524067546"><ele>247.0</ele><time>2026-03-28T17:43:55Z</time></trkpt><trkpt lat="36.95174485338761" lon="15.152574881411665"><ele>247.0</ele><time>2026-03-28T17:43:56Z</time></trkpt><trkpt lat="36.95169430260542" lon="15.152482146022233"><ele>244.75</ele><time>2026-03-28T17:43:57Z</time></trkpt><trkpt lat="36.95165006501725" lon="15.152348709941899"><ele>242.5</ele><time>2026-03-28T17:43:58Z</time></trkpt><trkpt lat="36.951587613879774" lon="15.152197600710352"><ele>240.25</ele><time>2026-03-28T17:43:59Z</time></trkpt><trkpt lat="36.951525096860905" lon="15.15205940337539"><ele>238.0</ele><time>2026-03-28T17:44:00Z</time></trkpt><trkpt lat="36.95144510412395" lon="15.151925392980825"><ele>238.0</ele><time>2026-03-28T17:44:01Z</time></trkpt><trkpt lat="36.95132830005066" lon="15.151835287330245"><ele>238.0</ele><time>2026-03-28T17:44:02Z</time></trkpt><trkpt lat="36.95122054900678" lon="15.15175369390381"><ele>238.0</ele><time>2026-03-28T17:44:03Z</time></trkpt><trkpt lat="36.95110082345979" lon="15.151699963702255"><ele>238.0</ele><time>2026-03-28T17:44:04Z</time></trkpt><trkpt lat="36.950972511801815" lon="15.151623664792782"><ele>240.0</ele><time>2026-03-28T17:44:05Z</time></trkpt><trkpt lat="36.95081579039556" lon="15.151594210777198"><ele>242.0</ele><time>2026-03-28T17:44:06Z</time></trkpt><trkpt lat="36.95065185587769" lon="15.151556248412755"><ele>244.0</ele><time>2026-03-28T17:44:07Z</time></trkpt><trkpt lat="36.95048712545037" lon="15.151533925670293"><ele>244.0</ele><time>2026-03-28T17:44:08Z</time></trkpt><trkpt lat="36.950328300278116" lon="15.151501864107779"><ele>244.0</ele><time>2026-03-28T17:44:09Z</time></trkpt><trkpt lat="36.95017072258143" lon="15.151454252187628"><ele>244.0</ele><time>2026-03-28T17:44:10Z</time></trkpt><trkpt lat="36.95001273366235" lon="15.151401455846013"><ele>235.75</ele><time>2026-03-28T17:44:11Z</time></trkpt><trkpt lat="36.94986528719006" lon="15.151354407746302"><ele>227.5</ele><time>2026-03-28T17:44:12Z</time></trkpt><trkpt lat="36.94972512540152" lon="15.151307324877207"><ele>219.25</ele><time>2026-03-28T17:44:13Z</time></trkpt><trkpt lat="36.94958933553912" lon="15.151263173922455"><ele>211.0</ele><time>2026-03-28T17:44:14Z</time></trkpt><trkpt lat="36.94945217682839" lon="15.151231381878212"><ele>211.0</ele><time>2026-03-28T17:44:15Z</time></trkpt><trkpt lat="36.94930976345425" lon="15.151219757476463"><ele>211.0</ele><time>2026-03-28T17:44:16Z</time></trkpt><trkpt lat="36.9491643064587" lon="15.151227458601097"><ele>211.0</ele><time>2026-03-28T17:44:17Z</time></trkpt><trkpt lat="36.949018250280055" lon="15.151243710725417"><ele>211.0</ele><time>2026-03-28T17:44:18Z</time></trkpt><trkpt lat="36.948865171987485" lon="15.151262724192835"><ele>206.75</ele><time>2026-03-28T17:44:19Z</time></trkpt><trkpt lat="36.9487119320038" lon="15.15127514413498"><ele>202.5</ele><time>2026-03-28T17:44:20Z</time></trkpt><trkpt lat="36.9485637250627" lon="15.151273585227717"><ele>198.25</ele><time>2026-03-28T17:44:21Z</time></trkpt><trkpt lat="36.94841719726501" lon="15.151273900859138"><ele>194.0</ele><time>2026-03-28T17:44:22Z</time></trkpt><trkpt lat="36.94827054435789" lon="15.1512824473816"><ele>188.25</ele><time>2026-03-28T17:44:23Z</time></trkpt><trkpt lat="36.94812714619541" lon="15.151298500203438"><ele>182.5</ele><time>2026-03-28T17:44:24.001Z</time></trkpt><trkpt lat="36.94798313573817" lon="15.151313828395885"><ele>176.75</ele><time>2026-03-28T17:44:25.001Z</time></trkpt><trkpt lat="36.947838214389144" lon="15.151321078729069"><ele>171.0</ele><time>2026-03-28T17:44:26.001Z</time></trkpt><trkpt lat="36.947698402802594" lon="15.1513242499055"><ele>171.0</ele><time>2026-03-28T17:44:27.001Z</time></trkpt><trkpt lat="36.94756582188981" lon="15.151332265092183"><ele>171.0</ele><time>2026-03-28T17:44:28.001Z</time></trkpt><trkpt lat="36.94744390417499" lon="15.151315196384791"><ele>171.0</ele><time>2026-03-28T17:44:29.001Z</time></trkpt><trkpt lat="36.94734589361685" lon="15.151344356331276"><ele>171.0</ele><time>2026-03-28T17:44:30.001Z</time></trkpt><trkpt lat="36.94728018488815" lon="15.151338433918458"><ele>171.0</ele><time>2026-03-28T17:44:31.001Z</time></trkpt><trkpt lat="36.94727412999164" lon="15.15145485319415"><ele>168.20000000000002</ele><time>2026-03-28T17:44:33.001Z</time></trkpt><trkpt lat="36.9473249901356" lon="15.151509060145713"><ele>165.4</ele><time>2026-03-28T17:44:34.001Z</time></trkpt><trkpt lat="36.947411460662444" lon="15.151541302649314"><ele>162.6</ele><time>2026-03-28T17:44:35.001Z</time></trkpt><trkpt lat="36.94752284315617" lon="15.151571375382336"><ele>159.8</ele><time>2026-03-28T17:44:36Z</time></trkpt><trkpt lat="36.94763063240279" lon="15.151611120445695"><ele>157.0</ele><time>2026-03-28T17:44:37Z</time></trkpt><trkpt lat="36.94771789617789" lon="15.151648548466333"><ele>157.0</ele><time>2026-03-28T17:44:38Z</time></trkpt><trkpt lat="36.94778934747811" lon="15.15166896425191"><ele>157.0</ele><time>2026-03-28T17:44:39Z</time></trkpt><trkpt lat="36.947869617913156" lon="15.151699446860105"><ele>157.0</ele><time>2026-03-28T17:44:41Z</time></trkpt><trkpt lat="36.947826622785925" lon="15.15180173774833"><ele>157.0</ele><time>2026-03-28T17:44:43Z</time></trkpt><trkpt lat="36.94774624146771" lon="15.15179774990176"><ele>157.0</ele><time>2026-03-28T17:44:44Z</time></trkpt><trkpt lat="36.9476267395752" lon="15.151839878452378"><ele>154.0</ele><time>2026-03-28T17:44:45Z</time></trkpt><trkpt lat="36.9474809814623" lon="15.151869579361588"><ele>151.0</ele><time>2026-03-28T17:44:46Z</time></trkpt><trkpt lat="36.947357553878575" lon="15.151908273319856"><ele>148.0</ele><time>2026-03-28T17:44:47Z</time></trkpt><trkpt lat="36.947246598403396" lon="15.151940222498833"><ele>145.0</ele><time>2026-03-28T17:44:48Z</time></trkpt><trkpt lat="36.94714166457722" lon="15.151924330337971"><ele>145.0</ele><time>2026-03-28T17:44:49Z</time></trkpt><trkpt lat="36.947048290085206" lon="15.151884593433866"><ele>145.0</ele><time>2026-03-28T17:44:50Z</time></trkpt><trkpt lat="36.94694397969721" lon="15.1518586748043"><ele>145.0</ele><time>2026-03-28T17:44:51Z</time></trkpt><trkpt lat="36.94683177533095" lon="15.151799273720579"><ele>145.0</ele><time>2026-03-28T17:44:52Z</time></trkpt><trkpt lat="36.9467127529743" lon="15.151743744185799"><ele>142.5</ele><time>2026-03-28T17:44:53Z</time></trkpt><trkpt lat="36.946591477970706" lon="15.151691113842633"><ele>140.0</ele><time>2026-03-28T17:44:54Z</time></trkpt><trkpt lat="36.946482161856714" lon="15.151638553591207"><ele>137.5</ele><time>2026-03-28T17:44:55Z</time></trkpt><trkpt lat="36.94638661946524" lon="15.151570576357228"><ele>135.0</ele><time>2026-03-28T17:44:56Z</time></trkpt><trkpt lat="36.94628413373967" lon="15.151548952723473"><ele>135.0</ele><time>2026-03-28T17:44:57Z</time></trkpt><trkpt lat="36.94620996052018" lon="15.151506551809584"><ele>135.0</ele><time>2026-03-28T17:44:58Z</time></trkpt><trkpt lat="36.9460845737598" lon="15.151523474597125"><ele>135.0</ele><time>2026-03-28T17:45:00Z</time></trkpt><trkpt lat="36.945997317292836" lon="15.151612044727523"><ele>135.0</ele><time>2026-03-28T17:45:01Z</time></trkpt><trkpt lat="36.94589223801676" lon="15.151736673450142"><ele>132.25</ele><time>2026-03-28T17:45:02Z</time></trkpt><trkpt lat="36.94577701982195" lon="15.151850843624784"><ele>129.5</ele><time>2026-03-28T17:45:03Z</time></trkpt><trkpt lat="36.945659533964836" lon="15.15196426193475"><ele>126.75</ele><time>2026-03-28T17:45:04Z</time></trkpt><trkpt lat="36.94554189838928" lon="15.152086977321826"><ele>124.0</ele><time>2026-03-28T17:45:05Z</time></trkpt><trkpt lat="36.94541187773086" lon="15.152219881152934"><ele>124.0</ele><time>2026-03-28T17:45:06Z</time></trkpt><trkpt lat="36.9452800297605" lon="15.152347622973883"><ele>124.0</ele><time>2026-03-28T17:45:07Z</time></trkpt><trkpt lat="36.94514869384298" lon="15.152476679021657"><ele>124.0</ele><time>2026-03-28T17:45:08Z</time></trkpt><trkpt lat="36.94501722232992" lon="15.15260761954404"><ele>120.33333333333334</ele><time>2026-03-28T17:45:09Z</time></trkpt><trkpt lat="36.94489279064014" lon="15.152735383466554"><ele>116.66666666666666</ele><time>2026-03-28T17:45:10Z</time></trkpt><trkpt lat="36.94477276158321" lon="15.152859601013146"><ele>113.0</ele><time>2026-03-28T17:45:11Z</time></trkpt><trkpt lat="36.94465158699545" lon="15.152976630314383"><ele>113.0</ele><time>2026-03-28T17:45:12Z</time></trkpt><trkpt lat="36.944530073345945" lon="15.153090705396357"><ele>113.0</ele><time>2026-03-28T17:45:13Z</time></trkpt><trkpt lat="36.944412029649556" lon="15.153204548751763"><ele>113.0</ele><time>2026-03-28T17:45:14Z</time></trkpt><trkpt lat="36.94429656283704" lon="15.153319247719766"><ele>113.0</ele><time>2026-03-28T17:45:15Z</time></trkpt><trkpt lat="36.94418659471053" lon="15.153420926785191"><ele>110.75</ele><time>2026-03-28T17:45:16Z</time></trkpt><trkpt lat="36.944070943044984" lon="15.153515329847055"><ele>108.5</ele><time>2026-03-28T17:45:17Z</time></trkpt><trkpt lat="36.943952441975426" lon="15.153593570188447"><ele>106.25</ele><time>2026-03-28T17:45:18Z</time></trkpt><trkpt lat="36.94383605550148" lon="15.1536767462975"><ele>104.0</ele><time>2026-03-28T17:45:19Z</time></trkpt><trkpt lat="36.94373559719395" lon="15.153792538085522"><ele>104.0</ele><time>2026-03-28T17:45:20Z</time></trkpt><trkpt lat="36.94366171762322" lon="15.153945666092937"><ele>104.0</ele><time>2026-03-28T17:45:21Z</time></trkpt><trkpt lat="36.943613976614685" lon="15.154109000893383"><ele>104.0</ele><time>2026-03-28T17:45:22Z</time></trkpt><trkpt lat="36.94357864406908" lon="15.154275345510717"><ele>104.0</ele><time>2026-03-28T17:45:23Z</time></trkpt><trkpt lat="36.943547273524764" lon="15.154440904956743"><ele>103.25</ele><time>2026-03-28T17:45:24Z</time></trkpt><trkpt lat="36.94351098997924" lon="15.154601054509058"><ele>102.5</ele><time>2026-03-28T17:45:25Z</time></trkpt><trkpt lat="36.94347078443739" lon="15.154760596072531"><ele>101.75</ele><time>2026-03-28T17:45:26Z</time></trkpt><trkpt lat="36.94342326478916" lon="15.154913279755595"><ele>101.0</ele><time>2026-03-28T17:45:27Z</time></trkpt><trkpt lat="36.94334346800365" lon="15.155023124392349"><ele>98.0</ele><time>2026-03-28T17:45:28Z</time></trkpt><trkpt lat="36.94325564113522" lon="15.155154952400395"><ele>95.0</ele><time>2026-03-28T17:45:29Z</time></trkpt><trkpt lat="36.943142202458425" lon="15.155286241701038"><ele>92.0</ele><time>2026-03-28T17:45:30Z</time></trkpt><trkpt lat="36.943035077026494" lon="15.155423240927302"><ele>89.0</ele><time>2026-03-28T17:45:31Z</time></trkpt><trkpt lat="36.942930945375224" lon="15.155556343283552"><ele>89.0</ele><time>2026-03-28T17:45:32Z</time></trkpt><trkpt lat="36.94282127872552" lon="15.15569596756141"><ele>89.0</ele><time>2026-03-28T17:45:33Z</time></trkpt><trkpt lat="36.942718612077456" lon="15.155830362178818"><ele>89.0</ele><time>2026-03-28T17:45:34Z</time></trkpt><trkpt lat="36.942622328735276" lon="15.155958129524914"><ele>89.0</ele><time>2026-03-28T17:45:35Z</time></trkpt><trkpt lat="36.94252830319174" lon="15.156078911213744"><ele>87.0</ele><time>2026-03-28T17:45:36Z</time></trkpt><trkpt lat="36.94244125368583" lon="15.156190019877334"><ele>85.0</ele><time>2026-03-28T17:45:37Z</time></trkpt><trkpt lat="36.942361615890114" lon="15.156313888233305"><ele>83.0</ele><time>2026-03-28T17:45:38Z</time></trkpt><trkpt lat="36.942297703117056" lon="15.156455966421888"><ele>81.0</ele><time>2026-03-28T17:45:39Z</time></trkpt><trkpt lat="36.94222847579922" lon="15.156619712287052"><ele>79.33333333333333</ele><time>2026-03-28T17:45:40Z</time></trkpt><trkpt lat="36.942155249874794" lon="15.156790291037394"><ele>77.66666666666666</ele><time>2026-03-28T17:45:41Z</time></trkpt><trkpt lat="36.9420839929325" lon="15.156958914978773"><ele>76.0</ele><time>2026-03-28T17:45:42Z</time></trkpt><trkpt lat="36.94201193634928" lon="15.157130623434615"><ele>76.0</ele><time>2026-03-28T17:45:43Z</time></trkpt><trkpt lat="36.94193894465542" lon="15.157299279216334"><ele>76.0</ele><time>2026-03-28T17:45:44Z</time></trkpt><trkpt lat="36.94186724179308" lon="15.1574667899213"><ele>76.0</ele><time>2026-03-28T17:45:45Z</time></trkpt><trkpt lat="36.94179249663857" lon="15.157640462624675"><ele>75.0</ele><time>2026-03-28T17:45:46Z</time></trkpt><trkpt lat="36.941718592023044" lon="15.157820844013534"><ele>74.0</ele><time>2026-03-28T17:45:47Z</time></trkpt><trkpt lat="36.941646482256296" lon="15.157993075326976"><ele>73.0</ele><time>2026-03-28T17:45:48Z</time></trkpt><trkpt lat="36.941578060226334" lon="15.158155162418844"><ele>71.25</ele><time>2026-03-28T17:45:49Z</time></trkpt><trkpt lat="36.941518915227746" lon="15.158303415336558"><ele>69.5</ele><time>2026-03-28T17:45:50Z</time></trkpt><trkpt lat="36.94145923225077" lon="15.158440090082024"><ele>67.75</ele><time>2026-03-28T17:45:51Z</time></trkpt><trkpt lat="36.94139047644296" lon="15.158579055034203"><ele>66.0</ele><time>2026-03-28T17:45:52Z</time></trkpt><trkpt lat="36.941303355652686" lon="15.158716933203232"><ele>66.0</ele><time>2026-03-28T17:45:53Z</time></trkpt><trkpt lat="36.94121982424173" lon="15.15885175964287"><ele>66.0</ele><time>2026-03-28T17:45:54Z</time></trkpt><trkpt lat="36.94114525564871" lon="15.158998536478911"><ele>66.0</ele><time>2026-03-28T17:45:55Z</time></trkpt><trkpt lat="36.94106316973645" lon="15.159133091544707"><ele>66.0</ele><time>2026-03-28T17:45:56Z</time></trkpt><trkpt lat="36.94099461220219" lon="15.159266771999745"><ele>65.6</ele><time>2026-03-28T17:45:57Z</time></trkpt><trkpt lat="36.94092401115895" lon="15.159396627566041"><ele>65.19999999999999</ele><time>2026-03-28T17:45:58Z</time></trkpt><trkpt lat="36.940852919018354" lon="15.159516191113369"><ele>64.80000000000001</ele><time>2026-03-28T17:45:59Z</time></trkpt><trkpt lat="36.94078268442182" lon="15.159611357046085"><ele>64.4</ele><time>2026-03-28T17:46:00Z</time></trkpt><trkpt lat="36.94069986168875" lon="15.159681378081027"><ele>64.0</ele><time>2026-03-28T17:46:01Z</time></trkpt><trkpt lat="36.94060875290655" lon="15.159756757853474"><ele>63.0</ele><time>2026-03-28T17:46:02Z</time></trkpt><trkpt lat="36.940525585240565" lon="15.15982506449726"><ele>62.00000000000001</ele><time>2026-03-28T17:46:03Z</time></trkpt><trkpt lat="36.94043443560947" lon="15.15985725726766"><ele>61.00000000000001</ele><time>2026-03-28T17:46:04Z</time></trkpt><trkpt lat="36.94033423583477" lon="15.159862572158836"><ele>60.0</ele><time>2026-03-28T17:46:05Z</time></trkpt><trkpt lat="36.94023849092993" lon="15.159888322361045"><ele>59.0</ele><time>2026-03-28T17:46:06Z</time></trkpt><trkpt lat="36.940154792562" lon="15.159948338888334"><ele>58.25</ele><time>2026-03-28T17:46:07Z</time></trkpt><trkpt lat="36.94010361135183" lon="15.160080576662795"><ele>57.5</ele><time>2026-03-28T17:46:08Z</time></trkpt><trkpt lat="36.94003023431658" lon="15.160189537616176"><ele>56.75</ele><time>2026-03-28T17:46:09Z</time></trkpt><trkpt lat="36.93993634664179" lon="15.16031381760564"><ele>56.0</ele><time>2026-03-28T17:46:10Z</time></trkpt><trkpt lat="36.93988408563256" lon="15.160441291418856"><ele>55.5</ele><time>2026-03-28T17:46:11Z</time></trkpt><trkpt lat="36.93986705333107" lon="15.160568989698222"><ele>55.0</ele><time>2026-03-28T17:46:12Z</time></trkpt><trkpt lat="36.939851071905984" lon="15.160708427041113"><ele>54.5</ele><time>2026-03-28T17:46:13Z</time></trkpt><trkpt lat="36.93978931571968" lon="15.160823014123258"><ele>54.0</ele><time>2026-03-28T17:46:14Z</time></trkpt><trkpt lat="36.93968928413236" lon="15.160952287084937"><ele>53.0</ele><time>2026-03-28T17:46:15Z</time></trkpt><trkpt lat="36.939563996581285" lon="15.161118778276322"><ele>52.0</ele><time>2026-03-28T17:46:16Z</time></trkpt><trkpt lat="36.93943408269638" lon="15.161295704913499"><ele>51.0</ele><time>2026-03-28T17:46:17Z</time></trkpt><trkpt lat="36.939306491560195" lon="15.161451852160837"><ele>50.0</ele><time>2026-03-28T17:46:18Z</time></trkpt><trkpt lat="36.93919703144793" lon="15.161609055608134"><ele>49.0</ele><time>2026-03-28T17:46:19Z</time></trkpt><trkpt lat="36.93908652498772" lon="15.16174019145315"><ele>48.0</ele><time>2026-03-28T17:46:20Z</time></trkpt><trkpt lat="36.93899653447237" lon="15.161852531043097"><ele>47.0</ele><time>2026-03-28T17:46:21Z</time></trkpt><trkpt lat="36.93889881327622" lon="15.16191996714052"><ele>47.0</ele><time>2026-03-28T17:46:22Z</time></trkpt><trkpt lat="36.93880163608001" lon="15.161997963302603"><ele>47.0</ele><time>2026-03-28T17:46:23Z</time></trkpt><trkpt lat="36.93872942385963" lon="15.162113274127448"><ele>47.0</ele><time>2026-03-28T17:46:24.001Z</time></trkpt><trkpt lat="36.938655357843636" lon="15.16224092086753"><ele>47.0</ele><time>2026-03-28T17:46:25.001Z</time></trkpt><trkpt lat="36.938597357337535" lon="15.162401899767982"><ele>46.400000000000006</ele><time>2026-03-28T17:46:26.001Z</time></trkpt><trkpt lat="36.938545029840206" lon="15.162566522776967"><ele>45.800000000000004</ele><time>2026-03-28T17:46:27.001Z</time></trkpt><trkpt lat="36.938495835261605" lon="15.16269264344436"><ele>45.2</ele><time>2026-03-28T17:46:28.001Z</time></trkpt><trkpt lat="36.93844964224397" lon="15.162796465379115"><ele>44.6</ele><time>2026-03-28T17:46:29.001Z</time></trkpt><trkpt lat="36.938407055942754" lon="15.162889298312827"><ele>44.0</ele><time>2026-03-28T17:46:30.001Z</time></trkpt><trkpt lat="36.938372980068095" lon="15.162958656427794"><ele>43.666666666666664</ele><time>2026-03-28T17:46:31.001Z</time></trkpt><trkpt lat="36.93833345761322" lon="15.16303567057629"><ele>43.33333333333333</ele><time>2026-03-28T17:46:33.001Z</time></trkpt><trkpt lat="36.93828807499815" lon="15.163097149347628"><ele>43.0</ele><time>2026-03-28T17:46:36.001Z</time></trkpt><trkpt lat="36.93825364397932" lon="15.163175539975562"><ele>42.666666666666664</ele><time>2026-03-28T17:46:50Z</time></trkpt><trkpt lat="36.93815074113014" lon="15.16308995314631"><ele>42.333333333333336</ele><time>2026-03-28T17:46:53Z</time></trkpt><trkpt lat="36.93808678493536" lon="15.16302080462683"><ele>42.0</ele><time>2026-03-28T17:46:54Z</time></trkpt><trkpt lat="36.938025630784956" lon="15.162928007466096"><ele>42.0</ele><time>2026-03-28T17:46:55Z</time></trkpt><trkpt lat="36.9379564456668" lon="15.162836247951581"><ele>42.0</ele><time>2026-03-28T17:46:56Z</time></trkpt><trkpt lat="36.93788437360547" lon="15.162736961356833"><ele>42.0</ele><time>2026-03-28T17:46:57Z</time></trkpt><trkpt lat="36.93780103184932" lon="15.16262319792588"><ele>42.0</ele><time>2026-03-28T17:46:58Z</time></trkpt><trkpt lat="36.937705547459245" lon="15.162505749309936"><ele>42.0</ele><time>2026-03-28T17:46:59Z</time></trkpt><trkpt lat="36.937602475202254" lon="15.16238648819841"><ele>42.0</ele><time>2026-03-28T17:47:00Z</time></trkpt><trkpt lat="36.937506210843615" lon="15.162274662360158"><ele>42.0</ele><time>2026-03-28T17:47:01Z</time></trkpt><trkpt lat="36.93740707671248" lon="15.16215870008344"><ele>42.0</ele><time>2026-03-28T17:47:02Z</time></trkpt><trkpt lat="36.93730283254729" lon="15.162043032592598"><ele>42.2</ele><time>2026-03-28T17:47:03Z</time></trkpt><trkpt lat="36.9372018641893" lon="15.16193118904969"><ele>42.400000000000006</ele><time>2026-03-28T17:47:04Z</time></trkpt><trkpt lat="36.93711318951795" lon="15.161853611454202"><ele>42.599999999999994</ele><time>2026-03-28T17:47:06Z</time></trkpt><trkpt lat="36.93702073198019" lon="15.161775908225884"><ele>42.8</ele><time>2026-03-28T17:47:07Z</time></trkpt><trkpt lat="36.93694406294837" lon="15.161712790456058"><ele>43.0</ele><time>2026-03-28T17:47:08Z</time></trkpt><trkpt lat="36.936880031495214" lon="15.161661394843188"><ele>43.0</ele><time>2026-03-28T17:47:09Z</time></trkpt><trkpt lat="36.936824933715705" lon="15.161612090398888"><ele>43.0</ele><time>2026-03-28T17:47:10Z</time></trkpt><trkpt lat="36.9367611564906" lon="15.161555852805732"><ele>43.0</ele><time>2026-03-28T17:47:11Z</time></trkpt><trkpt lat="36.936687079590314" lon="15.161487825456007"><ele>43.0</ele><time>2026-03-28T17:47:12Z</time></trkpt><trkpt lat="36.93660124224549" lon="15.161417520944845"><ele>43.0</ele><time>2026-03-28T17:47:13Z</time></trkpt><trkpt lat="36.936505399147386" lon="15.161338567441971"><ele>42.75</ele><time>2026-03-28T17:47:14Z</time></trkpt><trkpt lat="36.93640271312223" lon="15.16124295346622"><ele>42.5</ele><time>2026-03-28T17:47:15Z</time></trkpt><trkpt lat="36.936289849072566" lon="15.161148559084443"><ele>42.25</ele><time>2026-03-28T17:47:16Z</time></trkpt><trkpt lat="36.93616450300838" lon="15.161045865965999"><ele>42.0</ele><time>2026-03-28T17:47:17Z</time></trkpt><trkpt lat="36.93603211332795" lon="15.160938229671144"><ele>42.0</ele><time>2026-03-28T17:47:18Z</time></trkpt><trkpt lat="36.935892205779325" lon="15.160824058143183"><ele>42.0</ele><time>2026-03-28T17:47:19Z</time></trkpt><trkpt lat="36.935769283111696" lon="15.160703573581035"><ele>42.0</ele><time>2026-03-28T17:47:20Z</time></trkpt><trkpt lat="36.935653039191735" lon="15.16058528022601"><ele>41.75</ele><time>2026-03-28T17:47:21Z</time></trkpt><trkpt lat="36.93554722625835" lon="15.160478694507587"><ele>41.5</ele><time>2026-03-28T17:47:22Z</time></trkpt><trkpt lat="36.93544502837029" lon="15.160395840613607"><ele>41.25</ele><time>2026-03-28T17:47:23Z</time></trkpt><trkpt lat="36.93534598360565" lon="15.16029059322717"><ele>41.0</ele><time>2026-03-28T17:47:24Z</time></trkpt><trkpt lat="36.93526490801891" lon="15.160165396423396"><ele>41.0</ele><time>2026-03-28T17:47:25Z</time></trkpt><trkpt lat="36.93519993964646" lon="15.16003673537824"><ele>41.0</ele><time>2026-03-28T17:47:26Z</time></trkpt><trkpt lat="36.93513921747476" lon="15.159927950028147"><ele>41.0</ele><time>2026-03-28T17:47:27Z</time></trkpt><trkpt lat="36.93509383926438" lon="15.159844292679978"><ele>41.0</ele><time>2026-03-28T17:47:28Z</time></trkpt><trkpt lat="36.93504558856467" lon="15.159793699606709"><ele>41.0</ele><time>2026-03-28T17:47:29Z</time></trkpt><trkpt lat="36.93492354271633" lon="15.159747081623754"><ele>40.75</ele><time>2026-03-28T17:47:31Z</time></trkpt><trkpt lat="36.93482916760303" lon="15.159797106558617"><ele>40.5</ele><time>2026-03-28T17:47:32Z</time></trkpt><trkpt lat="36.93474425478099" lon="15.159760799523076"><ele>40.25</ele><time>2026-03-28T17:47:33Z</time></trkpt><trkpt lat="36.934663250384325" lon="15.159637522952595"><ele>40.0</ele><time>2026-03-28T17:47:34Z</time></trkpt><trkpt lat="36.93454275683944" lon="15.159508895491465"><ele>40.0</ele><time>2026-03-28T17:47:35Z</time></trkpt><trkpt lat="36.934426655707675" lon="15.159390033584158"><ele>40.0</ele><time>2026-03-28T17:47:36Z</time></trkpt><trkpt lat="36.93432664477825" lon="15.159289698444578"><ele>40.0</ele><time>2026-03-28T17:47:37Z</time></trkpt><trkpt lat="36.934233862401605" lon="15.159197284759564"><ele>40.0</ele><time>2026-03-28T17:47:38Z</time></trkpt><trkpt lat="36.93414491201953" lon="15.159107254787026"><ele>40.25</ele><time>2026-03-28T17:47:39Z</time></trkpt><trkpt lat="36.93404933104445" lon="15.159015551162232"><ele>40.5</ele><time>2026-03-28T17:47:40Z</time></trkpt><trkpt lat="36.933948897855835" lon="15.158925791909699"><ele>40.75</ele><time>2026-03-28T17:47:41Z</time></trkpt><trkpt lat="36.93384269495029" lon="15.158835680296951"><ele>41.0</ele><time>2026-03-28T17:47:42Z</time></trkpt><trkpt lat="36.93373834428857" lon="15.158748431280495"><ele>41.0</ele><time>2026-03-28T17:47:43Z</time></trkpt><trkpt lat="36.933635321679525" lon="15.15865581528901"><ele>41.0</ele><time>2026-03-28T17:47:44Z</time></trkpt><trkpt lat="36.933538412866724" lon="15.158570255704891"><ele>41.0</ele><time>2026-03-28T17:47:45Z</time></trkpt><trkpt lat="36.93343554062492" lon="15.158483726879185"><ele>41.0</ele><time>2026-03-28T17:47:46Z</time></trkpt><trkpt lat="36.933340830074734" lon="15.158399106781072"><ele>40.75</ele><time>2026-03-28T17:47:47Z</time></trkpt><trkpt lat="36.93324197368345" lon="15.158312914939863"><ele>40.5</ele><time>2026-03-28T17:47:48Z</time></trkpt><trkpt lat="36.93314362309744" lon="15.158227729852202"><ele>40.25</ele><time>2026-03-28T17:47:49Z</time></trkpt><trkpt lat="36.933039849358856" lon="15.158142686303144"><ele>40.0</ele><time>2026-03-28T17:47:50Z</time></trkpt><trkpt lat="36.93293549302141" lon="15.158055428343172"><ele>40.0</ele><time>2026-03-28T17:47:51Z</time></trkpt><trkpt lat="36.93283783887156" lon="15.157974985993569"><ele>40.0</ele><time>2026-03-28T17:47:52Z</time></trkpt><trkpt lat="36.93274612178827" lon="15.15789814807261"><ele>40.0</ele><time>2026-03-28T17:47:53Z</time></trkpt><trkpt lat="36.93266227240692" lon="15.157824978757882"><ele>40.0</ele><time>2026-03-28T17:47:54Z</time></trkpt><trkpt lat="36.932592073050195" lon="15.157755429817973"><ele>40.0</ele><time>2026-03-28T17:47:55Z</time></trkpt><trkpt lat="36.93253138506345" lon="15.157690332236161"><ele>39.8</ele><time>2026-03-28T17:47:56Z</time></trkpt><trkpt lat="36.93247566353909" lon="15.15762901857045"><ele>39.6</ele><time>2026-03-28T17:47:57Z</time></trkpt><trkpt lat="36.93241747440071" lon="15.157580803722489"><ele>39.4</ele><time>2026-03-28T17:47:58Z</time></trkpt><trkpt lat="36.932376017484266" lon="15.15751634390444"><ele>39.2</ele><time>2026-03-28T17:47:59Z</time></trkpt><trkpt lat="36.93224009937793" lon="15.157452708902785"><ele>39.0</ele><time>2026-03-28T17:48:01Z</time></trkpt><trkpt lat="36.93214824700007" lon="15.157532512203488"><ele>39.0</ele><time>2026-03-28T17:48:02Z</time></trkpt><trkpt lat="36.93210131804423" lon="15.157702050247233"><ele>39.0</ele><time>2026-03-28T17:48:03Z</time></trkpt><trkpt lat="36.932026818606445" lon="15.157854213027882"><ele>39.0</ele><time>2026-03-28T17:48:04Z</time></trkpt><trkpt lat="36.93200250268832" lon="15.158085562278576"><ele>39.0</ele><time>2026-03-28T17:48:05Z</time></trkpt><trkpt lat="36.93192969426955" lon="15.158276394471597"><ele>39.0</ele><time>2026-03-28T17:48:06Z</time></trkpt><trkpt lat="36.93185516509185" lon="15.158473256255022"><ele>39.0</ele><time>2026-03-28T17:48:07Z</time></trkpt><trkpt lat="36.93179361653204" lon="15.158663164577229"><ele>39.0</ele><time>2026-03-28T17:48:08Z</time></trkpt><trkpt lat="36.931757279173404" lon="15.158874478727048"><ele>39.0</ele><time>2026-03-28T17:48:09Z</time></trkpt><trkpt lat="36.93169715959792" lon="15.159089416437451"><ele>39.0</ele><time>2026-03-28T17:48:10Z</time></trkpt><trkpt lat="36.93164757155397" lon="15.159311848993305"><ele>38.333333333333336</ele><time>2026-03-28T17:48:11Z</time></trkpt><trkpt lat="36.93160889967673" lon="15.159510660139548"><ele>37.66666666666667</ele><time>2026-03-28T17:48:12Z</time></trkpt><trkpt lat="36.931573751453335" lon="15.15970169279562"><ele>37.0</ele><time>2026-03-28T17:48:13Z</time></trkpt><trkpt lat="36.93154381976654" lon="15.159876861762578"><ele>36.75</ele><time>2026-03-28T17:48:14Z</time></trkpt><trkpt lat="36.93151470907839" lon="15.160045164227638"><ele>36.5</ele><time>2026-03-28T17:48:15Z</time></trkpt><trkpt lat="36.931483094867446" lon="15.160198744125022"><ele>36.25</ele><time>2026-03-28T17:48:16Z</time></trkpt><trkpt lat="36.93144676873895" lon="15.16033477243669"><ele>36.0</ele><time>2026-03-28T17:48:17Z</time></trkpt><trkpt lat="36.93140426390228" lon="15.16044618722132"><ele>36.0</ele><time>2026-03-28T17:48:18Z</time></trkpt><trkpt lat="36.93133428863605" lon="15.160527092356155"><ele>36.0</ele><time>2026-03-28T17:48:19Z</time></trkpt><trkpt lat="36.931265071252746" lon="15.160569800205254"><ele>36.0</ele><time>2026-03-28T17:48:20Z</time></trkpt><trkpt lat="36.931187002777456" lon="15.160571585968109"><ele>36.0</ele><time>2026-03-28T17:48:21Z</time></trkpt><trkpt lat="36.931082306443635" lon="15.160606802518435"><ele>36.0</ele><time>2026-03-28T17:48:22Z</time></trkpt><trkpt lat="36.93096624769317" lon="15.160624007008405"><ele>36.0</ele><time>2026-03-28T17:48:23Z</time></trkpt><trkpt lat="36.93085447064702" lon="15.160670077429"><ele>36.0</ele><time>2026-03-28T17:48:24Z</time></trkpt><trkpt lat="36.93076431899012" lon="15.160740532716845"><ele>36.0</ele><time>2026-03-28T17:48:25Z</time></trkpt><trkpt lat="36.93069177724605" lon="15.160835521065978"><ele>36.0</ele><time>2026-03-28T17:48:26Z</time></trkpt><trkpt lat="36.93063335517616" lon="15.160957684143998"><ele>36.0</ele><time>2026-03-28T17:48:27Z</time></trkpt><trkpt lat="36.93060907667363" lon="15.161092891763683"><ele>35.666666666666664</ele><time>2026-03-28T17:48:28Z</time></trkpt><trkpt lat="36.93060350714923" lon="15.161224518022214"><ele>35.333333333333336</ele><time>2026-03-28T17:48:29Z</time></trkpt><trkpt lat="36.93061221413946" lon="15.161348156196478"><ele>35.0</ele><time>2026-03-28T17:48:30.001Z</time></trkpt><trkpt lat="36.9306412451659" lon="15.16144959531114"><ele>34.66666666666667</ele><time>2026-03-28T17:48:31.001Z</time></trkpt><trkpt lat="36.93067860192129" lon="15.161522378814809"><ele>34.333333333333336</ele><time>2026-03-28T17:48:32.001Z</time></trkpt><trkpt lat="36.93072333071757" lon="15.161579583911038"><ele>34.0</ele><time>2026-03-28T17:48:33.001Z</time></trkpt><trkpt lat="36.93077849903484" lon="15.161651175447048"><ele>34.25</ele><time>2026-03-28T17:48:34.001Z</time></trkpt><trkpt lat="36.93085043385789" lon="15.161749115033652"><ele>34.5</ele><time>2026-03-28T17:48:35.001Z</time></trkpt><trkpt lat="36.9309061487133" lon="15.161883533614446"><ele>34.75</ele><time>2026-03-28T17:48:36.001Z</time></trkpt><trkpt lat="36.93097227829821" lon="15.16203004008269"><ele>35.0</ele><time>2026-03-28T17:48:37.001Z</time></trkpt><trkpt lat="36.93104666225484" lon="15.162190151111005"><ele>35.0</ele><time>2026-03-28T17:48:38.001Z</time></trkpt><trkpt lat="36.931077526440205" lon="15.162345720694077"><ele>35.0</ele><time>2026-03-28T17:48:39.001Z</time></trkpt><trkpt lat="36.93110177715834" lon="15.162454147039522"><ele>35.0</ele><time>2026-03-28T17:48:40.001Z</time></trkpt><trkpt lat="36.93109170973207" lon="15.162545630370266"><ele>35.0</ele><time>2026-03-28T17:48:41.001Z</time></trkpt><trkpt lat="36.93105919450715" lon="15.162625358003192"><ele>35.0</ele><time>2026-03-28T17:48:42.001Z</time></trkpt><trkpt lat="36.93097729455574" lon="15.162686363952119"><ele>34.0</ele><time>2026-03-28T17:48:43.001Z</time></trkpt><trkpt lat="36.93087954504589" lon="15.162792865000558"><ele>33.0</ele><time>2026-03-28T17:48:44.001Z</time></trkpt><trkpt lat="36.930774042905924" lon="15.162929893196372"><ele>32.0</ele><time>2026-03-28T17:48:45.001Z</time></trkpt><trkpt lat="36.93066808575369" lon="15.163051393471761"><ele>31.0</ele><time>2026-03-28T17:48:46.001Z</time></trkpt><trkpt lat="36.93058081181932" lon="15.163169541910566"><ele>30.6</ele><time>2026-03-28T17:48:47.001Z</time></trkpt><trkpt lat="36.930511534168595" lon="15.163279309830305"><ele>30.200000000000003</ele><time>2026-03-28T17:48:48Z</time></trkpt><trkpt lat="36.930441206779314" lon="15.163384435187357"><ele>29.799999999999997</ele><time>2026-03-28T17:48:49Z</time></trkpt><trkpt lat="36.930366008158025" lon="15.163464383841227"><ele>29.4</ele><time>2026-03-28T17:48:50Z</time></trkpt><trkpt lat="36.930304406396104" lon="15.163552286052443"><ele>29.0</ele><time>2026-03-28T17:48:51Z</time></trkpt><trkpt lat="36.930246933063366" lon="15.163635645799625"><ele>28.999999999999996</ele><time>2026-03-28T17:48:52Z</time></trkpt><trkpt lat="36.93018746056589" lon="15.1637222819291"><ele>29.0</ele><time>2026-03-28T17:48:53Z</time></trkpt><trkpt lat="36.93012601704839" lon="15.163811789205083"><ele>29.0</ele><time>2026-03-28T17:48:54Z</time></trkpt><trkpt lat="36.93006892384013" lon="15.163894959284208"><ele>29.0</ele><time>2026-03-28T17:48:55Z</time></trkpt><trkpt lat="36.93001301819827" lon="15.163976399353688"><ele>28.999999999999996</ele><time>2026-03-28T17:48:56Z</time></trkpt><trkpt lat="36.92995435622464" lon="15.164061854700462"><ele>29.0</ele><time>2026-03-28T17:48:57Z</time></trkpt><trkpt lat="36.929907829500465" lon="15.164154912468677"><ele>28.2</ele><time>2026-03-28T17:48:58Z</time></trkpt><trkpt lat="36.929859506737714" lon="15.164223258380437"><ele>27.4</ele><time>2026-03-28T17:48:59Z</time></trkpt><trkpt lat="36.92977988610479" lon="15.16433495579423"><ele>26.6</ele><time>2026-03-28T17:49:01Z</time></trkpt><trkpt lat="36.92970093743347" lon="15.16444306947501"><ele>25.8</ele><time>2026-03-28T17:49:03Z</time></trkpt><trkpt lat="36.929573951838094" lon="15.164473621516787"><ele>25.0</ele><time>2026-03-28T17:49:05Z</time></trkpt><trkpt lat="36.92950548425575" lon="15.164461733597454"><ele>25.000000000000004</ele><time>2026-03-28T17:49:06Z</time></trkpt><trkpt lat="36.929434969516585" lon="15.164434566208737"><ele>25.0</ele><time>2026-03-28T17:49:07Z</time></trkpt><trkpt lat="36.92937104904893" lon="15.164401478664846"><ele>25.0</ele><time>2026-03-28T17:49:08Z</time></trkpt><trkpt lat="36.92931094557712" lon="15.164370112704225"><ele>25.0</ele><time>2026-03-28T17:49:09Z</time></trkpt><trkpt lat="36.92920557569728" lon="15.164350869424304"><ele>25.000000000000004</ele><time>2026-03-28T17:49:11Z</time></trkpt><trkpt lat="36.92910918942477" lon="15.16437933347239"><ele>25.0</ele><time>2026-03-28T17:49:13Z</time></trkpt><trkpt lat="36.92904133335176" lon="15.164435428747614"><ele>24.5</ele><time>2026-03-28T17:49:15Z</time></trkpt><trkpt lat="36.928991980557925" lon="15.16450858290454"><ele>24.0</ele><time>2026-03-28T17:49:18Z</time></trkpt><trkpt lat="36.92891865665616" lon="15.164529982878301"><ele>23.5</ele><time>2026-03-28T18:01:14.001Z</time></trkpt><trkpt lat="36.92903346653266" lon="15.164770942846934"><ele>23.0</ele><time>2026-03-28T18:01:33Z</time></trkpt><trkpt lat="36.92916048840584" lon="15.164878659672931"><ele>23.0</ele><time>2026-03-28T18:01:34Z</time></trkpt><trkpt lat="36.929293717250395" lon="15.164985955356292"><ele>23.0</ele><time>2026-03-28T18:01:35Z</time></trkpt><trkpt lat="36.929414053352424" lon="15.165054416285892"><ele>23.0</ele><time>2026-03-28T18:01:36Z</time></trkpt><trkpt lat="36.92953068109356" lon="15.165146634587343"><ele>23.0</ele><time>2026-03-28T18:01:37Z</time></trkpt><trkpt lat="36.92964305014653" lon="15.165234989016472"><ele>23.0</ele><time>2026-03-28T18:01:38Z</time></trkpt><trkpt lat="36.92974434322081" lon="15.165318921258152"><ele>23.0</ele><time>2026-03-28T18:01:39Z</time></trkpt><trkpt lat="36.92984225047644" lon="15.165401154897648"><ele>23.0</ele><time>2026-03-28T18:01:40Z</time></trkpt><trkpt lat="36.92992781614653" lon="15.165494692286597"><ele>23.0</ele><time>2026-03-28T18:01:41Z</time></trkpt><trkpt lat="36.93001386611681" lon="15.165561526864254"><ele>22.833333333333336</ele><time>2026-03-28T18:01:42Z</time></trkpt><trkpt lat="36.93009013602622" lon="15.165619832894588"><ele>22.666666666666668</ele><time>2026-03-28T18:01:43Z</time></trkpt><trkpt lat="36.9301468023858" lon="15.165661248029329"><ele>22.5</ele><time>2026-03-28T18:01:44Z</time></trkpt><trkpt lat="36.93021893601915" lon="15.165713967554261"><ele>22.333333333333332</ele><time>2026-03-28T18:01:46Z</time></trkpt><trkpt lat="36.93027698624902" lon="15.16575639406365"><ele>22.166666666666664</ele><time>2026-03-28T18:01:49Z</time></trkpt><trkpt lat="36.930353040596124" lon="15.165811979125213"><ele>22.0</ele><time>2026-03-28T18:02:02Z</time></trkpt><trkpt lat="36.9304243089978" lon="15.165848614445903"><ele>22.0</ele><time>2026-03-28T18:02:04Z</time></trkpt><trkpt lat="36.930524637625474" lon="15.165687073833535"><ele>22.0</ele><time>2026-03-28T18:02:05Z</time></trkpt><trkpt lat="36.930569825812405" lon="15.16560303647274"><ele>22.0</ele><time>2026-03-28T18:02:06Z</time></trkpt><trkpt lat="36.93062588128006" lon="15.165474100428549"><ele>22.0</ele><time>2026-03-28T18:02:07Z</time></trkpt><trkpt lat="36.93070051520758" lon="15.165309008133711"><ele>22.0</ele><time>2026-03-28T18:02:08Z</time></trkpt><trkpt lat="36.93078127473472" lon="15.16514528133923"><ele>22.0</ele><time>2026-03-28T18:02:09Z</time></trkpt><trkpt lat="36.93086339960151" lon="15.164971015502555"><ele>22.0</ele><time>2026-03-28T18:02:10Z</time></trkpt><trkpt lat="36.93093913482532" lon="15.164792061230695"><ele>23.0</ele><time>2026-03-28T18:02:11Z</time></trkpt><trkpt lat="36.93099953919823" lon="15.164623858432012"><ele>24.0</ele><time>2026-03-28T18:02:12Z</time></trkpt><trkpt lat="36.93104762147104" lon="15.164472836786002"><ele>25.0</ele><time>2026-03-28T18:02:13Z</time></trkpt><trkpt lat="36.931082808759044" lon="15.164334689691755"><ele>26.0</ele><time>2026-03-28T18:02:14Z</time></trkpt><trkpt lat="36.93111021016075" lon="15.16418459802841"><ele>27.25</ele><time>2026-03-28T18:02:15Z</time></trkpt><trkpt lat="36.9311354811079" lon="15.164022393006606"><ele>28.5</ele><time>2026-03-28T18:02:16Z</time></trkpt><trkpt lat="36.931153882820915" lon="15.163862594712919"><ele>29.75</ele><time>2026-03-28T18:02:17Z</time></trkpt><trkpt lat="36.9311662338527" lon="15.16371829495754"><ele>31.0</ele><time>2026-03-28T18:02:18Z</time></trkpt><trkpt lat="36.931182691409745" lon="15.163573535621872"><ele>31.0</ele><time>2026-03-28T18:02:19Z</time></trkpt><trkpt lat="36.9311954501431" lon="15.163442360715404"><ele>31.0</ele><time>2026-03-28T18:02:20Z</time></trkpt><trkpt lat="36.93120697978317" lon="15.163327979983935"><ele>31.0</ele><time>2026-03-28T18:02:21.001Z</time></trkpt><trkpt lat="36.93121796369133" lon="15.16320611628429"><ele>31.0</ele><time>2026-03-28T18:02:22.001Z</time></trkpt><trkpt lat="36.931232296965355" lon="15.16308405770455"><ele>31.0</ele><time>2026-03-28T18:02:23.001Z</time></trkpt><trkpt lat="36.93124468607582" lon="15.162954868214754"><ele>31.200000000000003</ele><time>2026-03-28T18:02:24.001Z</time></trkpt><trkpt lat="36.931256547848356" lon="15.162818317205131"><ele>31.400000000000002</ele><time>2026-03-28T18:02:25.001Z</time></trkpt><trkpt lat="36.93126953995542" lon="15.162679012189297"><ele>31.6</ele><time>2026-03-28T18:02:26.001Z</time></trkpt><trkpt lat="36.931282809384236" lon="15.162538320609453"><ele>31.8</ele><time>2026-03-28T18:02:27.001Z</time></trkpt><trkpt lat="36.931295130566205" lon="15.162399399877549"><ele>32.0</ele><time>2026-03-28T18:02:28.001Z</time></trkpt><trkpt lat="36.93131009575755" lon="15.162259761900112"><ele>32.5</ele><time>2026-03-28T18:02:29.001Z</time></trkpt><trkpt lat="36.93132461009479" lon="15.162136069553041"><ele>33.0</ele><time>2026-03-28T18:02:30.001Z</time></trkpt><trkpt lat="36.93134045820357" lon="15.16201550601357"><ele>33.5</ele><time>2026-03-28T18:02:31.001Z</time></trkpt><trkpt lat="36.931357678388764" lon="15.161903050336734"><ele>34.0</ele><time>2026-03-28T18:02:32.001Z</time></trkpt><trkpt lat="36.93137368822558" lon="15.161811664031859"><ele>34.5</ele><time>2026-03-28T18:02:33.001Z</time></trkpt><trkpt lat="36.93138858744779" lon="15.161733880352374"><ele>35.0</ele><time>2026-03-28T18:02:34.001Z</time></trkpt><trkpt lat="36.93140856681322" lon="15.161606030441996"><ele>35.0</ele><time>2026-03-28T18:02:36.001Z</time></trkpt><trkpt lat="36.931430883654535" lon="15.16147817615545"><ele>35.0</ele><time>2026-03-28T18:02:38.001Z</time></trkpt><trkpt lat="36.93145861761643" lon="15.1613186628828"><ele>35.0</ele><time>2026-03-28T18:02:40.001Z</time></trkpt><trkpt lat="36.93147480939339" lon="15.161230298745322"><ele>35.0</ele><time>2026-03-28T18:02:41.001Z</time></trkpt><trkpt lat="36.93149130078571" lon="15.161135884187413"><ele>35.0</ele><time>2026-03-28T18:02:42.001Z</time></trkpt><trkpt lat="36.93151090151732" lon="15.161031842560254"><ele>35.0</ele><time>2026-03-28T18:02:43.001Z</time></trkpt><trkpt lat="36.93153183454342" lon="15.160917075238434"><ele>35.0</ele><time>2026-03-28T18:02:44.001Z</time></trkpt><trkpt lat="36.931552429806956" lon="15.160795202200717"><ele>35.0</ele><time>2026-03-28T18:02:45.001Z</time></trkpt><trkpt lat="36.93157239130127" lon="15.160675610666857"><ele>35.0</ele><time>2026-03-28T18:02:46.001Z</time></trkpt><trkpt lat="36.931593759173595" lon="15.160544130674234"><ele>35.0</ele><time>2026-03-28T18:02:47.001Z</time></trkpt><trkpt lat="36.9316179912142" lon="15.160407287801652"><ele>35.2</ele><time>2026-03-28T18:02:48.001Z</time></trkpt><trkpt lat="36.93164359087807" lon="15.160278517160139"><ele>35.4</ele><time>2026-03-28T18:02:49.001Z</time></trkpt><trkpt lat="36.931665965840075" lon="15.160152360496767"><ele>35.6</ele><time>2026-03-28T18:02:50.001Z</time></trkpt><trkpt lat="36.93168960094824" lon="15.160017124401692"><ele>35.8</ele><time>2026-03-28T18:02:51.001Z</time></trkpt><trkpt lat="36.931715523749126" lon="15.159877550364182"><ele>36.0</ele><time>2026-03-28T18:02:52.001Z</time></trkpt><trkpt lat="36.931741105374606" lon="15.159737634181264"><ele>36.25</ele><time>2026-03-28T18:02:53.001Z</time></trkpt><trkpt lat="36.93176774240361" lon="15.159598337469916"><ele>36.5</ele><time>2026-03-28T18:02:54.001Z</time></trkpt><trkpt lat="36.93179468187564" lon="15.159459026151822"><ele>36.75</ele><time>2026-03-28T18:02:55.001Z</time></trkpt><trkpt lat="36.93182254978762" lon="15.159318520810316"><ele>37.0</ele><time>2026-03-28T18:02:56.001Z</time></trkpt><trkpt lat="36.93185265375812" lon="15.159177738525747"><ele>37.5</ele><time>2026-03-28T18:02:57.001Z</time></trkpt><trkpt lat="36.93188878517129" lon="15.159029506247188"><ele>38.0</ele><time>2026-03-28T18:02:58.001Z</time></trkpt><trkpt lat="36.93193059642707" lon="15.158881810520228"><ele>38.5</ele><time>2026-03-28T18:02:59.001Z</time></trkpt><trkpt lat="36.93197693788832" lon="15.158735292887112"><ele>39.0</ele><time>2026-03-28T18:03:00.001Z</time></trkpt><trkpt lat="36.93202810978219" lon="15.158583068479308"><ele>39.0</ele><time>2026-03-28T18:03:01.001Z</time></trkpt><trkpt lat="36.9320822852207" lon="15.15843804039265"><ele>39.0</ele><time>2026-03-28T18:03:02.001Z</time></trkpt><trkpt lat="36.932140226603146" lon="15.158292027109962"><ele>39.0</ele><time>2026-03-28T18:03:03.001Z</time></trkpt><trkpt lat="36.93220204678112" lon="15.158142181173893"><ele>39.0</ele><time>2026-03-28T18:03:04.001Z</time></trkpt><trkpt lat="36.93226542418518" lon="15.158015293960794"><ele>39.0</ele><time>2026-03-28T18:03:05.001Z</time></trkpt><trkpt lat="36.932335053840475" lon="15.157887260823967"><ele>39.0</ele><time>2026-03-28T18:03:06.001Z</time></trkpt><trkpt lat="36.93240224455504" lon="15.15776421394187"><ele>39.0</ele><time>2026-03-28T18:03:07.001Z</time></trkpt><trkpt lat="36.9324816018442" lon="15.157638362338188"><ele>39.0</ele><time>2026-03-28T18:03:08.001Z</time></trkpt><trkpt lat="36.932564344772096" lon="15.157510077433097"><ele>39.25</ele><time>2026-03-28T18:03:09.001Z</time></trkpt><trkpt lat="36.93265688421314" lon="15.157381038792652"><ele>39.5</ele><time>2026-03-28T18:03:10.001Z</time></trkpt><trkpt lat="36.932750348737954" lon="15.157247135348365"><ele>39.75</ele><time>2026-03-28T18:03:11.001Z</time></trkpt><trkpt lat="36.932852962517906" lon="15.157123016756994"><ele>40.0</ele><time>2026-03-28T18:03:12.001Z</time></trkpt><trkpt lat="36.93295832364575" lon="15.157003423372515"><ele>40.5</ele><time>2026-03-28T18:03:13.001Z</time></trkpt><trkpt lat="36.933066507929155" lon="15.156896369915945"><ele>41.0</ele><time>2026-03-28T18:03:14.001Z</time></trkpt><trkpt lat="36.93316717711983" lon="15.156791882182622"><ele>41.5</ele><time>2026-03-28T18:03:15.001Z</time></trkpt><trkpt lat="36.93328351865278" lon="15.15669441030286"><ele>42.0</ele><time>2026-03-28T18:03:16.001Z</time></trkpt><trkpt lat="36.93339971158716" lon="15.156595458672836"><ele>42.5</ele><time>2026-03-28T18:03:17.001Z</time></trkpt><trkpt lat="36.93352376429377" lon="15.156492174904047"><ele>43.0</ele><time>2026-03-28T18:03:18.001Z</time></trkpt><trkpt lat="36.93363758153158" lon="15.156389449366635"><ele>43.5</ele><time>2026-03-28T18:03:19.001Z</time></trkpt><trkpt lat="36.93375888336224" lon="15.15628619318609"><ele>44.0</ele><time>2026-03-28T18:03:20.001Z</time></trkpt><trkpt lat="36.93387838722789" lon="15.15618216837157"><ele>44.0</ele><time>2026-03-28T18:03:21.001Z</time></trkpt><trkpt lat="36.93400519982687" lon="15.156078802715003"><ele>44.0</ele><time>2026-03-28T18:03:22.001Z</time></trkpt><trkpt lat="36.93412501571883" lon="15.155978875014698"><ele>44.0</ele><time>2026-03-28T18:03:23.001Z</time></trkpt><trkpt lat="36.93424086667376" lon="15.15588702799662"><ele>44.0</ele><time>2026-03-28T18:03:24.001Z</time></trkpt><trkpt lat="36.934354315317115" lon="15.155795234948556"><ele>44.75</ele><time>2026-03-28T18:03:25.001Z</time></trkpt><trkpt lat="36.934473227819765" lon="15.155710505612912"><ele>45.5</ele><time>2026-03-28T18:03:26.001Z</time></trkpt><trkpt lat="36.934596531897164" lon="15.155615796463099"><ele>46.25</ele><time>2026-03-28T18:03:27.001Z</time></trkpt><trkpt lat="36.934719747878034" lon="15.155518087575901"><ele>47.0</ele><time>2026-03-28T18:03:28.001Z</time></trkpt><trkpt lat="36.9348449147702" lon="15.155422466428227"><ele>47.33333333333333</ele><time>2026-03-28T18:03:29.001Z</time></trkpt><trkpt lat="36.934976383387756" lon="15.15532896775558"><ele>47.666666666666664</ele><time>2026-03-28T18:03:30.001Z</time></trkpt><trkpt lat="36.93511619278358" lon="15.155240185608664"><ele>48.0</ele><time>2026-03-28T18:03:31.001Z</time></trkpt><trkpt lat="36.93527164259209" lon="15.155170988021428"><ele>48.66666666666667</ele><time>2026-03-28T18:03:32.001Z</time></trkpt><trkpt lat="36.93543379709688" lon="15.15511769398253"><ele>49.333333333333336</ele><time>2026-03-28T18:03:33.001Z</time></trkpt><trkpt lat="36.93560902680895" lon="15.155095623369236"><ele>50.0</ele><time>2026-03-28T18:03:34.001Z</time></trkpt><trkpt lat="36.93579552533171" lon="15.155078864566917"><ele>50.66666666666667</ele><time>2026-03-28T18:03:35.001Z</time></trkpt><trkpt lat="36.935986492219726" lon="15.155089529718257"><ele>51.33333333333333</ele><time>2026-03-28T18:03:36.001Z</time></trkpt><trkpt lat="36.93618208832369" lon="15.155135313372456"><ele>52.0</ele><time>2026-03-28T18:03:37.001Z</time></trkpt><trkpt lat="36.93637757557322" lon="15.1552159132318"><ele>52.0</ele><time>2026-03-28T18:03:38.001Z</time></trkpt><trkpt lat="36.93656578105342" lon="15.155321123546578"><ele>52.0</ele><time>2026-03-28T18:03:39.001Z</time></trkpt><trkpt lat="36.93673299232449" lon="15.15544874490221"><ele>52.0</ele><time>2026-03-28T18:03:40Z</time></trkpt><trkpt lat="36.93688874953086" lon="15.155600871026637"><ele>52.33333333333333</ele><time>2026-03-28T18:03:41Z</time></trkpt><trkpt lat="36.93703511165061" lon="15.155776645314859"><ele>52.66666666666667</ele><time>2026-03-28T18:03:42Z</time></trkpt><trkpt lat="36.937171147762804" lon="15.155979789421702"><ele>53.0</ele><time>2026-03-28T18:03:43Z</time></trkpt><trkpt lat="36.937301758103175" lon="15.156206509001171"><ele>53.0</ele><time>2026-03-28T18:03:44Z</time></trkpt><trkpt lat="36.93744141973117" lon="15.156446108703765"><ele>53.0</ele><time>2026-03-28T18:03:45Z</time></trkpt><trkpt lat="36.93758839072574" lon="15.156689125360765"><ele>55.0</ele><time>2026-03-28T18:03:46Z</time></trkpt><trkpt lat="36.9377350452144" lon="15.156932987056884"><ele>57.0</ele><time>2026-03-28T18:03:47Z</time></trkpt><trkpt lat="36.93788032066837" lon="15.157174897986119"><ele>56.0</ele><time>2026-03-28T18:03:48Z</time></trkpt><trkpt lat="36.938028056880576" lon="15.157414246680169"><ele>55.0</ele><time>2026-03-28T18:03:49Z</time></trkpt><trkpt lat="36.938176279715734" lon="15.157653336290808"><ele>55.0</ele><time>2026-03-28T18:03:50Z</time></trkpt><trkpt lat="36.938328598219705" lon="15.157896510231813"><ele>55.0</ele><time>2026-03-28T18:03:51Z</time></trkpt><trkpt lat="36.93848707943212" lon="15.158140652452971"><ele>56.0</ele><time>2026-03-28T18:03:52Z</time></trkpt><trkpt lat="36.93865036608753" lon="15.158379612814338"><ele>57.0</ele><time>2026-03-28T18:03:53Z</time></trkpt><trkpt lat="36.93881554036042" lon="15.158612667757437"><ele>57.0</ele><time>2026-03-28T18:03:54Z</time></trkpt><trkpt lat="36.93898599610503" lon="15.158840637285179"><ele>57.0</ele><time>2026-03-28T18:03:55.001Z</time></trkpt><trkpt lat="36.93916453985861" lon="15.159075397054393"><ele>56.5</ele><time>2026-03-28T18:03:56.001Z</time></trkpt><trkpt lat="36.93934560153369" lon="15.159309573852134"><ele>56.0</ele><time>2026-03-28T18:03:57.001Z</time></trkpt><trkpt lat="36.93953182771524" lon="15.159541676164043"><ele>56.0</ele><time>2026-03-28T18:03:58.001Z</time></trkpt><trkpt lat="36.939722177129475" lon="15.159770326748403"><ele>56.0</ele><time>2026-03-28T18:03:59.001Z</time></trkpt><trkpt lat="36.9399161988149" lon="15.159996636851028"><ele>56.0</ele><time>2026-03-28T18:04:00.001Z</time></trkpt><trkpt lat="36.940114346527714" lon="15.160217102191085"><ele>56.0</ele><time>2026-03-28T18:04:01.001Z</time></trkpt><trkpt lat="36.94031971996155" lon="15.160434244078028"><ele>56.0</ele><time>2026-03-28T18:04:02.001Z</time></trkpt><trkpt lat="36.94052689942604" lon="15.16064510867166"><ele>56.0</ele><time>2026-03-28T18:04:03.001Z</time></trkpt><trkpt lat="36.94074193850432" lon="15.160854760006805"><ele>57.0</ele><time>2026-03-28T18:04:04.001Z</time></trkpt><trkpt lat="36.94096011791182" lon="15.161061257456181"><ele>58.0</ele><time>2026-03-28T18:04:05.001Z</time></trkpt><trkpt lat="36.94118606677742" lon="15.16126586089607"><ele>58.0</ele><time>2026-03-28T18:04:06.001Z</time></trkpt><trkpt lat="36.94141443499442" lon="15.161464142462481"><ele>58.0</ele><time>2026-03-28T18:04:07.001Z</time></trkpt><trkpt lat="36.94165208981008" lon="15.161658100269937"><ele>58.0</ele><time>2026-03-28T18:04:08.001Z</time></trkpt><trkpt lat="36.94189209046067" lon="15.161847544533464"><ele>58.0</ele><time>2026-03-28T18:04:09.001Z</time></trkpt><trkpt lat="36.94213752714611" lon="15.162033618485545"><ele>58.0</ele><time>2026-03-28T18:04:10.001Z</time></trkpt><trkpt lat="36.942386431299575" lon="15.162212159772281"><ele>58.0</ele><time>2026-03-28T18:04:11.001Z</time></trkpt><trkpt lat="36.94263784476117" lon="15.162383080099989"><ele>56.5</ele><time>2026-03-28T18:04:12.001Z</time></trkpt><trkpt lat="36.94289028651736" lon="15.162548508478404"><ele>55.0</ele><time>2026-03-28T18:04:13.001Z</time></trkpt><trkpt lat="36.94315103790282" lon="15.162707786130103"><ele>56.5</ele><time>2026-03-28T18:04:14.001Z</time></trkpt><trkpt lat="36.943410036540556" lon="15.162860473744209"><ele>58.0</ele><time>2026-03-28T18:04:15.001Z</time></trkpt><trkpt lat="36.943669678249464" lon="15.163005916340548"><ele>58.0</ele><time>2026-03-28T18:04:16.001Z</time></trkpt><trkpt lat="36.943927147452534" lon="15.163149109152178"><ele>58.0</ele><time>2026-03-28T18:04:17.001Z</time></trkpt><trkpt lat="36.94418861847686" lon="15.163290958388425"><ele>56.0</ele><time>2026-03-28T18:04:18.001Z</time></trkpt><trkpt lat="36.94444673837754" lon="15.163431777924938"><ele>54.0</ele><time>2026-03-28T18:04:19.001Z</time></trkpt><trkpt lat="36.9447058969652" lon="15.163572457016189"><ele>54.0</ele><time>2026-03-28T18:04:20.001Z</time></trkpt><trkpt lat="36.94496583471234" lon="15.163711422343622"><ele>54.0</ele><time>2026-03-28T18:04:21.001Z</time></trkpt><trkpt lat="36.94521619285439" lon="15.163850086300473"><ele>54.0</ele><time>2026-03-28T18:04:22.001Z</time></trkpt><trkpt lat="36.94546639899876" lon="15.163986627921306"><ele>54.0</ele><time>2026-03-28T18:04:23.001Z</time></trkpt><trkpt lat="36.945711235508504" lon="15.16412007084206"><ele>52.0</ele><time>2026-03-28T18:04:24.001Z</time></trkpt><trkpt lat="36.94594771392859" lon="15.164250383909241"><ele>50.0</ele><time>2026-03-28T18:04:25.001Z</time></trkpt><trkpt lat="36.94617138281677" lon="15.164378806783677"><ele>50.0</ele><time>2026-03-28T18:04:26.001Z</time></trkpt><trkpt lat="36.94638509929903" lon="15.164507790047141"><ele>50.0</ele><time>2026-03-28T18:04:27.001Z</time></trkpt><trkpt lat="36.946598341386874" lon="15.164646329422562"><ele>50.5</ele><time>2026-03-28T18:04:28.001Z</time></trkpt><trkpt lat="36.94681481364375" lon="15.164787893056257"><ele>51.0</ele><time>2026-03-28T18:04:29.001Z</time></trkpt><trkpt lat="36.94703205318337" lon="15.164931424791193"><ele>49.5</ele><time>2026-03-28T18:04:30.001Z</time></trkpt><trkpt lat="36.94724737427221" lon="15.165081446472065"><ele>48.0</ele><time>2026-03-28T18:04:31.001Z</time></trkpt><trkpt lat="36.94745915731542" lon="15.165236104847923"><ele>49.0</ele><time>2026-03-28T18:04:32.001Z</time></trkpt><trkpt lat="36.947666481325534" lon="15.16539383890189"><ele>50.0</ele><time>2026-03-28T18:04:33.001Z</time></trkpt><trkpt lat="36.94786677699077" lon="15.165549328048735"><ele>49.5</ele><time>2026-03-28T18:04:34.001Z</time></trkpt><trkpt lat="36.94806363832239" lon="15.165706460742028"><ele>49.0</ele><time>2026-03-28T18:04:35.001Z</time></trkpt><trkpt lat="36.94826365037255" lon="15.165867941114497"><ele>51.0</ele><time>2026-03-28T18:04:36.001Z</time></trkpt><trkpt lat="36.94846185406602" lon="15.166033525643908"><ele>53.0</ele><time>2026-03-28T18:04:37.001Z</time></trkpt><trkpt lat="36.94865672775294" lon="15.166200314490675"><ele>53.0</ele><time>2026-03-28T18:04:38.001Z</time></trkpt><trkpt lat="36.948848574683375" lon="15.166367531059784"><ele>53.0</ele><time>2026-03-28T18:04:39.001Z</time></trkpt><trkpt lat="36.949033362645196" lon="15.166535680993437"><ele>53.0</ele><time>2026-03-28T18:04:40.001Z</time></trkpt><trkpt lat="36.949211079572706" lon="15.166701435776925"><ele>53.0</ele><time>2026-03-28T18:04:41.001Z</time></trkpt><trkpt lat="36.94938425672966" lon="15.166864332142106"><ele>53.0</ele><time>2026-03-28T18:04:42.001Z</time></trkpt><trkpt lat="36.949555218772176" lon="15.16702793439902"><ele>53.0</ele><time>2026-03-28T18:04:43.001Z</time></trkpt><trkpt lat="36.949725087918864" lon="15.167186302150055"><ele>53.0</ele><time>2026-03-28T18:04:44.001Z</time></trkpt><trkpt lat="36.949899529843954" lon="15.167344878463556"><ele>53.0</ele><time>2026-03-28T18:04:45.001Z</time></trkpt><trkpt lat="36.95009384851912" lon="15.167512410289039"><ele>54.0</ele><time>2026-03-28T18:04:46.001Z</time></trkpt><trkpt lat="36.95030314225488" lon="15.167692742548233"><ele>55.0</ele><time>2026-03-28T18:04:47.001Z</time></trkpt><trkpt lat="36.950519259804636" lon="15.167891965671343"><ele>55.0</ele><time>2026-03-28T18:04:48.001Z</time></trkpt><trkpt lat="36.95073558379643" lon="15.168105861398033"><ele>55.0</ele><time>2026-03-28T18:04:49.001Z</time></trkpt><trkpt lat="36.95094705177829" lon="15.168312596938044"><ele>55.5</ele><time>2026-03-28T18:04:50.001Z</time></trkpt><trkpt lat="36.95115598129791" lon="15.168503321813736"><ele>56.0</ele><time>2026-03-28T18:04:51.001Z</time></trkpt><trkpt lat="36.95135666527678" lon="15.168677253135836"><ele>56.0</ele><time>2026-03-28T18:04:52.001Z</time></trkpt><trkpt lat="36.951553332230375" lon="15.168842864976844"><ele>56.0</ele><time>2026-03-28T18:04:53.001Z</time></trkpt><trkpt lat="36.95174556624285" lon="15.16899954135579"><ele>56.333333333333336</ele><time>2026-03-28T18:04:54.001Z</time></trkpt><trkpt lat="36.95193755173279" lon="15.169151431574772"><ele>56.66666666666667</ele><time>2026-03-28T18:04:55.001Z</time></trkpt><trkpt lat="36.95212458860304" lon="15.169295983742538"><ele>57.0</ele><time>2026-03-28T18:04:56.001Z</time></trkpt><trkpt lat="36.9523108476279" lon="15.169436427204754"><ele>57.0</ele><time>2026-03-28T18:04:57.001Z</time></trkpt><trkpt lat="36.95249530866329" lon="15.169572032255704"><ele>57.0</ele><time>2026-03-28T18:04:58.001Z</time></trkpt><trkpt lat="36.95266819764973" lon="15.169698416323616"><ele>57.0</ele><time>2026-03-28T18:04:59.001Z</time></trkpt><trkpt lat="36.95282676559407" lon="15.169811314166967"><ele>58.0</ele><time>2026-03-28T18:05:00.001Z</time></trkpt></trkseg></trk></gpx>